<?xml version="1.0" encoding="UTF-8" standalone="no" ?>
<gpx xmlns="http://www.topografix.com/GPX/1/1" xmlns:xsi="http://www.w3.org/2001/XMLSchema-instance" xsi:schemaLocation="http://www.topografix.com/GPX/1/1 http://www.topografix.com/GPX/1/1/gpx.xsd" version="1.1" creator="VisuGPX - https://www.visugpx.com">
  <metadata>
    <name>Gernelle, Issancourt et Rumel</name>
  </metadata>
  <trk>
    <name><![CDATA[Balade du soir]]></name>
    <desc><![CDATA[]]></desc>
    <trkseg>
      <trkpt lat="49.76809" lon="4.8163">
        <ele>234.6</ele>
        <time>2021-04-20T14:39:47Z</time>
      </trkpt>
      <trkpt lat="49.76805" lon="4.81621">
        <ele>234.35</ele>
        <time>2021-04-20T14:39:51Z</time>
      </trkpt>
      <trkpt lat="49.76804" lon="4.81613">
        <ele>234.06</ele>
        <time>2021-04-20T14:39:52Z</time>
      </trkpt>
      <trkpt lat="49.76802" lon="4.81605">
        <ele>234</ele>
        <time>2021-04-20T14:39:54Z</time>
      </trkpt>
      <trkpt lat="49.768" lon="4.81602">
        <ele>234</ele>
        <time>2021-04-20T14:39:56Z</time>
      </trkpt>
      <trkpt lat="49.76797" lon="4.81597">
        <ele>234</ele>
        <time>2021-04-20T14:39:58Z</time>
      </trkpt>
      <trkpt lat="49.76794" lon="4.81596">
        <ele>234</ele>
        <time>2021-04-20T14:40:00Z</time>
      </trkpt>
      <trkpt lat="49.76789" lon="4.81596">
        <ele>234</ele>
        <time>2021-04-20T14:40:02Z</time>
      </trkpt>
      <trkpt lat="49.76785" lon="4.81596">
        <ele>234</ele>
        <time>2021-04-20T14:40:04Z</time>
      </trkpt>
      <trkpt lat="49.76782" lon="4.81595">
        <ele>234</ele>
        <time>2021-04-20T14:40:07Z</time>
      </trkpt>
      <trkpt lat="49.76779" lon="4.81594">
        <ele>234</ele>
        <time>2021-04-20T14:40:10Z</time>
      </trkpt>
      <trkpt lat="49.76775" lon="4.81593">
        <ele>233.93</ele>
        <time>2021-04-20T14:40:13Z</time>
      </trkpt>
      <trkpt lat="49.76772" lon="4.81592">
        <ele>233.86</ele>
        <time>2021-04-20T14:40:15Z</time>
      </trkpt>
      <trkpt lat="49.76768" lon="4.81591">
        <ele>233.75</ele>
        <time>2021-04-20T14:40:17Z</time>
      </trkpt>
      <trkpt lat="49.76765" lon="4.8159">
        <ele>233.65</ele>
        <time>2021-04-20T14:40:19Z</time>
      </trkpt>
      <trkpt lat="49.76762" lon="4.8159">
        <ele>233.57</ele>
        <time>2021-04-20T14:40:21Z</time>
      </trkpt>
      <trkpt lat="49.76759" lon="4.8159">
        <ele>233.49</ele>
        <time>2021-04-20T14:40:23Z</time>
      </trkpt>
      <trkpt lat="49.76756" lon="4.81591">
        <ele>233.43</ele>
        <time>2021-04-20T14:40:26Z</time>
      </trkpt>
      <trkpt lat="49.76753" lon="4.81591">
        <ele>233.35</ele>
        <time>2021-04-20T14:40:29Z</time>
      </trkpt>
      <trkpt lat="49.76749" lon="4.8159">
        <ele>233.27</ele>
        <time>2021-04-20T14:40:32Z</time>
      </trkpt>
      <trkpt lat="49.76746" lon="4.81589">
        <ele>233.32</ele>
        <time>2021-04-20T14:40:35Z</time>
      </trkpt>
      <trkpt lat="49.76743" lon="4.81589">
        <ele>233.4</ele>
        <time>2021-04-20T14:40:38Z</time>
      </trkpt>
      <trkpt lat="49.7674" lon="4.8159">
        <ele>233.51</ele>
        <time>2021-04-20T14:40:40Z</time>
      </trkpt>
      <trkpt lat="49.76737" lon="4.81592">
        <ele>233.63</ele>
        <time>2021-04-20T14:40:42Z</time>
      </trkpt>
      <trkpt lat="49.76734" lon="4.81593">
        <ele>233.72</ele>
        <time>2021-04-20T14:40:44Z</time>
      </trkpt>
      <trkpt lat="49.7673" lon="4.81593">
        <ele>233.82</ele>
        <time>2021-04-20T14:40:46Z</time>
      </trkpt>
      <trkpt lat="49.76727" lon="4.81593">
        <ele>233.89</ele>
        <time>2021-04-20T14:40:48Z</time>
      </trkpt>
      <trkpt lat="49.76723" lon="4.81593">
        <ele>233.98</ele>
        <time>2021-04-20T14:40:50Z</time>
      </trkpt>
      <trkpt lat="49.7672" lon="4.81592">
        <ele>233.98</ele>
        <time>2021-04-20T14:40:52Z</time>
      </trkpt>
      <trkpt lat="49.76717" lon="4.81591">
        <ele>233.95</ele>
        <time>2021-04-20T14:40:54Z</time>
      </trkpt>
      <trkpt lat="49.76714" lon="4.81592">
        <ele>233.91</ele>
        <time>2021-04-20T14:40:56Z</time>
      </trkpt>
      <trkpt lat="49.7671" lon="4.81592">
        <ele>233.86</ele>
        <time>2021-04-20T14:40:59Z</time>
      </trkpt>
      <trkpt lat="49.76707" lon="4.81592">
        <ele>233.83</ele>
        <time>2021-04-20T14:41:02Z</time>
      </trkpt>
      <trkpt lat="49.76704" lon="4.81591">
        <ele>233.82</ele>
        <time>2021-04-20T14:41:04Z</time>
      </trkpt>
      <trkpt lat="49.767" lon="4.81591">
        <ele>233.78</ele>
        <time>2021-04-20T14:41:06Z</time>
      </trkpt>
      <trkpt lat="49.76697" lon="4.8159">
        <ele>233.78</ele>
        <time>2021-04-20T14:41:08Z</time>
      </trkpt>
      <trkpt lat="49.76693" lon="4.8159">
        <ele>233.67</ele>
        <time>2021-04-20T14:41:10Z</time>
      </trkpt>
      <trkpt lat="49.7669" lon="4.8159">
        <ele>233.48</ele>
        <time>2021-04-20T14:41:12Z</time>
      </trkpt>
      <trkpt lat="49.76687" lon="4.8159">
        <ele>233.29</ele>
        <time>2021-04-20T14:41:14Z</time>
      </trkpt>
      <trkpt lat="49.76683" lon="4.81592">
        <ele>232.99</ele>
        <time>2021-04-20T14:41:17Z</time>
      </trkpt>
      <trkpt lat="49.7668" lon="4.81593">
        <ele>232.79</ele>
        <time>2021-04-20T14:41:19Z</time>
      </trkpt>
      <trkpt lat="49.76676" lon="4.81594">
        <ele>232.54</ele>
        <time>2021-04-20T14:41:21Z</time>
      </trkpt>
      <trkpt lat="49.76673" lon="4.81595">
        <ele>232.36</ele>
        <time>2021-04-20T14:41:24Z</time>
      </trkpt>
      <trkpt lat="49.76671" lon="4.816">
        <ele>232.22</ele>
        <time>2021-04-20T14:41:27Z</time>
      </trkpt>
      <trkpt lat="49.76671" lon="4.81605">
        <ele>232.19</ele>
        <time>2021-04-20T14:41:30Z</time>
      </trkpt>
      <trkpt lat="49.7667" lon="4.8161">
        <ele>232.12</ele>
        <time>2021-04-20T14:41:33Z</time>
      </trkpt>
      <trkpt lat="49.76668" lon="4.81613">
        <ele>232.05</ele>
        <time>2021-04-20T14:41:36Z</time>
      </trkpt>
      <trkpt lat="49.76666" lon="4.81616">
        <ele>231.9</ele>
        <time>2021-04-20T14:41:38Z</time>
      </trkpt>
      <trkpt lat="49.76664" lon="4.81619">
        <ele>231.59</ele>
        <time>2021-04-20T14:41:40Z</time>
      </trkpt>
      <trkpt lat="49.76662" lon="4.81623">
        <ele>231.26</ele>
        <time>2021-04-20T14:41:42Z</time>
      </trkpt>
      <trkpt lat="49.7666" lon="4.81627">
        <ele>230.9</ele>
        <time>2021-04-20T14:41:44Z</time>
      </trkpt>
      <trkpt lat="49.76658" lon="4.81631">
        <ele>230.53</ele>
        <time>2021-04-20T14:41:46Z</time>
      </trkpt>
      <trkpt lat="49.76657" lon="4.81635">
        <ele>230.31</ele>
        <time>2021-04-20T14:41:48Z</time>
      </trkpt>
      <trkpt lat="49.76655" lon="4.81638">
        <ele>229.91</ele>
        <time>2021-04-20T14:41:50Z</time>
      </trkpt>
      <trkpt lat="49.76652" lon="4.81642">
        <ele>229.42</ele>
        <time>2021-04-20T14:41:53Z</time>
      </trkpt>
      <trkpt lat="49.7665" lon="4.81646">
        <ele>229.15</ele>
        <time>2021-04-20T14:41:55Z</time>
      </trkpt>
      <trkpt lat="49.76648" lon="4.81649">
        <ele>228.88</ele>
        <time>2021-04-20T14:41:57Z</time>
      </trkpt>
      <trkpt lat="49.76646" lon="4.81653">
        <ele>228.66</ele>
        <time>2021-04-20T14:41:59Z</time>
      </trkpt>
      <trkpt lat="49.76644" lon="4.81656">
        <ele>228.42</ele>
        <time>2021-04-20T14:42:01Z</time>
      </trkpt>
      <trkpt lat="49.76642" lon="4.8166">
        <ele>228.23</ele>
        <time>2021-04-20T14:42:03Z</time>
      </trkpt>
      <trkpt lat="49.7664" lon="4.81664">
        <ele>228.07</ele>
        <time>2021-04-20T14:42:05Z</time>
      </trkpt>
      <trkpt lat="49.76638" lon="4.81668">
        <ele>228.16</ele>
        <time>2021-04-20T14:42:08Z</time>
      </trkpt>
      <trkpt lat="49.76635" lon="4.81672">
        <ele>228.67</ele>
        <time>2021-04-20T14:42:11Z</time>
      </trkpt>
      <trkpt lat="49.76632" lon="4.81675">
        <ele>229.17</ele>
        <time>2021-04-20T14:42:14Z</time>
      </trkpt>
      <trkpt lat="49.7663" lon="4.81679">
        <ele>229.46</ele>
        <time>2021-04-20T14:42:17Z</time>
      </trkpt>
      <trkpt lat="49.76628" lon="4.81684">
        <ele>229.72</ele>
        <time>2021-04-20T14:42:20Z</time>
      </trkpt>
      <trkpt lat="49.76625" lon="4.81687">
        <ele>230.13</ele>
        <time>2021-04-20T14:42:23Z</time>
      </trkpt>
      <trkpt lat="49.76622" lon="4.8169">
        <ele>230.53</ele>
        <time>2021-04-20T14:42:26Z</time>
      </trkpt>
      <trkpt lat="49.7662" lon="4.81694">
        <ele>230.73</ele>
        <time>2021-04-20T14:42:29Z</time>
      </trkpt>
      <trkpt lat="49.76617" lon="4.81698">
        <ele>231.15</ele>
        <time>2021-04-20T14:42:32Z</time>
      </trkpt>
      <trkpt lat="49.76615" lon="4.81703">
        <ele>231.44</ele>
        <time>2021-04-20T14:42:35Z</time>
      </trkpt>
      <trkpt lat="49.76614" lon="4.81707">
        <ele>231.58</ele>
        <time>2021-04-20T14:42:38Z</time>
      </trkpt>
      <trkpt lat="49.76612" lon="4.81712">
        <ele>231.87</ele>
        <time>2021-04-20T14:42:41Z</time>
      </trkpt>
      <trkpt lat="49.7661" lon="4.81717">
        <ele>232.14</ele>
        <time>2021-04-20T14:42:44Z</time>
      </trkpt>
      <trkpt lat="49.76608" lon="4.81721">
        <ele>232.44</ele>
        <time>2021-04-20T14:42:46Z</time>
      </trkpt>
      <trkpt lat="49.76606" lon="4.81724">
        <ele>232.89</ele>
        <time>2021-04-20T14:42:49Z</time>
      </trkpt>
      <trkpt lat="49.76604" lon="4.81729">
        <ele>233.64</ele>
        <time>2021-04-20T14:42:53Z</time>
      </trkpt>
      <trkpt lat="49.76602" lon="4.81733">
        <ele>234.34</ele>
        <time>2021-04-20T14:42:56Z</time>
      </trkpt>
      <trkpt lat="49.766" lon="4.81737">
        <ele>235.09</ele>
        <time>2021-04-20T14:42:58Z</time>
      </trkpt>
      <trkpt lat="49.76597" lon="4.8174">
        <ele>235.96</ele>
        <time>2021-04-20T14:43:00Z</time>
      </trkpt>
      <trkpt lat="49.76595" lon="4.81744">
        <ele>236.8</ele>
        <time>2021-04-20T14:43:03Z</time>
      </trkpt>
      <trkpt lat="49.76594" lon="4.81748">
        <ele>237.46</ele>
        <time>2021-04-20T14:43:06Z</time>
      </trkpt>
      <trkpt lat="49.76592" lon="4.81753">
        <ele>238.34</ele>
        <time>2021-04-20T14:43:09Z</time>
      </trkpt>
      <trkpt lat="49.7659" lon="4.81758">
        <ele>239.14</ele>
        <time>2021-04-20T14:43:12Z</time>
      </trkpt>
      <trkpt lat="49.76589" lon="4.81762">
        <ele>239.64</ele>
        <time>2021-04-20T14:43:14Z</time>
      </trkpt>
      <trkpt lat="49.76587" lon="4.81765">
        <ele>240.29</ele>
        <time>2021-04-20T14:43:16Z</time>
      </trkpt>
      <trkpt lat="49.76585" lon="4.8177">
        <ele>241.08</ele>
        <time>2021-04-20T14:43:19Z</time>
      </trkpt>
      <trkpt lat="49.76584" lon="4.81774">
        <ele>241.58</ele>
        <time>2021-04-20T14:43:22Z</time>
      </trkpt>
      <trkpt lat="49.76583" lon="4.81778">
        <ele>242</ele>
        <time>2021-04-20T14:43:25Z</time>
      </trkpt>
      <trkpt lat="49.76581" lon="4.81782">
        <ele>241.93</ele>
        <time>2021-04-20T14:43:28Z</time>
      </trkpt>
      <trkpt lat="49.76579" lon="4.81787">
        <ele>241.82</ele>
        <time>2021-04-20T14:43:31Z</time>
      </trkpt>
      <trkpt lat="49.76577" lon="4.8179">
        <ele>241.79</ele>
        <time>2021-04-20T14:43:33Z</time>
      </trkpt>
      <trkpt lat="49.76575" lon="4.81794">
        <ele>241.72</ele>
        <time>2021-04-20T14:43:36Z</time>
      </trkpt>
      <trkpt lat="49.76573" lon="4.81798">
        <ele>241.64</ele>
        <time>2021-04-20T14:43:39Z</time>
      </trkpt>
      <trkpt lat="49.7657" lon="4.81802">
        <ele>241.61</ele>
        <time>2021-04-20T14:43:42Z</time>
      </trkpt>
      <trkpt lat="49.76568" lon="4.81805">
        <ele>241.57</ele>
        <time>2021-04-20T14:43:46Z</time>
      </trkpt>
      <trkpt lat="49.76566" lon="4.8181">
        <ele>241.62</ele>
        <time>2021-04-20T14:43:50Z</time>
      </trkpt>
      <trkpt lat="49.76564" lon="4.81814">
        <ele>241.7</ele>
        <time>2021-04-20T14:43:53Z</time>
      </trkpt>
      <trkpt lat="49.76563" lon="4.81818">
        <ele>241.73</ele>
        <time>2021-04-20T14:43:56Z</time>
      </trkpt>
      <trkpt lat="49.7656" lon="4.81823">
        <ele>241.84</ele>
        <time>2021-04-20T14:43:59Z</time>
      </trkpt>
      <trkpt lat="49.76557" lon="4.81827">
        <ele>241.95</ele>
        <time>2021-04-20T14:44:02Z</time>
      </trkpt>
      <trkpt lat="49.76554" lon="4.8183">
        <ele>242</ele>
        <time>2021-04-20T14:44:05Z</time>
      </trkpt>
      <trkpt lat="49.76552" lon="4.81833">
        <ele>242</ele>
        <time>2021-04-20T14:44:08Z</time>
      </trkpt>
      <trkpt lat="49.76549" lon="4.81835">
        <ele>242.01</ele>
        <time>2021-04-20T14:44:13Z</time>
      </trkpt>
      <trkpt lat="49.76545" lon="4.81836">
        <ele>242.04</ele>
        <time>2021-04-20T14:44:16Z</time>
      </trkpt>
      <trkpt lat="49.76542" lon="4.81836">
        <ele>242.05</ele>
        <time>2021-04-20T14:44:18Z</time>
      </trkpt>
      <trkpt lat="49.7654" lon="4.81837">
        <ele>242.07</ele>
        <time>2021-04-20T14:44:20Z</time>
      </trkpt>
      <trkpt lat="49.76536" lon="4.81838">
        <ele>242.12</ele>
        <time>2021-04-20T14:44:23Z</time>
      </trkpt>
      <trkpt lat="49.76533" lon="4.81838">
        <ele>242.14</ele>
        <time>2021-04-20T14:44:25Z</time>
      </trkpt>
      <trkpt lat="49.76529" lon="4.81838">
        <ele>242.16</ele>
        <time>2021-04-20T14:44:28Z</time>
      </trkpt>
      <trkpt lat="49.76525" lon="4.81837">
        <ele>242.22</ele>
        <time>2021-04-20T14:44:31Z</time>
      </trkpt>
      <trkpt lat="49.76521" lon="4.81837">
        <ele>242.34</ele>
        <time>2021-04-20T14:44:34Z</time>
      </trkpt>
      <trkpt lat="49.76517" lon="4.81837">
        <ele>242.47</ele>
        <time>2021-04-20T14:44:37Z</time>
      </trkpt>
      <trkpt lat="49.76514" lon="4.81836">
        <ele>242.54</ele>
        <time>2021-04-20T14:44:39Z</time>
      </trkpt>
      <trkpt lat="49.76511" lon="4.81835">
        <ele>242.63</ele>
        <time>2021-04-20T14:44:41Z</time>
      </trkpt>
      <trkpt lat="49.76507" lon="4.81833">
        <ele>242.76</ele>
        <time>2021-04-20T14:44:44Z</time>
      </trkpt>
      <trkpt lat="49.76504" lon="4.81831">
        <ele>242.93</ele>
        <time>2021-04-20T14:44:47Z</time>
      </trkpt>
      <trkpt lat="49.76501" lon="4.81831">
        <ele>243.04</ele>
        <time>2021-04-20T14:44:50Z</time>
      </trkpt>
      <trkpt lat="49.76497" lon="4.8183">
        <ele>243.24</ele>
        <time>2021-04-20T14:44:53Z</time>
      </trkpt>
      <trkpt lat="49.76494" lon="4.8183">
        <ele>243.36</ele>
        <time>2021-04-20T14:44:55Z</time>
      </trkpt>
      <trkpt lat="49.76491" lon="4.81827">
        <ele>243.63</ele>
        <time>2021-04-20T14:44:58Z</time>
      </trkpt>
      <trkpt lat="49.76489" lon="4.81823">
        <ele>243.92</ele>
        <time>2021-04-20T14:45:01Z</time>
      </trkpt>
      <trkpt lat="49.76488" lon="4.81817">
        <ele>244.27</ele>
        <time>2021-04-20T14:45:04Z</time>
      </trkpt>
      <trkpt lat="49.76487" lon="4.81813">
        <ele>244.54</ele>
        <time>2021-04-20T14:45:06Z</time>
      </trkpt>
      <trkpt lat="49.76486" lon="4.81807">
        <ele>244.93</ele>
        <time>2021-04-20T14:45:08Z</time>
      </trkpt>
      <trkpt lat="49.76484" lon="4.81801">
        <ele>245.41</ele>
        <time>2021-04-20T14:45:11Z</time>
      </trkpt>
      <trkpt lat="49.76483" lon="4.81796">
        <ele>245.78</ele>
        <time>2021-04-20T14:45:13Z</time>
      </trkpt>
      <trkpt lat="49.76481" lon="4.81792">
        <ele>246.19</ele>
        <time>2021-04-20T14:45:15Z</time>
      </trkpt>
      <trkpt lat="49.7648" lon="4.81788">
        <ele>246.53</ele>
        <time>2021-04-20T14:45:17Z</time>
      </trkpt>
      <trkpt lat="49.76478" lon="4.81782">
        <ele>247.1</ele>
        <time>2021-04-20T14:45:19Z</time>
      </trkpt>
      <trkpt lat="49.76478" lon="4.81777">
        <ele>247.43</ele>
        <time>2021-04-20T14:45:21Z</time>
      </trkpt>
      <trkpt lat="49.76477" lon="4.81773">
        <ele>247.8</ele>
        <time>2021-04-20T14:45:23Z</time>
      </trkpt>
      <trkpt lat="49.76475" lon="4.81767">
        <ele>248.44</ele>
        <time>2021-04-20T14:45:25Z</time>
      </trkpt>
      <trkpt lat="49.76474" lon="4.81762">
        <ele>248.91</ele>
        <time>2021-04-20T14:45:27Z</time>
      </trkpt>
      <trkpt lat="49.76472" lon="4.81758">
        <ele>249.46</ele>
        <time>2021-04-20T14:45:29Z</time>
      </trkpt>
      <trkpt lat="49.7647" lon="4.81753">
        <ele>250.18</ele>
        <time>2021-04-20T14:45:31Z</time>
      </trkpt>
      <trkpt lat="49.76469" lon="4.81749">
        <ele>250.62</ele>
        <time>2021-04-20T14:45:34Z</time>
      </trkpt>
      <trkpt lat="49.76468" lon="4.81744">
        <ele>251.01</ele>
        <time>2021-04-20T14:45:37Z</time>
      </trkpt>
      <trkpt lat="49.76467" lon="4.8174">
        <ele>251.37</ele>
        <time>2021-04-20T14:45:40Z</time>
      </trkpt>
      <trkpt lat="49.76465" lon="4.81734">
        <ele>252.03</ele>
        <time>2021-04-20T14:45:43Z</time>
      </trkpt>
      <trkpt lat="49.76464" lon="4.81728">
        <ele>252.51</ele>
        <time>2021-04-20T14:45:46Z</time>
      </trkpt>
      <trkpt lat="49.76463" lon="4.81723">
        <ele>252.95</ele>
        <time>2021-04-20T14:45:49Z</time>
      </trkpt>
      <trkpt lat="49.76463" lon="4.81717">
        <ele>253.12</ele>
        <time>2021-04-20T14:45:52Z</time>
      </trkpt>
      <trkpt lat="49.76462" lon="4.81711">
        <ele>253.51</ele>
        <time>2021-04-20T14:45:55Z</time>
      </trkpt>
      <trkpt lat="49.76461" lon="4.81706">
        <ele>253.9</ele>
        <time>2021-04-20T14:45:57Z</time>
      </trkpt>
      <trkpt lat="49.76461" lon="4.81702">
        <ele>254.01</ele>
        <time>2021-04-20T14:45:59Z</time>
      </trkpt>
      <trkpt lat="49.7646" lon="4.81697">
        <ele>254.44</ele>
        <time>2021-04-20T14:46:01Z</time>
      </trkpt>
      <trkpt lat="49.7646" lon="4.81693">
        <ele>254.54</ele>
        <time>2021-04-20T14:46:03Z</time>
      </trkpt>
      <trkpt lat="49.76459" lon="4.81689">
        <ele>254.9</ele>
        <time>2021-04-20T14:46:05Z</time>
      </trkpt>
      <trkpt lat="49.76457" lon="4.81684">
        <ele>255.59</ele>
        <time>2021-04-20T14:46:07Z</time>
      </trkpt>
      <trkpt lat="49.76457" lon="4.81679">
        <ele>255.69</ele>
        <time>2021-04-20T14:46:10Z</time>
      </trkpt>
      <trkpt lat="49.76457" lon="4.81675">
        <ele>255.77</ele>
        <time>2021-04-20T14:46:16Z</time>
      </trkpt>
      <trkpt lat="49.76454" lon="4.81673">
        <ele>256.75</ele>
        <time>2021-04-20T14:46:28Z</time>
      </trkpt>
      <trkpt lat="49.76451" lon="4.81674">
        <ele>257.67</ele>
        <time>2021-04-20T14:46:32Z</time>
      </trkpt>
      <trkpt lat="49.7645" lon="4.81666">
        <ele>258.22</ele>
        <time>2021-04-20T14:46:37Z</time>
      </trkpt>
      <trkpt lat="49.7645" lon="4.81662">
        <ele>258.37</ele>
        <time>2021-04-20T14:46:38Z</time>
      </trkpt>
      <trkpt lat="49.7645" lon="4.81657">
        <ele>258.55</ele>
        <time>2021-04-20T14:46:39Z</time>
      </trkpt>
      <trkpt lat="49.7645" lon="4.81652">
        <ele>258.73</ele>
        <time>2021-04-20T14:46:40Z</time>
      </trkpt>
      <trkpt lat="49.76449" lon="4.81648">
        <ele>259.2</ele>
        <time>2021-04-20T14:46:41Z</time>
      </trkpt>
      <trkpt lat="49.76448" lon="4.81643">
        <ele>259.7</ele>
        <time>2021-04-20T14:46:42Z</time>
      </trkpt>
      <trkpt lat="49.76447" lon="4.81638">
        <ele>260.15</ele>
        <time>2021-04-20T14:46:43Z</time>
      </trkpt>
      <trkpt lat="49.76445" lon="4.81632">
        <ele>260.58</ele>
        <time>2021-04-20T14:46:45Z</time>
      </trkpt>
      <trkpt lat="49.76444" lon="4.81626">
        <ele>260.6</ele>
        <time>2021-04-20T14:46:47Z</time>
      </trkpt>
      <trkpt lat="49.76444" lon="4.81621">
        <ele>260.42</ele>
        <time>2021-04-20T14:46:49Z</time>
      </trkpt>
      <trkpt lat="49.76443" lon="4.81616">
        <ele>260.42</ele>
        <time>2021-04-20T14:46:51Z</time>
      </trkpt>
      <trkpt lat="49.76443" lon="4.81611">
        <ele>260.26</ele>
        <time>2021-04-20T14:46:53Z</time>
      </trkpt>
      <trkpt lat="49.76443" lon="4.81607">
        <ele>260.1</ele>
        <time>2021-04-20T14:46:55Z</time>
      </trkpt>
      <trkpt lat="49.76442" lon="4.81602">
        <ele>260.05</ele>
        <time>2021-04-20T14:46:59Z</time>
      </trkpt>
      <trkpt lat="49.76441" lon="4.81598">
        <ele>260.03</ele>
        <time>2021-04-20T14:47:02Z</time>
      </trkpt>
      <trkpt lat="49.76439" lon="4.81594">
        <ele>260.12</ele>
        <time>2021-04-20T14:47:06Z</time>
      </trkpt>
      <trkpt lat="49.76438" lon="4.8159">
        <ele>260.05</ele>
        <time>2021-04-20T14:47:09Z</time>
      </trkpt>
      <trkpt lat="49.76436" lon="4.81586">
        <ele>260.07</ele>
        <time>2021-04-20T14:47:12Z</time>
      </trkpt>
      <trkpt lat="49.76435" lon="4.8158">
        <ele>259.82</ele>
        <time>2021-04-20T14:47:14Z</time>
      </trkpt>
      <trkpt lat="49.76435" lon="4.81576">
        <ele>259.58</ele>
        <time>2021-04-20T14:47:16Z</time>
      </trkpt>
      <trkpt lat="49.76434" lon="4.81571">
        <ele>259.35</ele>
        <time>2021-04-20T14:47:19Z</time>
      </trkpt>
      <trkpt lat="49.76434" lon="4.81566">
        <ele>259.03</ele>
        <time>2021-04-20T14:47:22Z</time>
      </trkpt>
      <trkpt lat="49.76432" lon="4.8156">
        <ele>258.75</ele>
        <time>2021-04-20T14:47:25Z</time>
      </trkpt>
      <trkpt lat="49.7643" lon="4.81555">
        <ele>258.53</ele>
        <time>2021-04-20T14:47:28Z</time>
      </trkpt>
      <trkpt lat="49.76428" lon="4.8155">
        <ele>258.71</ele>
        <time>2021-04-20T14:47:31Z</time>
      </trkpt>
      <trkpt lat="49.76427" lon="4.81547">
        <ele>258.82</ele>
        <time>2021-04-20T14:47:34Z</time>
      </trkpt>
      <trkpt lat="49.76425" lon="4.81543">
        <ele>259.02</ele>
        <time>2021-04-20T14:47:39Z</time>
      </trkpt>
      <trkpt lat="49.76422" lon="4.81538">
        <ele>259.32</ele>
        <time>2021-04-20T14:47:42Z</time>
      </trkpt>
      <trkpt lat="49.76419" lon="4.81534">
        <ele>259.63</ele>
        <time>2021-04-20T14:47:45Z</time>
      </trkpt>
      <trkpt lat="49.76418" lon="4.81529">
        <ele>259.86</ele>
        <time>2021-04-20T14:47:48Z</time>
      </trkpt>
      <trkpt lat="49.76415" lon="4.81525">
        <ele>260.54</ele>
        <time>2021-04-20T14:47:51Z</time>
      </trkpt>
      <trkpt lat="49.76413" lon="4.81523">
        <ele>261.07</ele>
        <time>2021-04-20T14:47:54Z</time>
      </trkpt>
      <trkpt lat="49.7641" lon="4.81519">
        <ele>261.84</ele>
        <time>2021-04-20T14:47:57Z</time>
      </trkpt>
      <trkpt lat="49.76408" lon="4.81514">
        <ele>262.4</ele>
        <time>2021-04-20T14:48:00Z</time>
      </trkpt>
      <trkpt lat="49.76406" lon="4.81511">
        <ele>262.82</ele>
        <time>2021-04-20T14:48:03Z</time>
      </trkpt>
      <trkpt lat="49.76404" lon="4.81506">
        <ele>263.23</ele>
        <time>2021-04-20T14:48:06Z</time>
      </trkpt>
      <trkpt lat="49.76402" lon="4.81502">
        <ele>263.55</ele>
        <time>2021-04-20T14:48:10Z</time>
      </trkpt>
      <trkpt lat="49.764" lon="4.81497">
        <ele>263.8</ele>
        <time>2021-04-20T14:48:13Z</time>
      </trkpt>
      <trkpt lat="49.76398" lon="4.81493">
        <ele>264.02</ele>
        <time>2021-04-20T14:48:16Z</time>
      </trkpt>
      <trkpt lat="49.76396" lon="4.8149">
        <ele>264.23</ele>
        <time>2021-04-20T14:48:18Z</time>
      </trkpt>
      <trkpt lat="49.76393" lon="4.81488">
        <ele>264.56</ele>
        <time>2021-04-20T14:48:20Z</time>
      </trkpt>
      <trkpt lat="49.76391" lon="4.81486">
        <ele>264.77</ele>
        <time>2021-04-20T14:48:22Z</time>
      </trkpt>
      <trkpt lat="49.76387" lon="4.81485">
        <ele>265.37</ele>
        <time>2021-04-20T14:48:25Z</time>
      </trkpt>
      <trkpt lat="49.76384" lon="4.81482">
        <ele>265.89</ele>
        <time>2021-04-20T14:48:28Z</time>
      </trkpt>
      <trkpt lat="49.7638" lon="4.81481">
        <ele>266.58</ele>
        <time>2021-04-20T14:48:30Z</time>
      </trkpt>
      <trkpt lat="49.76378" lon="4.81479">
        <ele>266.85</ele>
        <time>2021-04-20T14:48:32Z</time>
      </trkpt>
      <trkpt lat="49.76375" lon="4.81477">
        <ele>267.26</ele>
        <time>2021-04-20T14:48:34Z</time>
      </trkpt>
      <trkpt lat="49.76372" lon="4.81476">
        <ele>267.68</ele>
        <time>2021-04-20T14:48:37Z</time>
      </trkpt>
      <trkpt lat="49.76369" lon="4.81475">
        <ele>268.08</ele>
        <time>2021-04-20T14:48:40Z</time>
      </trkpt>
      <trkpt lat="49.76366" lon="4.81474">
        <ele>268.45</ele>
        <time>2021-04-20T14:48:43Z</time>
      </trkpt>
      <trkpt lat="49.76363" lon="4.81473">
        <ele>268.81</ele>
        <time>2021-04-20T14:48:46Z</time>
      </trkpt>
      <trkpt lat="49.76359" lon="4.81473">
        <ele>269.53</ele>
        <time>2021-04-20T14:48:48Z</time>
      </trkpt>
      <trkpt lat="49.76356" lon="4.81472">
        <ele>270.1</ele>
        <time>2021-04-20T14:48:50Z</time>
      </trkpt>
      <trkpt lat="49.76353" lon="4.81471">
        <ele>270.75</ele>
        <time>2021-04-20T14:48:53Z</time>
      </trkpt>
      <trkpt lat="49.76349" lon="4.81471">
        <ele>271.62</ele>
        <time>2021-04-20T14:48:56Z</time>
      </trkpt>
      <trkpt lat="49.76345" lon="4.81472">
        <ele>272.48</ele>
        <time>2021-04-20T14:48:59Z</time>
      </trkpt>
      <trkpt lat="49.76342" lon="4.81472">
        <ele>273.13</ele>
        <time>2021-04-20T14:49:02Z</time>
      </trkpt>
      <trkpt lat="49.76339" lon="4.81471">
        <ele>273.78</ele>
        <time>2021-04-20T14:49:05Z</time>
      </trkpt>
      <trkpt lat="49.76335" lon="4.81471">
        <ele>274.64</ele>
        <time>2021-04-20T14:49:08Z</time>
      </trkpt>
      <trkpt lat="49.76331" lon="4.81471">
        <ele>275.09</ele>
        <time>2021-04-20T14:49:11Z</time>
      </trkpt>
      <trkpt lat="49.76328" lon="4.81471">
        <ele>275.2</ele>
        <time>2021-04-20T14:49:14Z</time>
      </trkpt>
      <trkpt lat="49.76325" lon="4.81471">
        <ele>275.31</ele>
        <time>2021-04-20T14:49:17Z</time>
      </trkpt>
      <trkpt lat="49.76322" lon="4.81471">
        <ele>275.43</ele>
        <time>2021-04-20T14:49:19Z</time>
      </trkpt>
      <trkpt lat="49.76319" lon="4.81471">
        <ele>275.54</ele>
        <time>2021-04-20T14:49:21Z</time>
      </trkpt>
      <trkpt lat="49.76315" lon="4.81472">
        <ele>275.67</ele>
        <time>2021-04-20T14:49:24Z</time>
      </trkpt>
      <trkpt lat="49.76311" lon="4.81472">
        <ele>275.81</ele>
        <time>2021-04-20T14:49:27Z</time>
      </trkpt>
      <trkpt lat="49.76308" lon="4.81473">
        <ele>275.83</ele>
        <time>2021-04-20T14:49:31Z</time>
      </trkpt>
      <trkpt lat="49.76305" lon="4.81473">
        <ele>275.84</ele>
        <time>2021-04-20T14:49:34Z</time>
      </trkpt>
      <trkpt lat="49.76302" lon="4.81472">
        <ele>275.5</ele>
        <time>2021-04-20T14:49:36Z</time>
      </trkpt>
      <trkpt lat="49.76299" lon="4.81472">
        <ele>275.06</ele>
        <time>2021-04-20T14:49:38Z</time>
      </trkpt>
      <trkpt lat="49.76296" lon="4.81472">
        <ele>274.63</ele>
        <time>2021-04-20T14:49:40Z</time>
      </trkpt>
      <trkpt lat="49.76293" lon="4.81472">
        <ele>274.2</ele>
        <time>2021-04-20T14:49:42Z</time>
      </trkpt>
      <trkpt lat="49.76289" lon="4.81473">
        <ele>273.58</ele>
        <time>2021-04-20T14:49:45Z</time>
      </trkpt>
      <trkpt lat="49.76285" lon="4.81473">
        <ele>273.02</ele>
        <time>2021-04-20T14:49:47Z</time>
      </trkpt>
      <trkpt lat="49.76281" lon="4.81473">
        <ele>272.45</ele>
        <time>2021-04-20T14:49:50Z</time>
      </trkpt>
      <trkpt lat="49.76278" lon="4.81473">
        <ele>272.03</ele>
        <time>2021-04-20T14:49:52Z</time>
      </trkpt>
      <trkpt lat="49.76275" lon="4.81474">
        <ele>271.61</ele>
        <time>2021-04-20T14:49:54Z</time>
      </trkpt>
      <trkpt lat="49.76271" lon="4.81472">
        <ele>271.03</ele>
        <time>2021-04-20T14:49:57Z</time>
      </trkpt>
      <trkpt lat="49.76269" lon="4.81468">
        <ele>270.79</ele>
        <time>2021-04-20T14:49:58Z</time>
      </trkpt>
      <trkpt lat="49.76267" lon="4.81465">
        <ele>270.51</ele>
        <time>2021-04-20T14:49:59Z</time>
      </trkpt>
      <trkpt lat="49.76264" lon="4.81463">
        <ele>270.02</ele>
        <time>2021-04-20T14:50:00Z</time>
      </trkpt>
      <trkpt lat="49.76261" lon="4.81461">
        <ele>269.5</ele>
        <time>2021-04-20T14:50:01Z</time>
      </trkpt>
      <trkpt lat="49.76259" lon="4.81459">
        <ele>269.13</ele>
        <time>2021-04-20T14:50:02Z</time>
      </trkpt>
      <trkpt lat="49.76254" lon="4.81455">
        <ele>268.13</ele>
        <time>2021-04-20T14:50:04Z</time>
      </trkpt>
      <trkpt lat="49.7625" lon="4.81452">
        <ele>267.27</ele>
        <time>2021-04-20T14:50:06Z</time>
      </trkpt>
      <trkpt lat="49.76245" lon="4.8145">
        <ele>267.16</ele>
        <time>2021-04-20T14:50:08Z</time>
      </trkpt>
      <trkpt lat="49.76241" lon="4.81447">
        <ele>267.06</ele>
        <time>2021-04-20T14:50:10Z</time>
      </trkpt>
      <trkpt lat="49.76237" lon="4.81445">
        <ele>267.01</ele>
        <time>2021-04-20T14:50:12Z</time>
      </trkpt>
      <trkpt lat="49.76234" lon="4.81443">
        <ele>266.95</ele>
        <time>2021-04-20T14:50:13Z</time>
      </trkpt>
      <trkpt lat="49.76229" lon="4.81443">
        <ele>266.95</ele>
        <time>2021-04-20T14:50:15Z</time>
      </trkpt>
      <trkpt lat="49.76226" lon="4.81443">
        <ele>266.95</ele>
        <time>2021-04-20T14:50:17Z</time>
      </trkpt>
      <trkpt lat="49.76222" lon="4.81444">
        <ele>266.99</ele>
        <time>2021-04-20T14:50:19Z</time>
      </trkpt>
      <trkpt lat="49.76219" lon="4.81446">
        <ele>267.12</ele>
        <time>2021-04-20T14:50:22Z</time>
      </trkpt>
      <trkpt lat="49.76216" lon="4.81446">
        <ele>267.24</ele>
        <time>2021-04-20T14:50:25Z</time>
      </trkpt>
      <trkpt lat="49.76213" lon="4.81446">
        <ele>267.35</ele>
        <time>2021-04-20T14:50:27Z</time>
      </trkpt>
      <trkpt lat="49.7621" lon="4.81446">
        <ele>267.46</ele>
        <time>2021-04-20T14:50:29Z</time>
      </trkpt>
      <trkpt lat="49.76206" lon="4.81444">
        <ele>267.56</ele>
        <time>2021-04-20T14:50:31Z</time>
      </trkpt>
      <trkpt lat="49.76203" lon="4.81444">
        <ele>267.66</ele>
        <time>2021-04-20T14:50:33Z</time>
      </trkpt>
      <trkpt lat="49.76201" lon="4.81444">
        <ele>267.74</ele>
        <time>2021-04-20T14:50:35Z</time>
      </trkpt>
      <trkpt lat="49.76197" lon="4.81444">
        <ele>267.88</ele>
        <time>2021-04-20T14:50:38Z</time>
      </trkpt>
      <trkpt lat="49.76194" lon="4.81444">
        <ele>267.95</ele>
        <time>2021-04-20T14:50:40Z</time>
      </trkpt>
      <trkpt lat="49.7619" lon="4.81444">
        <ele>267.81</ele>
        <time>2021-04-20T14:50:43Z</time>
      </trkpt>
      <trkpt lat="49.76188" lon="4.81442">
        <ele>267.61</ele>
        <time>2021-04-20T14:50:46Z</time>
      </trkpt>
      <trkpt lat="49.76185" lon="4.81439">
        <ele>267.33</ele>
        <time>2021-04-20T14:50:49Z</time>
      </trkpt>
      <trkpt lat="49.76181" lon="4.81438">
        <ele>267.16</ele>
        <time>2021-04-20T14:50:51Z</time>
      </trkpt>
      <trkpt lat="49.76178" lon="4.81438">
        <ele>267.08</ele>
        <time>2021-04-20T14:50:53Z</time>
      </trkpt>
      <trkpt lat="49.76174" lon="4.81437">
        <ele>266.93</ele>
        <time>2021-04-20T14:50:56Z</time>
      </trkpt>
      <trkpt lat="49.76169" lon="4.81436">
        <ele>266.75</ele>
        <time>2021-04-20T14:50:58Z</time>
      </trkpt>
      <trkpt lat="49.76166" lon="4.81436">
        <ele>266.62</ele>
        <time>2021-04-20T14:50:59Z</time>
      </trkpt>
      <trkpt lat="49.76163" lon="4.81435">
        <ele>266.26</ele>
        <time>2021-04-20T14:51:00Z</time>
      </trkpt>
      <trkpt lat="49.7616" lon="4.81434">
        <ele>265.9</ele>
        <time>2021-04-20T14:51:02Z</time>
      </trkpt>
      <trkpt lat="49.76157" lon="4.81433">
        <ele>265.54</ele>
        <time>2021-04-20T14:51:05Z</time>
      </trkpt>
      <trkpt lat="49.76154" lon="4.81434">
        <ele>265.26</ele>
        <time>2021-04-20T14:51:08Z</time>
      </trkpt>
      <trkpt lat="49.7615" lon="4.81435">
        <ele>264.86</ele>
        <time>2021-04-20T14:51:11Z</time>
      </trkpt>
      <trkpt lat="49.76146" lon="4.81436">
        <ele>264.46</ele>
        <time>2021-04-20T14:51:14Z</time>
      </trkpt>
      <trkpt lat="49.76143" lon="4.81436">
        <ele>264.14</ele>
        <time>2021-04-20T14:51:16Z</time>
      </trkpt>
      <trkpt lat="49.7614" lon="4.81434">
        <ele>263.74</ele>
        <time>2021-04-20T14:51:19Z</time>
      </trkpt>
      <trkpt lat="49.76138" lon="4.8143">
        <ele>263.4</ele>
        <time>2021-04-20T14:51:21Z</time>
      </trkpt>
      <trkpt lat="49.76138" lon="4.81426">
        <ele>263.24</ele>
        <time>2021-04-20T14:51:23Z</time>
      </trkpt>
      <trkpt lat="49.76136" lon="4.8142">
        <ele>262.74</ele>
        <time>2021-04-20T14:51:26Z</time>
      </trkpt>
      <trkpt lat="49.76135" lon="4.81415">
        <ele>262.26</ele>
        <time>2021-04-20T14:51:29Z</time>
      </trkpt>
      <trkpt lat="49.76134" lon="4.81411">
        <ele>261.68</ele>
        <time>2021-04-20T14:51:35Z</time>
      </trkpt>
      <trkpt lat="49.76134" lon="4.81402">
        <ele>260.71</ele>
        <time>2021-04-20T14:51:37Z</time>
      </trkpt>
      <trkpt lat="49.76134" lon="4.81397">
        <ele>260.17</ele>
        <time>2021-04-20T14:51:38Z</time>
      </trkpt>
      <trkpt lat="49.76135" lon="4.81392">
        <ele>259.78</ele>
        <time>2021-04-20T14:51:40Z</time>
      </trkpt>
      <trkpt lat="49.76135" lon="4.81388">
        <ele>259.41</ele>
        <time>2021-04-20T14:51:43Z</time>
      </trkpt>
      <trkpt lat="49.76135" lon="4.81383">
        <ele>259.23</ele>
        <time>2021-04-20T14:51:47Z</time>
      </trkpt>
      <trkpt lat="49.76135" lon="4.81378">
        <ele>259.05</ele>
        <time>2021-04-20T14:51:49Z</time>
      </trkpt>
      <trkpt lat="49.76135" lon="4.81372">
        <ele>258.83</ele>
        <time>2021-04-20T14:51:51Z</time>
      </trkpt>
      <trkpt lat="49.76135" lon="4.81365">
        <ele>258.58</ele>
        <time>2021-04-20T14:51:54Z</time>
      </trkpt>
      <trkpt lat="49.76136" lon="4.81357">
        <ele>258.7</ele>
        <time>2021-04-20T14:51:56Z</time>
      </trkpt>
      <trkpt lat="49.76138" lon="4.81352">
        <ele>259.18</ele>
        <time>2021-04-20T14:51:58Z</time>
      </trkpt>
      <trkpt lat="49.7614" lon="4.81348">
        <ele>259.63</ele>
        <time>2021-04-20T14:52:00Z</time>
      </trkpt>
      <trkpt lat="49.7614" lon="4.81344">
        <ele>259.78</ele>
        <time>2021-04-20T14:52:02Z</time>
      </trkpt>
      <trkpt lat="49.7614" lon="4.81338">
        <ele>259.99</ele>
        <time>2021-04-20T14:52:05Z</time>
      </trkpt>
      <trkpt lat="49.7614" lon="4.81333">
        <ele>260.18</ele>
        <time>2021-04-20T14:52:07Z</time>
      </trkpt>
      <trkpt lat="49.7614" lon="4.81328">
        <ele>260.54</ele>
        <time>2021-04-20T14:52:09Z</time>
      </trkpt>
      <trkpt lat="49.76141" lon="4.81323">
        <ele>261.05</ele>
        <time>2021-04-20T14:52:11Z</time>
      </trkpt>
      <trkpt lat="49.76143" lon="4.81317">
        <ele>261.77</ele>
        <time>2021-04-20T14:52:14Z</time>
      </trkpt>
      <trkpt lat="49.76145" lon="4.81313">
        <ele>262.34</ele>
        <time>2021-04-20T14:52:17Z</time>
      </trkpt>
      <trkpt lat="49.76145" lon="4.81307">
        <ele>262.78</ele>
        <time>2021-04-20T14:52:20Z</time>
      </trkpt>
      <trkpt lat="49.76143" lon="4.81303">
        <ele>262.79</ele>
        <time>2021-04-20T14:52:23Z</time>
      </trkpt>
      <trkpt lat="49.76141" lon="4.81301">
        <ele>262.64</ele>
        <time>2021-04-20T14:52:25Z</time>
      </trkpt>
      <trkpt lat="49.76138" lon="4.81298">
        <ele>262.35</ele>
        <time>2021-04-20T14:52:27Z</time>
      </trkpt>
      <trkpt lat="49.76135" lon="4.81294">
        <ele>261.99</ele>
        <time>2021-04-20T14:52:29Z</time>
      </trkpt>
      <trkpt lat="49.76132" lon="4.81292">
        <ele>261.49</ele>
        <time>2021-04-20T14:52:31Z</time>
      </trkpt>
      <trkpt lat="49.76129" lon="4.81291">
        <ele>260.91</ele>
        <time>2021-04-20T14:52:33Z</time>
      </trkpt>
      <trkpt lat="49.76125" lon="4.8129">
        <ele>260.12</ele>
        <time>2021-04-20T14:52:36Z</time>
      </trkpt>
      <trkpt lat="49.76123" lon="4.81286">
        <ele>259.98</ele>
        <time>2021-04-20T14:52:38Z</time>
      </trkpt>
      <trkpt lat="49.76121" lon="4.81284">
        <ele>259.69</ele>
        <time>2021-04-20T14:52:42Z</time>
      </trkpt>
      <trkpt lat="49.76118" lon="4.81281">
        <ele>259.26</ele>
        <time>2021-04-20T14:52:45Z</time>
      </trkpt>
      <trkpt lat="49.76113" lon="4.81277">
        <ele>258.46</ele>
        <time>2021-04-20T14:52:47Z</time>
      </trkpt>
      <trkpt lat="49.76109" lon="4.81275">
        <ele>257.8</ele>
        <time>2021-04-20T14:52:49Z</time>
      </trkpt>
      <trkpt lat="49.76106" lon="4.81272">
        <ele>257.42</ele>
        <time>2021-04-20T14:52:51Z</time>
      </trkpt>
      <trkpt lat="49.76103" lon="4.81269">
        <ele>256.99</ele>
        <time>2021-04-20T14:52:53Z</time>
      </trkpt>
      <trkpt lat="49.76099" lon="4.81266">
        <ele>256.3</ele>
        <time>2021-04-20T14:52:55Z</time>
      </trkpt>
      <trkpt lat="49.76094" lon="4.81263">
        <ele>255.33</ele>
        <time>2021-04-20T14:52:57Z</time>
      </trkpt>
      <trkpt lat="49.76091" lon="4.81261">
        <ele>254.71</ele>
        <time>2021-04-20T14:52:59Z</time>
      </trkpt>
      <trkpt lat="49.76088" lon="4.81258">
        <ele>254.08</ele>
        <time>2021-04-20T14:53:01Z</time>
      </trkpt>
      <trkpt lat="49.76086" lon="4.81256">
        <ele>253.63</ele>
        <time>2021-04-20T14:53:03Z</time>
      </trkpt>
      <trkpt lat="49.76083" lon="4.81254">
        <ele>253</ele>
        <time>2021-04-20T14:53:05Z</time>
      </trkpt>
      <trkpt lat="49.76081" lon="4.81251">
        <ele>253</ele>
        <time>2021-04-20T14:53:07Z</time>
      </trkpt>
      <trkpt lat="49.76078" lon="4.81248">
        <ele>253.04</ele>
        <time>2021-04-20T14:53:09Z</time>
      </trkpt>
      <trkpt lat="49.76076" lon="4.81245">
        <ele>253.08</ele>
        <time>2021-04-20T14:53:11Z</time>
      </trkpt>
      <trkpt lat="49.76073" lon="4.81244">
        <ele>253.06</ele>
        <time>2021-04-20T14:53:13Z</time>
      </trkpt>
      <trkpt lat="49.7607" lon="4.81241">
        <ele>253.01</ele>
        <time>2021-04-20T14:53:15Z</time>
      </trkpt>
      <trkpt lat="49.76067" lon="4.81237">
        <ele>252.92</ele>
        <time>2021-04-20T14:53:18Z</time>
      </trkpt>
      <trkpt lat="49.76065" lon="4.81234">
        <ele>252.82</ele>
        <time>2021-04-20T14:53:22Z</time>
      </trkpt>
      <trkpt lat="49.76062" lon="4.81231">
        <ele>252.63</ele>
        <time>2021-04-20T14:53:25Z</time>
      </trkpt>
      <trkpt lat="49.7606" lon="4.81229">
        <ele>252.49</ele>
        <time>2021-04-20T14:53:27Z</time>
      </trkpt>
      <trkpt lat="49.76057" lon="4.81227">
        <ele>252.26</ele>
        <time>2021-04-20T14:53:30Z</time>
      </trkpt>
      <trkpt lat="49.76056" lon="4.81221">
        <ele>252.25</ele>
        <time>2021-04-20T14:53:33Z</time>
      </trkpt>
      <trkpt lat="49.76054" lon="4.81217">
        <ele>253</ele>
        <time>2021-04-20T14:53:35Z</time>
      </trkpt>
      <trkpt lat="49.76051" lon="4.81213">
        <ele>253.82</ele>
        <time>2021-04-20T14:53:38Z</time>
      </trkpt>
      <trkpt lat="49.76048" lon="4.8121">
        <ele>254.47</ele>
        <time>2021-04-20T14:53:40Z</time>
      </trkpt>
      <trkpt lat="49.76046" lon="4.81207">
        <ele>255.08</ele>
        <time>2021-04-20T14:53:42Z</time>
      </trkpt>
      <trkpt lat="49.76044" lon="4.81203">
        <ele>255.88</ele>
        <time>2021-04-20T14:53:44Z</time>
      </trkpt>
      <trkpt lat="49.76042" lon="4.81201">
        <ele>256.31</ele>
        <time>2021-04-20T14:53:46Z</time>
      </trkpt>
      <trkpt lat="49.76039" lon="4.81197">
        <ele>257.14</ele>
        <time>2021-04-20T14:53:48Z</time>
      </trkpt>
      <trkpt lat="49.76036" lon="4.81194">
        <ele>257.73</ele>
        <time>2021-04-20T14:53:51Z</time>
      </trkpt>
      <trkpt lat="49.76033" lon="4.81191">
        <ele>257.98</ele>
        <time>2021-04-20T14:53:54Z</time>
      </trkpt>
      <trkpt lat="49.7603" lon="4.81189">
        <ele>258.15</ele>
        <time>2021-04-20T14:53:57Z</time>
      </trkpt>
      <trkpt lat="49.76027" lon="4.81187">
        <ele>258.02</ele>
        <time>2021-04-20T14:53:59Z</time>
      </trkpt>
      <trkpt lat="49.76025" lon="4.81184">
        <ele>257.51</ele>
        <time>2021-04-20T14:54:01Z</time>
      </trkpt>
      <trkpt lat="49.76023" lon="4.81179">
        <ele>257.1</ele>
        <time>2021-04-20T14:54:03Z</time>
      </trkpt>
      <trkpt lat="49.76022" lon="4.81175">
        <ele>256.97</ele>
        <time>2021-04-20T14:54:07Z</time>
      </trkpt>
      <trkpt lat="49.7602" lon="4.81172">
        <ele>256.51</ele>
        <time>2021-04-20T14:54:10Z</time>
      </trkpt>
      <trkpt lat="49.76018" lon="4.81169">
        <ele>256.07</ele>
        <time>2021-04-20T14:54:13Z</time>
      </trkpt>
      <trkpt lat="49.76016" lon="4.81166">
        <ele>255.56</ele>
        <time>2021-04-20T14:54:16Z</time>
      </trkpt>
      <trkpt lat="49.76014" lon="4.81162">
        <ele>254.78</ele>
        <time>2021-04-20T14:54:20Z</time>
      </trkpt>
      <trkpt lat="49.76011" lon="4.81158">
        <ele>253.86</ele>
        <time>2021-04-20T14:54:23Z</time>
      </trkpt>
      <trkpt lat="49.76009" lon="4.81155">
        <ele>253.33</ele>
        <time>2021-04-20T14:54:25Z</time>
      </trkpt>
      <trkpt lat="49.76006" lon="4.81152">
        <ele>252.69</ele>
        <time>2021-04-20T14:54:27Z</time>
      </trkpt>
      <trkpt lat="49.76003" lon="4.81151">
        <ele>252.12</ele>
        <time>2021-04-20T14:54:29Z</time>
      </trkpt>
      <trkpt lat="49.75999" lon="4.8115">
        <ele>251.51</ele>
        <time>2021-04-20T14:54:31Z</time>
      </trkpt>
      <trkpt lat="49.75995" lon="4.81149">
        <ele>251.21</ele>
        <time>2021-04-20T14:54:33Z</time>
      </trkpt>
      <trkpt lat="49.75992" lon="4.81145">
        <ele>251.14</ele>
        <time>2021-04-20T14:54:35Z</time>
      </trkpt>
      <trkpt lat="49.75991" lon="4.81141">
        <ele>251.25</ele>
        <time>2021-04-20T14:54:37Z</time>
      </trkpt>
      <trkpt lat="49.75989" lon="4.81136">
        <ele>251.21</ele>
        <time>2021-04-20T14:54:39Z</time>
      </trkpt>
      <trkpt lat="49.75987" lon="4.81133">
        <ele>251.06</ele>
        <time>2021-04-20T14:54:42Z</time>
      </trkpt>
      <trkpt lat="49.75985" lon="4.8113">
        <ele>250.92</ele>
        <time>2021-04-20T14:54:45Z</time>
      </trkpt>
      <trkpt lat="49.75983" lon="4.81126">
        <ele>250.78</ele>
        <time>2021-04-20T14:54:48Z</time>
      </trkpt>
      <trkpt lat="49.75981" lon="4.81123">
        <ele>250.63</ele>
        <time>2021-04-20T14:54:52Z</time>
      </trkpt>
      <trkpt lat="49.75978" lon="4.8112">
        <ele>250.42</ele>
        <time>2021-04-20T14:54:58Z</time>
      </trkpt>
      <trkpt lat="49.75975" lon="4.81118">
        <ele>250.2</ele>
        <time>2021-04-20T14:55:06Z</time>
      </trkpt>
      <trkpt lat="49.75972" lon="4.81117">
        <ele>250</ele>
        <time>2021-04-20T14:55:09Z</time>
      </trkpt>
      <trkpt lat="49.7597" lon="4.81114">
        <ele>249.99</ele>
        <time>2021-04-20T14:55:11Z</time>
      </trkpt>
      <trkpt lat="49.75968" lon="4.81111">
        <ele>250</ele>
        <time>2021-04-20T14:55:13Z</time>
      </trkpt>
      <trkpt lat="49.75965" lon="4.81107">
        <ele>249.89</ele>
        <time>2021-04-20T14:55:16Z</time>
      </trkpt>
      <trkpt lat="49.75962" lon="4.81104">
        <ele>249.84</ele>
        <time>2021-04-20T14:55:20Z</time>
      </trkpt>
      <trkpt lat="49.75959" lon="4.81097">
        <ele>249.73</ele>
        <time>2021-04-20T14:55:23Z</time>
      </trkpt>
      <trkpt lat="49.75957" lon="4.81092">
        <ele>249.69</ele>
        <time>2021-04-20T14:55:24Z</time>
      </trkpt>
      <trkpt lat="49.75956" lon="4.81088">
        <ele>249.65</ele>
        <time>2021-04-20T14:55:25Z</time>
      </trkpt>
      <trkpt lat="49.75954" lon="4.81084">
        <ele>249.66</ele>
        <time>2021-04-20T14:55:26Z</time>
      </trkpt>
      <trkpt lat="49.75951" lon="4.81081">
        <ele>249.66</ele>
        <time>2021-04-20T14:55:28Z</time>
      </trkpt>
      <trkpt lat="49.7595" lon="4.81077">
        <ele>249.48</ele>
        <time>2021-04-20T14:55:30Z</time>
      </trkpt>
      <trkpt lat="49.75949" lon="4.81074">
        <ele>249.33</ele>
        <time>2021-04-20T14:55:35Z</time>
      </trkpt>
      <trkpt lat="49.75946" lon="4.81067">
        <ele>248.87</ele>
        <time>2021-04-20T14:55:40Z</time>
      </trkpt>
      <trkpt lat="49.75944" lon="4.81063">
        <ele>248.53</ele>
        <time>2021-04-20T14:55:44Z</time>
      </trkpt>
      <trkpt lat="49.75942" lon="4.81061">
        <ele>248.37</ele>
        <time>2021-04-20T14:55:49Z</time>
      </trkpt>
      <trkpt lat="49.7594" lon="4.81056">
        <ele>248.03</ele>
        <time>2021-04-20T14:55:51Z</time>
      </trkpt>
      <trkpt lat="49.7594" lon="4.81051">
        <ele>247.65</ele>
        <time>2021-04-20T14:55:52Z</time>
      </trkpt>
      <trkpt lat="49.75938" lon="4.81046">
        <ele>247.23</ele>
        <time>2021-04-20T14:55:53Z</time>
      </trkpt>
      <trkpt lat="49.75937" lon="4.8104">
        <ele>246.73</ele>
        <time>2021-04-20T14:55:54Z</time>
      </trkpt>
      <trkpt lat="49.75935" lon="4.81035">
        <ele>246.27</ele>
        <time>2021-04-20T14:55:55Z</time>
      </trkpt>
      <trkpt lat="49.75933" lon="4.81031">
        <ele>245.87</ele>
        <time>2021-04-20T14:55:56Z</time>
      </trkpt>
      <trkpt lat="49.75931" lon="4.81026">
        <ele>245.55</ele>
        <time>2021-04-20T14:55:57Z</time>
      </trkpt>
      <trkpt lat="49.7593" lon="4.81022">
        <ele>245.58</ele>
        <time>2021-04-20T14:55:58Z</time>
      </trkpt>
      <trkpt lat="49.75927" lon="4.81016">
        <ele>245.53</ele>
        <time>2021-04-20T14:56:00Z</time>
      </trkpt>
      <trkpt lat="49.75924" lon="4.81012">
        <ele>245.41</ele>
        <time>2021-04-20T14:56:02Z</time>
      </trkpt>
      <trkpt lat="49.75921" lon="4.81009">
        <ele>245.26</ele>
        <time>2021-04-20T14:56:04Z</time>
      </trkpt>
      <trkpt lat="49.7592" lon="4.81005">
        <ele>245.22</ele>
        <time>2021-04-20T14:56:06Z</time>
      </trkpt>
      <trkpt lat="49.75918" lon="4.81002">
        <ele>245.09</ele>
        <time>2021-04-20T14:56:08Z</time>
      </trkpt>
      <trkpt lat="49.75915" lon="4.80997">
        <ele>244.56</ele>
        <time>2021-04-20T14:56:11Z</time>
      </trkpt>
      <trkpt lat="49.75913" lon="4.80994">
        <ele>244.09</ele>
        <time>2021-04-20T14:56:13Z</time>
      </trkpt>
      <trkpt lat="49.7591" lon="4.8099">
        <ele>243.44</ele>
        <time>2021-04-20T14:56:15Z</time>
      </trkpt>
      <trkpt lat="49.75906" lon="4.80987">
        <ele>242.83</ele>
        <time>2021-04-20T14:56:17Z</time>
      </trkpt>
      <trkpt lat="49.75903" lon="4.80983">
        <ele>242.18</ele>
        <time>2021-04-20T14:56:19Z</time>
      </trkpt>
      <trkpt lat="49.75902" lon="4.8098">
        <ele>241.78</ele>
        <time>2021-04-20T14:56:21Z</time>
      </trkpt>
      <trkpt lat="49.75899" lon="4.80977">
        <ele>241.24</ele>
        <time>2021-04-20T14:56:24Z</time>
      </trkpt>
      <trkpt lat="49.75896" lon="4.80974">
        <ele>240.7</ele>
        <time>2021-04-20T14:56:27Z</time>
      </trkpt>
      <trkpt lat="49.75893" lon="4.80971">
        <ele>240.24</ele>
        <time>2021-04-20T14:56:29Z</time>
      </trkpt>
      <trkpt lat="49.7589" lon="4.80966">
        <ele>239.84</ele>
        <time>2021-04-20T14:56:31Z</time>
      </trkpt>
      <trkpt lat="49.75888" lon="4.80963">
        <ele>239.53</ele>
        <time>2021-04-20T14:56:33Z</time>
      </trkpt>
      <trkpt lat="49.75885" lon="4.8096">
        <ele>238.94</ele>
        <time>2021-04-20T14:56:36Z</time>
      </trkpt>
      <trkpt lat="49.75883" lon="4.80958">
        <ele>238.53</ele>
        <time>2021-04-20T14:56:40Z</time>
      </trkpt>
      <trkpt lat="49.75879" lon="4.80956">
        <ele>237.78</ele>
        <time>2021-04-20T14:56:43Z</time>
      </trkpt>
      <trkpt lat="49.75876" lon="4.80954">
        <ele>237.18</ele>
        <time>2021-04-20T14:56:45Z</time>
      </trkpt>
      <trkpt lat="49.75873" lon="4.80951">
        <ele>236.51</ele>
        <time>2021-04-20T14:56:47Z</time>
      </trkpt>
      <trkpt lat="49.7587" lon="4.80949">
        <ele>235.88</ele>
        <time>2021-04-20T14:56:49Z</time>
      </trkpt>
      <trkpt lat="49.75867" lon="4.80947">
        <ele>235.22</ele>
        <time>2021-04-20T14:56:51Z</time>
      </trkpt>
      <trkpt lat="49.75864" lon="4.80944">
        <ele>234.54</ele>
        <time>2021-04-20T14:56:53Z</time>
      </trkpt>
      <trkpt lat="49.75861" lon="4.80941">
        <ele>234.12</ele>
        <time>2021-04-20T14:56:55Z</time>
      </trkpt>
      <trkpt lat="49.75858" lon="4.80938">
        <ele>233.96</ele>
        <time>2021-04-20T14:56:57Z</time>
      </trkpt>
      <trkpt lat="49.75856" lon="4.80933">
        <ele>233.89</ele>
        <time>2021-04-20T14:56:59Z</time>
      </trkpt>
      <trkpt lat="49.75854" lon="4.80929">
        <ele>233.76</ele>
        <time>2021-04-20T14:57:01Z</time>
      </trkpt>
      <trkpt lat="49.75851" lon="4.80926">
        <ele>233.45</ele>
        <time>2021-04-20T14:57:03Z</time>
      </trkpt>
      <trkpt lat="49.75848" lon="4.80921">
        <ele>233.1</ele>
        <time>2021-04-20T14:57:05Z</time>
      </trkpt>
      <trkpt lat="49.75844" lon="4.80919">
        <ele>232.56</ele>
        <time>2021-04-20T14:57:07Z</time>
      </trkpt>
      <trkpt lat="49.75841" lon="4.80918">
        <ele>232.13</ele>
        <time>2021-04-20T14:57:09Z</time>
      </trkpt>
      <trkpt lat="49.75839" lon="4.80917">
        <ele>231.82</ele>
        <time>2021-04-20T14:57:11Z</time>
      </trkpt>
      <trkpt lat="49.75835" lon="4.80915">
        <ele>231.24</ele>
        <time>2021-04-20T14:57:13Z</time>
      </trkpt>
      <trkpt lat="49.75833" lon="4.80913">
        <ele>230.99</ele>
        <time>2021-04-20T14:57:15Z</time>
      </trkpt>
      <trkpt lat="49.75829" lon="4.80909">
        <ele>230.8</ele>
        <time>2021-04-20T14:57:18Z</time>
      </trkpt>
      <trkpt lat="49.75826" lon="4.80907">
        <ele>230.64</ele>
        <time>2021-04-20T14:57:21Z</time>
      </trkpt>
      <trkpt lat="49.75823" lon="4.80905">
        <ele>230.47</ele>
        <time>2021-04-20T14:57:24Z</time>
      </trkpt>
      <trkpt lat="49.75821" lon="4.80902">
        <ele>230.32</ele>
        <time>2021-04-20T14:57:31Z</time>
      </trkpt>
      <trkpt lat="49.75817" lon="4.80901">
        <ele>230.08</ele>
        <time>2021-04-20T14:57:34Z</time>
      </trkpt>
      <trkpt lat="49.75813" lon="4.80901">
        <ele>229.86</ele>
        <time>2021-04-20T14:57:36Z</time>
      </trkpt>
      <trkpt lat="49.75808" lon="4.809">
        <ele>229.54</ele>
        <time>2021-04-20T14:57:38Z</time>
      </trkpt>
      <trkpt lat="49.75804" lon="4.80899">
        <ele>229.46</ele>
        <time>2021-04-20T14:57:40Z</time>
      </trkpt>
      <trkpt lat="49.75801" lon="4.80898">
        <ele>229.6</ele>
        <time>2021-04-20T14:57:43Z</time>
      </trkpt>
      <trkpt lat="49.75798" lon="4.80897">
        <ele>229.72</ele>
        <time>2021-04-20T14:57:45Z</time>
      </trkpt>
      <trkpt lat="49.75794" lon="4.80896">
        <ele>229.88</ele>
        <time>2021-04-20T14:57:47Z</time>
      </trkpt>
      <trkpt lat="49.7579" lon="4.80892">
        <ele>229.8</ele>
        <time>2021-04-20T14:57:49Z</time>
      </trkpt>
      <trkpt lat="49.75788" lon="4.8089">
        <ele>229.72</ele>
        <time>2021-04-20T14:57:51Z</time>
      </trkpt>
      <trkpt lat="49.75784" lon="4.80889">
        <ele>229.79</ele>
        <time>2021-04-20T14:57:54Z</time>
      </trkpt>
      <trkpt lat="49.7578" lon="4.80888">
        <ele>229.95</ele>
        <time>2021-04-20T14:57:56Z</time>
      </trkpt>
      <trkpt lat="49.75775" lon="4.80889">
        <ele>230.11</ele>
        <time>2021-04-20T14:57:58Z</time>
      </trkpt>
      <trkpt lat="49.75771" lon="4.80889">
        <ele>230.26</ele>
        <time>2021-04-20T14:58:00Z</time>
      </trkpt>
      <trkpt lat="49.75767" lon="4.8089">
        <ele>230.55</ele>
        <time>2021-04-20T14:58:02Z</time>
      </trkpt>
      <trkpt lat="49.75764" lon="4.8089">
        <ele>230.68</ele>
        <time>2021-04-20T14:58:04Z</time>
      </trkpt>
      <trkpt lat="49.75761" lon="4.80888">
        <ele>230.52</ele>
        <time>2021-04-20T14:58:07Z</time>
      </trkpt>
      <trkpt lat="49.75759" lon="4.80886">
        <ele>230.36</ele>
        <time>2021-04-20T14:58:09Z</time>
      </trkpt>
      <trkpt lat="49.75755" lon="4.80885">
        <ele>230.27</ele>
        <time>2021-04-20T14:58:11Z</time>
      </trkpt>
      <trkpt lat="49.75752" lon="4.80884">
        <ele>230.12</ele>
        <time>2021-04-20T14:58:13Z</time>
      </trkpt>
      <trkpt lat="49.75748" lon="4.80883">
        <ele>229.91</ele>
        <time>2021-04-20T14:58:15Z</time>
      </trkpt>
      <trkpt lat="49.75745" lon="4.80883">
        <ele>229.86</ele>
        <time>2021-04-20T14:58:17Z</time>
      </trkpt>
      <trkpt lat="49.75741" lon="4.80884">
        <ele>230.01</ele>
        <time>2021-04-20T14:58:20Z</time>
      </trkpt>
      <trkpt lat="49.75738" lon="4.80885">
        <ele>230.18</ele>
        <time>2021-04-20T14:58:22Z</time>
      </trkpt>
      <trkpt lat="49.75735" lon="4.80886">
        <ele>230.37</ele>
        <time>2021-04-20T14:58:24Z</time>
      </trkpt>
      <trkpt lat="49.75732" lon="4.80885">
        <ele>230.12</ele>
        <time>2021-04-20T14:58:26Z</time>
      </trkpt>
      <trkpt lat="49.75728" lon="4.80884">
        <ele>229.84</ele>
        <time>2021-04-20T14:58:28Z</time>
      </trkpt>
      <trkpt lat="49.75726" lon="4.80881">
        <ele>229.09</ele>
        <time>2021-04-20T14:58:30Z</time>
      </trkpt>
      <trkpt lat="49.75722" lon="4.8088">
        <ele>228.78</ele>
        <time>2021-04-20T14:58:33Z</time>
      </trkpt>
      <trkpt lat="49.75719" lon="4.80879">
        <ele>228.8</ele>
        <time>2021-04-20T14:58:35Z</time>
      </trkpt>
      <trkpt lat="49.75715" lon="4.80879">
        <ele>229.16</ele>
        <time>2021-04-20T14:58:37Z</time>
      </trkpt>
      <trkpt lat="49.75712" lon="4.80879">
        <ele>229.43</ele>
        <time>2021-04-20T14:58:39Z</time>
      </trkpt>
      <trkpt lat="49.75709" lon="4.80878">
        <ele>229.56</ele>
        <time>2021-04-20T14:58:42Z</time>
      </trkpt>
      <trkpt lat="49.75706" lon="4.80876">
        <ele>229.65</ele>
        <time>2021-04-20T14:58:45Z</time>
      </trkpt>
      <trkpt lat="49.75703" lon="4.80874">
        <ele>229.84</ele>
        <time>2021-04-20T14:58:47Z</time>
      </trkpt>
      <trkpt lat="49.757" lon="4.80872">
        <ele>230.15</ele>
        <time>2021-04-20T14:58:50Z</time>
      </trkpt>
      <trkpt lat="49.75696" lon="4.80872">
        <ele>230.76</ele>
        <time>2021-04-20T14:58:53Z</time>
      </trkpt>
      <trkpt lat="49.75692" lon="4.8087">
        <ele>230.76</ele>
        <time>2021-04-20T14:58:56Z</time>
      </trkpt>
      <trkpt lat="49.75689" lon="4.8087">
        <ele>230.46</ele>
        <time>2021-04-20T14:58:59Z</time>
      </trkpt>
      <trkpt lat="49.75686" lon="4.8087">
        <ele>230.16</ele>
        <time>2021-04-20T14:59:01Z</time>
      </trkpt>
      <trkpt lat="49.75682" lon="4.80871">
        <ele>229.88</ele>
        <time>2021-04-20T14:59:04Z</time>
      </trkpt>
      <trkpt lat="49.75679" lon="4.8087">
        <ele>229.47</ele>
        <time>2021-04-20T14:59:08Z</time>
      </trkpt>
      <trkpt lat="49.75676" lon="4.8087">
        <ele>229.17</ele>
        <time>2021-04-20T14:59:10Z</time>
      </trkpt>
      <trkpt lat="49.75673" lon="4.80868">
        <ele>228.48</ele>
        <time>2021-04-20T14:59:12Z</time>
      </trkpt>
      <trkpt lat="49.7567" lon="4.80868">
        <ele>228.13</ele>
        <time>2021-04-20T14:59:15Z</time>
      </trkpt>
      <trkpt lat="49.75666" lon="4.80869">
        <ele>227.93</ele>
        <time>2021-04-20T14:59:18Z</time>
      </trkpt>
      <trkpt lat="49.75663" lon="4.80869">
        <ele>227.65</ele>
        <time>2021-04-20T14:59:20Z</time>
      </trkpt>
      <trkpt lat="49.75659" lon="4.80868">
        <ele>227.05</ele>
        <time>2021-04-20T14:59:22Z</time>
      </trkpt>
      <trkpt lat="49.75655" lon="4.80867">
        <ele>226.47</ele>
        <time>2021-04-20T14:59:24Z</time>
      </trkpt>
      <trkpt lat="49.75652" lon="4.80865">
        <ele>225.78</ele>
        <time>2021-04-20T14:59:26Z</time>
      </trkpt>
      <trkpt lat="49.75649" lon="4.80862">
        <ele>224.91</ele>
        <time>2021-04-20T14:59:28Z</time>
      </trkpt>
      <trkpt lat="49.75646" lon="4.8086">
        <ele>224.4</ele>
        <time>2021-04-20T14:59:30Z</time>
      </trkpt>
      <trkpt lat="49.75644" lon="4.80856">
        <ele>223.9</ele>
        <time>2021-04-20T14:59:33Z</time>
      </trkpt>
      <trkpt lat="49.75641" lon="4.80854">
        <ele>223.58</ele>
        <time>2021-04-20T14:59:38Z</time>
      </trkpt>
      <trkpt lat="49.75637" lon="4.80854">
        <ele>223.52</ele>
        <time>2021-04-20T14:59:41Z</time>
      </trkpt>
      <trkpt lat="49.75632" lon="4.80854">
        <ele>223.61</ele>
        <time>2021-04-20T14:59:43Z</time>
      </trkpt>
      <trkpt lat="49.75628" lon="4.80852">
        <ele>223.48</ele>
        <time>2021-04-20T14:59:45Z</time>
      </trkpt>
      <trkpt lat="49.75625" lon="4.8085">
        <ele>223.3</ele>
        <time>2021-04-20T14:59:47Z</time>
      </trkpt>
      <trkpt lat="49.75623" lon="4.80848">
        <ele>223.09</ele>
        <time>2021-04-20T14:59:49Z</time>
      </trkpt>
      <trkpt lat="49.7562" lon="4.80846">
        <ele>222.85</ele>
        <time>2021-04-20T14:59:51Z</time>
      </trkpt>
      <trkpt lat="49.75617" lon="4.80844">
        <ele>222.59</ele>
        <time>2021-04-20T14:59:54Z</time>
      </trkpt>
      <trkpt lat="49.75614" lon="4.80841">
        <ele>222.15</ele>
        <time>2021-04-20T14:59:57Z</time>
      </trkpt>
      <trkpt lat="49.75611" lon="4.80839">
        <ele>221.81</ele>
        <time>2021-04-20T15:00:00Z</time>
      </trkpt>
      <trkpt lat="49.75607" lon="4.80838">
        <ele>221.33</ele>
        <time>2021-04-20T15:00:03Z</time>
      </trkpt>
      <trkpt lat="49.75602" lon="4.80837">
        <ele>220.79</ele>
        <time>2021-04-20T15:00:05Z</time>
      </trkpt>
      <trkpt lat="49.75599" lon="4.80836">
        <ele>220.43</ele>
        <time>2021-04-20T15:00:07Z</time>
      </trkpt>
      <trkpt lat="49.75596" lon="4.80834">
        <ele>219.98</ele>
        <time>2021-04-20T15:00:09Z</time>
      </trkpt>
      <trkpt lat="49.75593" lon="4.80833">
        <ele>219.68</ele>
        <time>2021-04-20T15:00:12Z</time>
      </trkpt>
      <trkpt lat="49.7559" lon="4.80833">
        <ele>219.47</ele>
        <time>2021-04-20T15:00:14Z</time>
      </trkpt>
      <trkpt lat="49.75587" lon="4.80833">
        <ele>219.25</ele>
        <time>2021-04-20T15:00:16Z</time>
      </trkpt>
      <trkpt lat="49.75583" lon="4.80832">
        <ele>218.94</ele>
        <time>2021-04-20T15:00:19Z</time>
      </trkpt>
      <trkpt lat="49.75581" lon="4.8083">
        <ele>218.8</ele>
        <time>2021-04-20T15:00:22Z</time>
      </trkpt>
      <trkpt lat="49.75577" lon="4.80829">
        <ele>218.62</ele>
        <time>2021-04-20T15:00:24Z</time>
      </trkpt>
      <trkpt lat="49.75574" lon="4.80826">
        <ele>218.4</ele>
        <time>2021-04-20T15:00:27Z</time>
      </trkpt>
      <trkpt lat="49.75571" lon="4.80821">
        <ele>218.11</ele>
        <time>2021-04-20T15:00:30Z</time>
      </trkpt>
      <trkpt lat="49.75568" lon="4.80819">
        <ele>217.93</ele>
        <time>2021-04-20T15:00:32Z</time>
      </trkpt>
      <trkpt lat="49.75565" lon="4.80817">
        <ele>217.75</ele>
        <time>2021-04-20T15:00:34Z</time>
      </trkpt>
      <trkpt lat="49.75561" lon="4.80815">
        <ele>217.54</ele>
        <time>2021-04-20T15:00:37Z</time>
      </trkpt>
      <trkpt lat="49.75558" lon="4.80812">
        <ele>217.32</ele>
        <time>2021-04-20T15:00:40Z</time>
      </trkpt>
      <trkpt lat="49.75555" lon="4.80809">
        <ele>217.15</ele>
        <time>2021-04-20T15:00:42Z</time>
      </trkpt>
      <trkpt lat="49.75552" lon="4.80807">
        <ele>217.19</ele>
        <time>2021-04-20T15:00:44Z</time>
      </trkpt>
      <trkpt lat="49.75549" lon="4.80803">
        <ele>217.29</ele>
        <time>2021-04-20T15:00:47Z</time>
      </trkpt>
      <trkpt lat="49.75548" lon="4.80799">
        <ele>217.36</ele>
        <time>2021-04-20T15:00:49Z</time>
      </trkpt>
      <trkpt lat="49.75546" lon="4.80793">
        <ele>217.32</ele>
        <time>2021-04-20T15:00:51Z</time>
      </trkpt>
      <trkpt lat="49.75542" lon="4.8079">
        <ele>216.97</ele>
        <time>2021-04-20T15:00:53Z</time>
      </trkpt>
      <trkpt lat="49.75538" lon="4.80787">
        <ele>216.43</ele>
        <time>2021-04-20T15:00:55Z</time>
      </trkpt>
      <trkpt lat="49.75535" lon="4.80785">
        <ele>215.93</ele>
        <time>2021-04-20T15:00:57Z</time>
      </trkpt>
      <trkpt lat="49.75531" lon="4.80783">
        <ele>215.2</ele>
        <time>2021-04-20T15:00:59Z</time>
      </trkpt>
      <trkpt lat="49.75528" lon="4.8078">
        <ele>214.36</ele>
        <time>2021-04-20T15:01:01Z</time>
      </trkpt>
      <trkpt lat="49.75525" lon="4.80776">
        <ele>214.22</ele>
        <time>2021-04-20T15:01:03Z</time>
      </trkpt>
      <trkpt lat="49.75522" lon="4.80772">
        <ele>214.62</ele>
        <time>2021-04-20T15:01:06Z</time>
      </trkpt>
      <trkpt lat="49.7552" lon="4.8077">
        <ele>214.73</ele>
        <time>2021-04-20T15:01:09Z</time>
      </trkpt>
      <trkpt lat="49.75517" lon="4.80769">
        <ele>214.65</ele>
        <time>2021-04-20T15:01:12Z</time>
      </trkpt>
      <trkpt lat="49.75514" lon="4.80768">
        <ele>214.54</ele>
        <time>2021-04-20T15:01:15Z</time>
      </trkpt>
      <trkpt lat="49.75511" lon="4.80766">
        <ele>214.42</ele>
        <time>2021-04-20T15:01:18Z</time>
      </trkpt>
      <trkpt lat="49.75509" lon="4.80762">
        <ele>214.35</ele>
        <time>2021-04-20T15:01:21Z</time>
      </trkpt>
      <trkpt lat="49.75507" lon="4.80758">
        <ele>214.19</ele>
        <time>2021-04-20T15:01:23Z</time>
      </trkpt>
      <trkpt lat="49.75504" lon="4.80756">
        <ele>213.78</ele>
        <time>2021-04-20T15:01:25Z</time>
      </trkpt>
      <trkpt lat="49.755" lon="4.80754">
        <ele>213.14</ele>
        <time>2021-04-20T15:01:28Z</time>
      </trkpt>
      <trkpt lat="49.75498" lon="4.80751">
        <ele>212.75</ele>
        <time>2021-04-20T15:01:31Z</time>
      </trkpt>
      <trkpt lat="49.75496" lon="4.80747">
        <ele>212.52</ele>
        <time>2021-04-20T15:01:34Z</time>
      </trkpt>
      <trkpt lat="49.75492" lon="4.80745">
        <ele>211.98</ele>
        <time>2021-04-20T15:01:37Z</time>
      </trkpt>
      <trkpt lat="49.75488" lon="4.80743">
        <ele>211.42</ele>
        <time>2021-04-20T15:01:40Z</time>
      </trkpt>
      <trkpt lat="49.75485" lon="4.80742">
        <ele>210.97</ele>
        <time>2021-04-20T15:01:42Z</time>
      </trkpt>
      <trkpt lat="49.75481" lon="4.8074">
        <ele>210.38</ele>
        <time>2021-04-20T15:01:44Z</time>
      </trkpt>
      <trkpt lat="49.75478" lon="4.80738">
        <ele>209.92</ele>
        <time>2021-04-20T15:01:46Z</time>
      </trkpt>
      <trkpt lat="49.75474" lon="4.80736">
        <ele>209.29</ele>
        <time>2021-04-20T15:01:48Z</time>
      </trkpt>
      <trkpt lat="49.75472" lon="4.80733">
        <ele>208.99</ele>
        <time>2021-04-20T15:01:50Z</time>
      </trkpt>
      <trkpt lat="49.75469" lon="4.80729">
        <ele>208.86</ele>
        <time>2021-04-20T15:01:53Z</time>
      </trkpt>
      <trkpt lat="49.75466" lon="4.80726">
        <ele>208.75</ele>
        <time>2021-04-20T15:01:56Z</time>
      </trkpt>
      <trkpt lat="49.75464" lon="4.80722">
        <ele>208.74</ele>
        <time>2021-04-20T15:01:59Z</time>
      </trkpt>
      <trkpt lat="49.7546" lon="4.80719">
        <ele>209.02</ele>
        <time>2021-04-20T15:02:02Z</time>
      </trkpt>
      <trkpt lat="49.75458" lon="4.80717">
        <ele>209.24</ele>
        <time>2021-04-20T15:02:04Z</time>
      </trkpt>
      <trkpt lat="49.75455" lon="4.80714">
        <ele>209.56</ele>
        <time>2021-04-20T15:02:07Z</time>
      </trkpt>
      <trkpt lat="49.75451" lon="4.80713">
        <ele>209.56</ele>
        <time>2021-04-20T15:02:11Z</time>
      </trkpt>
      <trkpt lat="49.75448" lon="4.80712">
        <ele>209.6</ele>
        <time>2021-04-20T15:02:14Z</time>
      </trkpt>
      <trkpt lat="49.75444" lon="4.80711">
        <ele>209.63</ele>
        <time>2021-04-20T15:02:16Z</time>
      </trkpt>
      <trkpt lat="49.75442" lon="4.80708">
        <ele>210.09</ele>
        <time>2021-04-20T15:02:18Z</time>
      </trkpt>
      <trkpt lat="49.7544" lon="4.80705">
        <ele>210.5</ele>
        <time>2021-04-20T15:02:20Z</time>
      </trkpt>
      <trkpt lat="49.75437" lon="4.80703">
        <ele>210.75</ele>
        <time>2021-04-20T15:02:22Z</time>
      </trkpt>
      <trkpt lat="49.75434" lon="4.80701">
        <ele>210.95</ele>
        <time>2021-04-20T15:02:24Z</time>
      </trkpt>
      <trkpt lat="49.75431" lon="4.80699">
        <ele>211.1</ele>
        <time>2021-04-20T15:02:27Z</time>
      </trkpt>
      <trkpt lat="49.75428" lon="4.80697">
        <ele>211.2</ele>
        <time>2021-04-20T15:02:30Z</time>
      </trkpt>
      <trkpt lat="49.75426" lon="4.80694">
        <ele>211.4</ele>
        <time>2021-04-20T15:02:34Z</time>
      </trkpt>
      <trkpt lat="49.75422" lon="4.80694">
        <ele>211.25</ele>
        <time>2021-04-20T15:02:43Z</time>
      </trkpt>
      <trkpt lat="49.75419" lon="4.80694">
        <ele>211.14</ele>
        <time>2021-04-20T15:02:45Z</time>
      </trkpt>
      <trkpt lat="49.75416" lon="4.80693">
        <ele>211.25</ele>
        <time>2021-04-20T15:02:47Z</time>
      </trkpt>
      <trkpt lat="49.75413" lon="4.80692">
        <ele>211.78</ele>
        <time>2021-04-20T15:02:49Z</time>
      </trkpt>
      <trkpt lat="49.7541" lon="4.80691">
        <ele>212.3</ele>
        <time>2021-04-20T15:02:51Z</time>
      </trkpt>
      <trkpt lat="49.75408" lon="4.80687">
        <ele>212.97</ele>
        <time>2021-04-20T15:02:54Z</time>
      </trkpt>
      <trkpt lat="49.75405" lon="4.80683">
        <ele>213.74</ele>
        <time>2021-04-20T15:02:57Z</time>
      </trkpt>
      <trkpt lat="49.75401" lon="4.80682">
        <ele>214.35</ele>
        <time>2021-04-20T15:02:59Z</time>
      </trkpt>
      <trkpt lat="49.75398" lon="4.80682">
        <ele>214.73</ele>
        <time>2021-04-20T15:03:01Z</time>
      </trkpt>
      <trkpt lat="49.75394" lon="4.80682">
        <ele>215.24</ele>
        <time>2021-04-20T15:03:03Z</time>
      </trkpt>
      <trkpt lat="49.7539" lon="4.80681">
        <ele>215.83</ele>
        <time>2021-04-20T15:03:06Z</time>
      </trkpt>
      <trkpt lat="49.75387" lon="4.8068">
        <ele>216.01</ele>
        <time>2021-04-20T15:03:11Z</time>
      </trkpt>
      <trkpt lat="49.75384" lon="4.80678">
        <ele>216.11</ele>
        <time>2021-04-20T15:03:15Z</time>
      </trkpt>
      <trkpt lat="49.7538" lon="4.80676">
        <ele>216.22</ele>
        <time>2021-04-20T15:03:17Z</time>
      </trkpt>
      <trkpt lat="49.75378" lon="4.80675">
        <ele>216.28</ele>
        <time>2021-04-20T15:03:19Z</time>
      </trkpt>
      <trkpt lat="49.75375" lon="4.80674">
        <ele>216.34</ele>
        <time>2021-04-20T15:03:22Z</time>
      </trkpt>
      <trkpt lat="49.75371" lon="4.80674">
        <ele>216.3</ele>
        <time>2021-04-20T15:03:25Z</time>
      </trkpt>
      <trkpt lat="49.75367" lon="4.80674">
        <ele>216.26</ele>
        <time>2021-04-20T15:03:28Z</time>
      </trkpt>
      <trkpt lat="49.75364" lon="4.80673">
        <ele>216.34</ele>
        <time>2021-04-20T15:03:31Z</time>
      </trkpt>
      <trkpt lat="49.75361" lon="4.80672">
        <ele>216.39</ele>
        <time>2021-04-20T15:03:33Z</time>
      </trkpt>
      <trkpt lat="49.75357" lon="4.80672">
        <ele>215.15</ele>
        <time>2021-04-20T15:03:36Z</time>
      </trkpt>
      <trkpt lat="49.75353" lon="4.80672">
        <ele>213.91</ele>
        <time>2021-04-20T15:03:38Z</time>
      </trkpt>
      <trkpt lat="49.7535" lon="4.80671">
        <ele>213.06</ele>
        <time>2021-04-20T15:03:40Z</time>
      </trkpt>
      <trkpt lat="49.75346" lon="4.80671">
        <ele>211.81</ele>
        <time>2021-04-20T15:03:42Z</time>
      </trkpt>
      <trkpt lat="49.75342" lon="4.8067">
        <ele>210.61</ele>
        <time>2021-04-20T15:03:44Z</time>
      </trkpt>
      <trkpt lat="49.75339" lon="4.80668">
        <ele>209.77</ele>
        <time>2021-04-20T15:03:46Z</time>
      </trkpt>
      <trkpt lat="49.75336" lon="4.80665">
        <ele>209.18</ele>
        <time>2021-04-20T15:03:49Z</time>
      </trkpt>
      <trkpt lat="49.75332" lon="4.80662">
        <ele>209.01</ele>
        <time>2021-04-20T15:03:52Z</time>
      </trkpt>
      <trkpt lat="49.7533" lon="4.80661">
        <ele>209.17</ele>
        <time>2021-04-20T15:03:54Z</time>
      </trkpt>
      <trkpt lat="49.75327" lon="4.8066">
        <ele>209.24</ele>
        <time>2021-04-20T15:03:57Z</time>
      </trkpt>
      <trkpt lat="49.75323" lon="4.80661">
        <ele>209.06</ele>
        <time>2021-04-20T15:04:00Z</time>
      </trkpt>
      <trkpt lat="49.75319" lon="4.80662">
        <ele>209</ele>
        <time>2021-04-20T15:04:03Z</time>
      </trkpt>
      <trkpt lat="49.75315" lon="4.80662">
        <ele>209</ele>
        <time>2021-04-20T15:04:05Z</time>
      </trkpt>
      <trkpt lat="49.75312" lon="4.80661">
        <ele>208.88</ele>
        <time>2021-04-20T15:04:07Z</time>
      </trkpt>
      <trkpt lat="49.75309" lon="4.80661">
        <ele>208.83</ele>
        <time>2021-04-20T15:04:09Z</time>
      </trkpt>
      <trkpt lat="49.75304" lon="4.80661">
        <ele>208.87</ele>
        <time>2021-04-20T15:04:11Z</time>
      </trkpt>
      <trkpt lat="49.753" lon="4.80662">
        <ele>209.26</ele>
        <time>2021-04-20T15:04:13Z</time>
      </trkpt>
      <trkpt lat="49.75296" lon="4.80663">
        <ele>209.57</ele>
        <time>2021-04-20T15:04:15Z</time>
      </trkpt>
      <trkpt lat="49.75293" lon="4.80664">
        <ele>209.77</ele>
        <time>2021-04-20T15:04:17Z</time>
      </trkpt>
      <trkpt lat="49.7529" lon="4.80669">
        <ele>209.99</ele>
        <time>2021-04-20T15:04:20Z</time>
      </trkpt>
      <trkpt lat="49.75288" lon="4.80672">
        <ele>209.95</ele>
        <time>2021-04-20T15:04:23Z</time>
      </trkpt>
      <trkpt lat="49.75285" lon="4.80673">
        <ele>209.89</ele>
        <time>2021-04-20T15:04:25Z</time>
      </trkpt>
      <trkpt lat="49.75283" lon="4.80676">
        <ele>209.79</ele>
        <time>2021-04-20T15:04:27Z</time>
      </trkpt>
      <trkpt lat="49.7528" lon="4.8068">
        <ele>209.6</ele>
        <time>2021-04-20T15:04:29Z</time>
      </trkpt>
      <trkpt lat="49.75278" lon="4.80684">
        <ele>209.39</ele>
        <time>2021-04-20T15:04:31Z</time>
      </trkpt>
      <trkpt lat="49.75275" lon="4.80687">
        <ele>209.02</ele>
        <time>2021-04-20T15:04:33Z</time>
      </trkpt>
      <trkpt lat="49.75273" lon="4.80691">
        <ele>208.65</ele>
        <time>2021-04-20T15:04:36Z</time>
      </trkpt>
      <trkpt lat="49.7527" lon="4.80694">
        <ele>208.18</ele>
        <time>2021-04-20T15:04:39Z</time>
      </trkpt>
      <trkpt lat="49.75267" lon="4.80697">
        <ele>207.62</ele>
        <time>2021-04-20T15:04:41Z</time>
      </trkpt>
      <trkpt lat="49.75264" lon="4.80699">
        <ele>207.1</ele>
        <time>2021-04-20T15:04:43Z</time>
      </trkpt>
      <trkpt lat="49.75261" lon="4.80702">
        <ele>206.48</ele>
        <time>2021-04-20T15:04:46Z</time>
      </trkpt>
      <trkpt lat="49.75258" lon="4.80702">
        <ele>206.13</ele>
        <time>2021-04-20T15:04:49Z</time>
      </trkpt>
      <trkpt lat="49.75255" lon="4.80702">
        <ele>205.77</ele>
        <time>2021-04-20T15:04:52Z</time>
      </trkpt>
      <trkpt lat="49.75252" lon="4.80701">
        <ele>205.52</ele>
        <time>2021-04-20T15:04:54Z</time>
      </trkpt>
      <trkpt lat="49.75249" lon="4.80699">
        <ele>205.39</ele>
        <time>2021-04-20T15:04:56Z</time>
      </trkpt>
      <trkpt lat="49.75247" lon="4.80697">
        <ele>205.33</ele>
        <time>2021-04-20T15:04:58Z</time>
      </trkpt>
      <trkpt lat="49.75243" lon="4.80695">
        <ele>204.95</ele>
        <time>2021-04-20T15:05:01Z</time>
      </trkpt>
      <trkpt lat="49.75241" lon="4.80693">
        <ele>204.81</ele>
        <time>2021-04-20T15:05:04Z</time>
      </trkpt>
      <trkpt lat="49.75237" lon="4.8069">
        <ele>204.38</ele>
        <time>2021-04-20T15:05:07Z</time>
      </trkpt>
      <trkpt lat="49.75234" lon="4.8069">
        <ele>203.9</ele>
        <time>2021-04-20T15:05:10Z</time>
      </trkpt>
      <trkpt lat="49.7523" lon="4.80689">
        <ele>203.28</ele>
        <time>2021-04-20T15:05:13Z</time>
      </trkpt>
      <trkpt lat="49.75227" lon="4.80689">
        <ele>202.79</ele>
        <time>2021-04-20T15:05:16Z</time>
      </trkpt>
      <trkpt lat="49.75224" lon="4.80689">
        <ele>202.29</ele>
        <time>2021-04-20T15:05:18Z</time>
      </trkpt>
      <trkpt lat="49.75221" lon="4.80692">
        <ele>201.82</ele>
        <time>2021-04-20T15:05:20Z</time>
      </trkpt>
      <trkpt lat="49.75218" lon="4.80694">
        <ele>201.39</ele>
        <time>2021-04-20T15:05:23Z</time>
      </trkpt>
      <trkpt lat="49.75215" lon="4.80694">
        <ele>200.95</ele>
        <time>2021-04-20T15:05:27Z</time>
      </trkpt>
      <trkpt lat="49.75211" lon="4.80694">
        <ele>200.37</ele>
        <time>2021-04-20T15:05:30Z</time>
      </trkpt>
      <trkpt lat="49.75208" lon="4.80694">
        <ele>199.94</ele>
        <time>2021-04-20T15:05:33Z</time>
      </trkpt>
      <trkpt lat="49.75205" lon="4.80695">
        <ele>199.56</ele>
        <time>2021-04-20T15:05:36Z</time>
      </trkpt>
      <trkpt lat="49.75202" lon="4.80694">
        <ele>199.06</ele>
        <time>2021-04-20T15:05:39Z</time>
      </trkpt>
      <trkpt lat="49.75198" lon="4.80694">
        <ele>198.48</ele>
        <time>2021-04-20T15:05:42Z</time>
      </trkpt>
      <trkpt lat="49.75195" lon="4.80695">
        <ele>198.14</ele>
        <time>2021-04-20T15:05:44Z</time>
      </trkpt>
      <trkpt lat="49.75192" lon="4.80696">
        <ele>198</ele>
        <time>2021-04-20T15:05:47Z</time>
      </trkpt>
      <trkpt lat="49.75188" lon="4.80697">
        <ele>197.85</ele>
        <time>2021-04-20T15:05:50Z</time>
      </trkpt>
      <trkpt lat="49.75186" lon="4.80699">
        <ele>197.98</ele>
        <time>2021-04-20T15:05:53Z</time>
      </trkpt>
      <trkpt lat="49.75182" lon="4.807">
        <ele>197.88</ele>
        <time>2021-04-20T15:05:56Z</time>
      </trkpt>
      <trkpt lat="49.75179" lon="4.807">
        <ele>197.71</ele>
        <time>2021-04-20T15:05:59Z</time>
      </trkpt>
      <trkpt lat="49.75176" lon="4.807">
        <ele>197.54</ele>
        <time>2021-04-20T15:06:02Z</time>
      </trkpt>
      <trkpt lat="49.75171" lon="4.807">
        <ele>197.25</ele>
        <time>2021-04-20T15:06:05Z</time>
      </trkpt>
      <trkpt lat="49.75167" lon="4.80701">
        <ele>197.2</ele>
        <time>2021-04-20T15:06:08Z</time>
      </trkpt>
      <trkpt lat="49.75164" lon="4.80704">
        <ele>197.72</ele>
        <time>2021-04-20T15:06:11Z</time>
      </trkpt>
      <trkpt lat="49.75161" lon="4.80705">
        <ele>197.9</ele>
        <time>2021-04-20T15:06:13Z</time>
      </trkpt>
      <trkpt lat="49.75158" lon="4.80706">
        <ele>198.08</ele>
        <time>2021-04-20T15:06:16Z</time>
      </trkpt>
      <trkpt lat="49.75155" lon="4.80705">
        <ele>197.9</ele>
        <time>2021-04-20T15:06:20Z</time>
      </trkpt>
      <trkpt lat="49.75152" lon="4.80705">
        <ele>197.9</ele>
        <time>2021-04-20T15:06:24Z</time>
      </trkpt>
      <trkpt lat="49.75149" lon="4.80705">
        <ele>197.9</ele>
        <time>2021-04-20T15:06:27Z</time>
      </trkpt>
      <trkpt lat="49.75146" lon="4.80704">
        <ele>197.72</ele>
        <time>2021-04-20T15:06:29Z</time>
      </trkpt>
      <trkpt lat="49.75143" lon="4.80704">
        <ele>197.72</ele>
        <time>2021-04-20T15:06:31Z</time>
      </trkpt>
      <trkpt lat="49.7514" lon="4.80705">
        <ele>197.9</ele>
        <time>2021-04-20T15:06:33Z</time>
      </trkpt>
      <trkpt lat="49.75137" lon="4.80705">
        <ele>197.51</ele>
        <time>2021-04-20T15:06:35Z</time>
      </trkpt>
      <trkpt lat="49.75134" lon="4.80706">
        <ele>197.05</ele>
        <time>2021-04-20T15:06:37Z</time>
      </trkpt>
      <trkpt lat="49.75131" lon="4.80709">
        <ele>196.9</ele>
        <time>2021-04-20T15:06:40Z</time>
      </trkpt>
      <trkpt lat="49.75128" lon="4.80709">
        <ele>196.25</ele>
        <time>2021-04-20T15:06:42Z</time>
      </trkpt>
      <trkpt lat="49.75125" lon="4.8071">
        <ele>195.74</ele>
        <time>2021-04-20T15:06:44Z</time>
      </trkpt>
      <trkpt lat="49.75122" lon="4.8071">
        <ele>195.08</ele>
        <time>2021-04-20T15:06:46Z</time>
      </trkpt>
      <trkpt lat="49.75118" lon="4.8071">
        <ele>194.2</ele>
        <time>2021-04-20T15:06:49Z</time>
      </trkpt>
      <trkpt lat="49.75115" lon="4.80711">
        <ele>193.65</ele>
        <time>2021-04-20T15:06:51Z</time>
      </trkpt>
      <trkpt lat="49.75112" lon="4.80712">
        <ele>193.1</ele>
        <time>2021-04-20T15:06:53Z</time>
      </trkpt>
      <trkpt lat="49.75109" lon="4.80713">
        <ele>192.75</ele>
        <time>2021-04-20T15:06:55Z</time>
      </trkpt>
      <trkpt lat="49.75106" lon="4.80715">
        <ele>192.58</ele>
        <time>2021-04-20T15:06:57Z</time>
      </trkpt>
      <trkpt lat="49.75102" lon="4.80717">
        <ele>192.25</ele>
        <time>2021-04-20T15:07:00Z</time>
      </trkpt>
      <trkpt lat="49.751" lon="4.80718">
        <ele>192.07</ele>
        <time>2021-04-20T15:07:02Z</time>
      </trkpt>
      <trkpt lat="49.75097" lon="4.80719">
        <ele>191.74</ele>
        <time>2021-04-20T15:07:04Z</time>
      </trkpt>
      <trkpt lat="49.75094" lon="4.80723">
        <ele>191.81</ele>
        <time>2021-04-20T15:07:07Z</time>
      </trkpt>
      <trkpt lat="49.75091" lon="4.80726">
        <ele>192.49</ele>
        <time>2021-04-20T15:07:10Z</time>
      </trkpt>
      <trkpt lat="49.75088" lon="4.8073">
        <ele>193.61</ele>
        <time>2021-04-20T15:07:13Z</time>
      </trkpt>
      <trkpt lat="49.75085" lon="4.80734">
        <ele>194.83</ele>
        <time>2021-04-20T15:07:16Z</time>
      </trkpt>
      <trkpt lat="49.75083" lon="4.80738">
        <ele>196.2</ele>
        <time>2021-04-20T15:07:20Z</time>
      </trkpt>
      <trkpt lat="49.75082" lon="4.80743">
        <ele>198.02</ele>
        <time>2021-04-20T15:07:23Z</time>
      </trkpt>
      <trkpt lat="49.7508" lon="4.80748">
        <ele>199.63</ele>
        <time>2021-04-20T15:07:27Z</time>
      </trkpt>
      <trkpt lat="49.75078" lon="4.80752">
        <ele>200.69</ele>
        <time>2021-04-20T15:07:31Z</time>
      </trkpt>
      <trkpt lat="49.75075" lon="4.80754">
        <ele>200.8</ele>
        <time>2021-04-20T15:07:35Z</time>
      </trkpt>
      <trkpt lat="49.75072" lon="4.80758">
        <ele>201.55</ele>
        <time>2021-04-20T15:07:38Z</time>
      </trkpt>
      <trkpt lat="49.7507" lon="4.80763">
        <ele>202.81</ele>
        <time>2021-04-20T15:07:40Z</time>
      </trkpt>
      <trkpt lat="49.75068" lon="4.80766">
        <ele>203.42</ele>
        <time>2021-04-20T15:07:42Z</time>
      </trkpt>
      <trkpt lat="49.75067" lon="4.8077">
        <ele>204.54</ele>
        <time>2021-04-20T15:07:44Z</time>
      </trkpt>
      <trkpt lat="49.75066" lon="4.80776">
        <ele>206.3</ele>
        <time>2021-04-20T15:07:46Z</time>
      </trkpt>
      <trkpt lat="49.75065" lon="4.80781">
        <ele>208.59</ele>
        <time>2021-04-20T15:07:49Z</time>
      </trkpt>
      <trkpt lat="49.75064" lon="4.80787">
        <ele>211.99</ele>
        <time>2021-04-20T15:07:52Z</time>
      </trkpt>
      <trkpt lat="49.75064" lon="4.80792">
        <ele>214.96</ele>
        <time>2021-04-20T15:07:55Z</time>
      </trkpt>
      <trkpt lat="49.75064" lon="4.80797">
        <ele>217.92</ele>
        <time>2021-04-20T15:07:59Z</time>
      </trkpt>
      <trkpt lat="49.75063" lon="4.80803">
        <ele>221.47</ele>
        <time>2021-04-20T15:08:02Z</time>
      </trkpt>
      <trkpt lat="49.75062" lon="4.80806">
        <ele>223.03</ele>
        <time>2021-04-20T15:08:04Z</time>
      </trkpt>
      <trkpt lat="49.7506" lon="4.80811">
        <ele>223.46</ele>
        <time>2021-04-20T15:08:08Z</time>
      </trkpt>
      <trkpt lat="49.7506" lon="4.80815">
        <ele>223.8</ele>
        <time>2021-04-20T15:08:12Z</time>
      </trkpt>
      <trkpt lat="49.75063" lon="4.80818">
        <ele>223.86</ele>
        <time>2021-04-20T15:08:19Z</time>
      </trkpt>
      <trkpt lat="49.75062" lon="4.80823">
        <ele>224.3</ele>
        <time>2021-04-20T15:08:27Z</time>
      </trkpt>
      <trkpt lat="49.75063" lon="4.80828">
        <ele>224.56</ele>
        <time>2021-04-20T15:08:30Z</time>
      </trkpt>
      <trkpt lat="49.75064" lon="4.80833">
        <ele>224.76</ele>
        <time>2021-04-20T15:08:33Z</time>
      </trkpt>
      <trkpt lat="49.75063" lon="4.80838">
        <ele>225.51</ele>
        <time>2021-04-20T15:08:36Z</time>
      </trkpt>
      <trkpt lat="49.75063" lon="4.80843">
        <ele>226.13</ele>
        <time>2021-04-20T15:08:39Z</time>
      </trkpt>
      <trkpt lat="49.75062" lon="4.80848">
        <ele>226.94</ele>
        <time>2021-04-20T15:08:43Z</time>
      </trkpt>
      <trkpt lat="49.75062" lon="4.80853">
        <ele>227.58</ele>
        <time>2021-04-20T15:08:46Z</time>
      </trkpt>
      <trkpt lat="49.75062" lon="4.80858">
        <ele>228.21</ele>
        <time>2021-04-20T15:08:48Z</time>
      </trkpt>
      <trkpt lat="49.75062" lon="4.80863">
        <ele>228.43</ele>
        <time>2021-04-20T15:08:51Z</time>
      </trkpt>
      <trkpt lat="49.75062" lon="4.80869">
        <ele>227.87</ele>
        <time>2021-04-20T15:08:55Z</time>
      </trkpt>
      <trkpt lat="49.75062" lon="4.80874">
        <ele>227.4</ele>
        <time>2021-04-20T15:08:58Z</time>
      </trkpt>
      <trkpt lat="49.75062" lon="4.8088">
        <ele>226.83</ele>
        <time>2021-04-20T15:09:01Z</time>
      </trkpt>
      <trkpt lat="49.75061" lon="4.80884">
        <ele>226.5</ele>
        <time>2021-04-20T15:09:03Z</time>
      </trkpt>
      <trkpt lat="49.75061" lon="4.80889">
        <ele>226.01</ele>
        <time>2021-04-20T15:09:05Z</time>
      </trkpt>
      <trkpt lat="49.7506" lon="4.80894">
        <ele>226.4</ele>
        <time>2021-04-20T15:09:07Z</time>
      </trkpt>
      <trkpt lat="49.7506" lon="4.809">
        <ele>226.86</ele>
        <time>2021-04-20T15:09:11Z</time>
      </trkpt>
      <trkpt lat="49.75061" lon="4.80904">
        <ele>227.19</ele>
        <time>2021-04-20T15:09:13Z</time>
      </trkpt>
      <trkpt lat="49.75062" lon="4.80909">
        <ele>227.62</ele>
        <time>2021-04-20T15:09:16Z</time>
      </trkpt>
      <trkpt lat="49.75063" lon="4.80914">
        <ele>228.05</ele>
        <time>2021-04-20T15:09:19Z</time>
      </trkpt>
      <trkpt lat="49.75064" lon="4.80918">
        <ele>228.26</ele>
        <time>2021-04-20T15:09:22Z</time>
      </trkpt>
      <trkpt lat="49.75065" lon="4.80923">
        <ele>228.11</ele>
        <time>2021-04-20T15:09:25Z</time>
      </trkpt>
      <trkpt lat="49.75066" lon="4.80928">
        <ele>227.92</ele>
        <time>2021-04-20T15:09:28Z</time>
      </trkpt>
      <trkpt lat="49.75066" lon="4.80933">
        <ele>227.71</ele>
        <time>2021-04-20T15:09:31Z</time>
      </trkpt>
      <trkpt lat="49.75066" lon="4.80938">
        <ele>227.51</ele>
        <time>2021-04-20T15:09:34Z</time>
      </trkpt>
      <trkpt lat="49.75067" lon="4.80943">
        <ele>227.24</ele>
        <time>2021-04-20T15:09:38Z</time>
      </trkpt>
      <trkpt lat="49.75069" lon="4.80948">
        <ele>226.51</ele>
        <time>2021-04-20T15:09:41Z</time>
      </trkpt>
      <trkpt lat="49.7507" lon="4.80954">
        <ele>225.61</ele>
        <time>2021-04-20T15:09:44Z</time>
      </trkpt>
      <trkpt lat="49.75071" lon="4.80959">
        <ele>224.91</ele>
        <time>2021-04-20T15:09:47Z</time>
      </trkpt>
      <trkpt lat="49.75072" lon="4.80964">
        <ele>224.26</ele>
        <time>2021-04-20T15:09:49Z</time>
      </trkpt>
      <trkpt lat="49.75072" lon="4.80968">
        <ele>223.74</ele>
        <time>2021-04-20T15:09:51Z</time>
      </trkpt>
      <trkpt lat="49.75072" lon="4.80973">
        <ele>223.12</ele>
        <time>2021-04-20T15:09:53Z</time>
      </trkpt>
      <trkpt lat="49.75073" lon="4.80978">
        <ele>222.76</ele>
        <time>2021-04-20T15:09:58Z</time>
      </trkpt>
      <trkpt lat="49.75075" lon="4.80982">
        <ele>222.59</ele>
        <time>2021-04-20T15:10:02Z</time>
      </trkpt>
      <trkpt lat="49.75076" lon="4.80988">
        <ele>222.19</ele>
        <time>2021-04-20T15:10:05Z</time>
      </trkpt>
      <trkpt lat="49.75076" lon="4.80993">
        <ele>221.78</ele>
        <time>2021-04-20T15:10:07Z</time>
      </trkpt>
      <trkpt lat="49.75077" lon="4.80998">
        <ele>221.48</ele>
        <time>2021-04-20T15:10:10Z</time>
      </trkpt>
      <trkpt lat="49.75078" lon="4.81003">
        <ele>221.3</ele>
        <time>2021-04-20T15:10:12Z</time>
      </trkpt>
      <trkpt lat="49.75079" lon="4.81008">
        <ele>221.2</ele>
        <time>2021-04-20T15:10:14Z</time>
      </trkpt>
      <trkpt lat="49.7508" lon="4.81012">
        <ele>221.16</ele>
        <time>2021-04-20T15:10:16Z</time>
      </trkpt>
      <trkpt lat="49.75081" lon="4.81016">
        <ele>221.12</ele>
        <time>2021-04-20T15:10:18Z</time>
      </trkpt>
      <trkpt lat="49.75082" lon="4.81022">
        <ele>221.03</ele>
        <time>2021-04-20T15:10:21Z</time>
      </trkpt>
      <trkpt lat="49.75082" lon="4.81026">
        <ele>220.88</ele>
        <time>2021-04-20T15:10:23Z</time>
      </trkpt>
      <trkpt lat="49.75083" lon="4.81031">
        <ele>220.6</ele>
        <time>2021-04-20T15:10:26Z</time>
      </trkpt>
      <trkpt lat="49.75084" lon="4.81036">
        <ele>220.12</ele>
        <time>2021-04-20T15:10:29Z</time>
      </trkpt>
      <trkpt lat="49.75086" lon="4.81041">
        <ele>219.62</ele>
        <time>2021-04-20T15:10:32Z</time>
      </trkpt>
      <trkpt lat="49.75087" lon="4.81046">
        <ele>219.12</ele>
        <time>2021-04-20T15:10:35Z</time>
      </trkpt>
      <trkpt lat="49.75088" lon="4.81051">
        <ele>218.63</ele>
        <time>2021-04-20T15:10:39Z</time>
      </trkpt>
      <trkpt lat="49.75088" lon="4.81056">
        <ele>218.13</ele>
        <time>2021-04-20T15:10:43Z</time>
      </trkpt>
      <trkpt lat="49.75089" lon="4.8106">
        <ele>217.79</ele>
        <time>2021-04-20T15:10:46Z</time>
      </trkpt>
      <trkpt lat="49.7509" lon="4.81065">
        <ele>217.38</ele>
        <time>2021-04-20T15:10:49Z</time>
      </trkpt>
      <trkpt lat="49.7509" lon="4.8107">
        <ele>216.93</ele>
        <time>2021-04-20T15:10:51Z</time>
      </trkpt>
      <trkpt lat="49.75091" lon="4.81074">
        <ele>216.65</ele>
        <time>2021-04-20T15:10:53Z</time>
      </trkpt>
      <trkpt lat="49.75093" lon="4.81078">
        <ele>216.49</ele>
        <time>2021-04-20T15:10:56Z</time>
      </trkpt>
      <trkpt lat="49.75096" lon="4.81079">
        <ele>216.69</ele>
        <time>2021-04-20T15:11:02Z</time>
      </trkpt>
      <trkpt lat="49.75097" lon="4.81084">
        <ele>216.49</ele>
        <time>2021-04-20T15:11:04Z</time>
      </trkpt>
      <trkpt lat="49.75098" lon="4.81089">
        <ele>216.67</ele>
        <time>2021-04-20T15:11:06Z</time>
      </trkpt>
      <trkpt lat="49.75099" lon="4.81093">
        <ele>216.8</ele>
        <time>2021-04-20T15:11:08Z</time>
      </trkpt>
      <trkpt lat="49.75101" lon="4.81096">
        <ele>216.95</ele>
        <time>2021-04-20T15:11:10Z</time>
      </trkpt>
      <trkpt lat="49.75103" lon="4.811">
        <ele>217.05</ele>
        <time>2021-04-20T15:11:12Z</time>
      </trkpt>
      <trkpt lat="49.75104" lon="4.81104">
        <ele>217.06</ele>
        <time>2021-04-20T15:11:15Z</time>
      </trkpt>
      <trkpt lat="49.75105" lon="4.81109">
        <ele>217.03</ele>
        <time>2021-04-20T15:11:18Z</time>
      </trkpt>
      <trkpt lat="49.75106" lon="4.81114">
        <ele>217</ele>
        <time>2021-04-20T15:11:21Z</time>
      </trkpt>
      <trkpt lat="49.75107" lon="4.81119">
        <ele>217</ele>
        <time>2021-04-20T15:11:23Z</time>
      </trkpt>
      <trkpt lat="49.75109" lon="4.81124">
        <ele>217</ele>
        <time>2021-04-20T15:11:25Z</time>
      </trkpt>
      <trkpt lat="49.7511" lon="4.8113">
        <ele>217</ele>
        <time>2021-04-20T15:11:27Z</time>
      </trkpt>
      <trkpt lat="49.75112" lon="4.81134">
        <ele>216.98</ele>
        <time>2021-04-20T15:11:29Z</time>
      </trkpt>
      <trkpt lat="49.75113" lon="4.81138">
        <ele>216.94</ele>
        <time>2021-04-20T15:11:31Z</time>
      </trkpt>
      <trkpt lat="49.75114" lon="4.81142">
        <ele>216.88</ele>
        <time>2021-04-20T15:11:34Z</time>
      </trkpt>
      <trkpt lat="49.75115" lon="4.81146">
        <ele>216.82</ele>
        <time>2021-04-20T15:11:38Z</time>
      </trkpt>
      <trkpt lat="49.75115" lon="4.8115">
        <ele>216.8</ele>
        <time>2021-04-20T15:11:41Z</time>
      </trkpt>
      <trkpt lat="49.75116" lon="4.81155">
        <ele>216.72</ele>
        <time>2021-04-20T15:11:44Z</time>
      </trkpt>
      <trkpt lat="49.75116" lon="4.81161">
        <ele>216.68</ele>
        <time>2021-04-20T15:11:47Z</time>
      </trkpt>
      <trkpt lat="49.75116" lon="4.81166">
        <ele>216.65</ele>
        <time>2021-04-20T15:11:50Z</time>
      </trkpt>
      <trkpt lat="49.75116" lon="4.81171">
        <ele>216.55</ele>
        <time>2021-04-20T15:11:53Z</time>
      </trkpt>
      <trkpt lat="49.75116" lon="4.81177">
        <ele>216.41</ele>
        <time>2021-04-20T15:11:56Z</time>
      </trkpt>
      <trkpt lat="49.75116" lon="4.81182">
        <ele>216.29</ele>
        <time>2021-04-20T15:11:59Z</time>
      </trkpt>
      <trkpt lat="49.75118" lon="4.81187">
        <ele>216.14</ele>
        <time>2021-04-20T15:12:01Z</time>
      </trkpt>
      <trkpt lat="49.75119" lon="4.81192">
        <ele>216.04</ele>
        <time>2021-04-20T15:12:04Z</time>
      </trkpt>
      <trkpt lat="49.75119" lon="4.81199">
        <ele>215.6</ele>
        <time>2021-04-20T15:12:07Z</time>
      </trkpt>
      <trkpt lat="49.7512" lon="4.81204">
        <ele>215.19</ele>
        <time>2021-04-20T15:12:10Z</time>
      </trkpt>
      <trkpt lat="49.75121" lon="4.81209">
        <ele>214.8</ele>
        <time>2021-04-20T15:12:12Z</time>
      </trkpt>
      <trkpt lat="49.75122" lon="4.81213">
        <ele>214.52</ele>
        <time>2021-04-20T15:12:15Z</time>
      </trkpt>
      <trkpt lat="49.75124" lon="4.81217">
        <ele>214.32</ele>
        <time>2021-04-20T15:12:20Z</time>
      </trkpt>
      <trkpt lat="49.75126" lon="4.81222">
        <ele>214.09</ele>
        <time>2021-04-20T15:12:24Z</time>
      </trkpt>
      <trkpt lat="49.75128" lon="4.81226">
        <ele>213.92</ele>
        <time>2021-04-20T15:12:26Z</time>
      </trkpt>
      <trkpt lat="49.75129" lon="4.81231">
        <ele>213.63</ele>
        <time>2021-04-20T15:12:29Z</time>
      </trkpt>
      <trkpt lat="49.7513" lon="4.81235">
        <ele>213.46</ele>
        <time>2021-04-20T15:12:31Z</time>
      </trkpt>
      <trkpt lat="49.7513" lon="4.8124">
        <ele>213.11</ele>
        <time>2021-04-20T15:12:34Z</time>
      </trkpt>
      <trkpt lat="49.75131" lon="4.81245">
        <ele>212.91</ele>
        <time>2021-04-20T15:12:37Z</time>
      </trkpt>
      <trkpt lat="49.75133" lon="4.8125">
        <ele>212.94</ele>
        <time>2021-04-20T15:12:40Z</time>
      </trkpt>
      <trkpt lat="49.75135" lon="4.81256">
        <ele>213.02</ele>
        <time>2021-04-20T15:12:43Z</time>
      </trkpt>
      <trkpt lat="49.75136" lon="4.8126">
        <ele>213.05</ele>
        <time>2021-04-20T15:12:45Z</time>
      </trkpt>
      <trkpt lat="49.75137" lon="4.81265">
        <ele>213.05</ele>
        <time>2021-04-20T15:12:48Z</time>
      </trkpt>
      <trkpt lat="49.75137" lon="4.8127">
        <ele>212.84</ele>
        <time>2021-04-20T15:13:00Z</time>
      </trkpt>
      <trkpt lat="49.75138" lon="4.81275">
        <ele>212.88</ele>
        <time>2021-04-20T15:13:02Z</time>
      </trkpt>
      <trkpt lat="49.7514" lon="4.8128">
        <ele>212.92</ele>
        <time>2021-04-20T15:13:05Z</time>
      </trkpt>
      <trkpt lat="49.7514" lon="4.81286">
        <ele>212.7</ele>
        <time>2021-04-20T15:13:09Z</time>
      </trkpt>
      <trkpt lat="49.7514" lon="4.8129">
        <ele>212.56</ele>
        <time>2021-04-20T15:13:11Z</time>
      </trkpt>
      <trkpt lat="49.75141" lon="4.81297">
        <ele>212.31</ele>
        <time>2021-04-20T15:13:14Z</time>
      </trkpt>
      <trkpt lat="49.75141" lon="4.81303">
        <ele>212.09</ele>
        <time>2021-04-20T15:13:16Z</time>
      </trkpt>
      <trkpt lat="49.75142" lon="4.81308">
        <ele>211.76</ele>
        <time>2021-04-20T15:13:18Z</time>
      </trkpt>
      <trkpt lat="49.75143" lon="4.81313">
        <ele>211.28</ele>
        <time>2021-04-20T15:13:21Z</time>
      </trkpt>
      <trkpt lat="49.75144" lon="4.81318">
        <ele>210.82</ele>
        <time>2021-04-20T15:13:23Z</time>
      </trkpt>
      <trkpt lat="49.75145" lon="4.81323">
        <ele>210.39</ele>
        <time>2021-04-20T15:13:25Z</time>
      </trkpt>
      <trkpt lat="49.75145" lon="4.81329">
        <ele>209.84</ele>
        <time>2021-04-20T15:13:28Z</time>
      </trkpt>
      <trkpt lat="49.75145" lon="4.81334">
        <ele>209.35</ele>
        <time>2021-04-20T15:13:31Z</time>
      </trkpt>
      <trkpt lat="49.75145" lon="4.81339">
        <ele>208.69</ele>
        <time>2021-04-20T15:13:33Z</time>
      </trkpt>
      <trkpt lat="49.75144" lon="4.81345">
        <ele>207.73</ele>
        <time>2021-04-20T15:13:36Z</time>
      </trkpt>
      <trkpt lat="49.75143" lon="4.8135">
        <ele>206.83</ele>
        <time>2021-04-20T15:13:39Z</time>
      </trkpt>
      <trkpt lat="49.75142" lon="4.81355">
        <ele>205.85</ele>
        <time>2021-04-20T15:13:42Z</time>
      </trkpt>
      <trkpt lat="49.75141" lon="4.81361">
        <ele>204.63</ele>
        <time>2021-04-20T15:13:45Z</time>
      </trkpt>
      <trkpt lat="49.75141" lon="4.81367">
        <ele>203.6</ele>
        <time>2021-04-20T15:13:48Z</time>
      </trkpt>
      <trkpt lat="49.75141" lon="4.81372">
        <ele>202.74</ele>
        <time>2021-04-20T15:13:50Z</time>
      </trkpt>
      <trkpt lat="49.7514" lon="4.81378">
        <ele>201.35</ele>
        <time>2021-04-20T15:13:53Z</time>
      </trkpt>
      <trkpt lat="49.7514" lon="4.81382">
        <ele>200.65</ele>
        <time>2021-04-20T15:13:55Z</time>
      </trkpt>
      <trkpt lat="49.75139" lon="4.81388">
        <ele>199.2</ele>
        <time>2021-04-20T15:13:58Z</time>
      </trkpt>
      <trkpt lat="49.75139" lon="4.81392">
        <ele>199.15</ele>
        <time>2021-04-20T15:14:01Z</time>
      </trkpt>
      <trkpt lat="49.75139" lon="4.81397">
        <ele>199.33</ele>
        <time>2021-04-20T15:14:04Z</time>
      </trkpt>
      <trkpt lat="49.75139" lon="4.81402">
        <ele>199.51</ele>
        <time>2021-04-20T15:14:06Z</time>
      </trkpt>
      <trkpt lat="49.75137" lon="4.81408">
        <ele>199.57</ele>
        <time>2021-04-20T15:14:09Z</time>
      </trkpt>
      <trkpt lat="49.75136" lon="4.81413">
        <ele>199.67</ele>
        <time>2021-04-20T15:14:12Z</time>
      </trkpt>
      <trkpt lat="49.75136" lon="4.81419">
        <ele>199.7</ele>
        <time>2021-04-20T15:14:15Z</time>
      </trkpt>
      <trkpt lat="49.75135" lon="4.81424">
        <ele>199.42</ele>
        <time>2021-04-20T15:14:18Z</time>
      </trkpt>
      <trkpt lat="49.75135" lon="4.81428">
        <ele>199.25</ele>
        <time>2021-04-20T15:14:22Z</time>
      </trkpt>
      <trkpt lat="49.75135" lon="4.81433">
        <ele>199.05</ele>
        <time>2021-04-20T15:14:25Z</time>
      </trkpt>
      <trkpt lat="49.75134" lon="4.81438">
        <ele>198.74</ele>
        <time>2021-04-20T15:14:28Z</time>
      </trkpt>
      <trkpt lat="49.75133" lon="4.81444">
        <ele>198.38</ele>
        <time>2021-04-20T15:14:31Z</time>
      </trkpt>
      <trkpt lat="49.75133" lon="4.81448">
        <ele>198.36</ele>
        <time>2021-04-20T15:14:33Z</time>
      </trkpt>
      <trkpt lat="49.75132" lon="4.81453">
        <ele>198.26</ele>
        <time>2021-04-20T15:14:35Z</time>
      </trkpt>
      <trkpt lat="49.75132" lon="4.81458">
        <ele>198.26</ele>
        <time>2021-04-20T15:14:37Z</time>
      </trkpt>
      <trkpt lat="49.75131" lon="4.81462">
        <ele>198.15</ele>
        <time>2021-04-20T15:14:40Z</time>
      </trkpt>
      <trkpt lat="49.7513" lon="4.81467">
        <ele>198.04</ele>
        <time>2021-04-20T15:14:42Z</time>
      </trkpt>
      <trkpt lat="49.75129" lon="4.81471">
        <ele>197.93</ele>
        <time>2021-04-20T15:14:44Z</time>
      </trkpt>
      <trkpt lat="49.75128" lon="4.81476">
        <ele>197.91</ele>
        <time>2021-04-20T15:14:46Z</time>
      </trkpt>
      <trkpt lat="49.75128" lon="4.81481">
        <ele>198.02</ele>
        <time>2021-04-20T15:14:48Z</time>
      </trkpt>
      <trkpt lat="49.75126" lon="4.81486">
        <ele>197.87</ele>
        <time>2021-04-20T15:14:51Z</time>
      </trkpt>
      <trkpt lat="49.75124" lon="4.81491">
        <ele>197.71</ele>
        <time>2021-04-20T15:14:54Z</time>
      </trkpt>
      <trkpt lat="49.75124" lon="4.81495">
        <ele>197.77</ele>
        <time>2021-04-20T15:14:56Z</time>
      </trkpt>
      <trkpt lat="49.75123" lon="4.81501">
        <ele>197.7</ele>
        <time>2021-04-20T15:14:58Z</time>
      </trkpt>
      <trkpt lat="49.75123" lon="4.81506">
        <ele>197.62</ele>
        <time>2021-04-20T15:15:00Z</time>
      </trkpt>
      <trkpt lat="49.75122" lon="4.8151">
        <ele>197.43</ele>
        <time>2021-04-20T15:15:02Z</time>
      </trkpt>
      <trkpt lat="49.75121" lon="4.81516">
        <ele>197.22</ele>
        <time>2021-04-20T15:15:05Z</time>
      </trkpt>
      <trkpt lat="49.7512" lon="4.8152">
        <ele>197.05</ele>
        <time>2021-04-20T15:15:07Z</time>
      </trkpt>
      <trkpt lat="49.75118" lon="4.81524">
        <ele>196.78</ele>
        <time>2021-04-20T15:15:09Z</time>
      </trkpt>
      <trkpt lat="49.75117" lon="4.81528">
        <ele>196.62</ele>
        <time>2021-04-20T15:15:11Z</time>
      </trkpt>
      <trkpt lat="49.75116" lon="4.81533">
        <ele>196.19</ele>
        <time>2021-04-20T15:15:14Z</time>
      </trkpt>
      <trkpt lat="49.75116" lon="4.81537">
        <ele>195.92</ele>
        <time>2021-04-20T15:15:18Z</time>
      </trkpt>
      <trkpt lat="49.75116" lon="4.81543">
        <ele>195.53</ele>
        <time>2021-04-20T15:15:21Z</time>
      </trkpt>
      <trkpt lat="49.75115" lon="4.81549">
        <ele>195</ele>
        <time>2021-04-20T15:15:24Z</time>
      </trkpt>
      <trkpt lat="49.75115" lon="4.81555">
        <ele>194.6</ele>
        <time>2021-04-20T15:15:28Z</time>
      </trkpt>
      <trkpt lat="49.75115" lon="4.81559">
        <ele>194.35</ele>
        <time>2021-04-20T15:15:31Z</time>
      </trkpt>
      <trkpt lat="49.75113" lon="4.81563">
        <ele>193.77</ele>
        <time>2021-04-20T15:15:39Z</time>
      </trkpt>
      <trkpt lat="49.75113" lon="4.81568">
        <ele>193.44</ele>
        <time>2021-04-20T15:15:42Z</time>
      </trkpt>
      <trkpt lat="49.75113" lon="4.81572">
        <ele>193.17</ele>
        <time>2021-04-20T15:15:44Z</time>
      </trkpt>
      <trkpt lat="49.75112" lon="4.81578">
        <ele>192.56</ele>
        <time>2021-04-20T15:15:47Z</time>
      </trkpt>
      <trkpt lat="49.75111" lon="4.81582">
        <ele>192.08</ele>
        <time>2021-04-20T15:15:57Z</time>
      </trkpt>
      <trkpt lat="49.7511" lon="4.81587">
        <ele>191.87</ele>
        <time>2021-04-20T15:16:04Z</time>
      </trkpt>
      <trkpt lat="49.75109" lon="4.81592">
        <ele>191.75</ele>
        <time>2021-04-20T15:16:07Z</time>
      </trkpt>
      <trkpt lat="49.75109" lon="4.81597">
        <ele>191.73</ele>
        <time>2021-04-20T15:16:09Z</time>
      </trkpt>
      <trkpt lat="49.7511" lon="4.81602">
        <ele>191.85</ele>
        <time>2021-04-20T15:16:11Z</time>
      </trkpt>
      <trkpt lat="49.7511" lon="4.81607">
        <ele>191.85</ele>
        <time>2021-04-20T15:16:13Z</time>
      </trkpt>
      <trkpt lat="49.7511" lon="4.81612">
        <ele>191.84</ele>
        <time>2021-04-20T15:16:15Z</time>
      </trkpt>
      <trkpt lat="49.7511" lon="4.81617">
        <ele>191.84</ele>
        <time>2021-04-20T15:16:17Z</time>
      </trkpt>
      <trkpt lat="49.75111" lon="4.81622">
        <ele>191.98</ele>
        <time>2021-04-20T15:16:20Z</time>
      </trkpt>
      <trkpt lat="49.75112" lon="4.81627">
        <ele>192.19</ele>
        <time>2021-04-20T15:16:23Z</time>
      </trkpt>
      <trkpt lat="49.75113" lon="4.81632">
        <ele>192.41</ele>
        <time>2021-04-20T15:16:26Z</time>
      </trkpt>
      <trkpt lat="49.75112" lon="4.81636">
        <ele>192.19</ele>
        <time>2021-04-20T15:16:29Z</time>
      </trkpt>
      <trkpt lat="49.75112" lon="4.81642">
        <ele>192.18</ele>
        <time>2021-04-20T15:16:32Z</time>
      </trkpt>
      <trkpt lat="49.75112" lon="4.81648">
        <ele>192.17</ele>
        <time>2021-04-20T15:16:35Z</time>
      </trkpt>
      <trkpt lat="49.75113" lon="4.81654">
        <ele>192.33</ele>
        <time>2021-04-20T15:16:38Z</time>
      </trkpt>
      <trkpt lat="49.75113" lon="4.8166">
        <ele>192.3</ele>
        <time>2021-04-20T15:16:41Z</time>
      </trkpt>
      <trkpt lat="49.75113" lon="4.81666">
        <ele>192.28</ele>
        <time>2021-04-20T15:16:44Z</time>
      </trkpt>
      <trkpt lat="49.75113" lon="4.81672">
        <ele>192.62</ele>
        <time>2021-04-20T15:16:46Z</time>
      </trkpt>
      <trkpt lat="49.75114" lon="4.81677">
        <ele>193.04</ele>
        <time>2021-04-20T15:16:48Z</time>
      </trkpt>
      <trkpt lat="49.75114" lon="4.81681">
        <ele>193.29</ele>
        <time>2021-04-20T15:16:49Z</time>
      </trkpt>
      <trkpt lat="49.75115" lon="4.81686">
        <ele>193.66</ele>
        <time>2021-04-20T15:16:51Z</time>
      </trkpt>
      <trkpt lat="49.75115" lon="4.81691">
        <ele>193.94</ele>
        <time>2021-04-20T15:16:54Z</time>
      </trkpt>
      <trkpt lat="49.75116" lon="4.81697">
        <ele>194.16</ele>
        <time>2021-04-20T15:16:57Z</time>
      </trkpt>
      <trkpt lat="49.75118" lon="4.81701">
        <ele>194.19</ele>
        <time>2021-04-20T15:16:59Z</time>
      </trkpt>
      <trkpt lat="49.75119" lon="4.81706">
        <ele>194.17</ele>
        <time>2021-04-20T15:17:02Z</time>
      </trkpt>
      <trkpt lat="49.75121" lon="4.8171">
        <ele>194.16</ele>
        <time>2021-04-20T15:17:04Z</time>
      </trkpt>
      <trkpt lat="49.75122" lon="4.81713">
        <ele>194.13</ele>
        <time>2021-04-20T15:17:06Z</time>
      </trkpt>
      <trkpt lat="49.75125" lon="4.81718">
        <ele>194.08</ele>
        <time>2021-04-20T15:17:09Z</time>
      </trkpt>
      <trkpt lat="49.75127" lon="4.81723">
        <ele>193.99</ele>
        <time>2021-04-20T15:17:12Z</time>
      </trkpt>
      <trkpt lat="49.75128" lon="4.81727">
        <ele>193.93</ele>
        <time>2021-04-20T15:17:14Z</time>
      </trkpt>
      <trkpt lat="49.7513" lon="4.81732">
        <ele>193.89</ele>
        <time>2021-04-20T15:17:17Z</time>
      </trkpt>
      <trkpt lat="49.75131" lon="4.81736">
        <ele>193.86</ele>
        <time>2021-04-20T15:17:19Z</time>
      </trkpt>
      <trkpt lat="49.75132" lon="4.8174">
        <ele>193.84</ele>
        <time>2021-04-20T15:17:21Z</time>
      </trkpt>
      <trkpt lat="49.75133" lon="4.81745">
        <ele>193.83</ele>
        <time>2021-04-20T15:17:24Z</time>
      </trkpt>
      <trkpt lat="49.75135" lon="4.8175">
        <ele>193.86</ele>
        <time>2021-04-20T15:17:27Z</time>
      </trkpt>
      <trkpt lat="49.75136" lon="4.81754">
        <ele>194.03</ele>
        <time>2021-04-20T15:17:29Z</time>
      </trkpt>
      <trkpt lat="49.75137" lon="4.81758">
        <ele>194.2</ele>
        <time>2021-04-20T15:17:31Z</time>
      </trkpt>
      <trkpt lat="49.75139" lon="4.81764">
        <ele>194.51</ele>
        <time>2021-04-20T15:17:34Z</time>
      </trkpt>
      <trkpt lat="49.75141" lon="4.81769">
        <ele>194.73</ele>
        <time>2021-04-20T15:17:37Z</time>
      </trkpt>
      <trkpt lat="49.75144" lon="4.81772">
        <ele>194.87</ele>
        <time>2021-04-20T15:17:40Z</time>
      </trkpt>
      <trkpt lat="49.75147" lon="4.81776">
        <ele>194.97</ele>
        <time>2021-04-20T15:17:43Z</time>
      </trkpt>
      <trkpt lat="49.75149" lon="4.81779">
        <ele>195</ele>
        <time>2021-04-20T15:17:46Z</time>
      </trkpt>
      <trkpt lat="49.75151" lon="4.81783">
        <ele>194.94</ele>
        <time>2021-04-20T15:17:49Z</time>
      </trkpt>
      <trkpt lat="49.75154" lon="4.81786">
        <ele>194.81</ele>
        <time>2021-04-20T15:17:53Z</time>
      </trkpt>
      <trkpt lat="49.75156" lon="4.81791">
        <ele>194.6</ele>
        <time>2021-04-20T15:17:56Z</time>
      </trkpt>
      <trkpt lat="49.75159" lon="4.81795">
        <ele>194.27</ele>
        <time>2021-04-20T15:17:59Z</time>
      </trkpt>
      <trkpt lat="49.75161" lon="4.81799">
        <ele>193.94</ele>
        <time>2021-04-20T15:18:01Z</time>
      </trkpt>
      <trkpt lat="49.75162" lon="4.81802">
        <ele>193.7</ele>
        <time>2021-04-20T15:18:03Z</time>
      </trkpt>
      <trkpt lat="49.75164" lon="4.81805">
        <ele>193.32</ele>
        <time>2021-04-20T15:18:05Z</time>
      </trkpt>
      <trkpt lat="49.75167" lon="4.81808">
        <ele>192.83</ele>
        <time>2021-04-20T15:18:07Z</time>
      </trkpt>
      <trkpt lat="49.7517" lon="4.8181">
        <ele>192.78</ele>
        <time>2021-04-20T15:18:09Z</time>
      </trkpt>
      <trkpt lat="49.75173" lon="4.81813">
        <ele>192.63</ele>
        <time>2021-04-20T15:18:12Z</time>
      </trkpt>
      <trkpt lat="49.75175" lon="4.81817">
        <ele>192.35</ele>
        <time>2021-04-20T15:18:15Z</time>
      </trkpt>
      <trkpt lat="49.75177" lon="4.81821">
        <ele>192.05</ele>
        <time>2021-04-20T15:18:17Z</time>
      </trkpt>
      <trkpt lat="49.75179" lon="4.81825">
        <ele>191.73</ele>
        <time>2021-04-20T15:18:20Z</time>
      </trkpt>
      <trkpt lat="49.75181" lon="4.8183">
        <ele>191.3</ele>
        <time>2021-04-20T15:18:23Z</time>
      </trkpt>
      <trkpt lat="49.75183" lon="4.81834">
        <ele>190.93</ele>
        <time>2021-04-20T15:18:26Z</time>
      </trkpt>
      <trkpt lat="49.75186" lon="4.81837">
        <ele>190.59</ele>
        <time>2021-04-20T15:18:29Z</time>
      </trkpt>
      <trkpt lat="49.75188" lon="4.81841">
        <ele>190.09</ele>
        <time>2021-04-20T15:18:31Z</time>
      </trkpt>
      <trkpt lat="49.7519" lon="4.81845">
        <ele>189.52</ele>
        <time>2021-04-20T15:18:34Z</time>
      </trkpt>
      <trkpt lat="49.75193" lon="4.81849">
        <ele>188.83</ele>
        <time>2021-04-20T15:18:37Z</time>
      </trkpt>
      <trkpt lat="49.75195" lon="4.81854">
        <ele>188.1</ele>
        <time>2021-04-20T15:18:40Z</time>
      </trkpt>
      <trkpt lat="49.75197" lon="4.81859">
        <ele>187.67</ele>
        <time>2021-04-20T15:18:43Z</time>
      </trkpt>
      <trkpt lat="49.75199" lon="4.81862">
        <ele>187.68</ele>
        <time>2021-04-20T15:18:45Z</time>
      </trkpt>
      <trkpt lat="49.75201" lon="4.81866">
        <ele>188.04</ele>
        <time>2021-04-20T15:18:47Z</time>
      </trkpt>
      <trkpt lat="49.75203" lon="4.81869">
        <ele>188.34</ele>
        <time>2021-04-20T15:18:49Z</time>
      </trkpt>
      <trkpt lat="49.75205" lon="4.81873">
        <ele>188.62</ele>
        <time>2021-04-20T15:18:52Z</time>
      </trkpt>
      <trkpt lat="49.75209" lon="4.81875">
        <ele>189.07</ele>
        <time>2021-04-20T15:18:55Z</time>
      </trkpt>
      <trkpt lat="49.75211" lon="4.81878">
        <ele>189.27</ele>
        <time>2021-04-20T15:18:58Z</time>
      </trkpt>
      <trkpt lat="49.75213" lon="4.81882">
        <ele>189.42</ele>
        <time>2021-04-20T15:19:01Z</time>
      </trkpt>
      <trkpt lat="49.75216" lon="4.81887">
        <ele>189.59</ele>
        <time>2021-04-20T15:19:04Z</time>
      </trkpt>
      <trkpt lat="49.75219" lon="4.81889">
        <ele>189.75</ele>
        <time>2021-04-20T15:19:07Z</time>
      </trkpt>
      <trkpt lat="49.75222" lon="4.81891">
        <ele>189.68</ele>
        <time>2021-04-20T15:19:10Z</time>
      </trkpt>
      <trkpt lat="49.75225" lon="4.81893">
        <ele>189.75</ele>
        <time>2021-04-20T15:19:12Z</time>
      </trkpt>
      <trkpt lat="49.75227" lon="4.81895">
        <ele>189.75</ele>
        <time>2021-04-20T15:19:14Z</time>
      </trkpt>
      <trkpt lat="49.7523" lon="4.81898">
        <ele>189.8</ele>
        <time>2021-04-20T15:19:17Z</time>
      </trkpt>
      <trkpt lat="49.75233" lon="4.81902">
        <ele>189.83</ele>
        <time>2021-04-20T15:19:20Z</time>
      </trkpt>
      <trkpt lat="49.75236" lon="4.81905">
        <ele>190.03</ele>
        <time>2021-04-20T15:19:23Z</time>
      </trkpt>
      <trkpt lat="49.7524" lon="4.81908">
        <ele>190.49</ele>
        <time>2021-04-20T15:19:26Z</time>
      </trkpt>
      <trkpt lat="49.75243" lon="4.81912">
        <ele>190.78</ele>
        <time>2021-04-20T15:19:29Z</time>
      </trkpt>
      <trkpt lat="49.75246" lon="4.81916">
        <ele>191.17</ele>
        <time>2021-04-20T15:19:32Z</time>
      </trkpt>
      <trkpt lat="49.75248" lon="4.8192">
        <ele>191.53</ele>
        <time>2021-04-20T15:19:34Z</time>
      </trkpt>
      <trkpt lat="49.75249" lon="4.81923">
        <ele>191.75</ele>
        <time>2021-04-20T15:19:36Z</time>
      </trkpt>
      <trkpt lat="49.75252" lon="4.81928">
        <ele>192.26</ele>
        <time>2021-04-20T15:19:39Z</time>
      </trkpt>
      <trkpt lat="49.75254" lon="4.81932">
        <ele>192.5</ele>
        <time>2021-04-20T15:19:42Z</time>
      </trkpt>
      <trkpt lat="49.75255" lon="4.81936">
        <ele>192.59</ele>
        <time>2021-04-20T15:19:44Z</time>
      </trkpt>
      <trkpt lat="49.75256" lon="4.8194">
        <ele>192.68</ele>
        <time>2021-04-20T15:19:46Z</time>
      </trkpt>
      <trkpt lat="49.75259" lon="4.81944">
        <ele>192.98</ele>
        <time>2021-04-20T15:19:49Z</time>
      </trkpt>
      <trkpt lat="49.75262" lon="4.81946">
        <ele>193.22</ele>
        <time>2021-04-20T15:19:52Z</time>
      </trkpt>
      <trkpt lat="49.75265" lon="4.81949">
        <ele>193.37</ele>
        <time>2021-04-20T15:19:55Z</time>
      </trkpt>
      <trkpt lat="49.75268" lon="4.81952">
        <ele>193.5</ele>
        <time>2021-04-20T15:19:58Z</time>
      </trkpt>
      <trkpt lat="49.75271" lon="4.81956">
        <ele>193.54</ele>
        <time>2021-04-20T15:20:01Z</time>
      </trkpt>
      <trkpt lat="49.75273" lon="4.81959">
        <ele>193.53</ele>
        <time>2021-04-20T15:20:03Z</time>
      </trkpt>
      <trkpt lat="49.75276" lon="4.8196">
        <ele>193.72</ele>
        <time>2021-04-20T15:20:05Z</time>
      </trkpt>
      <trkpt lat="49.75279" lon="4.81962">
        <ele>193.6</ele>
        <time>2021-04-20T15:20:08Z</time>
      </trkpt>
      <trkpt lat="49.75282" lon="4.81964">
        <ele>193.06</ele>
        <time>2021-04-20T15:20:11Z</time>
      </trkpt>
      <trkpt lat="49.75284" lon="4.81968">
        <ele>192.35</ele>
        <time>2021-04-20T15:20:14Z</time>
      </trkpt>
      <trkpt lat="49.75287" lon="4.8197">
        <ele>191.63</ele>
        <time>2021-04-20T15:20:16Z</time>
      </trkpt>
      <trkpt lat="49.7529" lon="4.81973">
        <ele>190.67</ele>
        <time>2021-04-20T15:20:19Z</time>
      </trkpt>
      <trkpt lat="49.75293" lon="4.81975">
        <ele>189.82</ele>
        <time>2021-04-20T15:20:22Z</time>
      </trkpt>
      <trkpt lat="49.75297" lon="4.81976">
        <ele>189.01</ele>
        <time>2021-04-20T15:20:25Z</time>
      </trkpt>
      <trkpt lat="49.75299" lon="4.81978">
        <ele>188.41</ele>
        <time>2021-04-20T15:20:27Z</time>
      </trkpt>
      <trkpt lat="49.75302" lon="4.8198">
        <ele>187.69</ele>
        <time>2021-04-20T15:20:29Z</time>
      </trkpt>
      <trkpt lat="49.75305" lon="4.81982">
        <ele>187.02</ele>
        <time>2021-04-20T15:20:31Z</time>
      </trkpt>
      <trkpt lat="49.75308" lon="4.81984">
        <ele>186.85</ele>
        <time>2021-04-20T15:20:33Z</time>
      </trkpt>
      <trkpt lat="49.75311" lon="4.81985">
        <ele>186.91</ele>
        <time>2021-04-20T15:20:36Z</time>
      </trkpt>
      <trkpt lat="49.75315" lon="4.81988">
        <ele>186.83</ele>
        <time>2021-04-20T15:20:39Z</time>
      </trkpt>
      <trkpt lat="49.75317" lon="4.8199">
        <ele>186.76</ele>
        <time>2021-04-20T15:20:41Z</time>
      </trkpt>
      <trkpt lat="49.7532" lon="4.81992">
        <ele>186.75</ele>
        <time>2021-04-20T15:20:44Z</time>
      </trkpt>
      <trkpt lat="49.75323" lon="4.81994">
        <ele>186.77</ele>
        <time>2021-04-20T15:20:47Z</time>
      </trkpt>
      <trkpt lat="49.75327" lon="4.81996">
        <ele>186.86</ele>
        <time>2021-04-20T15:20:50Z</time>
      </trkpt>
      <trkpt lat="49.7533" lon="4.81999">
        <ele>186.84</ele>
        <time>2021-04-20T15:20:53Z</time>
      </trkpt>
      <trkpt lat="49.75332" lon="4.82001">
        <ele>186.8</ele>
        <time>2021-04-20T15:20:56Z</time>
      </trkpt>
      <trkpt lat="49.75336" lon="4.82003">
        <ele>186.78</ele>
        <time>2021-04-20T15:20:59Z</time>
      </trkpt>
      <trkpt lat="49.75339" lon="4.82006">
        <ele>186.6</ele>
        <time>2021-04-20T15:21:02Z</time>
      </trkpt>
      <trkpt lat="49.75342" lon="4.82009">
        <ele>186.44</ele>
        <time>2021-04-20T15:21:05Z</time>
      </trkpt>
      <trkpt lat="49.75345" lon="4.82012">
        <ele>186.31</ele>
        <time>2021-04-20T15:21:09Z</time>
      </trkpt>
      <trkpt lat="49.75347" lon="4.82013">
        <ele>186.32</ele>
        <time>2021-04-20T15:21:12Z</time>
      </trkpt>
      <trkpt lat="49.7535" lon="4.82014">
        <ele>186.39</ele>
        <time>2021-04-20T15:21:15Z</time>
      </trkpt>
      <trkpt lat="49.75353" lon="4.82015">
        <ele>186.47</ele>
        <time>2021-04-20T15:21:18Z</time>
      </trkpt>
      <trkpt lat="49.75357" lon="4.82017">
        <ele>186.54</ele>
        <time>2021-04-20T15:21:21Z</time>
      </trkpt>
      <trkpt lat="49.7536" lon="4.82018">
        <ele>186.64</ele>
        <time>2021-04-20T15:21:24Z</time>
      </trkpt>
      <trkpt lat="49.75363" lon="4.82019">
        <ele>186.81</ele>
        <time>2021-04-20T15:21:29Z</time>
      </trkpt>
      <trkpt lat="49.75366" lon="4.82022">
        <ele>186.91</ele>
        <time>2021-04-20T15:21:33Z</time>
      </trkpt>
      <trkpt lat="49.75369" lon="4.82024">
        <ele>187.09</ele>
        <time>2021-04-20T15:21:36Z</time>
      </trkpt>
      <trkpt lat="49.75372" lon="4.82026">
        <ele>187.28</ele>
        <time>2021-04-20T15:21:39Z</time>
      </trkpt>
      <trkpt lat="49.75375" lon="4.82028">
        <ele>187.49</ele>
        <time>2021-04-20T15:21:42Z</time>
      </trkpt>
      <trkpt lat="49.75379" lon="4.82029">
        <ele>187.89</ele>
        <time>2021-04-20T15:21:45Z</time>
      </trkpt>
      <trkpt lat="49.75381" lon="4.8203">
        <ele>188.07</ele>
        <time>2021-04-20T15:21:47Z</time>
      </trkpt>
      <trkpt lat="49.75384" lon="4.82031">
        <ele>188.36</ele>
        <time>2021-04-20T15:21:49Z</time>
      </trkpt>
      <trkpt lat="49.75387" lon="4.82033">
        <ele>188.61</ele>
        <time>2021-04-20T15:21:51Z</time>
      </trkpt>
      <trkpt lat="49.75389" lon="4.82034">
        <ele>188.76</ele>
        <time>2021-04-20T15:21:53Z</time>
      </trkpt>
      <trkpt lat="49.75392" lon="4.82037">
        <ele>188.33</ele>
        <time>2021-04-20T15:21:55Z</time>
      </trkpt>
      <trkpt lat="49.75395" lon="4.82039">
        <ele>187.94</ele>
        <time>2021-04-20T15:21:57Z</time>
      </trkpt>
      <trkpt lat="49.75398" lon="4.82042">
        <ele>187.5</ele>
        <time>2021-04-20T15:22:00Z</time>
      </trkpt>
      <trkpt lat="49.75401" lon="4.82044">
        <ele>187.11</ele>
        <time>2021-04-20T15:22:03Z</time>
      </trkpt>
      <trkpt lat="49.75403" lon="4.82046">
        <ele>186.82</ele>
        <time>2021-04-20T15:22:05Z</time>
      </trkpt>
      <trkpt lat="49.75407" lon="4.82049">
        <ele>186.28</ele>
        <time>2021-04-20T15:22:08Z</time>
      </trkpt>
      <trkpt lat="49.7541" lon="4.82052">
        <ele>185.85</ele>
        <time>2021-04-20T15:22:11Z</time>
      </trkpt>
      <trkpt lat="49.75413" lon="4.82055">
        <ele>185.42</ele>
        <time>2021-04-20T15:22:14Z</time>
      </trkpt>
      <trkpt lat="49.75416" lon="4.82057">
        <ele>185.02</ele>
        <time>2021-04-20T15:22:16Z</time>
      </trkpt>
      <trkpt lat="49.75419" lon="4.8206">
        <ele>184.6</ele>
        <time>2021-04-20T15:22:18Z</time>
      </trkpt>
      <trkpt lat="49.75422" lon="4.82063">
        <ele>184.21</ele>
        <time>2021-04-20T15:22:20Z</time>
      </trkpt>
      <trkpt lat="49.75425" lon="4.82067">
        <ele>183.81</ele>
        <time>2021-04-20T15:22:23Z</time>
      </trkpt>
      <trkpt lat="49.75427" lon="4.82071">
        <ele>183.53</ele>
        <time>2021-04-20T15:22:26Z</time>
      </trkpt>
      <trkpt lat="49.75429" lon="4.82074">
        <ele>183.3</ele>
        <time>2021-04-20T15:22:28Z</time>
      </trkpt>
      <trkpt lat="49.75432" lon="4.82076">
        <ele>183.01</ele>
        <time>2021-04-20T15:22:30Z</time>
      </trkpt>
      <trkpt lat="49.75435" lon="4.82079">
        <ele>182.73</ele>
        <time>2021-04-20T15:22:33Z</time>
      </trkpt>
      <trkpt lat="49.75438" lon="4.82081">
        <ele>182.48</ele>
        <time>2021-04-20T15:22:35Z</time>
      </trkpt>
      <trkpt lat="49.75441" lon="4.82083">
        <ele>182.25</ele>
        <time>2021-04-20T15:22:37Z</time>
      </trkpt>
      <trkpt lat="49.75443" lon="4.82085">
        <ele>182.28</ele>
        <time>2021-04-20T15:22:39Z</time>
      </trkpt>
      <trkpt lat="49.75446" lon="4.82086">
        <ele>182.11</ele>
        <time>2021-04-20T15:22:41Z</time>
      </trkpt>
      <trkpt lat="49.7545" lon="4.8209">
        <ele>182.02</ele>
        <time>2021-04-20T15:22:44Z</time>
      </trkpt>
      <trkpt lat="49.75453" lon="4.82092">
        <ele>181.82</ele>
        <time>2021-04-20T15:22:46Z</time>
      </trkpt>
      <trkpt lat="49.75456" lon="4.82094">
        <ele>181.58</ele>
        <time>2021-04-20T15:22:48Z</time>
      </trkpt>
      <trkpt lat="49.75458" lon="4.82096">
        <ele>181.46</ele>
        <time>2021-04-20T15:22:50Z</time>
      </trkpt>
      <trkpt lat="49.75461" lon="4.82099">
        <ele>181.23</ele>
        <time>2021-04-20T15:22:53Z</time>
      </trkpt>
      <trkpt lat="49.75464" lon="4.82103">
        <ele>181.02</ele>
        <time>2021-04-20T15:22:56Z</time>
      </trkpt>
      <trkpt lat="49.75466" lon="4.82107">
        <ele>180.91</ele>
        <time>2021-04-20T15:22:59Z</time>
      </trkpt>
      <trkpt lat="49.75468" lon="4.8211">
        <ele>180.71</ele>
        <time>2021-04-20T15:23:02Z</time>
      </trkpt>
      <trkpt lat="49.75471" lon="4.82115">
        <ele>180.21</ele>
        <time>2021-04-20T15:23:05Z</time>
      </trkpt>
      <trkpt lat="49.75473" lon="4.82119">
        <ele>180.13</ele>
        <time>2021-04-20T15:23:08Z</time>
      </trkpt>
      <trkpt lat="49.75475" lon="4.82123">
        <ele>180.46</ele>
        <time>2021-04-20T15:23:11Z</time>
      </trkpt>
      <trkpt lat="49.75478" lon="4.82127">
        <ele>180.92</ele>
        <time>2021-04-20T15:23:14Z</time>
      </trkpt>
      <trkpt lat="49.7548" lon="4.82131">
        <ele>181.2</ele>
        <time>2021-04-20T15:23:16Z</time>
      </trkpt>
      <trkpt lat="49.75483" lon="4.82133">
        <ele>181.63</ele>
        <time>2021-04-20T15:23:19Z</time>
      </trkpt>
      <trkpt lat="49.75485" lon="4.82137">
        <ele>181.87</ele>
        <time>2021-04-20T15:23:22Z</time>
      </trkpt>
      <trkpt lat="49.75487" lon="4.82141">
        <ele>181.74</ele>
        <time>2021-04-20T15:23:24Z</time>
      </trkpt>
      <trkpt lat="49.7549" lon="4.82144">
        <ele>181.54</ele>
        <time>2021-04-20T15:23:26Z</time>
      </trkpt>
      <trkpt lat="49.75492" lon="4.82148">
        <ele>180.93</ele>
        <time>2021-04-20T15:23:29Z</time>
      </trkpt>
      <trkpt lat="49.75495" lon="4.82152">
        <ele>180.32</ele>
        <time>2021-04-20T15:23:32Z</time>
      </trkpt>
      <trkpt lat="49.75497" lon="4.82156">
        <ele>179.52</ele>
        <time>2021-04-20T15:23:35Z</time>
      </trkpt>
      <trkpt lat="49.75499" lon="4.82159">
        <ele>178.89</ele>
        <time>2021-04-20T15:23:37Z</time>
      </trkpt>
      <trkpt lat="49.75501" lon="4.82162">
        <ele>178.27</ele>
        <time>2021-04-20T15:23:39Z</time>
      </trkpt>
      <trkpt lat="49.75503" lon="4.82165">
        <ele>177.72</ele>
        <time>2021-04-20T15:23:41Z</time>
      </trkpt>
      <trkpt lat="49.75505" lon="4.82168">
        <ele>177.48</ele>
        <time>2021-04-20T15:23:43Z</time>
      </trkpt>
      <trkpt lat="49.75507" lon="4.82172">
        <ele>177.52</ele>
        <time>2021-04-20T15:23:45Z</time>
      </trkpt>
      <trkpt lat="49.75509" lon="4.82177">
        <ele>177.48</ele>
        <time>2021-04-20T15:23:47Z</time>
      </trkpt>
      <trkpt lat="49.75511" lon="4.8218">
        <ele>177.52</ele>
        <time>2021-04-20T15:23:49Z</time>
      </trkpt>
      <trkpt lat="49.75513" lon="4.82184">
        <ele>177.49</ele>
        <time>2021-04-20T15:23:52Z</time>
      </trkpt>
      <trkpt lat="49.75515" lon="4.82189">
        <ele>177.38</ele>
        <time>2021-04-20T15:23:55Z</time>
      </trkpt>
      <trkpt lat="49.75516" lon="4.82194">
        <ele>177.18</ele>
        <time>2021-04-20T15:23:58Z</time>
      </trkpt>
      <trkpt lat="49.75518" lon="4.82199">
        <ele>177.19</ele>
        <time>2021-04-20T15:24:01Z</time>
      </trkpt>
      <trkpt lat="49.7552" lon="4.82203">
        <ele>177.22</ele>
        <time>2021-04-20T15:24:03Z</time>
      </trkpt>
      <trkpt lat="49.75521" lon="4.82208">
        <ele>177.14</ele>
        <time>2021-04-20T15:24:05Z</time>
      </trkpt>
      <trkpt lat="49.75522" lon="4.82212">
        <ele>177.08</ele>
        <time>2021-04-20T15:24:07Z</time>
      </trkpt>
      <trkpt lat="49.75524" lon="4.82216">
        <ele>177.06</ele>
        <time>2021-04-20T15:24:10Z</time>
      </trkpt>
      <trkpt lat="49.75525" lon="4.8222">
        <ele>176.97</ele>
        <time>2021-04-20T15:24:13Z</time>
      </trkpt>
      <trkpt lat="49.75527" lon="4.82224">
        <ele>177.04</ele>
        <time>2021-04-20T15:24:16Z</time>
      </trkpt>
      <trkpt lat="49.7553" lon="4.82228">
        <ele>177.43</ele>
        <time>2021-04-20T15:24:19Z</time>
      </trkpt>
      <trkpt lat="49.75532" lon="4.82232">
        <ele>177.75</ele>
        <time>2021-04-20T15:24:21Z</time>
      </trkpt>
      <trkpt lat="49.75534" lon="4.82235">
        <ele>178.03</ele>
        <time>2021-04-20T15:24:23Z</time>
      </trkpt>
      <trkpt lat="49.75536" lon="4.82239">
        <ele>178.31</ele>
        <time>2021-04-20T15:24:25Z</time>
      </trkpt>
      <trkpt lat="49.75538" lon="4.82244">
        <ele>178.6</ele>
        <time>2021-04-20T15:24:28Z</time>
      </trkpt>
      <trkpt lat="49.7554" lon="4.82248">
        <ele>178.84</ele>
        <time>2021-04-20T15:24:30Z</time>
      </trkpt>
      <trkpt lat="49.75542" lon="4.82252">
        <ele>179.06</ele>
        <time>2021-04-20T15:24:33Z</time>
      </trkpt>
      <trkpt lat="49.75545" lon="4.82257">
        <ele>179.4</ele>
        <time>2021-04-20T15:24:36Z</time>
      </trkpt>
      <trkpt lat="49.75547" lon="4.82263">
        <ele>179.71</ele>
        <time>2021-04-20T15:24:39Z</time>
      </trkpt>
      <trkpt lat="49.75547" lon="4.82268">
        <ele>179.83</ele>
        <time>2021-04-20T15:24:42Z</time>
      </trkpt>
      <trkpt lat="49.75546" lon="4.82275">
        <ele>179.9</ele>
        <time>2021-04-20T15:24:45Z</time>
      </trkpt>
      <trkpt lat="49.75546" lon="4.8228">
        <ele>179.94</ele>
        <time>2021-04-20T15:24:47Z</time>
      </trkpt>
      <trkpt lat="49.75546" lon="4.82285">
        <ele>179.88</ele>
        <time>2021-04-20T15:24:49Z</time>
      </trkpt>
      <trkpt lat="49.75548" lon="4.8229">
        <ele>180.06</ele>
        <time>2021-04-20T15:24:52Z</time>
      </trkpt>
      <trkpt lat="49.7555" lon="4.82294">
        <ele>180.28</ele>
        <time>2021-04-20T15:24:54Z</time>
      </trkpt>
      <trkpt lat="49.75551" lon="4.82297">
        <ele>180.39</ele>
        <time>2021-04-20T15:24:56Z</time>
      </trkpt>
      <trkpt lat="49.75553" lon="4.82301">
        <ele>180.65</ele>
        <time>2021-04-20T15:24:58Z</time>
      </trkpt>
      <trkpt lat="49.75555" lon="4.82305">
        <ele>180.92</ele>
        <time>2021-04-20T15:25:00Z</time>
      </trkpt>
      <trkpt lat="49.75557" lon="4.82308">
        <ele>181.02</ele>
        <time>2021-04-20T15:25:02Z</time>
      </trkpt>
      <trkpt lat="49.75559" lon="4.82311">
        <ele>181.08</ele>
        <time>2021-04-20T15:25:04Z</time>
      </trkpt>
      <trkpt lat="49.75562" lon="4.82315">
        <ele>181.2</ele>
        <time>2021-04-20T15:25:07Z</time>
      </trkpt>
      <trkpt lat="49.75564" lon="4.82319">
        <ele>181.27</ele>
        <time>2021-04-20T15:25:10Z</time>
      </trkpt>
      <trkpt lat="49.75566" lon="4.82323">
        <ele>181.36</ele>
        <time>2021-04-20T15:25:12Z</time>
      </trkpt>
      <trkpt lat="49.75569" lon="4.82327">
        <ele>181.57</ele>
        <time>2021-04-20T15:25:15Z</time>
      </trkpt>
      <trkpt lat="49.75572" lon="4.82331">
        <ele>181.81</ele>
        <time>2021-04-20T15:25:18Z</time>
      </trkpt>
      <trkpt lat="49.75574" lon="4.82333">
        <ele>182</ele>
        <time>2021-04-20T15:25:21Z</time>
      </trkpt>
      <trkpt lat="49.75577" lon="4.82335">
        <ele>182.16</ele>
        <time>2021-04-20T15:25:24Z</time>
      </trkpt>
      <trkpt lat="49.7558" lon="4.82338">
        <ele>182.18</ele>
        <time>2021-04-20T15:25:27Z</time>
      </trkpt>
      <trkpt lat="49.75582" lon="4.82341">
        <ele>182.05</ele>
        <time>2021-04-20T15:25:29Z</time>
      </trkpt>
      <trkpt lat="49.75584" lon="4.82344">
        <ele>181.88</ele>
        <time>2021-04-20T15:25:31Z</time>
      </trkpt>
      <trkpt lat="49.75587" lon="4.82348">
        <ele>181.62</ele>
        <time>2021-04-20T15:25:34Z</time>
      </trkpt>
      <trkpt lat="49.7559" lon="4.8235">
        <ele>181.58</ele>
        <time>2021-04-20T15:25:38Z</time>
      </trkpt>
      <trkpt lat="49.75592" lon="4.82353">
        <ele>181.41</ele>
        <time>2021-04-20T15:25:42Z</time>
      </trkpt>
      <trkpt lat="49.75594" lon="4.82357">
        <ele>181.16</ele>
        <time>2021-04-20T15:25:45Z</time>
      </trkpt>
      <trkpt lat="49.75596" lon="4.82361">
        <ele>180.92</ele>
        <time>2021-04-20T15:25:48Z</time>
      </trkpt>
      <trkpt lat="49.75598" lon="4.82366">
        <ele>180.71</ele>
        <time>2021-04-20T15:25:51Z</time>
      </trkpt>
      <trkpt lat="49.75601" lon="4.82368">
        <ele>180.84</ele>
        <time>2021-04-20T15:25:53Z</time>
      </trkpt>
      <trkpt lat="49.75603" lon="4.82372">
        <ele>180.8</ele>
        <time>2021-04-20T15:25:55Z</time>
      </trkpt>
      <trkpt lat="49.75605" lon="4.82376">
        <ele>180.79</ele>
        <time>2021-04-20T15:25:57Z</time>
      </trkpt>
      <trkpt lat="49.75606" lon="4.82382">
        <ele>180.6</ele>
        <time>2021-04-20T15:25:59Z</time>
      </trkpt>
      <trkpt lat="49.75608" lon="4.82387">
        <ele>180.64</ele>
        <time>2021-04-20T15:26:01Z</time>
      </trkpt>
      <trkpt lat="49.7561" lon="4.82391">
        <ele>180.62</ele>
        <time>2021-04-20T15:26:03Z</time>
      </trkpt>
      <trkpt lat="49.75612" lon="4.82395">
        <ele>180.4</ele>
        <time>2021-04-20T15:26:06Z</time>
      </trkpt>
      <trkpt lat="49.75614" lon="4.824">
        <ele>180.01</ele>
        <time>2021-04-20T15:26:09Z</time>
      </trkpt>
      <trkpt lat="49.75617" lon="4.82404">
        <ele>179.79</ele>
        <time>2021-04-20T15:26:12Z</time>
      </trkpt>
      <trkpt lat="49.75619" lon="4.82406">
        <ele>179.72</ele>
        <time>2021-04-20T15:26:14Z</time>
      </trkpt>
      <trkpt lat="49.75621" lon="4.82409">
        <ele>179.54</ele>
        <time>2021-04-20T15:26:16Z</time>
      </trkpt>
      <trkpt lat="49.75623" lon="4.82414">
        <ele>179.14</ele>
        <time>2021-04-20T15:26:19Z</time>
      </trkpt>
      <trkpt lat="49.75626" lon="4.82418">
        <ele>179</ele>
        <time>2021-04-20T15:26:22Z</time>
      </trkpt>
      <trkpt lat="49.75629" lon="4.82423">
        <ele>178.98</ele>
        <time>2021-04-20T15:26:25Z</time>
      </trkpt>
      <trkpt lat="49.75632" lon="4.82426">
        <ele>179.08</ele>
        <time>2021-04-20T15:26:27Z</time>
      </trkpt>
      <trkpt lat="49.75634" lon="4.8243">
        <ele>179.08</ele>
        <time>2021-04-20T15:26:29Z</time>
      </trkpt>
      <trkpt lat="49.75635" lon="4.82433">
        <ele>179.05</ele>
        <time>2021-04-20T15:26:31Z</time>
      </trkpt>
      <trkpt lat="49.75638" lon="4.82437">
        <ele>179.18</ele>
        <time>2021-04-20T15:26:34Z</time>
      </trkpt>
      <trkpt lat="49.75641" lon="4.82441">
        <ele>179.28</ele>
        <time>2021-04-20T15:26:37Z</time>
      </trkpt>
      <trkpt lat="49.75644" lon="4.82445">
        <ele>179.35</ele>
        <time>2021-04-20T15:26:40Z</time>
      </trkpt>
      <trkpt lat="49.75646" lon="4.82448">
        <ele>179.38</ele>
        <time>2021-04-20T15:26:43Z</time>
      </trkpt>
      <trkpt lat="49.75649" lon="4.82451">
        <ele>179.49</ele>
        <time>2021-04-20T15:26:46Z</time>
      </trkpt>
      <trkpt lat="49.75652" lon="4.82455">
        <ele>179.56</ele>
        <time>2021-04-20T15:26:49Z</time>
      </trkpt>
      <trkpt lat="49.75655" lon="4.82458">
        <ele>179.67</ele>
        <time>2021-04-20T15:26:52Z</time>
      </trkpt>
      <trkpt lat="49.75658" lon="4.82462">
        <ele>179.74</ele>
        <time>2021-04-20T15:26:55Z</time>
      </trkpt>
      <trkpt lat="49.7566" lon="4.82465">
        <ele>179.78</ele>
        <time>2021-04-20T15:26:57Z</time>
      </trkpt>
      <trkpt lat="49.75663" lon="4.82468">
        <ele>179.89</ele>
        <time>2021-04-20T15:27:00Z</time>
      </trkpt>
      <trkpt lat="49.75666" lon="4.82472">
        <ele>179.96</ele>
        <time>2021-04-20T15:27:03Z</time>
      </trkpt>
      <trkpt lat="49.75669" lon="4.82475">
        <ele>179.6</ele>
        <time>2021-04-20T15:27:06Z</time>
      </trkpt>
      <trkpt lat="49.75671" lon="4.82477">
        <ele>179.35</ele>
        <time>2021-04-20T15:27:08Z</time>
      </trkpt>
      <trkpt lat="49.75674" lon="4.82481">
        <ele>178.85</ele>
        <time>2021-04-20T15:27:11Z</time>
      </trkpt>
      <trkpt lat="49.75677" lon="4.82484">
        <ele>178.57</ele>
        <time>2021-04-20T15:27:14Z</time>
      </trkpt>
      <trkpt lat="49.7568" lon="4.82487">
        <ele>178.33</ele>
        <time>2021-04-20T15:27:16Z</time>
      </trkpt>
      <trkpt lat="49.75682" lon="4.8249">
        <ele>178.06</ele>
        <time>2021-04-20T15:27:18Z</time>
      </trkpt>
      <trkpt lat="49.75686" lon="4.82492">
        <ele>178.13</ele>
        <time>2021-04-20T15:27:21Z</time>
      </trkpt>
      <trkpt lat="49.75688" lon="4.82496">
        <ele>177.8</ele>
        <time>2021-04-20T15:27:24Z</time>
      </trkpt>
      <trkpt lat="49.75691" lon="4.82499">
        <ele>177.74</ele>
        <time>2021-04-20T15:27:27Z</time>
      </trkpt>
      <trkpt lat="49.75694" lon="4.82502">
        <ele>177.74</ele>
        <time>2021-04-20T15:27:30Z</time>
      </trkpt>
      <trkpt lat="49.75697" lon="4.82505">
        <ele>177.75</ele>
        <time>2021-04-20T15:27:33Z</time>
      </trkpt>
      <trkpt lat="49.757" lon="4.82508">
        <ele>177.79</ele>
        <time>2021-04-20T15:27:35Z</time>
      </trkpt>
      <trkpt lat="49.75702" lon="4.82509">
        <ele>177.93</ele>
        <time>2021-04-20T15:27:37Z</time>
      </trkpt>
      <trkpt lat="49.75705" lon="4.82511">
        <ele>178.1</ele>
        <time>2021-04-20T15:27:39Z</time>
      </trkpt>
      <trkpt lat="49.75707" lon="4.82514">
        <ele>178.07</ele>
        <time>2021-04-20T15:27:41Z</time>
      </trkpt>
      <trkpt lat="49.7571" lon="4.82517">
        <ele>178.19</ele>
        <time>2021-04-20T15:27:44Z</time>
      </trkpt>
      <trkpt lat="49.75713" lon="4.82521">
        <ele>178.24</ele>
        <time>2021-04-20T15:27:47Z</time>
      </trkpt>
      <trkpt lat="49.75715" lon="4.82524">
        <ele>178.27</ele>
        <time>2021-04-20T15:27:49Z</time>
      </trkpt>
      <trkpt lat="49.75718" lon="4.82527">
        <ele>178.45</ele>
        <time>2021-04-20T15:27:51Z</time>
      </trkpt>
      <trkpt lat="49.75721" lon="4.82531">
        <ele>179.05</ele>
        <time>2021-04-20T15:27:54Z</time>
      </trkpt>
      <trkpt lat="49.75723" lon="4.82533">
        <ele>179.39</ele>
        <time>2021-04-20T15:27:56Z</time>
      </trkpt>
      <trkpt lat="49.75726" lon="4.82535">
        <ele>179.59</ele>
        <time>2021-04-20T15:27:58Z</time>
      </trkpt>
      <trkpt lat="49.75729" lon="4.82536">
        <ele>179.69</ele>
        <time>2021-04-20T15:28:00Z</time>
      </trkpt>
      <trkpt lat="49.75732" lon="4.82537">
        <ele>179.78</ele>
        <time>2021-04-20T15:28:02Z</time>
      </trkpt>
      <trkpt lat="49.75735" lon="4.82539">
        <ele>179.9</ele>
        <time>2021-04-20T15:28:05Z</time>
      </trkpt>
      <trkpt lat="49.75738" lon="4.8254">
        <ele>179.95</ele>
        <time>2021-04-20T15:28:07Z</time>
      </trkpt>
      <trkpt lat="49.75741" lon="4.82542">
        <ele>180.01</ele>
        <time>2021-04-20T15:28:09Z</time>
      </trkpt>
      <trkpt lat="49.75744" lon="4.82544">
        <ele>180.04</ele>
        <time>2021-04-20T15:28:12Z</time>
      </trkpt>
      <trkpt lat="49.75747" lon="4.82546">
        <ele>180.03</ele>
        <time>2021-04-20T15:28:14Z</time>
      </trkpt>
      <trkpt lat="49.75751" lon="4.82547">
        <ele>179.91</ele>
        <time>2021-04-20T15:28:17Z</time>
      </trkpt>
      <trkpt lat="49.75754" lon="4.82548">
        <ele>179.65</ele>
        <time>2021-04-20T15:28:20Z</time>
      </trkpt>
      <trkpt lat="49.75758" lon="4.82549">
        <ele>179.27</ele>
        <time>2021-04-20T15:28:23Z</time>
      </trkpt>
      <trkpt lat="49.75762" lon="4.8255">
        <ele>178.88</ele>
        <time>2021-04-20T15:28:26Z</time>
      </trkpt>
      <trkpt lat="49.75765" lon="4.82551">
        <ele>178.56</ele>
        <time>2021-04-20T15:28:28Z</time>
      </trkpt>
      <trkpt lat="49.75767" lon="4.82553">
        <ele>178.28</ele>
        <time>2021-04-20T15:28:30Z</time>
      </trkpt>
      <trkpt lat="49.7577" lon="4.82556">
        <ele>177.82</ele>
        <time>2021-04-20T15:28:33Z</time>
      </trkpt>
      <trkpt lat="49.75773" lon="4.82559">
        <ele>177.39</ele>
        <time>2021-04-20T15:28:36Z</time>
      </trkpt>
      <trkpt lat="49.75776" lon="4.82561">
        <ele>177</ele>
        <time>2021-04-20T15:28:39Z</time>
      </trkpt>
      <trkpt lat="49.75779" lon="4.82563">
        <ele>176.78</ele>
        <time>2021-04-20T15:28:42Z</time>
      </trkpt>
      <trkpt lat="49.75781" lon="4.82566">
        <ele>176.74</ele>
        <time>2021-04-20T15:28:44Z</time>
      </trkpt>
      <trkpt lat="49.75784" lon="4.82567">
        <ele>176.81</ele>
        <time>2021-04-20T15:28:46Z</time>
      </trkpt>
      <trkpt lat="49.75788" lon="4.82568">
        <ele>176.92</ele>
        <time>2021-04-20T15:28:48Z</time>
      </trkpt>
      <trkpt lat="49.7579" lon="4.8257">
        <ele>176.92</ele>
        <time>2021-04-20T15:28:50Z</time>
      </trkpt>
      <trkpt lat="49.75793" lon="4.82571">
        <ele>176.99</ele>
        <time>2021-04-20T15:28:52Z</time>
      </trkpt>
      <trkpt lat="49.75797" lon="4.82574">
        <ele>177.03</ele>
        <time>2021-04-20T15:28:55Z</time>
      </trkpt>
      <trkpt lat="49.75799" lon="4.82576">
        <ele>177.03</ele>
        <time>2021-04-20T15:28:57Z</time>
      </trkpt>
      <trkpt lat="49.75803" lon="4.82576">
        <ele>177.17</ele>
        <time>2021-04-20T15:28:59Z</time>
      </trkpt>
      <trkpt lat="49.75806" lon="4.82576">
        <ele>177.3</ele>
        <time>2021-04-20T15:29:01Z</time>
      </trkpt>
      <trkpt lat="49.75809" lon="4.82575">
        <ele>177.62</ele>
        <time>2021-04-20T15:29:03Z</time>
      </trkpt>
      <trkpt lat="49.75812" lon="4.82574">
        <ele>177.96</ele>
        <time>2021-04-20T15:29:05Z</time>
      </trkpt>
      <trkpt lat="49.75815" lon="4.82575">
        <ele>178.18</ele>
        <time>2021-04-20T15:29:08Z</time>
      </trkpt>
      <trkpt lat="49.75819" lon="4.82578">
        <ele>178.35</ele>
        <time>2021-04-20T15:29:11Z</time>
      </trkpt>
      <trkpt lat="49.75821" lon="4.82579">
        <ele>178.44</ele>
        <time>2021-04-20T15:29:13Z</time>
      </trkpt>
      <trkpt lat="49.75824" lon="4.8258">
        <ele>178.61</ele>
        <time>2021-04-20T15:29:15Z</time>
      </trkpt>
      <trkpt lat="49.75828" lon="4.82582">
        <ele>178.74</ele>
        <time>2021-04-20T15:29:18Z</time>
      </trkpt>
      <trkpt lat="49.7583" lon="4.82585">
        <ele>178.59</ele>
        <time>2021-04-20T15:29:21Z</time>
      </trkpt>
      <trkpt lat="49.75832" lon="4.82587">
        <ele>178.52</ele>
        <time>2021-04-20T15:29:23Z</time>
      </trkpt>
      <trkpt lat="49.75835" lon="4.82591">
        <ele>178.23</ele>
        <time>2021-04-20T15:29:26Z</time>
      </trkpt>
      <trkpt lat="49.75838" lon="4.82595">
        <ele>177.91</ele>
        <time>2021-04-20T15:29:29Z</time>
      </trkpt>
      <trkpt lat="49.7584" lon="4.82598">
        <ele>177.66</ele>
        <time>2021-04-20T15:29:31Z</time>
      </trkpt>
      <trkpt lat="49.75843" lon="4.82601">
        <ele>177.44</ele>
        <time>2021-04-20T15:29:33Z</time>
      </trkpt>
      <trkpt lat="49.75845" lon="4.82604">
        <ele>177.19</ele>
        <time>2021-04-20T15:29:35Z</time>
      </trkpt>
      <trkpt lat="49.75847" lon="4.82608">
        <ele>176.83</ele>
        <time>2021-04-20T15:29:38Z</time>
      </trkpt>
      <trkpt lat="49.75849" lon="4.82612">
        <ele>176.56</ele>
        <time>2021-04-20T15:29:40Z</time>
      </trkpt>
      <trkpt lat="49.75851" lon="4.82615">
        <ele>176.6</ele>
        <time>2021-04-20T15:29:42Z</time>
      </trkpt>
      <trkpt lat="49.75853" lon="4.82618">
        <ele>176.6</ele>
        <time>2021-04-20T15:29:44Z</time>
      </trkpt>
      <trkpt lat="49.75856" lon="4.82621">
        <ele>176.59</ele>
        <time>2021-04-20T15:29:46Z</time>
      </trkpt>
      <trkpt lat="49.75858" lon="4.82624">
        <ele>176.53</ele>
        <time>2021-04-20T15:29:48Z</time>
      </trkpt>
      <trkpt lat="49.7586" lon="4.82628">
        <ele>176.4</ele>
        <time>2021-04-20T15:29:51Z</time>
      </trkpt>
      <trkpt lat="49.75863" lon="4.82632">
        <ele>176.42</ele>
        <time>2021-04-20T15:29:54Z</time>
      </trkpt>
      <trkpt lat="49.75865" lon="4.82636">
        <ele>176.49</ele>
        <time>2021-04-20T15:29:57Z</time>
      </trkpt>
      <trkpt lat="49.75867" lon="4.8264">
        <ele>176.63</ele>
        <time>2021-04-20T15:30:00Z</time>
      </trkpt>
      <trkpt lat="49.7587" lon="4.82643">
        <ele>176.91</ele>
        <time>2021-04-20T15:30:03Z</time>
      </trkpt>
      <trkpt lat="49.75873" lon="4.82646">
        <ele>177.17</ele>
        <time>2021-04-20T15:30:06Z</time>
      </trkpt>
      <trkpt lat="49.75875" lon="4.82648">
        <ele>177.34</ele>
        <time>2021-04-20T15:30:08Z</time>
      </trkpt>
      <trkpt lat="49.75878" lon="4.82651">
        <ele>177.56</ele>
        <time>2021-04-20T15:30:10Z</time>
      </trkpt>
      <trkpt lat="49.75881" lon="4.82655">
        <ele>177.73</ele>
        <time>2021-04-20T15:30:13Z</time>
      </trkpt>
      <trkpt lat="49.75883" lon="4.82658">
        <ele>177.82</ele>
        <time>2021-04-20T15:30:15Z</time>
      </trkpt>
      <trkpt lat="49.75885" lon="4.82661">
        <ele>177.9</ele>
        <time>2021-04-20T15:30:17Z</time>
      </trkpt>
      <trkpt lat="49.75888" lon="4.82664">
        <ele>178.03</ele>
        <time>2021-04-20T15:30:19Z</time>
      </trkpt>
      <trkpt lat="49.75891" lon="4.82667">
        <ele>178.38</ele>
        <time>2021-04-20T15:30:22Z</time>
      </trkpt>
      <trkpt lat="49.75893" lon="4.8267">
        <ele>178.76</ele>
        <time>2021-04-20T15:30:25Z</time>
      </trkpt>
      <trkpt lat="49.75895" lon="4.82673">
        <ele>179.15</ele>
        <time>2021-04-20T15:30:28Z</time>
      </trkpt>
      <trkpt lat="49.75898" lon="4.82677">
        <ele>179.76</ele>
        <time>2021-04-20T15:30:31Z</time>
      </trkpt>
      <trkpt lat="49.75901" lon="4.82679">
        <ele>180.37</ele>
        <time>2021-04-20T15:30:33Z</time>
      </trkpt>
      <trkpt lat="49.75904" lon="4.82682">
        <ele>181.02</ele>
        <time>2021-04-20T15:30:35Z</time>
      </trkpt>
      <trkpt lat="49.75906" lon="4.82686">
        <ele>181.51</ele>
        <time>2021-04-20T15:30:37Z</time>
      </trkpt>
      <trkpt lat="49.75909" lon="4.82689">
        <ele>182.2</ele>
        <time>2021-04-20T15:30:39Z</time>
      </trkpt>
      <trkpt lat="49.75911" lon="4.82691">
        <ele>182.68</ele>
        <time>2021-04-20T15:30:41Z</time>
      </trkpt>
      <trkpt lat="49.75914" lon="4.82694">
        <ele>183.41</ele>
        <time>2021-04-20T15:30:44Z</time>
      </trkpt>
      <trkpt lat="49.75917" lon="4.82697">
        <ele>183.95</ele>
        <time>2021-04-20T15:30:47Z</time>
      </trkpt>
      <trkpt lat="49.75919" lon="4.82701">
        <ele>184.02</ele>
        <time>2021-04-20T15:30:50Z</time>
      </trkpt>
      <trkpt lat="49.75921" lon="4.82704">
        <ele>184.07</ele>
        <time>2021-04-20T15:30:52Z</time>
      </trkpt>
      <trkpt lat="49.75923" lon="4.82708">
        <ele>183.98</ele>
        <time>2021-04-20T15:30:55Z</time>
      </trkpt>
      <trkpt lat="49.75926" lon="4.82713">
        <ele>183.78</ele>
        <time>2021-04-20T15:30:58Z</time>
      </trkpt>
      <trkpt lat="49.75927" lon="4.82717">
        <ele>183.47</ele>
        <time>2021-04-20T15:31:00Z</time>
      </trkpt>
      <trkpt lat="49.75929" lon="4.82721">
        <ele>183.12</ele>
        <time>2021-04-20T15:31:02Z</time>
      </trkpt>
      <trkpt lat="49.75931" lon="4.82724">
        <ele>182.84</ele>
        <time>2021-04-20T15:31:04Z</time>
      </trkpt>
      <trkpt lat="49.75933" lon="4.82727">
        <ele>182.55</ele>
        <time>2021-04-20T15:31:07Z</time>
      </trkpt>
      <trkpt lat="49.75935" lon="4.8273">
        <ele>182.26</ele>
        <time>2021-04-20T15:31:10Z</time>
      </trkpt>
      <trkpt lat="49.75937" lon="4.82734">
        <ele>181.84</ele>
        <time>2021-04-20T15:31:12Z</time>
      </trkpt>
      <trkpt lat="49.7594" lon="4.82737">
        <ele>181.49</ele>
        <time>2021-04-20T15:31:15Z</time>
      </trkpt>
      <trkpt lat="49.75942" lon="4.8274">
        <ele>181.14</ele>
        <time>2021-04-20T15:31:18Z</time>
      </trkpt>
      <trkpt lat="49.75945" lon="4.82743">
        <ele>180.74</ele>
        <time>2021-04-20T15:31:21Z</time>
      </trkpt>
      <trkpt lat="49.75947" lon="4.82746">
        <ele>180.35</ele>
        <time>2021-04-20T15:31:24Z</time>
      </trkpt>
      <trkpt lat="49.7595" lon="4.82748">
        <ele>180.03</ele>
        <time>2021-04-20T15:31:27Z</time>
      </trkpt>
      <trkpt lat="49.75953" lon="4.8275">
        <ele>179.69</ele>
        <time>2021-04-20T15:31:30Z</time>
      </trkpt>
      <trkpt lat="49.75956" lon="4.82753">
        <ele>179.17</ele>
        <time>2021-04-20T15:31:33Z</time>
      </trkpt>
      <trkpt lat="49.75959" lon="4.82755">
        <ele>178.75</ele>
        <time>2021-04-20T15:31:35Z</time>
      </trkpt>
      <trkpt lat="49.75961" lon="4.82757">
        <ele>178.35</ele>
        <time>2021-04-20T15:31:37Z</time>
      </trkpt>
      <trkpt lat="49.75963" lon="4.82761">
        <ele>177.61</ele>
        <time>2021-04-20T15:31:40Z</time>
      </trkpt>
      <trkpt lat="49.75967" lon="4.82763">
        <ele>177.02</ele>
        <time>2021-04-20T15:31:43Z</time>
      </trkpt>
      <trkpt lat="49.7597" lon="4.82766">
        <ele>176.29</ele>
        <time>2021-04-20T15:31:46Z</time>
      </trkpt>
      <trkpt lat="49.75973" lon="4.82768">
        <ele>175.66</ele>
        <time>2021-04-20T15:31:48Z</time>
      </trkpt>
      <trkpt lat="49.75976" lon="4.8277">
        <ele>174.92</ele>
        <time>2021-04-20T15:31:51Z</time>
      </trkpt>
      <trkpt lat="49.75979" lon="4.82773">
        <ele>174.04</ele>
        <time>2021-04-20T15:31:55Z</time>
      </trkpt>
      <trkpt lat="49.75982" lon="4.82774">
        <ele>173.53</ele>
        <time>2021-04-20T15:31:58Z</time>
      </trkpt>
      <trkpt lat="49.75986" lon="4.82776">
        <ele>172.77</ele>
        <time>2021-04-20T15:32:01Z</time>
      </trkpt>
      <trkpt lat="49.75989" lon="4.82776">
        <ele>172.43</ele>
        <time>2021-04-20T15:32:03Z</time>
      </trkpt>
      <trkpt lat="49.75991" lon="4.82776">
        <ele>172.21</ele>
        <time>2021-04-20T15:32:06Z</time>
      </trkpt>
      <trkpt lat="49.75994" lon="4.82778">
        <ele>171.63</ele>
        <time>2021-04-20T15:32:09Z</time>
      </trkpt>
      <trkpt lat="49.75997" lon="4.8278">
        <ele>171.16</ele>
        <time>2021-04-20T15:32:12Z</time>
      </trkpt>
      <trkpt lat="49.76" lon="4.82782">
        <ele>170.7</ele>
        <time>2021-04-20T15:32:14Z</time>
      </trkpt>
      <trkpt lat="49.76003" lon="4.82783">
        <ele>171.27</ele>
        <time>2021-04-20T15:32:16Z</time>
      </trkpt>
      <trkpt lat="49.76007" lon="4.82785">
        <ele>171.99</ele>
        <time>2021-04-20T15:32:19Z</time>
      </trkpt>
      <trkpt lat="49.7601" lon="4.82787">
        <ele>172.5</ele>
        <time>2021-04-20T15:32:22Z</time>
      </trkpt>
      <trkpt lat="49.76013" lon="4.82788">
        <ele>173.07</ele>
        <time>2021-04-20T15:32:24Z</time>
      </trkpt>
      <trkpt lat="49.76017" lon="4.82791">
        <ele>173.72</ele>
        <time>2021-04-20T15:32:27Z</time>
      </trkpt>
      <trkpt lat="49.7602" lon="4.82794">
        <ele>174.15</ele>
        <time>2021-04-20T15:32:30Z</time>
      </trkpt>
      <trkpt lat="49.76023" lon="4.82797">
        <ele>174.58</ele>
        <time>2021-04-20T15:32:33Z</time>
      </trkpt>
      <trkpt lat="49.76025" lon="4.828">
        <ele>174.8</ele>
        <time>2021-04-20T15:32:35Z</time>
      </trkpt>
      <trkpt lat="49.76028" lon="4.82804">
        <ele>175.13</ele>
        <time>2021-04-20T15:32:38Z</time>
      </trkpt>
      <trkpt lat="49.7603" lon="4.82807">
        <ele>175.12</ele>
        <time>2021-04-20T15:32:41Z</time>
      </trkpt>
      <trkpt lat="49.76033" lon="4.82811">
        <ele>175.29</ele>
        <time>2021-04-20T15:32:44Z</time>
      </trkpt>
      <trkpt lat="49.76036" lon="4.82815">
        <ele>175.55</ele>
        <time>2021-04-20T15:32:47Z</time>
      </trkpt>
      <trkpt lat="49.76038" lon="4.82819">
        <ele>175.79</ele>
        <time>2021-04-20T15:32:50Z</time>
      </trkpt>
      <trkpt lat="49.76041" lon="4.82823">
        <ele>176.22</ele>
        <time>2021-04-20T15:32:53Z</time>
      </trkpt>
      <trkpt lat="49.76044" lon="4.82826">
        <ele>176.72</ele>
        <time>2021-04-20T15:32:56Z</time>
      </trkpt>
      <trkpt lat="49.76047" lon="4.8283">
        <ele>177.33</ele>
        <time>2021-04-20T15:32:59Z</time>
      </trkpt>
      <trkpt lat="49.76049" lon="4.82834">
        <ele>177.83</ele>
        <time>2021-04-20T15:33:02Z</time>
      </trkpt>
      <trkpt lat="49.76051" lon="4.82838">
        <ele>178.21</ele>
        <time>2021-04-20T15:33:05Z</time>
      </trkpt>
      <trkpt lat="49.76051" lon="4.82844">
        <ele>178.24</ele>
        <time>2021-04-20T15:33:08Z</time>
      </trkpt>
      <trkpt lat="49.7605" lon="4.82848">
        <ele>178.11</ele>
        <time>2021-04-20T15:33:10Z</time>
      </trkpt>
      <trkpt lat="49.7605" lon="4.82854">
        <ele>178.15</ele>
        <time>2021-04-20T15:33:13Z</time>
      </trkpt>
      <trkpt lat="49.76052" lon="4.82858">
        <ele>178.47</ele>
        <time>2021-04-20T15:33:16Z</time>
      </trkpt>
      <trkpt lat="49.76054" lon="4.82861">
        <ele>178.78</ele>
        <time>2021-04-20T15:33:18Z</time>
      </trkpt>
      <trkpt lat="49.76056" lon="4.82864">
        <ele>179.02</ele>
        <time>2021-04-20T15:33:20Z</time>
      </trkpt>
      <trkpt lat="49.76058" lon="4.82867">
        <ele>179.09</ele>
        <time>2021-04-20T15:33:22Z</time>
      </trkpt>
      <trkpt lat="49.76061" lon="4.82872">
        <ele>179.2</ele>
        <time>2021-04-20T15:33:25Z</time>
      </trkpt>
      <trkpt lat="49.76063" lon="4.82876">
        <ele>179.27</ele>
        <time>2021-04-20T15:33:28Z</time>
      </trkpt>
      <trkpt lat="49.76066" lon="4.8288">
        <ele>179.38</ele>
        <time>2021-04-20T15:33:31Z</time>
      </trkpt>
      <trkpt lat="49.76069" lon="4.82884">
        <ele>179.48</ele>
        <time>2021-04-20T15:33:34Z</time>
      </trkpt>
      <trkpt lat="49.76072" lon="4.82888">
        <ele>179.59</ele>
        <time>2021-04-20T15:33:37Z</time>
      </trkpt>
      <trkpt lat="49.76074" lon="4.8289">
        <ele>179.65</ele>
        <time>2021-04-20T15:33:40Z</time>
      </trkpt>
      <trkpt lat="49.76076" lon="4.82893">
        <ele>179.7</ele>
        <time>2021-04-20T15:33:42Z</time>
      </trkpt>
      <trkpt lat="49.76079" lon="4.82896">
        <ele>179.8</ele>
        <time>2021-04-20T15:33:44Z</time>
      </trkpt>
      <trkpt lat="49.76082" lon="4.82899">
        <ele>179.93</ele>
        <time>2021-04-20T15:33:46Z</time>
      </trkpt>
      <trkpt lat="49.76084" lon="4.829">
        <ele>179.9</ele>
        <time>2021-04-20T15:33:48Z</time>
      </trkpt>
      <trkpt lat="49.76087" lon="4.82902">
        <ele>179.47</ele>
        <time>2021-04-20T15:33:50Z</time>
      </trkpt>
      <trkpt lat="49.7609" lon="4.82904">
        <ele>179.04</ele>
        <time>2021-04-20T15:33:52Z</time>
      </trkpt>
      <trkpt lat="49.76093" lon="4.82905">
        <ele>178.61</ele>
        <time>2021-04-20T15:33:54Z</time>
      </trkpt>
      <trkpt lat="49.76097" lon="4.82905">
        <ele>178.03</ele>
        <time>2021-04-20T15:33:57Z</time>
      </trkpt>
      <trkpt lat="49.761" lon="4.82906">
        <ele>177.6</ele>
        <time>2021-04-20T15:34:00Z</time>
      </trkpt>
      <trkpt lat="49.76103" lon="4.82906">
        <ele>177.17</ele>
        <time>2021-04-20T15:34:02Z</time>
      </trkpt>
      <trkpt lat="49.76107" lon="4.82906">
        <ele>176.59</ele>
        <time>2021-04-20T15:34:04Z</time>
      </trkpt>
      <trkpt lat="49.76111" lon="4.82907">
        <ele>176.02</ele>
        <time>2021-04-20T15:34:06Z</time>
      </trkpt>
      <trkpt lat="49.76114" lon="4.82907">
        <ele>175.83</ele>
        <time>2021-04-20T15:34:08Z</time>
      </trkpt>
      <trkpt lat="49.76118" lon="4.82908">
        <ele>175.58</ele>
        <time>2021-04-20T15:34:11Z</time>
      </trkpt>
      <trkpt lat="49.76121" lon="4.82909">
        <ele>175.39</ele>
        <time>2021-04-20T15:34:13Z</time>
      </trkpt>
      <trkpt lat="49.76124" lon="4.8291">
        <ele>175.18</ele>
        <time>2021-04-20T15:34:15Z</time>
      </trkpt>
      <trkpt lat="49.76127" lon="4.82912">
        <ele>174.95</ele>
        <time>2021-04-20T15:34:17Z</time>
      </trkpt>
      <trkpt lat="49.7613" lon="4.82915">
        <ele>174.68</ele>
        <time>2021-04-20T15:34:20Z</time>
      </trkpt>
      <trkpt lat="49.76133" lon="4.82918">
        <ele>174.39</ele>
        <time>2021-04-20T15:34:23Z</time>
      </trkpt>
      <trkpt lat="49.76137" lon="4.8292">
        <ele>174.02</ele>
        <time>2021-04-20T15:34:26Z</time>
      </trkpt>
      <trkpt lat="49.76139" lon="4.82921">
        <ele>173.86</ele>
        <time>2021-04-20T15:34:28Z</time>
      </trkpt>
      <trkpt lat="49.76143" lon="4.82923">
        <ele>174.18</ele>
        <time>2021-04-20T15:34:30Z</time>
      </trkpt>
      <trkpt lat="49.76145" lon="4.82925">
        <ele>174.29</ele>
        <time>2021-04-20T15:34:32Z</time>
      </trkpt>
      <trkpt lat="49.76148" lon="4.82927">
        <ele>174.49</ele>
        <time>2021-04-20T15:34:34Z</time>
      </trkpt>
      <trkpt lat="49.76151" lon="4.82929">
        <ele>174.67</ele>
        <time>2021-04-20T15:34:37Z</time>
      </trkpt>
      <trkpt lat="49.76154" lon="4.82932">
        <ele>174.78</ele>
        <time>2021-04-20T15:34:40Z</time>
      </trkpt>
      <trkpt lat="49.76157" lon="4.82935">
        <ele>174.87</ele>
        <time>2021-04-20T15:34:43Z</time>
      </trkpt>
      <trkpt lat="49.7616" lon="4.82938">
        <ele>174.93</ele>
        <time>2021-04-20T15:34:46Z</time>
      </trkpt>
      <trkpt lat="49.76162" lon="4.82942">
        <ele>174.83</ele>
        <time>2021-04-20T15:34:50Z</time>
      </trkpt>
      <trkpt lat="49.76164" lon="4.82948">
        <ele>174.8</ele>
        <time>2021-04-20T15:34:53Z</time>
      </trkpt>
      <trkpt lat="49.76166" lon="4.82953">
        <ele>174.94</ele>
        <time>2021-04-20T15:34:56Z</time>
      </trkpt>
      <trkpt lat="49.76168" lon="4.82957">
        <ele>175.36</ele>
        <time>2021-04-20T15:34:59Z</time>
      </trkpt>
      <trkpt lat="49.76171" lon="4.82961">
        <ele>176.16</ele>
        <time>2021-04-20T15:35:01Z</time>
      </trkpt>
      <trkpt lat="49.76173" lon="4.82966">
        <ele>176.65</ele>
        <time>2021-04-20T15:35:03Z</time>
      </trkpt>
      <trkpt lat="49.76175" lon="4.8297">
        <ele>177.12</ele>
        <time>2021-04-20T15:35:05Z</time>
      </trkpt>
      <trkpt lat="49.76176" lon="4.82975">
        <ele>177.48</ele>
        <time>2021-04-20T15:35:07Z</time>
      </trkpt>
      <trkpt lat="49.76178" lon="4.8298">
        <ele>178.12</ele>
        <time>2021-04-20T15:35:09Z</time>
      </trkpt>
      <trkpt lat="49.7618" lon="4.82983">
        <ele>178.59</ele>
        <time>2021-04-20T15:35:11Z</time>
      </trkpt>
      <trkpt lat="49.76183" lon="4.82986">
        <ele>179.15</ele>
        <time>2021-04-20T15:35:13Z</time>
      </trkpt>
      <trkpt lat="49.76185" lon="4.8299">
        <ele>179.43</ele>
        <time>2021-04-20T15:35:16Z</time>
      </trkpt>
      <trkpt lat="49.76188" lon="4.82993">
        <ele>179.75</ele>
        <time>2021-04-20T15:35:19Z</time>
      </trkpt>
      <trkpt lat="49.76191" lon="4.82996">
        <ele>179.95</ele>
        <time>2021-04-20T15:35:22Z</time>
      </trkpt>
      <trkpt lat="49.76194" lon="4.83">
        <ele>179.97</ele>
        <time>2021-04-20T15:35:25Z</time>
      </trkpt>
      <trkpt lat="49.76198" lon="4.83003">
        <ele>179.7</ele>
        <time>2021-04-20T15:35:28Z</time>
      </trkpt>
      <trkpt lat="49.76201" lon="4.83005">
        <ele>179.52</ele>
        <time>2021-04-20T15:35:30Z</time>
      </trkpt>
      <trkpt lat="49.76203" lon="4.83008">
        <ele>179.16</ele>
        <time>2021-04-20T15:35:32Z</time>
      </trkpt>
      <trkpt lat="49.76204" lon="4.83011">
        <ele>178.76</ele>
        <time>2021-04-20T15:35:34Z</time>
      </trkpt>
      <trkpt lat="49.76207" lon="4.83014">
        <ele>178.44</ele>
        <time>2021-04-20T15:35:38Z</time>
      </trkpt>
      <trkpt lat="49.7621" lon="4.83016">
        <ele>178.26</ele>
        <time>2021-04-20T15:35:41Z</time>
      </trkpt>
      <trkpt lat="49.76213" lon="4.83019">
        <ele>177.93</ele>
        <time>2021-04-20T15:35:44Z</time>
      </trkpt>
      <trkpt lat="49.76215" lon="4.83021">
        <ele>177.72</ele>
        <time>2021-04-20T15:35:46Z</time>
      </trkpt>
      <trkpt lat="49.76217" lon="4.83025">
        <ele>177.21</ele>
        <time>2021-04-20T15:35:48Z</time>
      </trkpt>
      <trkpt lat="49.7622" lon="4.83028">
        <ele>176.9</ele>
        <time>2021-04-20T15:35:50Z</time>
      </trkpt>
      <trkpt lat="49.76222" lon="4.8303">
        <ele>176.75</ele>
        <time>2021-04-20T15:35:52Z</time>
      </trkpt>
      <trkpt lat="49.76226" lon="4.83033">
        <ele>176.84</ele>
        <time>2021-04-20T15:35:55Z</time>
      </trkpt>
      <trkpt lat="49.76229" lon="4.83034">
        <ele>177.06</ele>
        <time>2021-04-20T15:35:57Z</time>
      </trkpt>
      <trkpt lat="49.76232" lon="4.83037">
        <ele>177.06</ele>
        <time>2021-04-20T15:36:00Z</time>
      </trkpt>
      <trkpt lat="49.76235" lon="4.83041">
        <ele>176.95</ele>
        <time>2021-04-20T15:36:03Z</time>
      </trkpt>
      <trkpt lat="49.76236" lon="4.83046">
        <ele>176.52</ele>
        <time>2021-04-20T15:36:06Z</time>
      </trkpt>
      <trkpt lat="49.76239" lon="4.8305">
        <ele>176.41</ele>
        <time>2021-04-20T15:36:09Z</time>
      </trkpt>
      <trkpt lat="49.76241" lon="4.83053">
        <ele>176.3</ele>
        <time>2021-04-20T15:36:11Z</time>
      </trkpt>
      <trkpt lat="49.76244" lon="4.83057">
        <ele>176.27</ele>
        <time>2021-04-20T15:36:14Z</time>
      </trkpt>
      <trkpt lat="49.76247" lon="4.83061">
        <ele>176.33</ele>
        <time>2021-04-20T15:36:17Z</time>
      </trkpt>
      <trkpt lat="49.7625" lon="4.83066">
        <ele>176.25</ele>
        <time>2021-04-20T15:36:20Z</time>
      </trkpt>
      <trkpt lat="49.76252" lon="4.83069">
        <ele>176.39</ele>
        <time>2021-04-20T15:36:23Z</time>
      </trkpt>
      <trkpt lat="49.76254" lon="4.83073">
        <ele>176.43</ele>
        <time>2021-04-20T15:36:26Z</time>
      </trkpt>
      <trkpt lat="49.76257" lon="4.83076">
        <ele>176.67</ele>
        <time>2021-04-20T15:36:29Z</time>
      </trkpt>
      <trkpt lat="49.7626" lon="4.83079">
        <ele>176.86</ele>
        <time>2021-04-20T15:36:32Z</time>
      </trkpt>
      <trkpt lat="49.76263" lon="4.83082">
        <ele>177.01</ele>
        <time>2021-04-20T15:36:34Z</time>
      </trkpt>
      <trkpt lat="49.76266" lon="4.83085">
        <ele>177.14</ele>
        <time>2021-04-20T15:36:36Z</time>
      </trkpt>
      <trkpt lat="49.76268" lon="4.83088">
        <ele>177.1</ele>
        <time>2021-04-20T15:36:39Z</time>
      </trkpt>
      <trkpt lat="49.76269" lon="4.83093">
        <ele>176.67</ele>
        <time>2021-04-20T15:36:42Z</time>
      </trkpt>
      <trkpt lat="49.7627" lon="4.83098">
        <ele>176.21</ele>
        <time>2021-04-20T15:36:44Z</time>
      </trkpt>
      <trkpt lat="49.76272" lon="4.83102">
        <ele>175.9</ele>
        <time>2021-04-20T15:36:46Z</time>
      </trkpt>
      <trkpt lat="49.76274" lon="4.83107">
        <ele>175.4</ele>
        <time>2021-04-20T15:36:49Z</time>
      </trkpt>
      <trkpt lat="49.76276" lon="4.83111">
        <ele>174.95</ele>
        <time>2021-04-20T15:36:51Z</time>
      </trkpt>
      <trkpt lat="49.76278" lon="4.83115">
        <ele>174.74</ele>
        <time>2021-04-20T15:36:54Z</time>
      </trkpt>
      <trkpt lat="49.76281" lon="4.83118">
        <ele>174.85</ele>
        <time>2021-04-20T15:36:57Z</time>
      </trkpt>
      <trkpt lat="49.76283" lon="4.83124">
        <ele>174.64</ele>
        <time>2021-04-20T15:37:00Z</time>
      </trkpt>
      <trkpt lat="49.76284" lon="4.83128">
        <ele>174.46</ele>
        <time>2021-04-20T15:37:03Z</time>
      </trkpt>
      <trkpt lat="49.76286" lon="4.83134">
        <ele>174.24</ele>
        <time>2021-04-20T15:37:07Z</time>
      </trkpt>
      <trkpt lat="49.76288" lon="4.83138">
        <ele>174.17</ele>
        <time>2021-04-20T15:37:10Z</time>
      </trkpt>
      <trkpt lat="49.7629" lon="4.83142">
        <ele>174.15</ele>
        <time>2021-04-20T15:37:12Z</time>
      </trkpt>
      <trkpt lat="49.76292" lon="4.83145">
        <ele>174.21</ele>
        <time>2021-04-20T15:37:14Z</time>
      </trkpt>
      <trkpt lat="49.76295" lon="4.83148">
        <ele>174.41</ele>
        <time>2021-04-20T15:37:16Z</time>
      </trkpt>
      <trkpt lat="49.76297" lon="4.83153">
        <ele>174.41</ele>
        <time>2021-04-20T15:37:19Z</time>
      </trkpt>
      <trkpt lat="49.76299" lon="4.83157">
        <ele>174.49</ele>
        <time>2021-04-20T15:37:21Z</time>
      </trkpt>
      <trkpt lat="49.76301" lon="4.8316">
        <ele>174.62</ele>
        <time>2021-04-20T15:37:24Z</time>
      </trkpt>
      <trkpt lat="49.76304" lon="4.83164">
        <ele>174.88</ele>
        <time>2021-04-20T15:37:27Z</time>
      </trkpt>
      <trkpt lat="49.76306" lon="4.83169">
        <ele>175.06</ele>
        <time>2021-04-20T15:37:30Z</time>
      </trkpt>
      <trkpt lat="49.76307" lon="4.83174">
        <ele>175.19</ele>
        <time>2021-04-20T15:37:32Z</time>
      </trkpt>
      <trkpt lat="49.76308" lon="4.83179">
        <ele>175.31</ele>
        <time>2021-04-20T15:37:35Z</time>
      </trkpt>
      <trkpt lat="49.76308" lon="4.83184">
        <ele>175.3</ele>
        <time>2021-04-20T15:37:38Z</time>
      </trkpt>
      <trkpt lat="49.76309" lon="4.83189">
        <ele>175.4</ele>
        <time>2021-04-20T15:37:41Z</time>
      </trkpt>
      <trkpt lat="49.7631" lon="4.83195">
        <ele>175.49</ele>
        <time>2021-04-20T15:37:44Z</time>
      </trkpt>
      <trkpt lat="49.76311" lon="4.83201">
        <ele>175.73</ele>
        <time>2021-04-20T15:37:47Z</time>
      </trkpt>
      <trkpt lat="49.76313" lon="4.83206">
        <ele>176</ele>
        <time>2021-04-20T15:37:50Z</time>
      </trkpt>
      <trkpt lat="49.76315" lon="4.83211">
        <ele>176.21</ele>
        <time>2021-04-20T15:37:53Z</time>
      </trkpt>
      <trkpt lat="49.76317" lon="4.83214">
        <ele>176.36</ele>
        <time>2021-04-20T15:37:55Z</time>
      </trkpt>
      <trkpt lat="49.76319" lon="4.83218">
        <ele>176.48</ele>
        <time>2021-04-20T15:37:57Z</time>
      </trkpt>
      <trkpt lat="49.76322" lon="4.83223">
        <ele>176.58</ele>
        <time>2021-04-20T15:38:00Z</time>
      </trkpt>
      <trkpt lat="49.76324" lon="4.83228">
        <ele>176.53</ele>
        <time>2021-04-20T15:38:03Z</time>
      </trkpt>
      <trkpt lat="49.76326" lon="4.83232">
        <ele>176.48</ele>
        <time>2021-04-20T15:38:05Z</time>
      </trkpt>
      <trkpt lat="49.76327" lon="4.83236">
        <ele>176.39</ele>
        <time>2021-04-20T15:38:07Z</time>
      </trkpt>
      <trkpt lat="49.76329" lon="4.83241">
        <ele>176.27</ele>
        <time>2021-04-20T15:38:09Z</time>
      </trkpt>
      <trkpt lat="49.7633" lon="4.83244">
        <ele>176.19</ele>
        <time>2021-04-20T15:38:11Z</time>
      </trkpt>
      <trkpt lat="49.76332" lon="4.83248">
        <ele>176.07</ele>
        <time>2021-04-20T15:38:14Z</time>
      </trkpt>
      <trkpt lat="49.76334" lon="4.83253">
        <ele>176.08</ele>
        <time>2021-04-20T15:38:17Z</time>
      </trkpt>
      <trkpt lat="49.76336" lon="4.83256">
        <ele>176.12</ele>
        <time>2021-04-20T15:38:20Z</time>
      </trkpt>
      <trkpt lat="49.76339" lon="4.83259">
        <ele>176.12</ele>
        <time>2021-04-20T15:38:22Z</time>
      </trkpt>
      <trkpt lat="49.76341" lon="4.83262">
        <ele>176.16</ele>
        <time>2021-04-20T15:38:26Z</time>
      </trkpt>
      <trkpt lat="49.76343" lon="4.83266">
        <ele>176.23</ele>
        <time>2021-04-20T15:38:29Z</time>
      </trkpt>
      <trkpt lat="49.76345" lon="4.83269">
        <ele>176.26</ele>
        <time>2021-04-20T15:38:32Z</time>
      </trkpt>
      <trkpt lat="49.76347" lon="4.83272">
        <ele>176.3</ele>
        <time>2021-04-20T15:38:38Z</time>
      </trkpt>
      <trkpt lat="49.76349" lon="4.83276">
        <ele>176.37</ele>
        <time>2021-04-20T15:38:41Z</time>
      </trkpt>
      <trkpt lat="49.76351" lon="4.83279">
        <ele>176.34</ele>
        <time>2021-04-20T15:38:43Z</time>
      </trkpt>
      <trkpt lat="49.76353" lon="4.83281">
        <ele>176.27</ele>
        <time>2021-04-20T15:38:45Z</time>
      </trkpt>
      <trkpt lat="49.76356" lon="4.83284">
        <ele>176.24</ele>
        <time>2021-04-20T15:38:47Z</time>
      </trkpt>
      <trkpt lat="49.76358" lon="4.83287">
        <ele>176.3</ele>
        <time>2021-04-20T15:38:50Z</time>
      </trkpt>
      <trkpt lat="49.76362" lon="4.8329">
        <ele>176.56</ele>
        <time>2021-04-20T15:38:53Z</time>
      </trkpt>
      <trkpt lat="49.76365" lon="4.83293">
        <ele>177.12</ele>
        <time>2021-04-20T15:38:56Z</time>
      </trkpt>
      <trkpt lat="49.76368" lon="4.83297">
        <ele>177.78</ele>
        <time>2021-04-20T15:38:59Z</time>
      </trkpt>
      <trkpt lat="49.7637" lon="4.833">
        <ele>178.27</ele>
        <time>2021-04-20T15:39:02Z</time>
      </trkpt>
      <trkpt lat="49.76373" lon="4.83305">
        <ele>179.1</ele>
        <time>2021-04-20T15:39:05Z</time>
      </trkpt>
      <trkpt lat="49.76375" lon="4.8331">
        <ele>179.66</ele>
        <time>2021-04-20T15:39:08Z</time>
      </trkpt>
      <trkpt lat="49.76376" lon="4.83315">
        <ele>180.02</ele>
        <time>2021-04-20T15:39:11Z</time>
      </trkpt>
      <trkpt lat="49.76378" lon="4.83321">
        <ele>180.6</ele>
        <time>2021-04-20T15:39:14Z</time>
      </trkpt>
      <trkpt lat="49.76378" lon="4.83325">
        <ele>180.74</ele>
        <time>2021-04-20T15:39:16Z</time>
      </trkpt>
      <trkpt lat="49.76379" lon="4.8333">
        <ele>181.1</ele>
        <time>2021-04-20T15:39:19Z</time>
      </trkpt>
      <trkpt lat="49.7638" lon="4.83334">
        <ele>181.51</ele>
        <time>2021-04-20T15:39:22Z</time>
      </trkpt>
      <trkpt lat="49.76381" lon="4.8334">
        <ele>182.71</ele>
        <time>2021-04-20T15:39:25Z</time>
      </trkpt>
      <trkpt lat="49.76381" lon="4.83344">
        <ele>183.39</ele>
        <time>2021-04-20T15:39:27Z</time>
      </trkpt>
      <trkpt lat="49.76381" lon="4.8335">
        <ele>184.41</ele>
        <time>2021-04-20T15:39:30Z</time>
      </trkpt>
      <trkpt lat="49.76381" lon="4.83356">
        <ele>185.43</ele>
        <time>2021-04-20T15:39:33Z</time>
      </trkpt>
      <trkpt lat="49.7638" lon="4.83361">
        <ele>186.06</ele>
        <time>2021-04-20T15:39:36Z</time>
      </trkpt>
      <trkpt lat="49.7638" lon="4.83367">
        <ele>186.72</ele>
        <time>2021-04-20T15:39:38Z</time>
      </trkpt>
      <trkpt lat="49.7638" lon="4.83372">
        <ele>187.27</ele>
        <time>2021-04-20T15:39:40Z</time>
      </trkpt>
      <trkpt lat="49.7638" lon="4.83377">
        <ele>187.82</ele>
        <time>2021-04-20T15:39:43Z</time>
      </trkpt>
      <trkpt lat="49.7638" lon="4.83383">
        <ele>188.48</ele>
        <time>2021-04-20T15:39:46Z</time>
      </trkpt>
      <trkpt lat="49.7638" lon="4.83388">
        <ele>189.02</ele>
        <time>2021-04-20T15:39:48Z</time>
      </trkpt>
      <trkpt lat="49.7638" lon="4.83394">
        <ele>188.57</ele>
        <time>2021-04-20T15:39:51Z</time>
      </trkpt>
      <trkpt lat="49.76379" lon="4.83399">
        <ele>187.7</ele>
        <time>2021-04-20T15:39:54Z</time>
      </trkpt>
      <trkpt lat="49.76378" lon="4.83405">
        <ele>186.73</ele>
        <time>2021-04-20T15:39:57Z</time>
      </trkpt>
      <trkpt lat="49.76378" lon="4.83409">
        <ele>186.3</ele>
        <time>2021-04-20T15:39:59Z</time>
      </trkpt>
      <trkpt lat="49.76378" lon="4.83414">
        <ele>185.76</ele>
        <time>2021-04-20T15:40:01Z</time>
      </trkpt>
      <trkpt lat="49.76378" lon="4.8342">
        <ele>185.45</ele>
        <time>2021-04-20T15:40:04Z</time>
      </trkpt>
      <trkpt lat="49.76378" lon="4.83425">
        <ele>185.41</ele>
        <time>2021-04-20T15:40:06Z</time>
      </trkpt>
      <trkpt lat="49.76377" lon="4.8343">
        <ele>185.08</ele>
        <time>2021-04-20T15:40:08Z</time>
      </trkpt>
      <trkpt lat="49.76377" lon="4.83434">
        <ele>185.06</ele>
        <time>2021-04-20T15:40:10Z</time>
      </trkpt>
      <trkpt lat="49.76377" lon="4.83439">
        <ele>185.03</ele>
        <time>2021-04-20T15:40:12Z</time>
      </trkpt>
      <trkpt lat="49.76377" lon="4.83444">
        <ele>185.01</ele>
        <time>2021-04-20T15:40:15Z</time>
      </trkpt>
      <trkpt lat="49.76377" lon="4.83448">
        <ele>185</ele>
        <time>2021-04-20T15:40:18Z</time>
      </trkpt>
      <trkpt lat="49.76376" lon="4.83454">
        <ele>184.75</ele>
        <time>2021-04-20T15:40:21Z</time>
      </trkpt>
      <trkpt lat="49.76375" lon="4.83459">
        <ele>184.5</ele>
        <time>2021-04-20T15:40:23Z</time>
      </trkpt>
      <trkpt lat="49.76375" lon="4.83464">
        <ele>184.5</ele>
        <time>2021-04-20T15:40:25Z</time>
      </trkpt>
      <trkpt lat="49.76374" lon="4.83469">
        <ele>184.25</ele>
        <time>2021-04-20T15:40:28Z</time>
      </trkpt>
      <trkpt lat="49.76373" lon="4.83475">
        <ele>184.11</ele>
        <time>2021-04-20T15:40:31Z</time>
      </trkpt>
      <trkpt lat="49.76372" lon="4.83479">
        <ele>184.04</ele>
        <time>2021-04-20T15:40:33Z</time>
      </trkpt>
      <trkpt lat="49.76372" lon="4.83484">
        <ele>184.26</ele>
        <time>2021-04-20T15:40:36Z</time>
      </trkpt>
      <trkpt lat="49.76371" lon="4.83488">
        <ele>184.22</ele>
        <time>2021-04-20T15:40:38Z</time>
      </trkpt>
      <trkpt lat="49.7637" lon="4.83492">
        <ele>184.21</ele>
        <time>2021-04-20T15:40:40Z</time>
      </trkpt>
      <trkpt lat="49.76369" lon="4.83497">
        <ele>184.27</ele>
        <time>2021-04-20T15:40:42Z</time>
      </trkpt>
      <trkpt lat="49.76368" lon="4.83503">
        <ele>184.48</ele>
        <time>2021-04-20T15:40:45Z</time>
      </trkpt>
      <trkpt lat="49.76367" lon="4.83507">
        <ele>184.62</ele>
        <time>2021-04-20T15:40:48Z</time>
      </trkpt>
      <trkpt lat="49.76365" lon="4.83511">
        <ele>184.55</ele>
        <time>2021-04-20T15:40:51Z</time>
      </trkpt>
      <trkpt lat="49.76364" lon="4.83516">
        <ele>184.73</ele>
        <time>2021-04-20T15:40:55Z</time>
      </trkpt>
      <trkpt lat="49.76363" lon="4.8352">
        <ele>184.83</ele>
        <time>2021-04-20T15:40:57Z</time>
      </trkpt>
      <trkpt lat="49.76363" lon="4.83524">
        <ele>185.13</ele>
        <time>2021-04-20T15:40:59Z</time>
      </trkpt>
      <trkpt lat="49.76361" lon="4.8353">
        <ele>185.14</ele>
        <time>2021-04-20T15:41:02Z</time>
      </trkpt>
      <trkpt lat="49.7636" lon="4.83535">
        <ele>185.28</ele>
        <time>2021-04-20T15:41:05Z</time>
      </trkpt>
      <trkpt lat="49.76358" lon="4.8354">
        <ele>185.21</ele>
        <time>2021-04-20T15:41:08Z</time>
      </trkpt>
      <trkpt lat="49.76357" lon="4.83545">
        <ele>185.35</ele>
        <time>2021-04-20T15:41:11Z</time>
      </trkpt>
      <trkpt lat="49.76356" lon="4.83549">
        <ele>185.42</ele>
        <time>2021-04-20T15:41:13Z</time>
      </trkpt>
      <trkpt lat="49.76355" lon="4.83553">
        <ele>185.5</ele>
        <time>2021-04-20T15:41:15Z</time>
      </trkpt>
      <trkpt lat="49.76353" lon="4.83559">
        <ele>185.34</ele>
        <time>2021-04-20T15:41:18Z</time>
      </trkpt>
      <trkpt lat="49.76352" lon="4.83563">
        <ele>185.21</ele>
        <time>2021-04-20T15:41:21Z</time>
      </trkpt>
      <trkpt lat="49.76351" lon="4.83567">
        <ele>185.08</ele>
        <time>2021-04-20T15:41:24Z</time>
      </trkpt>
      <trkpt lat="49.76349" lon="4.83571">
        <ele>184.7</ele>
        <time>2021-04-20T15:41:26Z</time>
      </trkpt>
      <trkpt lat="49.76349" lon="4.83577">
        <ele>184.82</ele>
        <time>2021-04-20T15:41:28Z</time>
      </trkpt>
      <trkpt lat="49.76348" lon="4.83582">
        <ele>184.67</ele>
        <time>2021-04-20T15:41:30Z</time>
      </trkpt>
      <trkpt lat="49.76347" lon="4.83586">
        <ele>184.59</ele>
        <time>2021-04-20T15:41:33Z</time>
      </trkpt>
      <trkpt lat="49.76346" lon="4.8359">
        <ele>184.52</ele>
        <time>2021-04-20T15:41:35Z</time>
      </trkpt>
      <trkpt lat="49.76344" lon="4.83594">
        <ele>184.13</ele>
        <time>2021-04-20T15:41:38Z</time>
      </trkpt>
      <trkpt lat="49.76343" lon="4.83598">
        <ele>183.99</ele>
        <time>2021-04-20T15:41:41Z</time>
      </trkpt>
      <trkpt lat="49.76341" lon="4.83603">
        <ele>183.52</ele>
        <time>2021-04-20T15:41:44Z</time>
      </trkpt>
      <trkpt lat="49.7634" lon="4.83607">
        <ele>183.29</ele>
        <time>2021-04-20T15:41:47Z</time>
      </trkpt>
      <trkpt lat="49.7634" lon="4.83612">
        <ele>183.47</ele>
        <time>2021-04-20T15:41:53Z</time>
      </trkpt>
      <trkpt lat="49.7634" lon="4.83617">
        <ele>183.87</ele>
        <time>2021-04-20T15:41:58Z</time>
      </trkpt>
      <trkpt lat="49.76339" lon="4.83622">
        <ele>183.9</ele>
        <time>2021-04-20T15:42:01Z</time>
      </trkpt>
      <trkpt lat="49.76337" lon="4.83627">
        <ele>183.54</ele>
        <time>2021-04-20T15:42:02Z</time>
      </trkpt>
      <trkpt lat="49.76336" lon="4.83632">
        <ele>183.54</ele>
        <time>2021-04-20T15:42:03Z</time>
      </trkpt>
      <trkpt lat="49.76335" lon="4.83637">
        <ele>183.52</ele>
        <time>2021-04-20T15:42:04Z</time>
      </trkpt>
      <trkpt lat="49.76333" lon="4.83642">
        <ele>183.18</ele>
        <time>2021-04-20T15:42:05Z</time>
      </trkpt>
      <trkpt lat="49.76331" lon="4.83646">
        <ele>183.18</ele>
        <time>2021-04-20T15:42:07Z</time>
      </trkpt>
      <trkpt lat="49.76329" lon="4.83651">
        <ele>183.25</ele>
        <time>2021-04-20T15:42:10Z</time>
      </trkpt>
      <trkpt lat="49.76328" lon="4.83655">
        <ele>183.39</ele>
        <time>2021-04-20T15:42:13Z</time>
      </trkpt>
      <trkpt lat="49.76326" lon="4.8366">
        <ele>183.46</ele>
        <time>2021-04-20T15:42:16Z</time>
      </trkpt>
      <trkpt lat="49.76325" lon="4.83665">
        <ele>183.68</ele>
        <time>2021-04-20T15:42:19Z</time>
      </trkpt>
      <trkpt lat="49.76325" lon="4.8367">
        <ele>184.17</ele>
        <time>2021-04-20T15:42:22Z</time>
      </trkpt>
      <trkpt lat="49.76323" lon="4.83676">
        <ele>184.48</ele>
        <time>2021-04-20T15:42:25Z</time>
      </trkpt>
      <trkpt lat="49.76322" lon="4.8368">
        <ele>184.7</ele>
        <time>2021-04-20T15:42:27Z</time>
      </trkpt>
      <trkpt lat="49.76321" lon="4.83685">
        <ele>184.98</ele>
        <time>2021-04-20T15:42:29Z</time>
      </trkpt>
      <trkpt lat="49.7632" lon="4.83689">
        <ele>185.14</ele>
        <time>2021-04-20T15:42:32Z</time>
      </trkpt>
      <trkpt lat="49.76318" lon="4.83694">
        <ele>185.1</ele>
        <time>2021-04-20T15:42:36Z</time>
      </trkpt>
      <trkpt lat="49.76316" lon="4.83697">
        <ele>184.94</ele>
        <time>2021-04-20T15:42:39Z</time>
      </trkpt>
      <trkpt lat="49.76314" lon="4.83701">
        <ele>184.91</ele>
        <time>2021-04-20T15:42:42Z</time>
      </trkpt>
      <trkpt lat="49.76313" lon="4.83705">
        <ele>185.12</ele>
        <time>2021-04-20T15:42:44Z</time>
      </trkpt>
      <trkpt lat="49.76311" lon="4.8371">
        <ele>185.16</ele>
        <time>2021-04-20T15:42:47Z</time>
      </trkpt>
      <trkpt lat="49.76309" lon="4.83713">
        <ele>184.95</ele>
        <time>2021-04-20T15:42:51Z</time>
      </trkpt>
      <trkpt lat="49.76307" lon="4.83716">
        <ele>184.73</ele>
        <time>2021-04-20T15:42:54Z</time>
      </trkpt>
      <trkpt lat="49.76305" lon="4.83721">
        <ele>184.69</ele>
        <time>2021-04-20T15:42:58Z</time>
      </trkpt>
      <trkpt lat="49.76303" lon="4.83725">
        <ele>184.27</ele>
        <time>2021-04-20T15:43:03Z</time>
      </trkpt>
      <trkpt lat="49.76302" lon="4.83731">
        <ele>184.16</ele>
        <time>2021-04-20T15:43:07Z</time>
      </trkpt>
      <trkpt lat="49.76302" lon="4.83735">
        <ele>184.31</ele>
        <time>2021-04-20T15:43:09Z</time>
      </trkpt>
      <trkpt lat="49.76301" lon="4.8374">
        <ele>184.16</ele>
        <time>2021-04-20T15:43:12Z</time>
      </trkpt>
      <trkpt lat="49.76299" lon="4.83743">
        <ele>183.62</ele>
        <time>2021-04-20T15:43:15Z</time>
      </trkpt>
      <trkpt lat="49.76298" lon="4.83747">
        <ele>183.44</ele>
        <time>2021-04-20T15:43:18Z</time>
      </trkpt>
      <trkpt lat="49.76296" lon="4.83752">
        <ele>182.93</ele>
        <time>2021-04-20T15:43:21Z</time>
      </trkpt>
      <trkpt lat="49.76295" lon="4.83758">
        <ele>182.69</ele>
        <time>2021-04-20T15:43:24Z</time>
      </trkpt>
      <trkpt lat="49.76294" lon="4.83762">
        <ele>182.44</ele>
        <time>2021-04-20T15:43:26Z</time>
      </trkpt>
      <trkpt lat="49.76292" lon="4.83767">
        <ele>181.91</ele>
        <time>2021-04-20T15:43:29Z</time>
      </trkpt>
      <trkpt lat="49.7629" lon="4.83772">
        <ele>181.4</ele>
        <time>2021-04-20T15:43:32Z</time>
      </trkpt>
      <trkpt lat="49.76289" lon="4.83777">
        <ele>181.22</ele>
        <time>2021-04-20T15:43:35Z</time>
      </trkpt>
      <trkpt lat="49.76288" lon="4.83782">
        <ele>180.85</ele>
        <time>2021-04-20T15:43:38Z</time>
      </trkpt>
      <trkpt lat="49.76287" lon="4.83787">
        <ele>180.43</ele>
        <time>2021-04-20T15:43:41Z</time>
      </trkpt>
      <trkpt lat="49.76285" lon="4.83792">
        <ele>179.7</ele>
        <time>2021-04-20T15:43:44Z</time>
      </trkpt>
      <trkpt lat="49.76285" lon="4.83796">
        <ele>179.59</ele>
        <time>2021-04-20T15:43:47Z</time>
      </trkpt>
      <trkpt lat="49.76283" lon="4.838">
        <ele>178.85</ele>
        <time>2021-04-20T15:43:56Z</time>
      </trkpt>
      <trkpt lat="49.76282" lon="4.83805">
        <ele>178.38</ele>
        <time>2021-04-20T15:43:58Z</time>
      </trkpt>
      <trkpt lat="49.7628" lon="4.83812">
        <ele>177.91</ele>
        <time>2021-04-20T15:44:00Z</time>
      </trkpt>
      <trkpt lat="49.76279" lon="4.83817">
        <ele>177.77</ele>
        <time>2021-04-20T15:44:01Z</time>
      </trkpt>
      <trkpt lat="49.76278" lon="4.83822">
        <ele>177.65</ele>
        <time>2021-04-20T15:44:02Z</time>
      </trkpt>
      <trkpt lat="49.76275" lon="4.83827">
        <ele>177.29</ele>
        <time>2021-04-20T15:44:04Z</time>
      </trkpt>
      <trkpt lat="49.76273" lon="4.83834">
        <ele>177.19</ele>
        <time>2021-04-20T15:44:06Z</time>
      </trkpt>
      <trkpt lat="49.7627" lon="4.83839">
        <ele>177.07</ele>
        <time>2021-04-20T15:44:08Z</time>
      </trkpt>
      <trkpt lat="49.76268" lon="4.83845">
        <ele>177.23</ele>
        <time>2021-04-20T15:44:10Z</time>
      </trkpt>
      <trkpt lat="49.76267" lon="4.83849">
        <ele>177.41</ele>
        <time>2021-04-20T15:44:12Z</time>
      </trkpt>
      <trkpt lat="49.76266" lon="4.83853">
        <ele>177.6</ele>
        <time>2021-04-20T15:44:14Z</time>
      </trkpt>
      <trkpt lat="49.76265" lon="4.83859">
        <ele>177.97</ele>
        <time>2021-04-20T15:44:17Z</time>
      </trkpt>
      <trkpt lat="49.76265" lon="4.83864">
        <ele>178.37</ele>
        <time>2021-04-20T15:44:20Z</time>
      </trkpt>
      <trkpt lat="49.76264" lon="4.8387">
        <ele>178.66</ele>
        <time>2021-04-20T15:44:24Z</time>
      </trkpt>
      <trkpt lat="49.76263" lon="4.83874">
        <ele>178.8</ele>
        <time>2021-04-20T15:44:27Z</time>
      </trkpt>
      <trkpt lat="49.76262" lon="4.83878">
        <ele>178.94</ele>
        <time>2021-04-20T15:44:29Z</time>
      </trkpt>
      <trkpt lat="49.76262" lon="4.83884">
        <ele>179.38</ele>
        <time>2021-04-20T15:44:32Z</time>
      </trkpt>
      <trkpt lat="49.76262" lon="4.83889">
        <ele>179.72</ele>
        <time>2021-04-20T15:44:34Z</time>
      </trkpt>
      <trkpt lat="49.76263" lon="4.83895">
        <ele>179.64</ele>
        <time>2021-04-20T15:44:37Z</time>
      </trkpt>
      <trkpt lat="49.76263" lon="4.839">
        <ele>179.45</ele>
        <time>2021-04-20T15:44:39Z</time>
      </trkpt>
      <trkpt lat="49.76264" lon="4.83905">
        <ele>179.44</ele>
        <time>2021-04-20T15:44:41Z</time>
      </trkpt>
      <trkpt lat="49.76265" lon="4.83909">
        <ele>179.49</ele>
        <time>2021-04-20T15:44:44Z</time>
      </trkpt>
      <trkpt lat="49.76268" lon="4.83914">
        <ele>179.96</ele>
        <time>2021-04-20T15:44:47Z</time>
      </trkpt>
      <trkpt lat="49.7627" lon="4.83918">
        <ele>180.22</ele>
        <time>2021-04-20T15:44:49Z</time>
      </trkpt>
      <trkpt lat="49.76272" lon="4.83923">
        <ele>180.3</ele>
        <time>2021-04-20T15:44:52Z</time>
      </trkpt>
      <trkpt lat="49.76273" lon="4.83928">
        <ele>180.15</ele>
        <time>2021-04-20T15:44:55Z</time>
      </trkpt>
      <trkpt lat="49.76275" lon="4.83932">
        <ele>180.3</ele>
        <time>2021-04-20T15:44:58Z</time>
      </trkpt>
      <trkpt lat="49.76277" lon="4.83937">
        <ele>180.37</ele>
        <time>2021-04-20T15:45:01Z</time>
      </trkpt>
      <trkpt lat="49.76279" lon="4.83939">
        <ele>180.48</ele>
        <time>2021-04-20T15:45:03Z</time>
      </trkpt>
      <trkpt lat="49.76282" lon="4.83942">
        <ele>180.48</ele>
        <time>2021-04-20T15:45:05Z</time>
      </trkpt>
      <trkpt lat="49.76285" lon="4.83944">
        <ele>180.55</ele>
        <time>2021-04-20T15:45:08Z</time>
      </trkpt>
      <trkpt lat="49.76288" lon="4.83947">
        <ele>180.43</ele>
        <time>2021-04-20T15:45:11Z</time>
      </trkpt>
      <trkpt lat="49.7629" lon="4.8395">
        <ele>180.19</ele>
        <time>2021-04-20T15:45:13Z</time>
      </trkpt>
      <trkpt lat="49.76292" lon="4.83952">
        <ele>180.07</ele>
        <time>2021-04-20T15:45:15Z</time>
      </trkpt>
      <trkpt lat="49.76294" lon="4.83956">
        <ele>179.68</ele>
        <time>2021-04-20T15:45:17Z</time>
      </trkpt>
      <trkpt lat="49.76296" lon="4.8396">
        <ele>179.26</ele>
        <time>2021-04-20T15:45:20Z</time>
      </trkpt>
      <trkpt lat="49.76299" lon="4.83964">
        <ele>178.88</ele>
        <time>2021-04-20T15:45:23Z</time>
      </trkpt>
      <trkpt lat="49.76302" lon="4.83966">
        <ele>178.74</ele>
        <time>2021-04-20T15:45:26Z</time>
      </trkpt>
      <trkpt lat="49.76305" lon="4.83967">
        <ele>178.73</ele>
        <time>2021-04-20T15:45:29Z</time>
      </trkpt>
      <trkpt lat="49.76308" lon="4.8397">
        <ele>178.42</ele>
        <time>2021-04-20T15:45:32Z</time>
      </trkpt>
      <trkpt lat="49.76311" lon="4.83972">
        <ele>178.23</ele>
        <time>2021-04-20T15:45:34Z</time>
      </trkpt>
      <trkpt lat="49.76314" lon="4.83974">
        <ele>178.01</ele>
        <time>2021-04-20T15:45:36Z</time>
      </trkpt>
      <trkpt lat="49.76316" lon="4.83976">
        <ele>177.73</ele>
        <time>2021-04-20T15:45:38Z</time>
      </trkpt>
      <trkpt lat="49.76319" lon="4.8398">
        <ele>177.09</ele>
        <time>2021-04-20T15:45:41Z</time>
      </trkpt>
      <trkpt lat="49.76323" lon="4.83981">
        <ele>176.97</ele>
        <time>2021-04-20T15:45:44Z</time>
      </trkpt>
      <trkpt lat="49.76327" lon="4.83982">
        <ele>176.82</ele>
        <time>2021-04-20T15:45:47Z</time>
      </trkpt>
      <trkpt lat="49.76331" lon="4.83983">
        <ele>176.65</ele>
        <time>2021-04-20T15:45:50Z</time>
      </trkpt>
      <trkpt lat="49.76334" lon="4.83984">
        <ele>176.46</ele>
        <time>2021-04-20T15:45:52Z</time>
      </trkpt>
      <trkpt lat="49.76337" lon="4.83985">
        <ele>176.24</ele>
        <time>2021-04-20T15:45:55Z</time>
      </trkpt>
      <trkpt lat="49.7634" lon="4.83987">
        <ele>175.81</ele>
        <time>2021-04-20T15:45:59Z</time>
      </trkpt>
      <trkpt lat="49.76344" lon="4.83988">
        <ele>175.59</ele>
        <time>2021-04-20T15:46:02Z</time>
      </trkpt>
      <trkpt lat="49.76347" lon="4.83988">
        <ele>175.59</ele>
        <time>2021-04-20T15:46:05Z</time>
      </trkpt>
      <trkpt lat="49.76351" lon="4.83988">
        <ele>175.59</ele>
        <time>2021-04-20T15:46:08Z</time>
      </trkpt>
      <trkpt lat="49.76354" lon="4.83988">
        <ele>175.59</ele>
        <time>2021-04-20T15:46:10Z</time>
      </trkpt>
      <trkpt lat="49.76358" lon="4.83988">
        <ele>175.59</ele>
        <time>2021-04-20T15:46:12Z</time>
      </trkpt>
      <trkpt lat="49.76361" lon="4.83988">
        <ele>175.59</ele>
        <time>2021-04-20T15:46:14Z</time>
      </trkpt>
      <trkpt lat="49.76364" lon="4.83989">
        <ele>175.54</ele>
        <time>2021-04-20T15:46:16Z</time>
      </trkpt>
      <trkpt lat="49.76368" lon="4.8399">
        <ele>175.52</ele>
        <time>2021-04-20T15:46:18Z</time>
      </trkpt>
      <trkpt lat="49.76371" lon="4.8399">
        <ele>175.67</ele>
        <time>2021-04-20T15:46:21Z</time>
      </trkpt>
      <trkpt lat="49.76374" lon="4.83992">
        <ele>175.26</ele>
        <time>2021-04-20T15:46:24Z</time>
      </trkpt>
      <trkpt lat="49.76376" lon="4.83993">
        <ele>175.05</ele>
        <time>2021-04-20T15:46:27Z</time>
      </trkpt>
      <trkpt lat="49.76379" lon="4.83994">
        <ele>174.85</ele>
        <time>2021-04-20T15:46:30Z</time>
      </trkpt>
      <trkpt lat="49.76383" lon="4.83995">
        <ele>174.65</ele>
        <time>2021-04-20T15:46:33Z</time>
      </trkpt>
      <trkpt lat="49.76386" lon="4.83998">
        <ele>173.69</ele>
        <time>2021-04-20T15:46:36Z</time>
      </trkpt>
      <trkpt lat="49.76388" lon="4.83999">
        <ele>173.36</ele>
        <time>2021-04-20T15:46:39Z</time>
      </trkpt>
      <trkpt lat="49.76392" lon="4.83998">
        <ele>173.71</ele>
        <time>2021-04-20T15:46:42Z</time>
      </trkpt>
      <trkpt lat="49.76395" lon="4.84">
        <ele>173</ele>
        <time>2021-04-20T15:46:46Z</time>
      </trkpt>
      <trkpt lat="49.76398" lon="4.84004">
        <ele>172.13</ele>
        <time>2021-04-20T15:46:50Z</time>
      </trkpt>
      <trkpt lat="49.76401" lon="4.84007">
        <ele>171.72</ele>
        <time>2021-04-20T15:46:53Z</time>
      </trkpt>
      <trkpt lat="49.76404" lon="4.84008">
        <ele>171.82</ele>
        <time>2021-04-20T15:46:56Z</time>
      </trkpt>
      <trkpt lat="49.76407" lon="4.84009">
        <ele>171.99</ele>
        <time>2021-04-20T15:47:09Z</time>
      </trkpt>
      <trkpt lat="49.7641" lon="4.8401">
        <ele>172.22</ele>
        <time>2021-04-20T15:47:14Z</time>
      </trkpt>
      <trkpt lat="49.76413" lon="4.8401">
        <ele>172.57</ele>
        <time>2021-04-20T15:47:37Z</time>
      </trkpt>
      <trkpt lat="49.76416" lon="4.84009">
        <ele>172.93</ele>
        <time>2021-04-20T15:47:41Z</time>
      </trkpt>
      <trkpt lat="49.76419" lon="4.84011">
        <ele>173.08</ele>
        <time>2021-04-20T15:47:44Z</time>
      </trkpt>
      <trkpt lat="49.76422" lon="4.84011">
        <ele>173.19</ele>
        <time>2021-04-20T15:48:11Z</time>
      </trkpt>
      <trkpt lat="49.76425" lon="4.84009">
        <ele>173.3</ele>
        <time>2021-04-20T15:48:38Z</time>
      </trkpt>
      <trkpt lat="49.76428" lon="4.84009">
        <ele>173.41</ele>
        <time>2021-04-20T15:48:41Z</time>
      </trkpt>
      <trkpt lat="49.76431" lon="4.84009">
        <ele>173.52</ele>
        <time>2021-04-20T15:48:45Z</time>
      </trkpt>
      <trkpt lat="49.76434" lon="4.8401">
        <ele>173.62</ele>
        <time>2021-04-20T15:49:09Z</time>
      </trkpt>
      <trkpt lat="49.76437" lon="4.8401">
        <ele>173.73</ele>
        <time>2021-04-20T15:49:13Z</time>
      </trkpt>
      <trkpt lat="49.76441" lon="4.84009">
        <ele>173.88</ele>
        <time>2021-04-20T15:49:16Z</time>
      </trkpt>
      <trkpt lat="49.76444" lon="4.84008">
        <ele>173.98</ele>
        <time>2021-04-20T15:49:23Z</time>
      </trkpt>
      <trkpt lat="49.76446" lon="4.84011">
        <ele>174.1</ele>
        <time>2021-04-20T15:49:56Z</time>
      </trkpt>
      <trkpt lat="49.76448" lon="4.84015">
        <ele>174.18</ele>
        <time>2021-04-20T15:50:17Z</time>
      </trkpt>
      <trkpt lat="49.76451" lon="4.84014">
        <ele>174.35</ele>
        <time>2021-04-20T15:50:19Z</time>
      </trkpt>
      <trkpt lat="49.76452" lon="4.8401">
        <ele>174.52</ele>
        <time>2021-04-20T15:50:26Z</time>
      </trkpt>
      <trkpt lat="49.76448" lon="4.84006">
        <ele>174.3</ele>
        <time>2021-04-20T15:51:29Z</time>
      </trkpt>
      <trkpt lat="49.76446" lon="4.83996">
        <ele>174.9</ele>
        <time>2021-04-20T15:52:05Z</time>
      </trkpt>
      <trkpt lat="49.76446" lon="4.83991">
        <ele>175.82</ele>
        <time>2021-04-20T15:52:12Z</time>
      </trkpt>
      <trkpt lat="49.76449" lon="4.83989">
        <ele>176.6</ele>
        <time>2021-04-20T15:52:16Z</time>
      </trkpt>
      <trkpt lat="49.76453" lon="4.83988">
        <ele>177.35</ele>
        <time>2021-04-20T15:52:19Z</time>
      </trkpt>
      <trkpt lat="49.76456" lon="4.83988">
        <ele>177.77</ele>
        <time>2021-04-20T15:52:22Z</time>
      </trkpt>
      <trkpt lat="49.76459" lon="4.83988">
        <ele>178.18</ele>
        <time>2021-04-20T15:52:25Z</time>
      </trkpt>
      <trkpt lat="49.76461" lon="4.83987">
        <ele>178.69</ele>
        <time>2021-04-20T15:52:28Z</time>
      </trkpt>
      <trkpt lat="49.76464" lon="4.83986">
        <ele>179.34</ele>
        <time>2021-04-20T15:52:31Z</time>
      </trkpt>
      <trkpt lat="49.76467" lon="4.83985">
        <ele>180.01</ele>
        <time>2021-04-20T15:52:34Z</time>
      </trkpt>
      <trkpt lat="49.7647" lon="4.83986">
        <ele>180.21</ele>
        <time>2021-04-20T15:52:37Z</time>
      </trkpt>
      <trkpt lat="49.76473" lon="4.83986">
        <ele>180.63</ele>
        <time>2021-04-20T15:52:41Z</time>
      </trkpt>
      <trkpt lat="49.76476" lon="4.83987">
        <ele>180.77</ele>
        <time>2021-04-20T15:52:44Z</time>
      </trkpt>
      <trkpt lat="49.76479" lon="4.83989">
        <ele>180.75</ele>
        <time>2021-04-20T15:52:47Z</time>
      </trkpt>
      <trkpt lat="49.76483" lon="4.83988">
        <ele>181.51</ele>
        <time>2021-04-20T15:52:51Z</time>
      </trkpt>
      <trkpt lat="49.76486" lon="4.83987">
        <ele>182.09</ele>
        <time>2021-04-20T15:52:54Z</time>
      </trkpt>
      <trkpt lat="49.7649" lon="4.83987">
        <ele>182.62</ele>
        <time>2021-04-20T15:52:58Z</time>
      </trkpt>
      <trkpt lat="49.76492" lon="4.83988">
        <ele>182.76</ele>
        <time>2021-04-20T15:53:01Z</time>
      </trkpt>
      <trkpt lat="49.76495" lon="4.83988">
        <ele>183.17</ele>
        <time>2021-04-20T15:53:04Z</time>
      </trkpt>
      <trkpt lat="49.76498" lon="4.83988">
        <ele>183.59</ele>
        <time>2021-04-20T15:53:07Z</time>
      </trkpt>
      <trkpt lat="49.76502" lon="4.83987">
        <ele>184</ele>
        <time>2021-04-20T15:53:10Z</time>
      </trkpt>
      <trkpt lat="49.76506" lon="4.83988">
        <ele>184.05</ele>
        <time>2021-04-20T15:53:13Z</time>
      </trkpt>
      <trkpt lat="49.76509" lon="4.83988">
        <ele>184.14</ele>
        <time>2021-04-20T15:53:16Z</time>
      </trkpt>
      <trkpt lat="49.76512" lon="4.83989">
        <ele>184.13</ele>
        <time>2021-04-20T15:53:19Z</time>
      </trkpt>
      <trkpt lat="49.76516" lon="4.83989">
        <ele>184.25</ele>
        <time>2021-04-20T15:53:22Z</time>
      </trkpt>
      <trkpt lat="49.76519" lon="4.83988">
        <ele>184.45</ele>
        <time>2021-04-20T15:53:24Z</time>
      </trkpt>
      <trkpt lat="49.76522" lon="4.83988">
        <ele>184.55</ele>
        <time>2021-04-20T15:53:26Z</time>
      </trkpt>
      <trkpt lat="49.76525" lon="4.83988">
        <ele>184.64</ele>
        <time>2021-04-20T15:53:29Z</time>
      </trkpt>
      <trkpt lat="49.76528" lon="4.83988">
        <ele>184.68</ele>
        <time>2021-04-20T15:53:31Z</time>
      </trkpt>
      <trkpt lat="49.76531" lon="4.83989">
        <ele>183.86</ele>
        <time>2021-04-20T15:53:33Z</time>
      </trkpt>
      <trkpt lat="49.76534" lon="4.8399">
        <ele>182.99</ele>
        <time>2021-04-20T15:53:36Z</time>
      </trkpt>
      <trkpt lat="49.76536" lon="4.83992">
        <ele>182.08</ele>
        <time>2021-04-20T15:53:39Z</time>
      </trkpt>
      <trkpt lat="49.7654" lon="4.83993">
        <ele>180.82</ele>
        <time>2021-04-20T15:53:42Z</time>
      </trkpt>
      <trkpt lat="49.76543" lon="4.83992">
        <ele>180.32</ele>
        <time>2021-04-20T15:53:45Z</time>
      </trkpt>
      <trkpt lat="49.76546" lon="4.83989">
        <ele>180.5</ele>
        <time>2021-04-20T15:53:48Z</time>
      </trkpt>
      <trkpt lat="49.7655" lon="4.83988">
        <ele>179.95</ele>
        <time>2021-04-20T15:53:51Z</time>
      </trkpt>
      <trkpt lat="49.76553" lon="4.83989">
        <ele>178.93</ele>
        <time>2021-04-20T15:53:54Z</time>
      </trkpt>
      <trkpt lat="49.76556" lon="4.83989">
        <ele>178.35</ele>
        <time>2021-04-20T15:53:56Z</time>
      </trkpt>
      <trkpt lat="49.76559" lon="4.83989">
        <ele>178.33</ele>
        <time>2021-04-20T15:53:58Z</time>
      </trkpt>
      <trkpt lat="49.76562" lon="4.83988">
        <ele>178.68</ele>
        <time>2021-04-20T15:54:02Z</time>
      </trkpt>
      <trkpt lat="49.76565" lon="4.83988">
        <ele>178.65</ele>
        <time>2021-04-20T15:54:05Z</time>
      </trkpt>
      <trkpt lat="49.76569" lon="4.8399">
        <ele>177.92</ele>
        <time>2021-04-20T15:54:08Z</time>
      </trkpt>
      <trkpt lat="49.76572" lon="4.83991">
        <ele>177.58</ele>
        <time>2021-04-20T15:54:11Z</time>
      </trkpt>
      <trkpt lat="49.76575" lon="4.83991">
        <ele>177.58</ele>
        <time>2021-04-20T15:54:14Z</time>
      </trkpt>
      <trkpt lat="49.76578" lon="4.8399">
        <ele>177.9</ele>
        <time>2021-04-20T15:54:17Z</time>
      </trkpt>
      <trkpt lat="49.76582" lon="4.8399">
        <ele>177.88</ele>
        <time>2021-04-20T15:54:20Z</time>
      </trkpt>
      <trkpt lat="49.76585" lon="4.8399">
        <ele>178.26</ele>
        <time>2021-04-20T15:54:23Z</time>
      </trkpt>
      <trkpt lat="49.76589" lon="4.83991">
        <ele>178.89</ele>
        <time>2021-04-20T15:54:26Z</time>
      </trkpt>
      <trkpt lat="49.76592" lon="4.83991">
        <ele>179.57</ele>
        <time>2021-04-20T15:54:28Z</time>
      </trkpt>
      <trkpt lat="49.76596" lon="4.83991">
        <ele>180.49</ele>
        <time>2021-04-20T15:54:31Z</time>
      </trkpt>
      <trkpt lat="49.76599" lon="4.83991">
        <ele>181.17</ele>
        <time>2021-04-20T15:54:33Z</time>
      </trkpt>
      <trkpt lat="49.76602" lon="4.83992">
        <ele>181.62</ele>
        <time>2021-04-20T15:54:36Z</time>
      </trkpt>
      <trkpt lat="49.76606" lon="4.83991">
        <ele>182.78</ele>
        <time>2021-04-20T15:54:39Z</time>
      </trkpt>
      <trkpt lat="49.76609" lon="4.83988">
        <ele>184.13</ele>
        <time>2021-04-20T15:54:42Z</time>
      </trkpt>
      <trkpt lat="49.76612" lon="4.83986">
        <ele>185.17</ele>
        <time>2021-04-20T15:54:45Z</time>
      </trkpt>
      <trkpt lat="49.76616" lon="4.83984">
        <ele>186.13</ele>
        <time>2021-04-20T15:54:48Z</time>
      </trkpt>
      <trkpt lat="49.76619" lon="4.83983">
        <ele>186.66</ele>
        <time>2021-04-20T15:54:51Z</time>
      </trkpt>
      <trkpt lat="49.76622" lon="4.83982">
        <ele>187.13</ele>
        <time>2021-04-20T15:54:55Z</time>
      </trkpt>
      <trkpt lat="49.76625" lon="4.83983">
        <ele>187.42</ele>
        <time>2021-04-20T15:54:59Z</time>
      </trkpt>
      <trkpt lat="49.76628" lon="4.83983">
        <ele>187.8</ele>
        <time>2021-04-20T15:55:02Z</time>
      </trkpt>
      <trkpt lat="49.76631" lon="4.83983">
        <ele>188.17</ele>
        <time>2021-04-20T15:55:04Z</time>
      </trkpt>
      <trkpt lat="49.76635" lon="4.83982">
        <ele>188.61</ele>
        <time>2021-04-20T15:55:06Z</time>
      </trkpt>
      <trkpt lat="49.76637" lon="4.83981">
        <ele>188.75</ele>
        <time>2021-04-20T15:55:08Z</time>
      </trkpt>
      <trkpt lat="49.7664" lon="4.83981">
        <ele>188.9</ele>
        <time>2021-04-20T15:55:10Z</time>
      </trkpt>
      <trkpt lat="49.76644" lon="4.83979">
        <ele>188.55</ele>
        <time>2021-04-20T15:55:12Z</time>
      </trkpt>
      <trkpt lat="49.76647" lon="4.83977">
        <ele>188.32</ele>
        <time>2021-04-20T15:55:14Z</time>
      </trkpt>
      <trkpt lat="49.7665" lon="4.83975">
        <ele>188.14</ele>
        <time>2021-04-20T15:55:16Z</time>
      </trkpt>
      <trkpt lat="49.76652" lon="4.83973">
        <ele>188.03</ele>
        <time>2021-04-20T15:55:18Z</time>
      </trkpt>
      <trkpt lat="49.76655" lon="4.83971">
        <ele>188.22</ele>
        <time>2021-04-20T15:55:22Z</time>
      </trkpt>
      <trkpt lat="49.76658" lon="4.8397">
        <ele>188.36</ele>
        <time>2021-04-20T15:55:25Z</time>
      </trkpt>
      <trkpt lat="49.76661" lon="4.83968">
        <ele>188.61</ele>
        <time>2021-04-20T15:55:28Z</time>
      </trkpt>
      <trkpt lat="49.76665" lon="4.83966">
        <ele>188.74</ele>
        <time>2021-04-20T15:55:31Z</time>
      </trkpt>
      <trkpt lat="49.76668" lon="4.83964">
        <ele>188.56</ele>
        <time>2021-04-20T15:55:33Z</time>
      </trkpt>
      <trkpt lat="49.76671" lon="4.83961">
        <ele>188.09</ele>
        <time>2021-04-20T15:55:36Z</time>
      </trkpt>
      <trkpt lat="49.76675" lon="4.83959">
        <ele>187.2</ele>
        <time>2021-04-20T15:55:39Z</time>
      </trkpt>
      <trkpt lat="49.76679" lon="4.83958">
        <ele>186.19</ele>
        <time>2021-04-20T15:55:42Z</time>
      </trkpt>
      <trkpt lat="49.76681" lon="4.83957">
        <ele>185.7</ele>
        <time>2021-04-20T15:55:45Z</time>
      </trkpt>
      <trkpt lat="49.76685" lon="4.83956">
        <ele>184.64</ele>
        <time>2021-04-20T15:55:48Z</time>
      </trkpt>
      <trkpt lat="49.76688" lon="4.83955">
        <ele>183.82</ele>
        <time>2021-04-20T15:55:51Z</time>
      </trkpt>
      <trkpt lat="49.7669" lon="4.83954">
        <ele>183.27</ele>
        <time>2021-04-20T15:55:54Z</time>
      </trkpt>
      <trkpt lat="49.76693" lon="4.83953">
        <ele>182.42</ele>
        <time>2021-04-20T15:55:57Z</time>
      </trkpt>
      <trkpt lat="49.76696" lon="4.83952">
        <ele>182.11</ele>
        <time>2021-04-20T15:56:00Z</time>
      </trkpt>
      <trkpt lat="49.76699" lon="4.83951">
        <ele>182.33</ele>
        <time>2021-04-20T15:56:03Z</time>
      </trkpt>
      <trkpt lat="49.76703" lon="4.83949">
        <ele>182.62</ele>
        <time>2021-04-20T15:56:06Z</time>
      </trkpt>
      <trkpt lat="49.76706" lon="4.83946">
        <ele>182.83</ele>
        <time>2021-04-20T15:56:09Z</time>
      </trkpt>
      <trkpt lat="49.76708" lon="4.83942">
        <ele>183.29</ele>
        <time>2021-04-20T15:56:12Z</time>
      </trkpt>
      <trkpt lat="49.76711" lon="4.83941">
        <ele>183.59</ele>
        <time>2021-04-20T15:56:15Z</time>
      </trkpt>
      <trkpt lat="49.76714" lon="4.8394">
        <ele>183.87</ele>
        <time>2021-04-20T15:56:18Z</time>
      </trkpt>
      <trkpt lat="49.76717" lon="4.83939">
        <ele>184.13</ele>
        <time>2021-04-20T15:56:20Z</time>
      </trkpt>
      <trkpt lat="49.7672" lon="4.83939">
        <ele>184.28</ele>
        <time>2021-04-20T15:56:23Z</time>
      </trkpt>
      <trkpt lat="49.76723" lon="4.8394">
        <ele>184.48</ele>
        <time>2021-04-20T15:56:26Z</time>
      </trkpt>
      <trkpt lat="49.76726" lon="4.83942">
        <ele>184.97</ele>
        <time>2021-04-20T15:56:29Z</time>
      </trkpt>
      <trkpt lat="49.76729" lon="4.83943">
        <ele>185.54</ele>
        <time>2021-04-20T15:56:33Z</time>
      </trkpt>
      <trkpt lat="49.76733" lon="4.83943">
        <ele>186.39</ele>
        <time>2021-04-20T15:56:37Z</time>
      </trkpt>
      <trkpt lat="49.76735" lon="4.83941">
        <ele>186.89</ele>
        <time>2021-04-20T15:56:40Z</time>
      </trkpt>
      <trkpt lat="49.76738" lon="4.83941">
        <ele>187.52</ele>
        <time>2021-04-20T15:56:43Z</time>
      </trkpt>
      <trkpt lat="49.76742" lon="4.83941">
        <ele>188.34</ele>
        <time>2021-04-20T15:56:46Z</time>
      </trkpt>
      <trkpt lat="49.76745" lon="4.83941">
        <ele>188.96</ele>
        <time>2021-04-20T15:56:50Z</time>
      </trkpt>
      <trkpt lat="49.76748" lon="4.83942">
        <ele>189.58</ele>
        <time>2021-04-20T15:56:53Z</time>
      </trkpt>
      <trkpt lat="49.76751" lon="4.83941">
        <ele>190.03</ele>
        <time>2021-04-20T15:56:57Z</time>
      </trkpt>
      <trkpt lat="49.76754" lon="4.83939">
        <ele>190.12</ele>
        <time>2021-04-20T15:57:00Z</time>
      </trkpt>
      <trkpt lat="49.76757" lon="4.83937">
        <ele>190.18</ele>
        <time>2021-04-20T15:57:02Z</time>
      </trkpt>
      <trkpt lat="49.76761" lon="4.83938">
        <ele>190.3</ele>
        <time>2021-04-20T15:57:05Z</time>
      </trkpt>
      <trkpt lat="49.76764" lon="4.83941">
        <ele>190.44</ele>
        <time>2021-04-20T15:57:08Z</time>
      </trkpt>
      <trkpt lat="49.76767" lon="4.83942">
        <ele>190.56</ele>
        <time>2021-04-20T15:57:11Z</time>
      </trkpt>
      <trkpt lat="49.76771" lon="4.83941">
        <ele>190.66</ele>
        <time>2021-04-20T15:57:14Z</time>
      </trkpt>
      <trkpt lat="49.76775" lon="4.8394">
        <ele>190.76</ele>
        <time>2021-04-20T15:57:17Z</time>
      </trkpt>
      <trkpt lat="49.76778" lon="4.8394">
        <ele>190.85</ele>
        <time>2021-04-20T15:57:19Z</time>
      </trkpt>
      <trkpt lat="49.76782" lon="4.83938">
        <ele>191.03</ele>
        <time>2021-04-20T15:57:22Z</time>
      </trkpt>
      <trkpt lat="49.76785" lon="4.83938">
        <ele>191.21</ele>
        <time>2021-04-20T15:57:24Z</time>
      </trkpt>
      <trkpt lat="49.76788" lon="4.83938">
        <ele>191.39</ele>
        <time>2021-04-20T15:57:27Z</time>
      </trkpt>
      <trkpt lat="49.76791" lon="4.83939">
        <ele>191.56</ele>
        <time>2021-04-20T15:57:30Z</time>
      </trkpt>
      <trkpt lat="49.76794" lon="4.83941">
        <ele>191.68</ele>
        <time>2021-04-20T15:57:33Z</time>
      </trkpt>
      <trkpt lat="49.76797" lon="4.83943">
        <ele>191.75</ele>
        <time>2021-04-20T15:57:36Z</time>
      </trkpt>
      <trkpt lat="49.768" lon="4.83943">
        <ele>191.87</ele>
        <time>2021-04-20T15:57:39Z</time>
      </trkpt>
      <trkpt lat="49.76803" lon="4.83942">
        <ele>192.06</ele>
        <time>2021-04-20T15:57:42Z</time>
      </trkpt>
      <trkpt lat="49.76806" lon="4.83941">
        <ele>192.2</ele>
        <time>2021-04-20T15:57:45Z</time>
      </trkpt>
      <trkpt lat="49.7681" lon="4.8394">
        <ele>191.81</ele>
        <time>2021-04-20T15:57:48Z</time>
      </trkpt>
      <trkpt lat="49.76813" lon="4.8394">
        <ele>191.47</ele>
        <time>2021-04-20T15:57:51Z</time>
      </trkpt>
      <trkpt lat="49.76816" lon="4.83938">
        <ele>191.25</ele>
        <time>2021-04-20T15:57:54Z</time>
      </trkpt>
      <trkpt lat="49.7682" lon="4.83937">
        <ele>190.84</ele>
        <time>2021-04-20T15:57:59Z</time>
      </trkpt>
      <trkpt lat="49.76823" lon="4.83936">
        <ele>190.53</ele>
        <time>2021-04-20T15:58:02Z</time>
      </trkpt>
      <trkpt lat="49.76825" lon="4.83935">
        <ele>190.34</ele>
        <time>2021-04-20T15:58:04Z</time>
      </trkpt>
      <trkpt lat="49.76829" lon="4.83935">
        <ele>189.86</ele>
        <time>2021-04-20T15:58:07Z</time>
      </trkpt>
      <trkpt lat="49.76833" lon="4.83935">
        <ele>189.38</ele>
        <time>2021-04-20T15:58:10Z</time>
      </trkpt>
      <trkpt lat="49.76836" lon="4.83935">
        <ele>189.73</ele>
        <time>2021-04-20T15:58:12Z</time>
      </trkpt>
      <trkpt lat="49.76839" lon="4.83936">
        <ele>190.08</ele>
        <time>2021-04-20T15:58:15Z</time>
      </trkpt>
      <trkpt lat="49.76842" lon="4.83938">
        <ele>190.29</ele>
        <time>2021-04-20T15:58:18Z</time>
      </trkpt>
      <trkpt lat="49.76846" lon="4.8394">
        <ele>190.51</ele>
        <time>2021-04-20T15:58:21Z</time>
      </trkpt>
      <trkpt lat="49.7685" lon="4.83941">
        <ele>190.77</ele>
        <time>2021-04-20T15:58:24Z</time>
      </trkpt>
      <trkpt lat="49.76853" lon="4.83941">
        <ele>191.07</ele>
        <time>2021-04-20T15:58:27Z</time>
      </trkpt>
      <trkpt lat="49.76856" lon="4.83941">
        <ele>191.36</ele>
        <time>2021-04-20T15:58:30Z</time>
      </trkpt>
      <trkpt lat="49.76859" lon="4.83941">
        <ele>191.66</ele>
        <time>2021-04-20T15:58:33Z</time>
      </trkpt>
      <trkpt lat="49.76862" lon="4.83942">
        <ele>191.67</ele>
        <time>2021-04-20T15:58:37Z</time>
      </trkpt>
      <trkpt lat="49.76865" lon="4.83944">
        <ele>191.38</ele>
        <time>2021-04-20T15:58:40Z</time>
      </trkpt>
      <trkpt lat="49.76868" lon="4.83945">
        <ele>191.45</ele>
        <time>2021-04-20T15:58:44Z</time>
      </trkpt>
      <trkpt lat="49.76871" lon="4.83945">
        <ele>191.67</ele>
        <time>2021-04-20T15:58:47Z</time>
      </trkpt>
      <trkpt lat="49.76874" lon="4.83944">
        <ele>192.01</ele>
        <time>2021-04-20T15:58:50Z</time>
      </trkpt>
      <trkpt lat="49.76878" lon="4.83943">
        <ele>192.45</ele>
        <time>2021-04-20T15:58:53Z</time>
      </trkpt>
      <trkpt lat="49.76882" lon="4.83944">
        <ele>192.57</ele>
        <time>2021-04-20T15:58:56Z</time>
      </trkpt>
      <trkpt lat="49.76886" lon="4.83945">
        <ele>192.77</ele>
        <time>2021-04-20T15:58:58Z</time>
      </trkpt>
      <trkpt lat="49.7689" lon="4.83946">
        <ele>192.9</ele>
        <time>2021-04-20T15:59:01Z</time>
      </trkpt>
      <trkpt lat="49.76894" lon="4.83945">
        <ele>192.79</ele>
        <time>2021-04-20T15:59:03Z</time>
      </trkpt>
      <trkpt lat="49.76897" lon="4.83945">
        <ele>192.68</ele>
        <time>2021-04-20T15:59:05Z</time>
      </trkpt>
      <trkpt lat="49.769" lon="4.83945">
        <ele>192.56</ele>
        <time>2021-04-20T15:59:07Z</time>
      </trkpt>
      <trkpt lat="49.76903" lon="4.83945">
        <ele>192.45</ele>
        <time>2021-04-20T15:59:10Z</time>
      </trkpt>
      <trkpt lat="49.76906" lon="4.83946">
        <ele>192.26</ele>
        <time>2021-04-20T15:59:13Z</time>
      </trkpt>
      <trkpt lat="49.7691" lon="4.83947">
        <ele>192.01</ele>
        <time>2021-04-20T15:59:17Z</time>
      </trkpt>
      <trkpt lat="49.76912" lon="4.83948">
        <ele>191.83</ele>
        <time>2021-04-20T15:59:19Z</time>
      </trkpt>
      <trkpt lat="49.76916" lon="4.83948">
        <ele>191.65</ele>
        <time>2021-04-20T15:59:21Z</time>
      </trkpt>
      <trkpt lat="49.76919" lon="4.83947">
        <ele>191.57</ele>
        <time>2021-04-20T15:59:24Z</time>
      </trkpt>
      <trkpt lat="49.76922" lon="4.83949">
        <ele>191.19</ele>
        <time>2021-04-20T15:59:26Z</time>
      </trkpt>
      <trkpt lat="49.76925" lon="4.8395">
        <ele>190.92</ele>
        <time>2021-04-20T15:59:28Z</time>
      </trkpt>
      <trkpt lat="49.76929" lon="4.83951">
        <ele>190.61</ele>
        <time>2021-04-20T15:59:30Z</time>
      </trkpt>
      <trkpt lat="49.76932" lon="4.83952">
        <ele>190.38</ele>
        <time>2021-04-20T15:59:32Z</time>
      </trkpt>
      <trkpt lat="49.76937" lon="4.83953">
        <ele>190.06</ele>
        <time>2021-04-20T15:59:34Z</time>
      </trkpt>
      <trkpt lat="49.76942" lon="4.83955">
        <ele>189.73</ele>
        <time>2021-04-20T15:59:36Z</time>
      </trkpt>
      <trkpt lat="49.76945" lon="4.83956">
        <ele>189.71</ele>
        <time>2021-04-20T15:59:37Z</time>
      </trkpt>
      <trkpt lat="49.76948" lon="4.83958">
        <ele>190.29</ele>
        <time>2021-04-20T15:59:38Z</time>
      </trkpt>
      <trkpt lat="49.76951" lon="4.83959">
        <ele>190.87</ele>
        <time>2021-04-20T15:59:39Z</time>
      </trkpt>
      <trkpt lat="49.76954" lon="4.83961">
        <ele>191.34</ele>
        <time>2021-04-20T15:59:40Z</time>
      </trkpt>
      <trkpt lat="49.76957" lon="4.83962">
        <ele>191.84</ele>
        <time>2021-04-20T15:59:41Z</time>
      </trkpt>
      <trkpt lat="49.76961" lon="4.83965">
        <ele>192.26</ele>
        <time>2021-04-20T15:59:43Z</time>
      </trkpt>
      <trkpt lat="49.76965" lon="4.83966">
        <ele>192.85</ele>
        <time>2021-04-20T15:59:44Z</time>
      </trkpt>
      <trkpt lat="49.76967" lon="4.83967">
        <ele>193.05</ele>
        <time>2021-04-20T15:59:45Z</time>
      </trkpt>
      <trkpt lat="49.76972" lon="4.83969">
        <ele>193.54</ele>
        <time>2021-04-20T15:59:47Z</time>
      </trkpt>
      <trkpt lat="49.76978" lon="4.83972">
        <ele>192.62</ele>
        <time>2021-04-20T15:59:49Z</time>
      </trkpt>
      <trkpt lat="49.76982" lon="4.83974">
        <ele>192.02</ele>
        <time>2021-04-20T15:59:51Z</time>
      </trkpt>
      <trkpt lat="49.76986" lon="4.83978">
        <ele>191.17</ele>
        <time>2021-04-20T15:59:53Z</time>
      </trkpt>
      <trkpt lat="49.76991" lon="4.83981">
        <ele>190.5</ele>
        <time>2021-04-20T15:59:55Z</time>
      </trkpt>
      <trkpt lat="49.76993" lon="4.83983">
        <ele>190.14</ele>
        <time>2021-04-20T15:59:56Z</time>
      </trkpt>
      <trkpt lat="49.76998" lon="4.83985">
        <ele>189.7</ele>
        <time>2021-04-20T15:59:58Z</time>
      </trkpt>
      <trkpt lat="49.77002" lon="4.83987">
        <ele>189.26</ele>
        <time>2021-04-20T16:00:00Z</time>
      </trkpt>
      <trkpt lat="49.77005" lon="4.8399">
        <ele>188.72</ele>
        <time>2021-04-20T16:00:02Z</time>
      </trkpt>
      <trkpt lat="49.77009" lon="4.83992">
        <ele>188.22</ele>
        <time>2021-04-20T16:00:05Z</time>
      </trkpt>
      <trkpt lat="49.77012" lon="4.83994">
        <ele>187.78</ele>
        <time>2021-04-20T16:00:07Z</time>
      </trkpt>
      <trkpt lat="49.77015" lon="4.83995">
        <ele>187.46</ele>
        <time>2021-04-20T16:00:09Z</time>
      </trkpt>
      <trkpt lat="49.77018" lon="4.83998">
        <ele>186.92</ele>
        <time>2021-04-20T16:00:12Z</time>
      </trkpt>
      <trkpt lat="49.77021" lon="4.84">
        <ele>186.49</ele>
        <time>2021-04-20T16:00:15Z</time>
      </trkpt>
      <trkpt lat="49.77024" lon="4.84002">
        <ele>185.78</ele>
        <time>2021-04-20T16:00:17Z</time>
      </trkpt>
      <trkpt lat="49.77027" lon="4.84004">
        <ele>185.05</ele>
        <time>2021-04-20T16:00:20Z</time>
      </trkpt>
      <trkpt lat="49.77031" lon="4.84005">
        <ele>184.84</ele>
        <time>2021-04-20T16:00:23Z</time>
      </trkpt>
      <trkpt lat="49.77034" lon="4.84007">
        <ele>184.52</ele>
        <time>2021-04-20T16:00:26Z</time>
      </trkpt>
      <trkpt lat="49.77037" lon="4.84009">
        <ele>184.27</ele>
        <time>2021-04-20T16:00:29Z</time>
      </trkpt>
      <trkpt lat="49.77041" lon="4.84011">
        <ele>184.17</ele>
        <time>2021-04-20T16:00:32Z</time>
      </trkpt>
      <trkpt lat="49.77044" lon="4.84011">
        <ele>184.38</ele>
        <time>2021-04-20T16:00:34Z</time>
      </trkpt>
      <trkpt lat="49.77046" lon="4.84012">
        <ele>184.39</ele>
        <time>2021-04-20T16:00:36Z</time>
      </trkpt>
      <trkpt lat="49.7705" lon="4.84013">
        <ele>184.6</ele>
        <time>2021-04-20T16:00:39Z</time>
      </trkpt>
      <trkpt lat="49.77053" lon="4.84014">
        <ele>184.76</ele>
        <time>2021-04-20T16:00:42Z</time>
      </trkpt>
      <trkpt lat="49.77057" lon="4.84015">
        <ele>185.07</ele>
        <time>2021-04-20T16:00:45Z</time>
      </trkpt>
      <trkpt lat="49.7706" lon="4.84016">
        <ele>185.28</ele>
        <time>2021-04-20T16:00:48Z</time>
      </trkpt>
      <trkpt lat="49.77064" lon="4.84017">
        <ele>185.55</ele>
        <time>2021-04-20T16:00:51Z</time>
      </trkpt>
      <trkpt lat="49.77067" lon="4.84018">
        <ele>185.7</ele>
        <time>2021-04-20T16:00:54Z</time>
      </trkpt>
      <trkpt lat="49.77069" lon="4.84017">
        <ele>186.01</ele>
        <time>2021-04-20T16:01:31Z</time>
      </trkpt>
      <trkpt lat="49.77073" lon="4.84017">
        <ele>186.38</ele>
        <time>2021-04-20T16:01:37Z</time>
      </trkpt>
      <trkpt lat="49.77076" lon="4.84017">
        <ele>186.65</ele>
        <time>2021-04-20T16:01:40Z</time>
      </trkpt>
      <trkpt lat="49.7708" lon="4.84018">
        <ele>186.82</ele>
        <time>2021-04-20T16:01:44Z</time>
      </trkpt>
      <trkpt lat="49.77082" lon="4.8402">
        <ele>186.58</ele>
        <time>2021-04-20T16:01:48Z</time>
      </trkpt>
      <trkpt lat="49.77086" lon="4.84023">
        <ele>186.43</ele>
        <time>2021-04-20T16:01:51Z</time>
      </trkpt>
      <trkpt lat="49.7709" lon="4.84024">
        <ele>186.81</ele>
        <time>2021-04-20T16:01:53Z</time>
      </trkpt>
      <trkpt lat="49.77093" lon="4.84024">
        <ele>187.26</ele>
        <time>2021-04-20T16:01:55Z</time>
      </trkpt>
      <trkpt lat="49.77096" lon="4.84025">
        <ele>187.47</ele>
        <time>2021-04-20T16:01:57Z</time>
      </trkpt>
      <trkpt lat="49.77099" lon="4.84025">
        <ele>187.91</ele>
        <time>2021-04-20T16:01:59Z</time>
      </trkpt>
      <trkpt lat="49.77103" lon="4.84026">
        <ele>188.26</ele>
        <time>2021-04-20T16:02:02Z</time>
      </trkpt>
      <trkpt lat="49.77106" lon="4.84026">
        <ele>188.7</ele>
        <time>2021-04-20T16:02:06Z</time>
      </trkpt>
      <trkpt lat="49.7711" lon="4.84028">
        <ele>188.82</ele>
        <time>2021-04-20T16:02:10Z</time>
      </trkpt>
      <trkpt lat="49.77113" lon="4.84031">
        <ele>188.98</ele>
        <time>2021-04-20T16:02:13Z</time>
      </trkpt>
      <trkpt lat="49.77115" lon="4.84032">
        <ele>189.2</ele>
        <time>2021-04-20T16:02:16Z</time>
      </trkpt>
      <trkpt lat="49.77118" lon="4.84034">
        <ele>189.46</ele>
        <time>2021-04-20T16:02:18Z</time>
      </trkpt>
      <trkpt lat="49.77121" lon="4.84037">
        <ele>189.55</ele>
        <time>2021-04-20T16:02:21Z</time>
      </trkpt>
      <trkpt lat="49.77124" lon="4.84038">
        <ele>189.87</ele>
        <time>2021-04-20T16:02:24Z</time>
      </trkpt>
      <trkpt lat="49.77128" lon="4.84039">
        <ele>190.34</ele>
        <time>2021-04-20T16:02:28Z</time>
      </trkpt>
      <trkpt lat="49.77131" lon="4.84039">
        <ele>190.79</ele>
        <time>2021-04-20T16:02:31Z</time>
      </trkpt>
      <trkpt lat="49.77134" lon="4.84039">
        <ele>191.24</ele>
        <time>2021-04-20T16:02:34Z</time>
      </trkpt>
      <trkpt lat="49.77138" lon="4.8404">
        <ele>191.67</ele>
        <time>2021-04-20T16:02:37Z</time>
      </trkpt>
      <trkpt lat="49.77141" lon="4.84041">
        <ele>191.47</ele>
        <time>2021-04-20T16:02:40Z</time>
      </trkpt>
      <trkpt lat="49.77145" lon="4.84041">
        <ele>191.18</ele>
        <time>2021-04-20T16:02:44Z</time>
      </trkpt>
      <trkpt lat="49.77149" lon="4.84041">
        <ele>190.89</ele>
        <time>2021-04-20T16:02:46Z</time>
      </trkpt>
      <trkpt lat="49.77153" lon="4.84041">
        <ele>190.6</ele>
        <time>2021-04-20T16:02:48Z</time>
      </trkpt>
      <trkpt lat="49.77156" lon="4.84041">
        <ele>190.39</ele>
        <time>2021-04-20T16:02:50Z</time>
      </trkpt>
      <trkpt lat="49.77159" lon="4.84043">
        <ele>189.81</ele>
        <time>2021-04-20T16:02:53Z</time>
      </trkpt>
      <trkpt lat="49.77161" lon="4.84044">
        <ele>189.49</ele>
        <time>2021-04-20T16:02:55Z</time>
      </trkpt>
      <trkpt lat="49.77164" lon="4.84046">
        <ele>188.91</ele>
        <time>2021-04-20T16:02:57Z</time>
      </trkpt>
      <trkpt lat="49.77168" lon="4.84047">
        <ele>188.7</ele>
        <time>2021-04-20T16:02:59Z</time>
      </trkpt>
      <trkpt lat="49.77171" lon="4.84048">
        <ele>188.84</ele>
        <time>2021-04-20T16:03:02Z</time>
      </trkpt>
      <trkpt lat="49.77175" lon="4.84048">
        <ele>189.29</ele>
        <time>2021-04-20T16:03:06Z</time>
      </trkpt>
      <trkpt lat="49.77178" lon="4.84048">
        <ele>189.62</ele>
        <time>2021-04-20T16:03:09Z</time>
      </trkpt>
      <trkpt lat="49.77181" lon="4.8405">
        <ele>189.44</ele>
        <time>2021-04-20T16:03:12Z</time>
      </trkpt>
      <trkpt lat="49.77184" lon="4.84051">
        <ele>189.48</ele>
        <time>2021-04-20T16:03:14Z</time>
      </trkpt>
      <trkpt lat="49.77188" lon="4.84051">
        <ele>189.86</ele>
        <time>2021-04-20T16:03:17Z</time>
      </trkpt>
      <trkpt lat="49.77191" lon="4.84051">
        <ele>190.15</ele>
        <time>2021-04-20T16:03:19Z</time>
      </trkpt>
      <trkpt lat="49.77195" lon="4.84051">
        <ele>190.64</ele>
        <time>2021-04-20T16:03:21Z</time>
      </trkpt>
      <trkpt lat="49.77198" lon="4.84051">
        <ele>191.5</ele>
        <time>2021-04-20T16:03:27Z</time>
      </trkpt>
      <trkpt lat="49.772" lon="4.84053">
        <ele>191.43</ele>
        <time>2021-04-20T16:03:30Z</time>
      </trkpt>
      <trkpt lat="49.77203" lon="4.84055">
        <ele>191.64</ele>
        <time>2021-04-20T16:03:32Z</time>
      </trkpt>
      <trkpt lat="49.77207" lon="4.84057">
        <ele>192.34</ele>
        <time>2021-04-20T16:03:35Z</time>
      </trkpt>
      <trkpt lat="49.77209" lon="4.84058">
        <ele>192.7</ele>
        <time>2021-04-20T16:03:37Z</time>
      </trkpt>
      <trkpt lat="49.77213" lon="4.84059">
        <ele>193.6</ele>
        <time>2021-04-20T16:03:39Z</time>
      </trkpt>
      <trkpt lat="49.77216" lon="4.8406">
        <ele>194.2</ele>
        <time>2021-04-20T16:03:41Z</time>
      </trkpt>
      <trkpt lat="49.77219" lon="4.8406">
        <ele>195.01</ele>
        <time>2021-04-20T16:03:43Z</time>
      </trkpt>
      <trkpt lat="49.77222" lon="4.84061">
        <ele>195.57</ele>
        <time>2021-04-20T16:03:46Z</time>
      </trkpt>
      <trkpt lat="49.77225" lon="4.84063">
        <ele>195.5</ele>
        <time>2021-04-20T16:03:50Z</time>
      </trkpt>
      <trkpt lat="49.77227" lon="4.84066">
        <ele>194.99</ele>
        <time>2021-04-20T16:03:53Z</time>
      </trkpt>
      <trkpt lat="49.7723" lon="4.84069">
        <ele>194.6</ele>
        <time>2021-04-20T16:03:56Z</time>
      </trkpt>
      <trkpt lat="49.77232" lon="4.84071">
        <ele>194.32</ele>
        <time>2021-04-20T16:03:59Z</time>
      </trkpt>
      <trkpt lat="49.77235" lon="4.84072">
        <ele>194.42</ele>
        <time>2021-04-20T16:04:02Z</time>
      </trkpt>
      <trkpt lat="49.77238" lon="4.84072">
        <ele>194.79</ele>
        <time>2021-04-20T16:04:05Z</time>
      </trkpt>
      <trkpt lat="49.77241" lon="4.84072">
        <ele>195.16</ele>
        <time>2021-04-20T16:04:07Z</time>
      </trkpt>
      <trkpt lat="49.77246" lon="4.84072">
        <ele>195.77</ele>
        <time>2021-04-20T16:04:09Z</time>
      </trkpt>
      <trkpt lat="49.77249" lon="4.84071">
        <ele>196.43</ele>
        <time>2021-04-20T16:04:11Z</time>
      </trkpt>
      <trkpt lat="49.77253" lon="4.84072">
        <ele>196.72</ele>
        <time>2021-04-20T16:04:14Z</time>
      </trkpt>
      <trkpt lat="49.77255" lon="4.84073">
        <ele>196.74</ele>
        <time>2021-04-20T16:04:17Z</time>
      </trkpt>
      <trkpt lat="49.77258" lon="4.84075">
        <ele>196.67</ele>
        <time>2021-04-20T16:04:19Z</time>
      </trkpt>
      <trkpt lat="49.77262" lon="4.84076">
        <ele>197.04</ele>
        <time>2021-04-20T16:04:22Z</time>
      </trkpt>
      <trkpt lat="49.77264" lon="4.84075">
        <ele>197.62</ele>
        <time>2021-04-20T16:04:26Z</time>
      </trkpt>
      <trkpt lat="49.77268" lon="4.84075">
        <ele>198.25</ele>
        <time>2021-04-20T16:04:29Z</time>
      </trkpt>
      <trkpt lat="49.77271" lon="4.84076">
        <ele>198.49</ele>
        <time>2021-04-20T16:04:31Z</time>
      </trkpt>
      <trkpt lat="49.77274" lon="4.84078">
        <ele>198.52</ele>
        <time>2021-04-20T16:04:34Z</time>
      </trkpt>
      <trkpt lat="49.77277" lon="4.8408">
        <ele>198.59</ele>
        <time>2021-04-20T16:04:37Z</time>
      </trkpt>
      <trkpt lat="49.7728" lon="4.84082">
        <ele>198.36</ele>
        <time>2021-04-20T16:04:40Z</time>
      </trkpt>
      <trkpt lat="49.77283" lon="4.84084">
        <ele>198</ele>
        <time>2021-04-20T16:04:43Z</time>
      </trkpt>
      <trkpt lat="49.77286" lon="4.84086">
        <ele>197.63</ele>
        <time>2021-04-20T16:04:46Z</time>
      </trkpt>
      <trkpt lat="49.77289" lon="4.84088">
        <ele>197.37</ele>
        <time>2021-04-20T16:04:49Z</time>
      </trkpt>
      <trkpt lat="49.77292" lon="4.84089">
        <ele>197.41</ele>
        <time>2021-04-20T16:04:51Z</time>
      </trkpt>
      <trkpt lat="49.77295" lon="4.8409">
        <ele>197.5</ele>
        <time>2021-04-20T16:04:54Z</time>
      </trkpt>
      <trkpt lat="49.77299" lon="4.84091">
        <ele>197.76</ele>
        <time>2021-04-20T16:04:57Z</time>
      </trkpt>
      <trkpt lat="49.77302" lon="4.84092">
        <ele>197.97</ele>
        <time>2021-04-20T16:05:00Z</time>
      </trkpt>
      <trkpt lat="49.77306" lon="4.84093">
        <ele>198.31</ele>
        <time>2021-04-20T16:05:03Z</time>
      </trkpt>
      <trkpt lat="49.77309" lon="4.84095">
        <ele>198.2</ele>
        <time>2021-04-20T16:05:05Z</time>
      </trkpt>
      <trkpt lat="49.77312" lon="4.84096">
        <ele>198.13</ele>
        <time>2021-04-20T16:05:07Z</time>
      </trkpt>
      <trkpt lat="49.77315" lon="4.84097">
        <ele>198.03</ele>
        <time>2021-04-20T16:05:09Z</time>
      </trkpt>
      <trkpt lat="49.77318" lon="4.84097">
        <ele>198.03</ele>
        <time>2021-04-20T16:05:11Z</time>
      </trkpt>
      <trkpt lat="49.77321" lon="4.84098">
        <ele>197.88</ele>
        <time>2021-04-20T16:05:13Z</time>
      </trkpt>
      <trkpt lat="49.77324" lon="4.84098">
        <ele>197.87</ele>
        <time>2021-04-20T16:05:15Z</time>
      </trkpt>
      <trkpt lat="49.77327" lon="4.84099">
        <ele>197.67</ele>
        <time>2021-04-20T16:05:17Z</time>
      </trkpt>
      <trkpt lat="49.7733" lon="4.841">
        <ele>197.45</ele>
        <time>2021-04-20T16:05:20Z</time>
      </trkpt>
      <trkpt lat="49.77333" lon="4.84101">
        <ele>197.19</ele>
        <time>2021-04-20T16:05:23Z</time>
      </trkpt>
      <trkpt lat="49.77336" lon="4.84103">
        <ele>196.87</ele>
        <time>2021-04-20T16:05:25Z</time>
      </trkpt>
      <trkpt lat="49.77339" lon="4.84104">
        <ele>196.83</ele>
        <time>2021-04-20T16:05:28Z</time>
      </trkpt>
      <trkpt lat="49.77341" lon="4.84104">
        <ele>196.94</ele>
        <time>2021-04-20T16:05:31Z</time>
      </trkpt>
      <trkpt lat="49.77345" lon="4.84104">
        <ele>197.15</ele>
        <time>2021-04-20T16:05:35Z</time>
      </trkpt>
      <trkpt lat="49.77348" lon="4.84105">
        <ele>197.21</ele>
        <time>2021-04-20T16:05:38Z</time>
      </trkpt>
      <trkpt lat="49.77351" lon="4.84107">
        <ele>197.23</ele>
        <time>2021-04-20T16:05:40Z</time>
      </trkpt>
      <trkpt lat="49.77354" lon="4.84109">
        <ele>197.35</ele>
        <time>2021-04-20T16:05:43Z</time>
      </trkpt>
      <trkpt lat="49.77358" lon="4.8411">
        <ele>197.69</ele>
        <time>2021-04-20T16:05:46Z</time>
      </trkpt>
      <trkpt lat="49.77361" lon="4.84111">
        <ele>197.99</ele>
        <time>2021-04-20T16:05:49Z</time>
      </trkpt>
      <trkpt lat="49.77364" lon="4.84113">
        <ele>197.33</ele>
        <time>2021-04-20T16:05:52Z</time>
      </trkpt>
      <trkpt lat="49.77367" lon="4.84113">
        <ele>197.13</ele>
        <time>2021-04-20T16:05:55Z</time>
      </trkpt>
      <trkpt lat="49.77369" lon="4.84114">
        <ele>196.76</ele>
        <time>2021-04-20T16:05:58Z</time>
      </trkpt>
      <trkpt lat="49.77373" lon="4.84114">
        <ele>196.51</ele>
        <time>2021-04-20T16:06:00Z</time>
      </trkpt>
      <trkpt lat="49.77377" lon="4.84115">
        <ele>196.04</ele>
        <time>2021-04-20T16:06:03Z</time>
      </trkpt>
      <trkpt lat="49.7738" lon="4.84115">
        <ele>195.85</ele>
        <time>2021-04-20T16:06:07Z</time>
      </trkpt>
      <trkpt lat="49.77382" lon="4.84115">
        <ele>195.73</ele>
        <time>2021-04-20T16:06:12Z</time>
      </trkpt>
      <trkpt lat="49.77385" lon="4.84115">
        <ele>195.54</ele>
        <time>2021-04-20T16:06:15Z</time>
      </trkpt>
      <trkpt lat="49.77388" lon="4.84116">
        <ele>195.17</ele>
        <time>2021-04-20T16:06:18Z</time>
      </trkpt>
      <trkpt lat="49.77391" lon="4.84116">
        <ele>195.24</ele>
        <time>2021-04-20T16:06:22Z</time>
      </trkpt>
      <trkpt lat="49.77395" lon="4.84118">
        <ele>195.14</ele>
        <time>2021-04-20T16:06:25Z</time>
      </trkpt>
      <trkpt lat="49.77398" lon="4.8412">
        <ele>195.04</ele>
        <time>2021-04-20T16:06:27Z</time>
      </trkpt>
      <trkpt lat="49.77401" lon="4.84121">
        <ele>195.12</ele>
        <time>2021-04-20T16:06:29Z</time>
      </trkpt>
      <trkpt lat="49.77404" lon="4.84123">
        <ele>195.1</ele>
        <time>2021-04-20T16:06:32Z</time>
      </trkpt>
      <trkpt lat="49.77407" lon="4.84124">
        <ele>195.24</ele>
        <time>2021-04-20T16:06:36Z</time>
      </trkpt>
      <trkpt lat="49.77411" lon="4.84124">
        <ele>195.58</ele>
        <time>2021-04-20T16:06:40Z</time>
      </trkpt>
      <trkpt lat="49.77414" lon="4.84125">
        <ele>195.76</ele>
        <time>2021-04-20T16:06:43Z</time>
      </trkpt>
      <trkpt lat="49.77416" lon="4.84125">
        <ele>195.94</ele>
        <time>2021-04-20T16:06:46Z</time>
      </trkpt>
      <trkpt lat="49.77419" lon="4.84125">
        <ele>196.08</ele>
        <time>2021-04-20T16:06:50Z</time>
      </trkpt>
      <trkpt lat="49.77423" lon="4.84123">
        <ele>196.47</ele>
        <time>2021-04-20T16:06:54Z</time>
      </trkpt>
      <trkpt lat="49.77426" lon="4.84122">
        <ele>196.77</ele>
        <time>2021-04-20T16:06:56Z</time>
      </trkpt>
      <trkpt lat="49.77428" lon="4.8412">
        <ele>197.21</ele>
        <time>2021-04-20T16:06:58Z</time>
      </trkpt>
      <trkpt lat="49.77432" lon="4.84119">
        <ele>197.7</ele>
        <time>2021-04-20T16:07:01Z</time>
      </trkpt>
      <trkpt lat="49.77435" lon="4.84117">
        <ele>198.38</ele>
        <time>2021-04-20T16:07:04Z</time>
      </trkpt>
      <trkpt lat="49.77439" lon="4.84117">
        <ele>198.77</ele>
        <time>2021-04-20T16:07:07Z</time>
      </trkpt>
      <trkpt lat="49.77443" lon="4.84117">
        <ele>199.16</ele>
        <time>2021-04-20T16:07:09Z</time>
      </trkpt>
      <trkpt lat="49.77447" lon="4.84116">
        <ele>199.65</ele>
        <time>2021-04-20T16:07:11Z</time>
      </trkpt>
      <trkpt lat="49.7745" lon="4.84115">
        <ele>200.02</ele>
        <time>2021-04-20T16:07:14Z</time>
      </trkpt>
      <trkpt lat="49.77452" lon="4.84113">
        <ele>200.69</ele>
        <time>2021-04-20T16:07:18Z</time>
      </trkpt>
      <trkpt lat="49.77455" lon="4.84114">
        <ele>200.47</ele>
        <time>2021-04-20T16:07:22Z</time>
      </trkpt>
      <trkpt lat="49.77458" lon="4.84115">
        <ele>200.23</ele>
        <time>2021-04-20T16:07:37Z</time>
      </trkpt>
      <trkpt lat="49.77463" lon="4.84113">
        <ele>201.03</ele>
        <time>2021-04-20T16:07:39Z</time>
      </trkpt>
      <trkpt lat="49.77466" lon="4.84112">
        <ele>201.47</ele>
        <time>2021-04-20T16:07:40Z</time>
      </trkpt>
      <trkpt lat="49.77469" lon="4.84111">
        <ele>201.91</ele>
        <time>2021-04-20T16:07:41Z</time>
      </trkpt>
      <trkpt lat="49.77473" lon="4.84111">
        <ele>201.99</ele>
        <time>2021-04-20T16:07:42Z</time>
      </trkpt>
      <trkpt lat="49.77477" lon="4.84111">
        <ele>201.85</ele>
        <time>2021-04-20T16:07:43Z</time>
      </trkpt>
      <trkpt lat="49.7748" lon="4.84112">
        <ele>201.44</ele>
        <time>2021-04-20T16:07:44Z</time>
      </trkpt>
      <trkpt lat="49.77483" lon="4.84112">
        <ele>201.35</ele>
        <time>2021-04-20T16:07:46Z</time>
      </trkpt>
      <trkpt lat="49.77487" lon="4.84114">
        <ele>200.7</ele>
        <time>2021-04-20T16:07:48Z</time>
      </trkpt>
      <trkpt lat="49.7749" lon="4.84115">
        <ele>200.41</ele>
        <time>2021-04-20T16:07:51Z</time>
      </trkpt>
      <trkpt lat="49.77493" lon="4.84116">
        <ele>200.15</ele>
        <time>2021-04-20T16:07:53Z</time>
      </trkpt>
      <trkpt lat="49.77497" lon="4.84117">
        <ele>199.93</ele>
        <time>2021-04-20T16:07:56Z</time>
      </trkpt>
      <trkpt lat="49.775" lon="4.84117">
        <ele>199.94</ele>
        <time>2021-04-20T16:07:59Z</time>
      </trkpt>
      <trkpt lat="49.77503" lon="4.84118">
        <ele>200.11</ele>
        <time>2021-04-20T16:08:02Z</time>
      </trkpt>
      <trkpt lat="49.77506" lon="4.84119">
        <ele>200.29</ele>
        <time>2021-04-20T16:08:05Z</time>
      </trkpt>
      <trkpt lat="49.7751" lon="4.84119">
        <ele>200.76</ele>
        <time>2021-04-20T16:08:08Z</time>
      </trkpt>
      <trkpt lat="49.77513" lon="4.84119">
        <ele>201.12</ele>
        <time>2021-04-20T16:08:11Z</time>
      </trkpt>
      <trkpt lat="49.77517" lon="4.8412">
        <ele>201.43</ele>
        <time>2021-04-20T16:08:14Z</time>
      </trkpt>
      <trkpt lat="49.7752" lon="4.84121">
        <ele>201.64</ele>
        <time>2021-04-20T16:08:16Z</time>
      </trkpt>
      <trkpt lat="49.77522" lon="4.84123">
        <ele>201.57</ele>
        <time>2021-04-20T16:08:19Z</time>
      </trkpt>
      <trkpt lat="49.77525" lon="4.84124">
        <ele>201.8</ele>
        <time>2021-04-20T16:08:22Z</time>
      </trkpt>
      <trkpt lat="49.77528" lon="4.84124">
        <ele>202.17</ele>
        <time>2021-04-20T16:08:24Z</time>
      </trkpt>
      <trkpt lat="49.77532" lon="4.84124">
        <ele>202.67</ele>
        <time>2021-04-20T16:08:26Z</time>
      </trkpt>
      <trkpt lat="49.77536" lon="4.84126">
        <ele>202.9</ele>
        <time>2021-04-20T16:08:28Z</time>
      </trkpt>
      <trkpt lat="49.77538" lon="4.84128">
        <ele>202.9</ele>
        <time>2021-04-20T16:08:31Z</time>
      </trkpt>
      <trkpt lat="49.77542" lon="4.8413">
        <ele>203.16</ele>
        <time>2021-04-20T16:08:34Z</time>
      </trkpt>
      <trkpt lat="49.77545" lon="4.84132">
        <ele>203.32</ele>
        <time>2021-04-20T16:08:36Z</time>
      </trkpt>
      <trkpt lat="49.77547" lon="4.84133">
        <ele>203.47</ele>
        <time>2021-04-20T16:08:38Z</time>
      </trkpt>
      <trkpt lat="49.77551" lon="4.84134">
        <ele>203.9</ele>
        <time>2021-04-20T16:08:41Z</time>
      </trkpt>
      <trkpt lat="49.77554" lon="4.84135">
        <ele>204.2</ele>
        <time>2021-04-20T16:08:43Z</time>
      </trkpt>
      <trkpt lat="49.77558" lon="4.84136">
        <ele>204.34</ele>
        <time>2021-04-20T16:08:46Z</time>
      </trkpt>
      <trkpt lat="49.77562" lon="4.84137">
        <ele>204.25</ele>
        <time>2021-04-20T16:08:48Z</time>
      </trkpt>
      <trkpt lat="49.77565" lon="4.84139">
        <ele>203.98</ele>
        <time>2021-04-20T16:08:50Z</time>
      </trkpt>
      <trkpt lat="49.77568" lon="4.84139">
        <ele>203.98</ele>
        <time>2021-04-20T16:08:52Z</time>
      </trkpt>
      <trkpt lat="49.77571" lon="4.84139">
        <ele>203.98</ele>
        <time>2021-04-20T16:08:54Z</time>
      </trkpt>
      <trkpt lat="49.77575" lon="4.84139">
        <ele>203.97</ele>
        <time>2021-04-20T16:08:56Z</time>
      </trkpt>
      <trkpt lat="49.7758" lon="4.84139">
        <ele>203.97</ele>
        <time>2021-04-20T16:08:58Z</time>
      </trkpt>
      <trkpt lat="49.77583" lon="4.84139">
        <ele>203.97</ele>
        <time>2021-04-20T16:09:00Z</time>
      </trkpt>
      <trkpt lat="49.77587" lon="4.84139">
        <ele>203.05</ele>
        <time>2021-04-20T16:09:02Z</time>
      </trkpt>
      <trkpt lat="49.7759" lon="4.84141">
        <ele>201.79</ele>
        <time>2021-04-20T16:09:04Z</time>
      </trkpt>
      <trkpt lat="49.77594" lon="4.84142">
        <ele>200.53</ele>
        <time>2021-04-20T16:09:07Z</time>
      </trkpt>
      <trkpt lat="49.77597" lon="4.84143">
        <ele>199.52</ele>
        <time>2021-04-20T16:09:10Z</time>
      </trkpt>
      <trkpt lat="49.776" lon="4.84146">
        <ele>198.01</ele>
        <time>2021-04-20T16:09:13Z</time>
      </trkpt>
      <trkpt lat="49.77603" lon="4.84147">
        <ele>197</ele>
        <time>2021-04-20T16:09:16Z</time>
      </trkpt>
      <trkpt lat="49.77606" lon="4.84148">
        <ele>195.99</ele>
        <time>2021-04-20T16:09:20Z</time>
      </trkpt>
      <trkpt lat="49.77609" lon="4.84149">
        <ele>194.98</ele>
        <time>2021-04-20T16:09:23Z</time>
      </trkpt>
      <trkpt lat="49.77612" lon="4.8415">
        <ele>194.07</ele>
        <time>2021-04-20T16:09:26Z</time>
      </trkpt>
      <trkpt lat="49.77616" lon="4.84152">
        <ele>192.98</ele>
        <time>2021-04-20T16:09:30Z</time>
      </trkpt>
      <trkpt lat="49.7762" lon="4.84152">
        <ele>192.4</ele>
        <time>2021-04-20T16:09:33Z</time>
      </trkpt>
      <trkpt lat="49.77623" lon="4.84152">
        <ele>191.96</ele>
        <time>2021-04-20T16:09:35Z</time>
      </trkpt>
      <trkpt lat="49.77626" lon="4.84152">
        <ele>191.52</ele>
        <time>2021-04-20T16:09:37Z</time>
      </trkpt>
      <trkpt lat="49.77629" lon="4.84153">
        <ele>190.88</ele>
        <time>2021-04-20T16:09:39Z</time>
      </trkpt>
      <trkpt lat="49.77632" lon="4.84153">
        <ele>190.45</ele>
        <time>2021-04-20T16:09:41Z</time>
      </trkpt>
      <trkpt lat="49.77635" lon="4.84154">
        <ele>189.83</ele>
        <time>2021-04-20T16:09:44Z</time>
      </trkpt>
      <trkpt lat="49.77639" lon="4.84154">
        <ele>189.27</ele>
        <time>2021-04-20T16:09:47Z</time>
      </trkpt>
      <trkpt lat="49.77643" lon="4.84154">
        <ele>189.06</ele>
        <time>2021-04-20T16:09:50Z</time>
      </trkpt>
      <trkpt lat="49.77647" lon="4.84154">
        <ele>188.85</ele>
        <time>2021-04-20T16:09:53Z</time>
      </trkpt>
      <trkpt lat="49.77651" lon="4.84154">
        <ele>188.65</ele>
        <time>2021-04-20T16:09:56Z</time>
      </trkpt>
      <trkpt lat="49.77654" lon="4.84154">
        <ele>188.49</ele>
        <time>2021-04-20T16:09:59Z</time>
      </trkpt>
      <trkpt lat="49.77657" lon="4.84155">
        <ele>188.17</ele>
        <time>2021-04-20T16:10:02Z</time>
      </trkpt>
      <trkpt lat="49.77661" lon="4.84157">
        <ele>187.67</ele>
        <time>2021-04-20T16:10:05Z</time>
      </trkpt>
      <trkpt lat="49.77665" lon="4.84158">
        <ele>187.33</ele>
        <time>2021-04-20T16:10:07Z</time>
      </trkpt>
      <trkpt lat="49.77668" lon="4.84159">
        <ele>186.93</ele>
        <time>2021-04-20T16:10:10Z</time>
      </trkpt>
      <trkpt lat="49.77671" lon="4.8416">
        <ele>186.37</ele>
        <time>2021-04-20T16:10:12Z</time>
      </trkpt>
      <trkpt lat="49.77675" lon="4.84161">
        <ele>185.62</ele>
        <time>2021-04-20T16:10:15Z</time>
      </trkpt>
      <trkpt lat="49.77678" lon="4.84161">
        <ele>185.19</ele>
        <time>2021-04-20T16:10:18Z</time>
      </trkpt>
      <trkpt lat="49.77681" lon="4.84162">
        <ele>184.53</ele>
        <time>2021-04-20T16:10:21Z</time>
      </trkpt>
      <trkpt lat="49.77685" lon="4.84163">
        <ele>183.66</ele>
        <time>2021-04-20T16:10:24Z</time>
      </trkpt>
      <trkpt lat="49.77688" lon="4.84163">
        <ele>183.19</ele>
        <time>2021-04-20T16:10:27Z</time>
      </trkpt>
      <trkpt lat="49.77692" lon="4.84164">
        <ele>182.26</ele>
        <time>2021-04-20T16:10:30Z</time>
      </trkpt>
      <trkpt lat="49.77695" lon="4.84164">
        <ele>181.86</ele>
        <time>2021-04-20T16:10:32Z</time>
      </trkpt>
      <trkpt lat="49.77698" lon="4.84165">
        <ele>181.52</ele>
        <time>2021-04-20T16:10:34Z</time>
      </trkpt>
      <trkpt lat="49.77701" lon="4.84167">
        <ele>180.96</ele>
        <time>2021-04-20T16:10:36Z</time>
      </trkpt>
      <trkpt lat="49.77705" lon="4.84168">
        <ele>180.86</ele>
        <time>2021-04-20T16:10:38Z</time>
      </trkpt>
      <trkpt lat="49.77709" lon="4.84168">
        <ele>180.86</ele>
        <time>2021-04-20T16:10:41Z</time>
      </trkpt>
      <trkpt lat="49.77711" lon="4.84166">
        <ele>181.19</ele>
        <time>2021-04-20T16:10:44Z</time>
      </trkpt>
      <trkpt lat="49.77714" lon="4.84166">
        <ele>181.18</ele>
        <time>2021-04-20T16:10:48Z</time>
      </trkpt>
      <trkpt lat="49.77718" lon="4.84169">
        <ele>180.75</ele>
        <time>2021-04-20T16:10:51Z</time>
      </trkpt>
      <trkpt lat="49.77721" lon="4.8417">
        <ele>180.64</ele>
        <time>2021-04-20T16:10:54Z</time>
      </trkpt>
      <trkpt lat="49.77724" lon="4.84171">
        <ele>180.66</ele>
        <time>2021-04-20T16:10:57Z</time>
      </trkpt>
      <trkpt lat="49.77728" lon="4.84173">
        <ele>180.73</ele>
        <time>2021-04-20T16:11:00Z</time>
      </trkpt>
      <trkpt lat="49.77731" lon="4.84174">
        <ele>180.84</ele>
        <time>2021-04-20T16:11:03Z</time>
      </trkpt>
      <trkpt lat="49.77735" lon="4.84174">
        <ele>181.13</ele>
        <time>2021-04-20T16:11:06Z</time>
      </trkpt>
      <trkpt lat="49.77738" lon="4.84174">
        <ele>181.34</ele>
        <time>2021-04-20T16:11:08Z</time>
      </trkpt>
      <trkpt lat="49.77741" lon="4.84175">
        <ele>181.45</ele>
        <time>2021-04-20T16:11:10Z</time>
      </trkpt>
      <trkpt lat="49.77744" lon="4.84177">
        <ele>181.45</ele>
        <time>2021-04-20T16:11:13Z</time>
      </trkpt>
      <trkpt lat="49.77748" lon="4.84179">
        <ele>181.52</ele>
        <time>2021-04-20T16:11:16Z</time>
      </trkpt>
      <trkpt lat="49.77751" lon="4.8418">
        <ele>181.69</ele>
        <time>2021-04-20T16:11:19Z</time>
      </trkpt>
      <trkpt lat="49.77754" lon="4.84181">
        <ele>181.96</ele>
        <time>2021-04-20T16:11:22Z</time>
      </trkpt>
      <trkpt lat="49.77757" lon="4.84181">
        <ele>182.34</ele>
        <time>2021-04-20T16:11:24Z</time>
      </trkpt>
      <trkpt lat="49.77761" lon="4.84182">
        <ele>182.75</ele>
        <time>2021-04-20T16:11:26Z</time>
      </trkpt>
      <trkpt lat="49.77764" lon="4.84183">
        <ele>183.04</ele>
        <time>2021-04-20T16:11:28Z</time>
      </trkpt>
      <trkpt lat="49.77767" lon="4.84185">
        <ele>183.26</ele>
        <time>2021-04-20T16:11:30Z</time>
      </trkpt>
      <trkpt lat="49.77769" lon="4.84187">
        <ele>183.36</ele>
        <time>2021-04-20T16:11:32Z</time>
      </trkpt>
      <trkpt lat="49.77772" lon="4.84189">
        <ele>183.6</ele>
        <time>2021-04-20T16:11:34Z</time>
      </trkpt>
      <trkpt lat="49.77776" lon="4.8419">
        <ele>184.07</ele>
        <time>2021-04-20T16:11:37Z</time>
      </trkpt>
      <trkpt lat="49.77779" lon="4.84191">
        <ele>184.39</ele>
        <time>2021-04-20T16:11:41Z</time>
      </trkpt>
      <trkpt lat="49.77782" lon="4.84191">
        <ele>184.74</ele>
        <time>2021-04-20T16:11:43Z</time>
      </trkpt>
      <trkpt lat="49.77785" lon="4.8419">
        <ele>185.18</ele>
        <time>2021-04-20T16:11:46Z</time>
      </trkpt>
      <trkpt lat="49.77789" lon="4.8419">
        <ele>185.66</ele>
        <time>2021-04-20T16:11:50Z</time>
      </trkpt>
      <trkpt lat="49.77792" lon="4.84191">
        <ele>185.91</ele>
        <time>2021-04-20T16:11:52Z</time>
      </trkpt>
      <trkpt lat="49.77795" lon="4.84191">
        <ele>186.26</ele>
        <time>2021-04-20T16:11:55Z</time>
      </trkpt>
      <trkpt lat="49.77798" lon="4.84191">
        <ele>186.61</ele>
        <time>2021-04-20T16:11:58Z</time>
      </trkpt>
      <trkpt lat="49.77801" lon="4.84191">
        <ele>186.96</ele>
        <time>2021-04-20T16:12:00Z</time>
      </trkpt>
      <trkpt lat="49.77804" lon="4.84192">
        <ele>187.17</ele>
        <time>2021-04-20T16:12:02Z</time>
      </trkpt>
      <trkpt lat="49.77808" lon="4.84193">
        <ele>187.29</ele>
        <time>2021-04-20T16:12:05Z</time>
      </trkpt>
      <trkpt lat="49.77811" lon="4.84194">
        <ele>187.25</ele>
        <time>2021-04-20T16:12:07Z</time>
      </trkpt>
      <trkpt lat="49.77814" lon="4.84195">
        <ele>187.28</ele>
        <time>2021-04-20T16:12:09Z</time>
      </trkpt>
      <trkpt lat="49.77818" lon="4.84194">
        <ele>187.5</ele>
        <time>2021-04-20T16:12:12Z</time>
      </trkpt>
      <trkpt lat="49.77822" lon="4.84193">
        <ele>187.74</ele>
        <time>2021-04-20T16:12:15Z</time>
      </trkpt>
      <trkpt lat="49.77826" lon="4.84193">
        <ele>187.87</ele>
        <time>2021-04-20T16:12:18Z</time>
      </trkpt>
      <trkpt lat="49.77829" lon="4.84193">
        <ele>187.96</ele>
        <time>2021-04-20T16:12:21Z</time>
      </trkpt>
      <trkpt lat="49.77832" lon="4.84192">
        <ele>188.14</ele>
        <time>2021-04-20T16:12:24Z</time>
      </trkpt>
      <trkpt lat="49.77835" lon="4.84193">
        <ele>188.28</ele>
        <time>2021-04-20T16:12:26Z</time>
      </trkpt>
      <trkpt lat="49.77839" lon="4.84195">
        <ele>188.58</ele>
        <time>2021-04-20T16:12:29Z</time>
      </trkpt>
      <trkpt lat="49.77842" lon="4.84196">
        <ele>188.81</ele>
        <time>2021-04-20T16:12:32Z</time>
      </trkpt>
      <trkpt lat="49.77845" lon="4.84198">
        <ele>188.92</ele>
        <time>2021-04-20T16:12:35Z</time>
      </trkpt>
      <trkpt lat="49.77848" lon="4.842">
        <ele>188.96</ele>
        <time>2021-04-20T16:12:38Z</time>
      </trkpt>
      <trkpt lat="49.77852" lon="4.842">
        <ele>189.28</ele>
        <time>2021-04-20T16:12:41Z</time>
      </trkpt>
      <trkpt lat="49.77855" lon="4.84201">
        <ele>189.37</ele>
        <time>2021-04-20T16:12:44Z</time>
      </trkpt>
      <trkpt lat="49.77858" lon="4.84202">
        <ele>189.43</ele>
        <time>2021-04-20T16:12:47Z</time>
      </trkpt>
      <trkpt lat="49.77861" lon="4.84203">
        <ele>189.45</ele>
        <time>2021-04-20T16:12:50Z</time>
      </trkpt>
      <trkpt lat="49.77865" lon="4.84202">
        <ele>188.99</ele>
        <time>2021-04-20T16:12:53Z</time>
      </trkpt>
      <trkpt lat="49.77868" lon="4.84203">
        <ele>188.35</ele>
        <time>2021-04-20T16:12:56Z</time>
      </trkpt>
      <trkpt lat="49.77871" lon="4.84204">
        <ele>187.76</ele>
        <time>2021-04-20T16:12:59Z</time>
      </trkpt>
      <trkpt lat="49.77874" lon="4.84205">
        <ele>187.2</ele>
        <time>2021-04-20T16:13:01Z</time>
      </trkpt>
      <trkpt lat="49.77878" lon="4.84206">
        <ele>186.54</ele>
        <time>2021-04-20T16:13:04Z</time>
      </trkpt>
      <trkpt lat="49.77881" lon="4.84208">
        <ele>186.01</ele>
        <time>2021-04-20T16:13:07Z</time>
      </trkpt>
      <trkpt lat="49.77884" lon="4.84209">
        <ele>185.59</ele>
        <time>2021-04-20T16:13:10Z</time>
      </trkpt>
      <trkpt lat="49.77887" lon="4.84209">
        <ele>185.23</ele>
        <time>2021-04-20T16:13:13Z</time>
      </trkpt>
      <trkpt lat="49.77891" lon="4.84209">
        <ele>184.84</ele>
        <time>2021-04-20T16:13:15Z</time>
      </trkpt>
      <trkpt lat="49.77894" lon="4.84208">
        <ele>184.65</ele>
        <time>2021-04-20T16:13:18Z</time>
      </trkpt>
      <trkpt lat="49.77898" lon="4.84208">
        <ele>184.37</ele>
        <time>2021-04-20T16:13:21Z</time>
      </trkpt>
      <trkpt lat="49.77901" lon="4.84208">
        <ele>184.16</ele>
        <time>2021-04-20T16:13:24Z</time>
      </trkpt>
      <trkpt lat="49.77905" lon="4.84209">
        <ele>183.76</ele>
        <time>2021-04-20T16:13:27Z</time>
      </trkpt>
      <trkpt lat="49.77909" lon="4.84209">
        <ele>183.45</ele>
        <time>2021-04-20T16:13:29Z</time>
      </trkpt>
      <trkpt lat="49.77912" lon="4.8421">
        <ele>183.04</ele>
        <time>2021-04-20T16:13:31Z</time>
      </trkpt>
      <trkpt lat="49.77916" lon="4.84211">
        <ele>182.49</ele>
        <time>2021-04-20T16:13:33Z</time>
      </trkpt>
      <trkpt lat="49.77918" lon="4.84212">
        <ele>182.49</ele>
        <time>2021-04-20T16:13:35Z</time>
      </trkpt>
      <trkpt lat="49.77922" lon="4.84211">
        <ele>183.54</ele>
        <time>2021-04-20T16:13:38Z</time>
      </trkpt>
      <trkpt lat="49.77925" lon="4.8421">
        <ele>184.34</ele>
        <time>2021-04-20T16:13:41Z</time>
      </trkpt>
      <trkpt lat="49.77928" lon="4.84209">
        <ele>185.13</ele>
        <time>2021-04-20T16:13:44Z</time>
      </trkpt>
      <trkpt lat="49.77931" lon="4.84207">
        <ele>186.05</ele>
        <time>2021-04-20T16:13:47Z</time>
      </trkpt>
      <trkpt lat="49.77934" lon="4.84206">
        <ele>186.78</ele>
        <time>2021-04-20T16:14:02Z</time>
      </trkpt>
      <trkpt lat="49.77937" lon="4.84207">
        <ele>187.21</ele>
        <time>2021-04-20T16:14:07Z</time>
      </trkpt>
      <trkpt lat="49.7794" lon="4.84208">
        <ele>187.66</ele>
        <time>2021-04-20T16:14:10Z</time>
      </trkpt>
      <trkpt lat="49.77943" lon="4.84209">
        <ele>188.14</ele>
        <time>2021-04-20T16:14:12Z</time>
      </trkpt>
      <trkpt lat="49.77946" lon="4.84212">
        <ele>188.2</ele>
        <time>2021-04-20T16:14:14Z</time>
      </trkpt>
      <trkpt lat="49.77949" lon="4.84213">
        <ele>188.27</ele>
        <time>2021-04-20T16:14:16Z</time>
      </trkpt>
      <trkpt lat="49.77952" lon="4.84215">
        <ele>188.25</ele>
        <time>2021-04-20T16:14:18Z</time>
      </trkpt>
      <trkpt lat="49.77955" lon="4.84216">
        <ele>188.35</ele>
        <time>2021-04-20T16:14:20Z</time>
      </trkpt>
      <trkpt lat="49.77958" lon="4.84217">
        <ele>188.45</ele>
        <time>2021-04-20T16:14:22Z</time>
      </trkpt>
      <trkpt lat="49.77962" lon="4.84218">
        <ele>188.62</ele>
        <time>2021-04-20T16:14:25Z</time>
      </trkpt>
      <trkpt lat="49.77967" lon="4.84217">
        <ele>189.04</ele>
        <time>2021-04-20T16:14:27Z</time>
      </trkpt>
      <trkpt lat="49.77971" lon="4.84216">
        <ele>189.37</ele>
        <time>2021-04-20T16:14:29Z</time>
      </trkpt>
      <trkpt lat="49.77974" lon="4.84217">
        <ele>189.3</ele>
        <time>2021-04-20T16:14:31Z</time>
      </trkpt>
      <trkpt lat="49.77978" lon="4.84218">
        <ele>189.06</ele>
        <time>2021-04-20T16:14:33Z</time>
      </trkpt>
      <trkpt lat="49.77982" lon="4.8422">
        <ele>188.78</ele>
        <time>2021-04-20T16:14:35Z</time>
      </trkpt>
      <trkpt lat="49.77985" lon="4.84221">
        <ele>188.61</ele>
        <time>2021-04-20T16:14:37Z</time>
      </trkpt>
      <trkpt lat="49.77987" lon="4.84223">
        <ele>188.34</ele>
        <time>2021-04-20T16:14:39Z</time>
      </trkpt>
      <trkpt lat="49.77991" lon="4.84224">
        <ele>188.05</ele>
        <time>2021-04-20T16:14:42Z</time>
      </trkpt>
      <trkpt lat="49.77995" lon="4.84224">
        <ele>187.91</ele>
        <time>2021-04-20T16:14:44Z</time>
      </trkpt>
      <trkpt lat="49.77998" lon="4.84223">
        <ele>187.96</ele>
        <time>2021-04-20T16:14:47Z</time>
      </trkpt>
      <trkpt lat="49.78002" lon="4.84223">
        <ele>187.68</ele>
        <time>2021-04-20T16:14:50Z</time>
      </trkpt>
      <trkpt lat="49.78006" lon="4.84222">
        <ele>187.36</ele>
        <time>2021-04-20T16:14:53Z</time>
      </trkpt>
      <trkpt lat="49.78008" lon="4.84221">
        <ele>187.18</ele>
        <time>2021-04-20T16:14:56Z</time>
      </trkpt>
      <trkpt lat="49.78011" lon="4.84221">
        <ele>186.86</ele>
        <time>2021-04-20T16:14:58Z</time>
      </trkpt>
      <trkpt lat="49.78014" lon="4.84222">
        <ele>186.5</ele>
        <time>2021-04-20T16:15:01Z</time>
      </trkpt>
      <trkpt lat="49.78017" lon="4.84221">
        <ele>186.21</ele>
        <time>2021-04-20T16:15:04Z</time>
      </trkpt>
      <trkpt lat="49.78022" lon="4.8422">
        <ele>185.7</ele>
        <time>2021-04-20T16:15:07Z</time>
      </trkpt>
      <trkpt lat="49.78025" lon="4.84219">
        <ele>185.42</ele>
        <time>2021-04-20T16:15:09Z</time>
      </trkpt>
      <trkpt lat="49.78028" lon="4.84218">
        <ele>185.14</ele>
        <time>2021-04-20T16:15:11Z</time>
      </trkpt>
      <trkpt lat="49.78031" lon="4.84218">
        <ele>185.01</ele>
        <time>2021-04-20T16:15:13Z</time>
      </trkpt>
      <trkpt lat="49.78034" lon="4.84217">
        <ele>184.95</ele>
        <time>2021-04-20T16:15:15Z</time>
      </trkpt>
      <trkpt lat="49.78037" lon="4.84216">
        <ele>184.93</ele>
        <time>2021-04-20T16:15:18Z</time>
      </trkpt>
      <trkpt lat="49.7804" lon="4.84216">
        <ele>184.84</ele>
        <time>2021-04-20T16:15:22Z</time>
      </trkpt>
      <trkpt lat="49.78043" lon="4.84218">
        <ele>184.47</ele>
        <time>2021-04-20T16:15:25Z</time>
      </trkpt>
      <trkpt lat="49.78046" lon="4.84218">
        <ele>184.34</ele>
        <time>2021-04-20T16:15:28Z</time>
      </trkpt>
      <trkpt lat="49.78049" lon="4.84216">
        <ele>184.55</ele>
        <time>2021-04-20T16:15:32Z</time>
      </trkpt>
      <trkpt lat="49.78052" lon="4.84215">
        <ele>184.65</ele>
        <time>2021-04-20T16:15:34Z</time>
      </trkpt>
      <trkpt lat="49.78055" lon="4.84214">
        <ele>184.79</ele>
        <time>2021-04-20T16:15:36Z</time>
      </trkpt>
      <trkpt lat="49.78058" lon="4.84214">
        <ele>184.55</ele>
        <time>2021-04-20T16:15:38Z</time>
      </trkpt>
      <trkpt lat="49.78061" lon="4.84213">
        <ele>184.47</ele>
        <time>2021-04-20T16:15:40Z</time>
      </trkpt>
      <trkpt lat="49.78065" lon="4.84211">
        <ele>184.47</ele>
        <time>2021-04-20T16:15:43Z</time>
      </trkpt>
      <trkpt lat="49.78068" lon="4.8421">
        <ele>184.35</ele>
        <time>2021-04-20T16:15:46Z</time>
      </trkpt>
      <trkpt lat="49.78072" lon="4.84209">
        <ele>184.11</ele>
        <time>2021-04-20T16:15:49Z</time>
      </trkpt>
      <trkpt lat="49.78075" lon="4.84208">
        <ele>183.96</ele>
        <time>2021-04-20T16:15:52Z</time>
      </trkpt>
      <trkpt lat="49.78078" lon="4.84207">
        <ele>183.79</ele>
        <time>2021-04-20T16:15:56Z</time>
      </trkpt>
      <trkpt lat="49.78081" lon="4.84206">
        <ele>183.6</ele>
        <time>2021-04-20T16:16:00Z</time>
      </trkpt>
      <trkpt lat="49.78084" lon="4.84204">
        <ele>183.6</ele>
        <time>2021-04-20T16:16:03Z</time>
      </trkpt>
      <trkpt lat="49.78087" lon="4.84202">
        <ele>183.78</ele>
        <time>2021-04-20T16:16:05Z</time>
      </trkpt>
      <trkpt lat="49.78089" lon="4.842">
        <ele>184</ele>
        <time>2021-04-20T16:16:07Z</time>
      </trkpt>
      <trkpt lat="49.78093" lon="4.84196">
        <ele>184.43</ele>
        <time>2021-04-20T16:16:10Z</time>
      </trkpt>
      <trkpt lat="49.78095" lon="4.84193">
        <ele>184.74</ele>
        <time>2021-04-20T16:16:12Z</time>
      </trkpt>
      <trkpt lat="49.78098" lon="4.8419">
        <ele>184.94</ele>
        <time>2021-04-20T16:16:14Z</time>
      </trkpt>
      <trkpt lat="49.781" lon="4.84187">
        <ele>185.15</ele>
        <time>2021-04-20T16:16:16Z</time>
      </trkpt>
      <trkpt lat="49.78103" lon="4.84184">
        <ele>185.26</ele>
        <time>2021-04-20T16:16:18Z</time>
      </trkpt>
      <trkpt lat="49.78105" lon="4.84182">
        <ele>185.31</ele>
        <time>2021-04-20T16:16:21Z</time>
      </trkpt>
      <trkpt lat="49.78107" lon="4.8418">
        <ele>185.34</ele>
        <time>2021-04-20T16:16:25Z</time>
      </trkpt>
      <trkpt lat="49.7811" lon="4.84177">
        <ele>185.35</ele>
        <time>2021-04-20T16:16:28Z</time>
      </trkpt>
      <trkpt lat="49.78112" lon="4.84175">
        <ele>185.22</ele>
        <time>2021-04-20T16:16:30Z</time>
      </trkpt>
      <trkpt lat="49.78115" lon="4.84173">
        <ele>184.74</ele>
        <time>2021-04-20T16:16:32Z</time>
      </trkpt>
      <trkpt lat="49.78119" lon="4.84169">
        <ele>184.15</ele>
        <time>2021-04-20T16:16:35Z</time>
      </trkpt>
      <trkpt lat="49.78121" lon="4.84167">
        <ele>183.84</ele>
        <time>2021-04-20T16:16:37Z</time>
      </trkpt>
      <trkpt lat="49.78125" lon="4.84164">
        <ele>182.95</ele>
        <time>2021-04-20T16:16:40Z</time>
      </trkpt>
      <trkpt lat="49.78128" lon="4.84161">
        <ele>182.18</ele>
        <time>2021-04-20T16:16:42Z</time>
      </trkpt>
      <trkpt lat="49.7813" lon="4.84158">
        <ele>181.6</ele>
        <time>2021-04-20T16:16:44Z</time>
      </trkpt>
      <trkpt lat="49.78133" lon="4.84155">
        <ele>180.7</ele>
        <time>2021-04-20T16:16:47Z</time>
      </trkpt>
      <trkpt lat="49.78135" lon="4.84152">
        <ele>180.01</ele>
        <time>2021-04-20T16:16:50Z</time>
      </trkpt>
      <trkpt lat="49.78138" lon="4.84149">
        <ele>178.98</ele>
        <time>2021-04-20T16:16:54Z</time>
      </trkpt>
      <trkpt lat="49.78141" lon="4.84147">
        <ele>178.37</ele>
        <time>2021-04-20T16:16:58Z</time>
      </trkpt>
      <trkpt lat="49.78144" lon="4.84144">
        <ele>177.9</ele>
        <time>2021-04-20T16:17:02Z</time>
      </trkpt>
      <trkpt lat="49.78147" lon="4.84141">
        <ele>177.5</ele>
        <time>2021-04-20T16:17:04Z</time>
      </trkpt>
      <trkpt lat="49.7815" lon="4.84139">
        <ele>177.2</ele>
        <time>2021-04-20T16:17:07Z</time>
      </trkpt>
      <trkpt lat="49.78153" lon="4.84136">
        <ele>177.04</ele>
        <time>2021-04-20T16:17:11Z</time>
      </trkpt>
      <trkpt lat="49.78155" lon="4.84134">
        <ele>176.97</ele>
        <time>2021-04-20T16:17:13Z</time>
      </trkpt>
      <trkpt lat="49.78158" lon="4.8413">
        <ele>176.96</ele>
        <time>2021-04-20T16:17:15Z</time>
      </trkpt>
      <trkpt lat="49.78162" lon="4.84129">
        <ele>176.87</ele>
        <time>2021-04-20T16:17:17Z</time>
      </trkpt>
      <trkpt lat="49.78165" lon="4.84127">
        <ele>176.9</ele>
        <time>2021-04-20T16:17:19Z</time>
      </trkpt>
      <trkpt lat="49.78168" lon="4.84124">
        <ele>176.98</ele>
        <time>2021-04-20T16:17:21Z</time>
      </trkpt>
      <trkpt lat="49.7817" lon="4.84121">
        <ele>177.05</ele>
        <time>2021-04-20T16:17:23Z</time>
      </trkpt>
      <trkpt lat="49.78172" lon="4.84117">
        <ele>177.19</ele>
        <time>2021-04-20T16:17:25Z</time>
      </trkpt>
      <trkpt lat="49.78172" lon="4.84112">
        <ele>177.55</ele>
        <time>2021-04-20T16:17:28Z</time>
      </trkpt>
      <trkpt lat="49.7817" lon="4.84108">
        <ele>178</ele>
        <time>2021-04-20T16:17:31Z</time>
      </trkpt>
      <trkpt lat="49.78166" lon="4.84105">
        <ele>178.42</ele>
        <time>2021-04-20T16:17:34Z</time>
      </trkpt>
      <trkpt lat="49.78164" lon="4.84102">
        <ele>178.56</ele>
        <time>2021-04-20T16:17:36Z</time>
      </trkpt>
      <trkpt lat="49.78161" lon="4.841">
        <ele>178.6</ele>
        <time>2021-04-20T16:17:38Z</time>
      </trkpt>
      <trkpt lat="49.78157" lon="4.84098">
        <ele>178.6</ele>
        <time>2021-04-20T16:17:41Z</time>
      </trkpt>
      <trkpt lat="49.78154" lon="4.84097">
        <ele>178.56</ele>
        <time>2021-04-20T16:17:44Z</time>
      </trkpt>
      <trkpt lat="49.7815" lon="4.84096">
        <ele>178.49</ele>
        <time>2021-04-20T16:17:47Z</time>
      </trkpt>
      <trkpt lat="49.78148" lon="4.84095">
        <ele>178.49</ele>
        <time>2021-04-20T16:17:49Z</time>
      </trkpt>
      <trkpt lat="49.78144" lon="4.84093">
        <ele>178.49</ele>
        <time>2021-04-20T16:17:52Z</time>
      </trkpt>
      <trkpt lat="49.78141" lon="4.84091">
        <ele>178.52</ele>
        <time>2021-04-20T16:17:55Z</time>
      </trkpt>
      <trkpt lat="49.78138" lon="4.84088">
        <ele>178.85</ele>
        <time>2021-04-20T16:17:59Z</time>
      </trkpt>
      <trkpt lat="49.78135" lon="4.84086">
        <ele>179.58</ele>
        <time>2021-04-20T16:18:03Z</time>
      </trkpt>
      <trkpt lat="49.78132" lon="4.84085">
        <ele>180.19</ele>
        <time>2021-04-20T16:18:06Z</time>
      </trkpt>
      <trkpt lat="49.78129" lon="4.84085">
        <ele>180.77</ele>
        <time>2021-04-20T16:18:09Z</time>
      </trkpt>
      <trkpt lat="49.78125" lon="4.84085">
        <ele>181.53</ele>
        <time>2021-04-20T16:18:12Z</time>
      </trkpt>
      <trkpt lat="49.78122" lon="4.84084">
        <ele>182.06</ele>
        <time>2021-04-20T16:18:15Z</time>
      </trkpt>
      <trkpt lat="49.78119" lon="4.84083">
        <ele>182.59</ele>
        <time>2021-04-20T16:18:18Z</time>
      </trkpt>
      <trkpt lat="49.78116" lon="4.84083">
        <ele>183.13</ele>
        <time>2021-04-20T16:18:21Z</time>
      </trkpt>
      <trkpt lat="49.78113" lon="4.8408">
        <ele>183.78</ele>
        <time>2021-04-20T16:18:24Z</time>
      </trkpt>
      <trkpt lat="49.7811" lon="4.84078">
        <ele>184.26</ele>
        <time>2021-04-20T16:18:27Z</time>
      </trkpt>
      <trkpt lat="49.78107" lon="4.84077">
        <ele>184.46</ele>
        <time>2021-04-20T16:18:30Z</time>
      </trkpt>
      <trkpt lat="49.78104" lon="4.84076">
        <ele>184.64</ele>
        <time>2021-04-20T16:18:34Z</time>
      </trkpt>
      <trkpt lat="49.78101" lon="4.84074">
        <ele>184.82</ele>
        <time>2021-04-20T16:18:37Z</time>
      </trkpt>
      <trkpt lat="49.78098" lon="4.84071">
        <ele>184.97</ele>
        <time>2021-04-20T16:18:41Z</time>
      </trkpt>
      <trkpt lat="49.78095" lon="4.84069">
        <ele>185.08</ele>
        <time>2021-04-20T16:18:45Z</time>
      </trkpt>
      <trkpt lat="49.78092" lon="4.84067">
        <ele>185.15</ele>
        <time>2021-04-20T16:18:48Z</time>
      </trkpt>
      <trkpt lat="49.78089" lon="4.84064">
        <ele>185.18</ele>
        <time>2021-04-20T16:18:51Z</time>
      </trkpt>
      <trkpt lat="49.78086" lon="4.84063">
        <ele>185.22</ele>
        <time>2021-04-20T16:18:55Z</time>
      </trkpt>
      <trkpt lat="49.78083" lon="4.84062">
        <ele>185.25</ele>
        <time>2021-04-20T16:18:58Z</time>
      </trkpt>
      <trkpt lat="49.7808" lon="4.84061">
        <ele>185.36</ele>
        <time>2021-04-20T16:19:00Z</time>
      </trkpt>
      <trkpt lat="49.78076" lon="4.84059">
        <ele>185.45</ele>
        <time>2021-04-20T16:19:03Z</time>
      </trkpt>
      <trkpt lat="49.78072" lon="4.84058">
        <ele>185.57</ele>
        <time>2021-04-20T16:19:06Z</time>
      </trkpt>
      <trkpt lat="49.78069" lon="4.84057">
        <ele>185.62</ele>
        <time>2021-04-20T16:19:09Z</time>
      </trkpt>
      <trkpt lat="49.78066" lon="4.84056">
        <ele>185.66</ele>
        <time>2021-04-20T16:19:12Z</time>
      </trkpt>
      <trkpt lat="49.78063" lon="4.84053">
        <ele>185.55</ele>
        <time>2021-04-20T16:19:15Z</time>
      </trkpt>
      <trkpt lat="49.78059" lon="4.8405">
        <ele>185.38</ele>
        <time>2021-04-20T16:19:17Z</time>
      </trkpt>
      <trkpt lat="49.78056" lon="4.84047">
        <ele>185.08</ele>
        <time>2021-04-20T16:19:19Z</time>
      </trkpt>
      <trkpt lat="49.78054" lon="4.84046">
        <ele>184.89</ele>
        <time>2021-04-20T16:19:21Z</time>
      </trkpt>
      <trkpt lat="49.7805" lon="4.84044">
        <ele>184.47</ele>
        <time>2021-04-20T16:19:23Z</time>
      </trkpt>
      <trkpt lat="49.78046" lon="4.84042">
        <ele>184.02</ele>
        <time>2021-04-20T16:19:25Z</time>
      </trkpt>
      <trkpt lat="49.78043" lon="4.8404">
        <ele>183.61</ele>
        <time>2021-04-20T16:19:27Z</time>
      </trkpt>
      <trkpt lat="49.78041" lon="4.84037">
        <ele>183.12</ele>
        <time>2021-04-20T16:19:30Z</time>
      </trkpt>
      <trkpt lat="49.78038" lon="4.84035">
        <ele>182.68</ele>
        <time>2021-04-20T16:19:33Z</time>
      </trkpt>
      <trkpt lat="49.78035" lon="4.84033">
        <ele>182.22</ele>
        <time>2021-04-20T16:19:35Z</time>
      </trkpt>
      <trkpt lat="49.78032" lon="4.84031">
        <ele>181.75</ele>
        <time>2021-04-20T16:19:37Z</time>
      </trkpt>
      <trkpt lat="49.78029" lon="4.84029">
        <ele>181.26</ele>
        <time>2021-04-20T16:19:40Z</time>
      </trkpt>
      <trkpt lat="49.78026" lon="4.84026">
        <ele>181.25</ele>
        <time>2021-04-20T16:19:44Z</time>
      </trkpt>
      <trkpt lat="49.78023" lon="4.84025">
        <ele>181.74</ele>
        <time>2021-04-20T16:19:48Z</time>
      </trkpt>
      <trkpt lat="49.7802" lon="4.84025">
        <ele>182.27</ele>
        <time>2021-04-20T16:19:52Z</time>
      </trkpt>
      <trkpt lat="49.78017" lon="4.84023">
        <ele>182.7</ele>
        <time>2021-04-20T16:19:56Z</time>
      </trkpt>
      <trkpt lat="49.78014" lon="4.84022">
        <ele>183.17</ele>
        <time>2021-04-20T16:20:00Z</time>
      </trkpt>
      <trkpt lat="49.78011" lon="4.84019">
        <ele>183.51</ele>
        <time>2021-04-20T16:20:03Z</time>
      </trkpt>
      <trkpt lat="49.78008" lon="4.84017">
        <ele>183.9</ele>
        <time>2021-04-20T16:20:05Z</time>
      </trkpt>
      <trkpt lat="49.78006" lon="4.84014">
        <ele>184.04</ele>
        <time>2021-04-20T16:20:07Z</time>
      </trkpt>
      <trkpt lat="49.78003" lon="4.84011">
        <ele>184.32</ele>
        <time>2021-04-20T16:20:09Z</time>
      </trkpt>
      <trkpt lat="49.78001" lon="4.84008">
        <ele>184.42</ele>
        <time>2021-04-20T16:20:12Z</time>
      </trkpt>
      <trkpt lat="49.77998" lon="4.84003">
        <ele>184.37</ele>
        <time>2021-04-20T16:20:15Z</time>
      </trkpt>
      <trkpt lat="49.77997" lon="4.83998">
        <ele>184.14</ele>
        <time>2021-04-20T16:20:17Z</time>
      </trkpt>
      <trkpt lat="49.77994" lon="4.83995">
        <ele>184.25</ele>
        <time>2021-04-20T16:20:20Z</time>
      </trkpt>
      <trkpt lat="49.77991" lon="4.83992">
        <ele>184.36</ele>
        <time>2021-04-20T16:20:23Z</time>
      </trkpt>
      <trkpt lat="49.77989" lon="4.83989">
        <ele>184.4</ele>
        <time>2021-04-20T16:20:26Z</time>
      </trkpt>
      <trkpt lat="49.77987" lon="4.83986">
        <ele>184.43</ele>
        <time>2021-04-20T16:20:29Z</time>
      </trkpt>
      <trkpt lat="49.77984" lon="4.83983">
        <ele>184.54</ele>
        <time>2021-04-20T16:20:32Z</time>
      </trkpt>
      <trkpt lat="49.77982" lon="4.83978">
        <ele>184.5</ele>
        <time>2021-04-20T16:20:35Z</time>
      </trkpt>
      <trkpt lat="49.7798" lon="4.83973">
        <ele>184.47</ele>
        <time>2021-04-20T16:20:37Z</time>
      </trkpt>
      <trkpt lat="49.77978" lon="4.8397">
        <ele>184.66</ele>
        <time>2021-04-20T16:20:40Z</time>
      </trkpt>
      <trkpt lat="49.77975" lon="4.83966">
        <ele>185.02</ele>
        <time>2021-04-20T16:20:43Z</time>
      </trkpt>
      <trkpt lat="49.77973" lon="4.83962">
        <ele>185.31</ele>
        <time>2021-04-20T16:20:45Z</time>
      </trkpt>
      <trkpt lat="49.77972" lon="4.83959">
        <ele>185.49</ele>
        <time>2021-04-20T16:20:47Z</time>
      </trkpt>
      <trkpt lat="49.77969" lon="4.83955">
        <ele>185.82</ele>
        <time>2021-04-20T16:20:50Z</time>
      </trkpt>
      <trkpt lat="49.77966" lon="4.83953">
        <ele>186.05</ele>
        <time>2021-04-20T16:20:53Z</time>
      </trkpt>
      <trkpt lat="49.77963" lon="4.83951">
        <ele>186.25</ele>
        <time>2021-04-20T16:20:56Z</time>
      </trkpt>
      <trkpt lat="49.77959" lon="4.83948">
        <ele>186.47</ele>
        <time>2021-04-20T16:20:59Z</time>
      </trkpt>
      <trkpt lat="49.77956" lon="4.83946">
        <ele>186.59</ele>
        <time>2021-04-20T16:21:01Z</time>
      </trkpt>
      <trkpt lat="49.77954" lon="4.83944">
        <ele>186.64</ele>
        <time>2021-04-20T16:21:03Z</time>
      </trkpt>
      <trkpt lat="49.77951" lon="4.83942">
        <ele>186.68</ele>
        <time>2021-04-20T16:21:05Z</time>
      </trkpt>
      <trkpt lat="49.77948" lon="4.83938">
        <ele>186.64</ele>
        <time>2021-04-20T16:21:08Z</time>
      </trkpt>
      <trkpt lat="49.77946" lon="4.83934">
        <ele>186.57</ele>
        <time>2021-04-20T16:21:11Z</time>
      </trkpt>
      <trkpt lat="49.77944" lon="4.8393">
        <ele>186.49</ele>
        <time>2021-04-20T16:21:13Z</time>
      </trkpt>
      <trkpt lat="49.77941" lon="4.83926">
        <ele>186.42</ele>
        <time>2021-04-20T16:21:16Z</time>
      </trkpt>
      <trkpt lat="49.77939" lon="4.83923">
        <ele>186.38</ele>
        <time>2021-04-20T16:21:19Z</time>
      </trkpt>
      <trkpt lat="49.77937" lon="4.83919">
        <ele>186.33</ele>
        <time>2021-04-20T16:21:23Z</time>
      </trkpt>
      <trkpt lat="49.77935" lon="4.83915">
        <ele>186.24</ele>
        <time>2021-04-20T16:21:25Z</time>
      </trkpt>
      <trkpt lat="49.77932" lon="4.83911">
        <ele>186.13</ele>
        <time>2021-04-20T16:21:28Z</time>
      </trkpt>
      <trkpt lat="49.77928" lon="4.83909">
        <ele>186.2</ele>
        <time>2021-04-20T16:21:31Z</time>
      </trkpt>
      <trkpt lat="49.77925" lon="4.83907">
        <ele>186.25</ele>
        <time>2021-04-20T16:21:34Z</time>
      </trkpt>
      <trkpt lat="49.77924" lon="4.83904">
        <ele>186.16</ele>
        <time>2021-04-20T16:21:39Z</time>
      </trkpt>
      <trkpt lat="49.77921" lon="4.839">
        <ele>186.15</ele>
        <time>2021-04-20T16:21:43Z</time>
      </trkpt>
      <trkpt lat="49.77918" lon="4.83897">
        <ele>186.21</ele>
        <time>2021-04-20T16:21:46Z</time>
      </trkpt>
      <trkpt lat="49.77916" lon="4.83895">
        <ele>186.3</ele>
        <time>2021-04-20T16:21:48Z</time>
      </trkpt>
      <trkpt lat="49.77913" lon="4.83893">
        <ele>186.58</ele>
        <time>2021-04-20T16:21:50Z</time>
      </trkpt>
      <trkpt lat="49.77911" lon="4.83889">
        <ele>186.62</ele>
        <time>2021-04-20T16:21:54Z</time>
      </trkpt>
      <trkpt lat="49.77908" lon="4.83886">
        <ele>186.66</ele>
        <time>2021-04-20T16:21:58Z</time>
      </trkpt>
      <trkpt lat="49.77906" lon="4.83883">
        <ele>186.57</ele>
        <time>2021-04-20T16:22:02Z</time>
      </trkpt>
      <trkpt lat="49.77903" lon="4.83881">
        <ele>186.63</ele>
        <time>2021-04-20T16:22:06Z</time>
      </trkpt>
      <trkpt lat="49.77901" lon="4.83877">
        <ele>186.35</ele>
        <time>2021-04-20T16:22:08Z</time>
      </trkpt>
      <trkpt lat="49.77898" lon="4.83874">
        <ele>186.22</ele>
        <time>2021-04-20T16:22:11Z</time>
      </trkpt>
      <trkpt lat="49.77896" lon="4.83871">
        <ele>185.99</ele>
        <time>2021-04-20T16:22:14Z</time>
      </trkpt>
      <trkpt lat="49.77893" lon="4.83868">
        <ele>185.77</ele>
        <time>2021-04-20T16:22:17Z</time>
      </trkpt>
      <trkpt lat="49.77891" lon="4.83864">
        <ele>185.32</ele>
        <time>2021-04-20T16:22:20Z</time>
      </trkpt>
      <trkpt lat="49.77888" lon="4.83862">
        <ele>185.19</ele>
        <time>2021-04-20T16:22:23Z</time>
      </trkpt>
      <trkpt lat="49.77886" lon="4.83859">
        <ele>185.12</ele>
        <time>2021-04-20T16:22:26Z</time>
      </trkpt>
      <trkpt lat="49.77884" lon="4.83856">
        <ele>185.1</ele>
        <time>2021-04-20T16:22:29Z</time>
      </trkpt>
      <trkpt lat="49.77881" lon="4.83852">
        <ele>185.05</ele>
        <time>2021-04-20T16:22:32Z</time>
      </trkpt>
      <trkpt lat="49.77878" lon="4.83849">
        <ele>185.01</ele>
        <time>2021-04-20T16:22:35Z</time>
      </trkpt>
      <trkpt lat="49.77875" lon="4.83844">
        <ele>184.77</ele>
        <time>2021-04-20T16:22:38Z</time>
      </trkpt>
      <trkpt lat="49.77872" lon="4.8384">
        <ele>184.53</ele>
        <time>2021-04-20T16:22:41Z</time>
      </trkpt>
      <trkpt lat="49.7787" lon="4.83835">
        <ele>184.14</ele>
        <time>2021-04-20T16:22:44Z</time>
      </trkpt>
      <trkpt lat="49.77868" lon="4.8383">
        <ele>184.06</ele>
        <time>2021-04-20T16:22:47Z</time>
      </trkpt>
      <trkpt lat="49.77866" lon="4.83827">
        <ele>184.15</ele>
        <time>2021-04-20T16:22:49Z</time>
      </trkpt>
      <trkpt lat="49.77864" lon="4.83823">
        <ele>184.29</ele>
        <time>2021-04-20T16:22:52Z</time>
      </trkpt>
      <trkpt lat="49.77861" lon="4.8382">
        <ele>184.5</ele>
        <time>2021-04-20T16:22:56Z</time>
      </trkpt>
      <trkpt lat="49.77859" lon="4.83816">
        <ele>185.01</ele>
        <time>2021-04-20T16:22:59Z</time>
      </trkpt>
      <trkpt lat="49.77857" lon="4.83813">
        <ele>185.44</ele>
        <time>2021-04-20T16:23:02Z</time>
      </trkpt>
      <trkpt lat="49.77854" lon="4.83809">
        <ele>186</ele>
        <time>2021-04-20T16:23:05Z</time>
      </trkpt>
      <trkpt lat="49.77851" lon="4.83806">
        <ele>186.46</ele>
        <time>2021-04-20T16:23:08Z</time>
      </trkpt>
      <trkpt lat="49.77849" lon="4.83803">
        <ele>186.99</ele>
        <time>2021-04-20T16:23:10Z</time>
      </trkpt>
      <trkpt lat="49.77846" lon="4.83801">
        <ele>187.56</ele>
        <time>2021-04-20T16:23:12Z</time>
      </trkpt>
      <trkpt lat="49.77843" lon="4.83797">
        <ele>188.24</ele>
        <time>2021-04-20T16:23:14Z</time>
      </trkpt>
      <trkpt lat="49.77841" lon="4.83793">
        <ele>188.72</ele>
        <time>2021-04-20T16:23:17Z</time>
      </trkpt>
      <trkpt lat="49.77839" lon="4.83789">
        <ele>189.14</ele>
        <time>2021-04-20T16:23:20Z</time>
      </trkpt>
      <trkpt lat="49.77837" lon="4.83785">
        <ele>189.51</ele>
        <time>2021-04-20T16:23:23Z</time>
      </trkpt>
      <trkpt lat="49.77835" lon="4.8378">
        <ele>189.85</ele>
        <time>2021-04-20T16:23:26Z</time>
      </trkpt>
      <trkpt lat="49.77832" lon="4.83777">
        <ele>190.02</ele>
        <time>2021-04-20T16:23:29Z</time>
      </trkpt>
      <trkpt lat="49.77829" lon="4.83774">
        <ele>189.96</ele>
        <time>2021-04-20T16:23:32Z</time>
      </trkpt>
      <trkpt lat="49.77826" lon="4.8377">
        <ele>189.76</ele>
        <time>2021-04-20T16:23:35Z</time>
      </trkpt>
      <trkpt lat="49.77824" lon="4.83767">
        <ele>189.56</ele>
        <time>2021-04-20T16:23:37Z</time>
      </trkpt>
      <trkpt lat="49.77822" lon="4.83763">
        <ele>189.22</ele>
        <time>2021-04-20T16:23:40Z</time>
      </trkpt>
      <trkpt lat="49.77819" lon="4.8376">
        <ele>188.89</ele>
        <time>2021-04-20T16:23:44Z</time>
      </trkpt>
      <trkpt lat="49.77816" lon="4.83756">
        <ele>188.37</ele>
        <time>2021-04-20T16:23:47Z</time>
      </trkpt>
      <trkpt lat="49.77814" lon="4.83753">
        <ele>187.94</ele>
        <time>2021-04-20T16:23:49Z</time>
      </trkpt>
      <trkpt lat="49.77812" lon="4.83749">
        <ele>187.53</ele>
        <time>2021-04-20T16:23:52Z</time>
      </trkpt>
      <trkpt lat="49.77809" lon="4.83746">
        <ele>187.52</ele>
        <time>2021-04-20T16:23:55Z</time>
      </trkpt>
      <trkpt lat="49.77806" lon="4.83743">
        <ele>187.53</ele>
        <time>2021-04-20T16:23:58Z</time>
      </trkpt>
      <trkpt lat="49.77804" lon="4.8374">
        <ele>188.16</ele>
        <time>2021-04-20T16:24:01Z</time>
      </trkpt>
      <trkpt lat="49.77801" lon="4.83738">
        <ele>189.13</ele>
        <time>2021-04-20T16:24:04Z</time>
      </trkpt>
      <trkpt lat="49.77798" lon="4.83737">
        <ele>190</ele>
        <time>2021-04-20T16:24:07Z</time>
      </trkpt>
      <trkpt lat="49.77795" lon="4.83734">
        <ele>190.92</ele>
        <time>2021-04-20T16:24:11Z</time>
      </trkpt>
      <trkpt lat="49.77793" lon="4.8373">
        <ele>191.53</ele>
        <time>2021-04-20T16:24:14Z</time>
      </trkpt>
      <trkpt lat="49.77791" lon="4.83727">
        <ele>192.07</ele>
        <time>2021-04-20T16:24:17Z</time>
      </trkpt>
      <trkpt lat="49.77789" lon="4.83724">
        <ele>192.56</ele>
        <time>2021-04-20T16:24:23Z</time>
      </trkpt>
      <trkpt lat="49.77785" lon="4.83723">
        <ele>193.45</ele>
        <time>2021-04-20T16:24:30Z</time>
      </trkpt>
      <trkpt lat="49.77783" lon="4.83722">
        <ele>193.86</ele>
        <time>2021-04-20T16:24:33Z</time>
      </trkpt>
      <trkpt lat="49.7778" lon="4.83718">
        <ele>194.28</ele>
        <time>2021-04-20T16:24:36Z</time>
      </trkpt>
      <trkpt lat="49.77778" lon="4.83715">
        <ele>194.44</ele>
        <time>2021-04-20T16:24:39Z</time>
      </trkpt>
      <trkpt lat="49.77776" lon="4.83711">
        <ele>194.35</ele>
        <time>2021-04-20T16:24:42Z</time>
      </trkpt>
      <trkpt lat="49.77774" lon="4.83708">
        <ele>194.39</ele>
        <time>2021-04-20T16:24:45Z</time>
      </trkpt>
      <trkpt lat="49.77772" lon="4.83704">
        <ele>194.51</ele>
        <time>2021-04-20T16:24:49Z</time>
      </trkpt>
      <trkpt lat="49.77769" lon="4.83701">
        <ele>194.92</ele>
        <time>2021-04-20T16:24:52Z</time>
      </trkpt>
      <trkpt lat="49.77766" lon="4.83699">
        <ele>195.45</ele>
        <time>2021-04-20T16:24:54Z</time>
      </trkpt>
      <trkpt lat="49.77763" lon="4.83696">
        <ele>196.13</ele>
        <time>2021-04-20T16:24:57Z</time>
      </trkpt>
      <trkpt lat="49.7776" lon="4.83695">
        <ele>196.8</ele>
        <time>2021-04-20T16:25:00Z</time>
      </trkpt>
      <trkpt lat="49.77757" lon="4.83692">
        <ele>197.27</ele>
        <time>2021-04-20T16:25:03Z</time>
      </trkpt>
      <trkpt lat="49.77754" lon="4.83689">
        <ele>197.52</ele>
        <time>2021-04-20T16:25:07Z</time>
      </trkpt>
      <trkpt lat="49.77751" lon="4.83688">
        <ele>197.91</ele>
        <time>2021-04-20T16:25:10Z</time>
      </trkpt>
      <trkpt lat="49.77749" lon="4.83686">
        <ele>197.85</ele>
        <time>2021-04-20T16:25:12Z</time>
      </trkpt>
      <trkpt lat="49.77746" lon="4.83681">
        <ele>197.42</ele>
        <time>2021-04-20T16:25:15Z</time>
      </trkpt>
      <trkpt lat="49.77744" lon="4.83677">
        <ele>197.11</ele>
        <time>2021-04-20T16:25:18Z</time>
      </trkpt>
      <trkpt lat="49.77742" lon="4.83673">
        <ele>196.87</ele>
        <time>2021-04-20T16:25:20Z</time>
      </trkpt>
      <trkpt lat="49.7774" lon="4.83671">
        <ele>196.9</ele>
        <time>2021-04-20T16:25:22Z</time>
      </trkpt>
      <trkpt lat="49.77738" lon="4.83668">
        <ele>196.86</ele>
        <time>2021-04-20T16:25:24Z</time>
      </trkpt>
      <trkpt lat="49.77735" lon="4.83664">
        <ele>197.2</ele>
        <time>2021-04-20T16:25:27Z</time>
      </trkpt>
      <trkpt lat="49.77733" lon="4.83661">
        <ele>197.53</ele>
        <time>2021-04-20T16:25:29Z</time>
      </trkpt>
      <trkpt lat="49.77731" lon="4.83658">
        <ele>197.83</ele>
        <time>2021-04-20T16:25:31Z</time>
      </trkpt>
      <trkpt lat="49.77728" lon="4.83655">
        <ele>198.26</ele>
        <time>2021-04-20T16:25:34Z</time>
      </trkpt>
      <trkpt lat="49.77724" lon="4.83653">
        <ele>198.78</ele>
        <time>2021-04-20T16:25:37Z</time>
      </trkpt>
      <trkpt lat="49.77722" lon="4.83648">
        <ele>199.05</ele>
        <time>2021-04-20T16:25:40Z</time>
      </trkpt>
      <trkpt lat="49.77718" lon="4.83646">
        <ele>199.95</ele>
        <time>2021-04-20T16:25:43Z</time>
      </trkpt>
      <trkpt lat="49.77716" lon="4.83646">
        <ele>200.4</ele>
        <time>2021-04-20T16:25:46Z</time>
      </trkpt>
      <trkpt lat="49.77713" lon="4.83644">
        <ele>201.05</ele>
        <time>2021-04-20T16:25:51Z</time>
      </trkpt>
      <trkpt lat="49.7771" lon="4.83641">
        <ele>201.67</ele>
        <time>2021-04-20T16:25:56Z</time>
      </trkpt>
      <trkpt lat="49.77707" lon="4.83639">
        <ele>202.29</ele>
        <time>2021-04-20T16:25:59Z</time>
      </trkpt>
      <trkpt lat="49.77703" lon="4.83638">
        <ele>203.12</ele>
        <time>2021-04-20T16:26:02Z</time>
      </trkpt>
      <trkpt lat="49.777" lon="4.83636">
        <ele>203.7</ele>
        <time>2021-04-20T16:26:05Z</time>
      </trkpt>
      <trkpt lat="49.77697" lon="4.83633">
        <ele>204.24</ele>
        <time>2021-04-20T16:26:08Z</time>
      </trkpt>
      <trkpt lat="49.77694" lon="4.8363">
        <ele>204.78</ele>
        <time>2021-04-20T16:26:12Z</time>
      </trkpt>
      <trkpt lat="49.77692" lon="4.83627">
        <ele>205.1</ele>
        <time>2021-04-20T16:26:15Z</time>
      </trkpt>
      <trkpt lat="49.7769" lon="4.83623">
        <ele>205.39</ele>
        <time>2021-04-20T16:26:18Z</time>
      </trkpt>
      <trkpt lat="49.77687" lon="4.8362">
        <ele>205.93</ele>
        <time>2021-04-20T16:26:20Z</time>
      </trkpt>
      <trkpt lat="49.77685" lon="4.83617">
        <ele>206.25</ele>
        <time>2021-04-20T16:26:23Z</time>
      </trkpt>
      <trkpt lat="49.77682" lon="4.83614">
        <ele>206.79</ele>
        <time>2021-04-20T16:26:26Z</time>
      </trkpt>
      <trkpt lat="49.7768" lon="4.83611">
        <ele>207.11</ele>
        <time>2021-04-20T16:26:30Z</time>
      </trkpt>
      <trkpt lat="49.77677" lon="4.83608">
        <ele>207.59</ele>
        <time>2021-04-20T16:26:34Z</time>
      </trkpt>
      <trkpt lat="49.77674" lon="4.83606">
        <ele>208.1</ele>
        <time>2021-04-20T16:26:37Z</time>
      </trkpt>
      <trkpt lat="49.77672" lon="4.83604">
        <ele>208.39</ele>
        <time>2021-04-20T16:26:40Z</time>
      </trkpt>
      <trkpt lat="49.77669" lon="4.83602">
        <ele>208.87</ele>
        <time>2021-04-20T16:26:43Z</time>
      </trkpt>
      <trkpt lat="49.77666" lon="4.83599">
        <ele>209.36</ele>
        <time>2021-04-20T16:26:46Z</time>
      </trkpt>
      <trkpt lat="49.77663" lon="4.83595">
        <ele>210.08</ele>
        <time>2021-04-20T16:26:49Z</time>
      </trkpt>
      <trkpt lat="49.7766" lon="4.83591">
        <ele>210.78</ele>
        <time>2021-04-20T16:26:52Z</time>
      </trkpt>
      <trkpt lat="49.77658" lon="4.83587">
        <ele>211.11</ele>
        <time>2021-04-20T16:26:54Z</time>
      </trkpt>
      <trkpt lat="49.77656" lon="4.83583">
        <ele>211.43</ele>
        <time>2021-04-20T16:26:57Z</time>
      </trkpt>
      <trkpt lat="49.77654" lon="4.83579">
        <ele>211.81</ele>
        <time>2021-04-20T16:27:00Z</time>
      </trkpt>
      <trkpt lat="49.77652" lon="4.83574">
        <ele>212.06</ele>
        <time>2021-04-20T16:27:03Z</time>
      </trkpt>
      <trkpt lat="49.7765" lon="4.8357">
        <ele>212.34</ele>
        <time>2021-04-20T16:27:06Z</time>
      </trkpt>
      <trkpt lat="49.77649" lon="4.83566">
        <ele>212.31</ele>
        <time>2021-04-20T16:27:08Z</time>
      </trkpt>
      <trkpt lat="49.77646" lon="4.83561">
        <ele>212.7</ele>
        <time>2021-04-20T16:27:11Z</time>
      </trkpt>
      <trkpt lat="49.77644" lon="4.83554">
        <ele>212.56</ele>
        <time>2021-04-20T16:27:13Z</time>
      </trkpt>
      <trkpt lat="49.77642" lon="4.83549">
        <ele>212.56</ele>
        <time>2021-04-20T16:27:15Z</time>
      </trkpt>
      <trkpt lat="49.7764" lon="4.83545">
        <ele>212.61</ele>
        <time>2021-04-20T16:27:17Z</time>
      </trkpt>
      <trkpt lat="49.77639" lon="4.83541">
        <ele>212.4</ele>
        <time>2021-04-20T16:27:19Z</time>
      </trkpt>
      <trkpt lat="49.77636" lon="4.83537">
        <ele>212.65</ele>
        <time>2021-04-20T16:27:22Z</time>
      </trkpt>
      <trkpt lat="49.77634" lon="4.83534">
        <ele>212.77</ele>
        <time>2021-04-20T16:27:25Z</time>
      </trkpt>
      <trkpt lat="49.77631" lon="4.8353">
        <ele>212.97</ele>
        <time>2021-04-20T16:27:28Z</time>
      </trkpt>
      <trkpt lat="49.77629" lon="4.83526">
        <ele>213.05</ele>
        <time>2021-04-20T16:27:31Z</time>
      </trkpt>
      <trkpt lat="49.77627" lon="4.83524">
        <ele>213.37</ele>
        <time>2021-04-20T16:27:34Z</time>
      </trkpt>
      <trkpt lat="49.77625" lon="4.8352">
        <ele>213.58</ele>
        <time>2021-04-20T16:27:37Z</time>
      </trkpt>
      <trkpt lat="49.77623" lon="4.83515">
        <ele>213.71</ele>
        <time>2021-04-20T16:27:40Z</time>
      </trkpt>
      <trkpt lat="49.77621" lon="4.83512">
        <ele>213.93</ele>
        <time>2021-04-20T16:27:43Z</time>
      </trkpt>
      <trkpt lat="49.77618" lon="4.83508">
        <ele>214.26</ele>
        <time>2021-04-20T16:27:46Z</time>
      </trkpt>
      <trkpt lat="49.77616" lon="4.83504">
        <ele>214.38</ele>
        <time>2021-04-20T16:27:48Z</time>
      </trkpt>
      <trkpt lat="49.77613" lon="4.83502">
        <ele>214.8</ele>
        <time>2021-04-20T16:27:51Z</time>
      </trkpt>
      <trkpt lat="49.7761" lon="4.83501">
        <ele>215.35</ele>
        <time>2021-04-20T16:27:54Z</time>
      </trkpt>
      <trkpt lat="49.77607" lon="4.83499">
        <ele>216.04</ele>
        <time>2021-04-20T16:27:57Z</time>
      </trkpt>
      <trkpt lat="49.77609" lon="4.83503">
        <ele>215.74</ele>
        <time>2021-04-20T16:28:05Z</time>
      </trkpt>
      <trkpt lat="49.77611" lon="4.83505">
        <ele>215.39</ele>
        <time>2021-04-20T16:28:07Z</time>
      </trkpt>
      <trkpt lat="49.77614" lon="4.83507">
        <ele>214.96</ele>
        <time>2021-04-20T16:28:10Z</time>
      </trkpt>
      <trkpt lat="49.77617" lon="4.83509">
        <ele>214.52</ele>
        <time>2021-04-20T16:28:15Z</time>
      </trkpt>
      <trkpt lat="49.7762" lon="4.8351">
        <ele>214</ele>
        <time>2021-04-20T16:28:19Z</time>
      </trkpt>
      <trkpt lat="49.77623" lon="4.83508">
        <ele>213.31</ele>
        <time>2021-04-20T16:28:21Z</time>
      </trkpt>
      <trkpt lat="49.77626" lon="4.83505">
        <ele>212.58</ele>
        <time>2021-04-20T16:28:23Z</time>
      </trkpt>
      <trkpt lat="49.77631" lon="4.835">
        <ele>211.42</ele>
        <time>2021-04-20T16:28:25Z</time>
      </trkpt>
      <trkpt lat="49.77633" lon="4.83497">
        <ele>211.15</ele>
        <time>2021-04-20T16:28:26Z</time>
      </trkpt>
      <trkpt lat="49.77637" lon="4.83493">
        <ele>210.57</ele>
        <time>2021-04-20T16:28:28Z</time>
      </trkpt>
      <trkpt lat="49.77639" lon="4.83487">
        <ele>210.45</ele>
        <time>2021-04-20T16:28:30Z</time>
      </trkpt>
      <trkpt lat="49.77642" lon="4.83483">
        <ele>210.21</ele>
        <time>2021-04-20T16:28:32Z</time>
      </trkpt>
      <trkpt lat="49.77645" lon="4.83479">
        <ele>209.93</ele>
        <time>2021-04-20T16:28:34Z</time>
      </trkpt>
      <trkpt lat="49.77647" lon="4.83475">
        <ele>209.76</ele>
        <time>2021-04-20T16:28:36Z</time>
      </trkpt>
      <trkpt lat="49.77649" lon="4.83471">
        <ele>209.6</ele>
        <time>2021-04-20T16:28:39Z</time>
      </trkpt>
      <trkpt lat="49.77651" lon="4.83466">
        <ele>209.51</ele>
        <time>2021-04-20T16:28:42Z</time>
      </trkpt>
      <trkpt lat="49.77651" lon="4.8346">
        <ele>209.75</ele>
        <time>2021-04-20T16:28:45Z</time>
      </trkpt>
      <trkpt lat="49.77652" lon="4.83456">
        <ele>209.73</ele>
        <time>2021-04-20T16:28:48Z</time>
      </trkpt>
      <trkpt lat="49.77654" lon="4.83451">
        <ele>209.52</ele>
        <time>2021-04-20T16:28:52Z</time>
      </trkpt>
      <trkpt lat="49.77656" lon="4.83447">
        <ele>209.23</ele>
        <time>2021-04-20T16:28:54Z</time>
      </trkpt>
      <trkpt lat="49.77658" lon="4.83443">
        <ele>208.89</ele>
        <time>2021-04-20T16:28:58Z</time>
      </trkpt>
      <trkpt lat="49.7766" lon="4.8344">
        <ele>208.48</ele>
        <time>2021-04-20T16:29:28Z</time>
      </trkpt>
      <trkpt lat="49.7766" lon="4.83436">
        <ele>208.51</ele>
        <time>2021-04-20T16:29:34Z</time>
      </trkpt>
      <trkpt lat="49.77657" lon="4.83432">
        <ele>209.24</ele>
        <time>2021-04-20T16:29:55Z</time>
      </trkpt>
      <trkpt lat="49.77656" lon="4.83428">
        <ele>209.53</ele>
        <time>2021-04-20T16:30:01Z</time>
      </trkpt>
      <trkpt lat="49.77658" lon="4.83424">
        <ele>209.1</ele>
        <time>2021-04-20T16:30:07Z</time>
      </trkpt>
      <trkpt lat="49.7766" lon="4.83419">
        <ele>208.66</ele>
        <time>2021-04-20T16:30:13Z</time>
      </trkpt>
      <trkpt lat="49.77661" lon="4.83414">
        <ele>208.93</ele>
        <time>2021-04-20T16:30:15Z</time>
      </trkpt>
      <trkpt lat="49.77662" lon="4.83409">
        <ele>209.6</ele>
        <time>2021-04-20T16:30:18Z</time>
      </trkpt>
      <trkpt lat="49.77664" lon="4.83404">
        <ele>210</ele>
        <time>2021-04-20T16:30:21Z</time>
      </trkpt>
      <trkpt lat="49.77666" lon="4.834">
        <ele>210.18</ele>
        <time>2021-04-20T16:30:24Z</time>
      </trkpt>
      <trkpt lat="49.77667" lon="4.83397">
        <ele>210.54</ele>
        <time>2021-04-20T16:30:29Z</time>
      </trkpt>
      <trkpt lat="49.7767" lon="4.834">
        <ele>209.98</ele>
        <time>2021-04-20T16:30:34Z</time>
      </trkpt>
      <trkpt lat="49.77673" lon="4.83403">
        <ele>209.46</ele>
        <time>2021-04-20T16:30:40Z</time>
      </trkpt>
      <trkpt lat="49.77675" lon="4.834">
        <ele>209.94</ele>
        <time>2021-04-20T16:30:42Z</time>
      </trkpt>
      <trkpt lat="49.77677" lon="4.83396">
        <ele>210.54</ele>
        <time>2021-04-20T16:30:44Z</time>
      </trkpt>
      <trkpt lat="49.7768" lon="4.83393">
        <ele>210.92</ele>
        <time>2021-04-20T16:30:46Z</time>
      </trkpt>
      <trkpt lat="49.77684" lon="4.83391">
        <ele>211.09</ele>
        <time>2021-04-20T16:30:48Z</time>
      </trkpt>
      <trkpt lat="49.77687" lon="4.8339">
        <ele>211.13</ele>
        <time>2021-04-20T16:30:50Z</time>
      </trkpt>
      <trkpt lat="49.7769" lon="4.83388">
        <ele>211.36</ele>
        <time>2021-04-20T16:30:52Z</time>
      </trkpt>
      <trkpt lat="49.77694" lon="4.83386">
        <ele>211.64</ele>
        <time>2021-04-20T16:30:54Z</time>
      </trkpt>
      <trkpt lat="49.77698" lon="4.83384">
        <ele>211.91</ele>
        <time>2021-04-20T16:30:56Z</time>
      </trkpt>
      <trkpt lat="49.77701" lon="4.83381">
        <ele>212.4</ele>
        <time>2021-04-20T16:30:59Z</time>
      </trkpt>
      <trkpt lat="49.77703" lon="4.83378">
        <ele>212.92</ele>
        <time>2021-04-20T16:31:02Z</time>
      </trkpt>
      <trkpt lat="49.77706" lon="4.83373">
        <ele>213.78</ele>
        <time>2021-04-20T16:31:05Z</time>
      </trkpt>
      <trkpt lat="49.77708" lon="4.83368">
        <ele>214.66</ele>
        <time>2021-04-20T16:31:07Z</time>
      </trkpt>
      <trkpt lat="49.7771" lon="4.83365">
        <ele>215.12</ele>
        <time>2021-04-20T16:31:09Z</time>
      </trkpt>
      <trkpt lat="49.77713" lon="4.8336">
        <ele>215.89</ele>
        <time>2021-04-20T16:31:12Z</time>
      </trkpt>
      <trkpt lat="49.77715" lon="4.83356">
        <ele>216.58</ele>
        <time>2021-04-20T16:31:14Z</time>
      </trkpt>
      <trkpt lat="49.77718" lon="4.8335">
        <ele>217.64</ele>
        <time>2021-04-20T16:31:16Z</time>
      </trkpt>
      <trkpt lat="49.7772" lon="4.83346">
        <ele>218.38</ele>
        <time>2021-04-20T16:31:18Z</time>
      </trkpt>
      <trkpt lat="49.77722" lon="4.83341">
        <ele>219.35</ele>
        <time>2021-04-20T16:31:21Z</time>
      </trkpt>
      <trkpt lat="49.77725" lon="4.83336">
        <ele>218.76</ele>
        <time>2021-04-20T16:31:24Z</time>
      </trkpt>
      <trkpt lat="49.77727" lon="4.83331">
        <ele>218.38</ele>
        <time>2021-04-20T16:31:26Z</time>
      </trkpt>
      <trkpt lat="49.77729" lon="4.83327">
        <ele>217.65</ele>
        <time>2021-04-20T16:31:28Z</time>
      </trkpt>
      <trkpt lat="49.77732" lon="4.83325">
        <ele>216</ele>
        <time>2021-04-20T16:31:30Z</time>
      </trkpt>
      <trkpt lat="49.77734" lon="4.83322">
        <ele>215.08</ele>
        <time>2021-04-20T16:31:32Z</time>
      </trkpt>
      <trkpt lat="49.77736" lon="4.83317">
        <ele>214.34</ele>
        <time>2021-04-20T16:31:35Z</time>
      </trkpt>
      <trkpt lat="49.77737" lon="4.83312">
        <ele>214.21</ele>
        <time>2021-04-20T16:31:37Z</time>
      </trkpt>
      <trkpt lat="49.77739" lon="4.83308">
        <ele>213.28</ele>
        <time>2021-04-20T16:31:40Z</time>
      </trkpt>
      <trkpt lat="49.7774" lon="4.83304">
        <ele>212.99</ele>
        <time>2021-04-20T16:31:42Z</time>
      </trkpt>
      <trkpt lat="49.77741" lon="4.83299">
        <ele>212.79</ele>
        <time>2021-04-20T16:31:44Z</time>
      </trkpt>
      <trkpt lat="49.77743" lon="4.83293">
        <ele>212.03</ele>
        <time>2021-04-20T16:31:46Z</time>
      </trkpt>
      <trkpt lat="49.77745" lon="4.83289">
        <ele>211.1</ele>
        <time>2021-04-20T16:31:48Z</time>
      </trkpt>
      <trkpt lat="49.77748" lon="4.83286">
        <ele>209.43</ele>
        <time>2021-04-20T16:31:51Z</time>
      </trkpt>
      <trkpt lat="49.7775" lon="4.83281">
        <ele>208.65</ele>
        <time>2021-04-20T16:31:54Z</time>
      </trkpt>
      <trkpt lat="49.77751" lon="4.83275">
        <ele>208.56</ele>
        <time>2021-04-20T16:31:57Z</time>
      </trkpt>
      <trkpt lat="49.77752" lon="4.83269">
        <ele>208.26</ele>
        <time>2021-04-20T16:32:00Z</time>
      </trkpt>
      <trkpt lat="49.77753" lon="4.83264">
        <ele>207.93</ele>
        <time>2021-04-20T16:32:03Z</time>
      </trkpt>
      <trkpt lat="49.77754" lon="4.8326">
        <ele>207.57</ele>
        <time>2021-04-20T16:32:06Z</time>
      </trkpt>
      <trkpt lat="49.77757" lon="4.83255">
        <ele>206.25</ele>
        <time>2021-04-20T16:32:09Z</time>
      </trkpt>
      <trkpt lat="49.77759" lon="4.83252">
        <ele>205.37</ele>
        <time>2021-04-20T16:32:11Z</time>
      </trkpt>
      <trkpt lat="49.7776" lon="4.83247">
        <ele>204.93</ele>
        <time>2021-04-20T16:32:13Z</time>
      </trkpt>
      <trkpt lat="49.77762" lon="4.83242">
        <ele>203.91</ele>
        <time>2021-04-20T16:32:16Z</time>
      </trkpt>
      <trkpt lat="49.77763" lon="4.83238">
        <ele>203.42</ele>
        <time>2021-04-20T16:32:18Z</time>
      </trkpt>
      <trkpt lat="49.77765" lon="4.83233">
        <ele>202.49</ele>
        <time>2021-04-20T16:32:21Z</time>
      </trkpt>
      <trkpt lat="49.77766" lon="4.83229">
        <ele>202.05</ele>
        <time>2021-04-20T16:32:23Z</time>
      </trkpt>
      <trkpt lat="49.77766" lon="4.83224">
        <ele>202.08</ele>
        <time>2021-04-20T16:32:26Z</time>
      </trkpt>
      <trkpt lat="49.77767" lon="4.8322">
        <ele>201.66</ele>
        <time>2021-04-20T16:32:28Z</time>
      </trkpt>
      <trkpt lat="49.77767" lon="4.83215">
        <ele>201.66</ele>
        <time>2021-04-20T16:32:34Z</time>
      </trkpt>
      <trkpt lat="49.77768" lon="4.8321">
        <ele>201.22</ele>
        <time>2021-04-20T16:32:44Z</time>
      </trkpt>
      <trkpt lat="49.77769" lon="4.83206">
        <ele>200.79</ele>
        <time>2021-04-20T16:32:46Z</time>
      </trkpt>
      <trkpt lat="49.77771" lon="4.83202">
        <ele>199.93</ele>
        <time>2021-04-20T16:32:49Z</time>
      </trkpt>
      <trkpt lat="49.77772" lon="4.83196">
        <ele>199.5</ele>
        <time>2021-04-20T16:32:52Z</time>
      </trkpt>
      <trkpt lat="49.77774" lon="4.83192">
        <ele>198.88</ele>
        <time>2021-04-20T16:32:58Z</time>
      </trkpt>
      <trkpt lat="49.77774" lon="4.83186">
        <ele>199.5</ele>
        <time>2021-04-20T16:33:01Z</time>
      </trkpt>
      <trkpt lat="49.77774" lon="4.83178">
        <ele>200.33</ele>
        <time>2021-04-20T16:33:03Z</time>
      </trkpt>
      <trkpt lat="49.77774" lon="4.83171">
        <ele>201.05</ele>
        <time>2021-04-20T16:33:05Z</time>
      </trkpt>
      <trkpt lat="49.77774" lon="4.83166">
        <ele>201.54</ele>
        <time>2021-04-20T16:33:06Z</time>
      </trkpt>
      <trkpt lat="49.77774" lon="4.83161">
        <ele>201.85</ele>
        <time>2021-04-20T16:33:07Z</time>
      </trkpt>
      <trkpt lat="49.77774" lon="4.83156">
        <ele>202.16</ele>
        <time>2021-04-20T16:33:08Z</time>
      </trkpt>
      <trkpt lat="49.77774" lon="4.83151">
        <ele>202.47</ele>
        <time>2021-04-20T16:33:09Z</time>
      </trkpt>
      <trkpt lat="49.77774" lon="4.83147">
        <ele>202.72</ele>
        <time>2021-04-20T16:33:10Z</time>
      </trkpt>
      <trkpt lat="49.77773" lon="4.8314">
        <ele>203.48</ele>
        <time>2021-04-20T16:33:12Z</time>
      </trkpt>
      <trkpt lat="49.77772" lon="4.83136">
        <ele>204.12</ele>
        <time>2021-04-20T16:33:13Z</time>
      </trkpt>
      <trkpt lat="49.7777" lon="4.83129">
        <ele>205.29</ele>
        <time>2021-04-20T16:33:15Z</time>
      </trkpt>
      <trkpt lat="49.77769" lon="4.83124">
        <ele>205.94</ele>
        <time>2021-04-20T16:33:16Z</time>
      </trkpt>
      <trkpt lat="49.77768" lon="4.83119">
        <ele>206.56</ele>
        <time>2021-04-20T16:33:17Z</time>
      </trkpt>
      <trkpt lat="49.77766" lon="4.83113">
        <ele>207.43</ele>
        <time>2021-04-20T16:33:19Z</time>
      </trkpt>
      <trkpt lat="49.77763" lon="4.83105">
        <ele>207.94</ele>
        <time>2021-04-20T16:33:21Z</time>
      </trkpt>
      <trkpt lat="49.77762" lon="4.83102">
        <ele>207.99</ele>
        <time>2021-04-20T16:33:22Z</time>
      </trkpt>
      <trkpt lat="49.7776" lon="4.83095">
        <ele>207.94</ele>
        <time>2021-04-20T16:33:24Z</time>
      </trkpt>
      <trkpt lat="49.77757" lon="4.83092">
        <ele>208.12</ele>
        <time>2021-04-20T16:33:25Z</time>
      </trkpt>
      <trkpt lat="49.77756" lon="4.83088">
        <ele>207.93</ele>
        <time>2021-04-20T16:33:26Z</time>
      </trkpt>
      <trkpt lat="49.77754" lon="4.83083">
        <ele>207.7</ele>
        <time>2021-04-20T16:33:27Z</time>
      </trkpt>
      <trkpt lat="49.77752" lon="4.8308">
        <ele>207.75</ele>
        <time>2021-04-20T16:33:28Z</time>
      </trkpt>
      <trkpt lat="49.7775" lon="4.83076">
        <ele>207.74</ele>
        <time>2021-04-20T16:33:29Z</time>
      </trkpt>
      <trkpt lat="49.77747" lon="4.83072">
        <ele>208.04</ele>
        <time>2021-04-20T16:33:31Z</time>
      </trkpt>
      <trkpt lat="49.77744" lon="4.8307">
        <ele>208.39</ele>
        <time>2021-04-20T16:33:33Z</time>
      </trkpt>
      <trkpt lat="49.77741" lon="4.83066">
        <ele>208.59</ele>
        <time>2021-04-20T16:33:35Z</time>
      </trkpt>
      <trkpt lat="49.77739" lon="4.83062">
        <ele>208.6</ele>
        <time>2021-04-20T16:33:38Z</time>
      </trkpt>
      <trkpt lat="49.77737" lon="4.83059">
        <ele>208.64</ele>
        <time>2021-04-20T16:33:40Z</time>
      </trkpt>
      <trkpt lat="49.77734" lon="4.83055">
        <ele>208.7</ele>
        <time>2021-04-20T16:33:42Z</time>
      </trkpt>
      <trkpt lat="49.77731" lon="4.83052">
        <ele>208.84</ele>
        <time>2021-04-20T16:33:44Z</time>
      </trkpt>
      <trkpt lat="49.77728" lon="4.8305">
        <ele>209.02</ele>
        <time>2021-04-20T16:33:46Z</time>
      </trkpt>
      <trkpt lat="49.77725" lon="4.83047">
        <ele>209.11</ele>
        <time>2021-04-20T16:33:48Z</time>
      </trkpt>
      <trkpt lat="49.77722" lon="4.83043">
        <ele>209.11</ele>
        <time>2021-04-20T16:33:50Z</time>
      </trkpt>
      <trkpt lat="49.77719" lon="4.8304">
        <ele>209.03</ele>
        <time>2021-04-20T16:33:52Z</time>
      </trkpt>
      <trkpt lat="49.77715" lon="4.83038">
        <ele>209.02</ele>
        <time>2021-04-20T16:33:54Z</time>
      </trkpt>
      <trkpt lat="49.77711" lon="4.83034">
        <ele>208.72</ele>
        <time>2021-04-20T16:33:56Z</time>
      </trkpt>
      <trkpt lat="49.77709" lon="4.83031">
        <ele>208.4</ele>
        <time>2021-04-20T16:33:58Z</time>
      </trkpt>
      <trkpt lat="49.77706" lon="4.83029">
        <ele>208.17</ele>
        <time>2021-04-20T16:34:01Z</time>
      </trkpt>
      <trkpt lat="49.77702" lon="4.83027">
        <ele>207.98</ele>
        <time>2021-04-20T16:34:05Z</time>
      </trkpt>
      <trkpt lat="49.77699" lon="4.83026">
        <ele>207.95</ele>
        <time>2021-04-20T16:34:07Z</time>
      </trkpt>
      <trkpt lat="49.77696" lon="4.83024">
        <ele>207.87</ele>
        <time>2021-04-20T16:34:09Z</time>
      </trkpt>
      <trkpt lat="49.77694" lon="4.83022">
        <ele>207.87</ele>
        <time>2021-04-20T16:34:11Z</time>
      </trkpt>
      <trkpt lat="49.7769" lon="4.83017">
        <ele>208.29</ele>
        <time>2021-04-20T16:34:13Z</time>
      </trkpt>
      <trkpt lat="49.77688" lon="4.83014">
        <ele>208.43</ele>
        <time>2021-04-20T16:34:16Z</time>
      </trkpt>
      <trkpt lat="49.77686" lon="4.83009">
        <ele>208.43</ele>
        <time>2021-04-20T16:34:21Z</time>
      </trkpt>
      <trkpt lat="49.77683" lon="4.83007">
        <ele>208.7</ele>
        <time>2021-04-20T16:34:23Z</time>
      </trkpt>
      <trkpt lat="49.7768" lon="4.83005">
        <ele>208.93</ele>
        <time>2021-04-20T16:34:25Z</time>
      </trkpt>
      <trkpt lat="49.77678" lon="4.82999">
        <ele>208.79</ele>
        <time>2021-04-20T16:34:27Z</time>
      </trkpt>
      <trkpt lat="49.77676" lon="4.82993">
        <ele>209.08</ele>
        <time>2021-04-20T16:34:29Z</time>
      </trkpt>
      <trkpt lat="49.77674" lon="4.82989">
        <ele>209.31</ele>
        <time>2021-04-20T16:34:31Z</time>
      </trkpt>
      <trkpt lat="49.77671" lon="4.82985">
        <ele>209.62</ele>
        <time>2021-04-20T16:34:33Z</time>
      </trkpt>
      <trkpt lat="49.77669" lon="4.82981">
        <ele>209.81</ele>
        <time>2021-04-20T16:34:36Z</time>
      </trkpt>
      <trkpt lat="49.77667" lon="4.82978">
        <ele>209.97</ele>
        <time>2021-04-20T16:34:40Z</time>
      </trkpt>
      <trkpt lat="49.77664" lon="4.82977">
        <ele>210.37</ele>
        <time>2021-04-20T16:34:43Z</time>
      </trkpt>
      <trkpt lat="49.77661" lon="4.82976">
        <ele>210.75</ele>
        <time>2021-04-20T16:34:46Z</time>
      </trkpt>
      <trkpt lat="49.77659" lon="4.82972">
        <ele>210.81</ele>
        <time>2021-04-20T16:34:49Z</time>
      </trkpt>
      <trkpt lat="49.77657" lon="4.82969">
        <ele>210.77</ele>
        <time>2021-04-20T16:34:51Z</time>
      </trkpt>
      <trkpt lat="49.77655" lon="4.82964">
        <ele>210.54</ele>
        <time>2021-04-20T16:34:53Z</time>
      </trkpt>
      <trkpt lat="49.77653" lon="4.82959">
        <ele>210.29</ele>
        <time>2021-04-20T16:34:55Z</time>
      </trkpt>
      <trkpt lat="49.77651" lon="4.82953">
        <ele>209.92</ele>
        <time>2021-04-20T16:34:57Z</time>
      </trkpt>
      <trkpt lat="49.77649" lon="4.82949">
        <ele>209.7</ele>
        <time>2021-04-20T16:34:59Z</time>
      </trkpt>
      <trkpt lat="49.77646" lon="4.82945">
        <ele>209.54</ele>
        <time>2021-04-20T16:35:01Z</time>
      </trkpt>
      <trkpt lat="49.77644" lon="4.82941">
        <ele>209.31</ele>
        <time>2021-04-20T16:35:03Z</time>
      </trkpt>
      <trkpt lat="49.77642" lon="4.82937">
        <ele>209.03</ele>
        <time>2021-04-20T16:35:06Z</time>
      </trkpt>
      <trkpt lat="49.77638" lon="4.82935">
        <ele>209.22</ele>
        <time>2021-04-20T16:35:09Z</time>
      </trkpt>
      <trkpt lat="49.77636" lon="4.82932">
        <ele>209.41</ele>
        <time>2021-04-20T16:35:14Z</time>
      </trkpt>
      <trkpt lat="49.77634" lon="4.82928">
        <ele>209.39</ele>
        <time>2021-04-20T16:35:18Z</time>
      </trkpt>
      <trkpt lat="49.77633" lon="4.82923">
        <ele>208.94</ele>
        <time>2021-04-20T16:35:22Z</time>
      </trkpt>
      <trkpt lat="49.77632" lon="4.8292">
        <ele>208.72</ele>
        <time>2021-04-20T16:35:24Z</time>
      </trkpt>
      <trkpt lat="49.77629" lon="4.82917">
        <ele>208.83</ele>
        <time>2021-04-20T16:35:26Z</time>
      </trkpt>
      <trkpt lat="49.77627" lon="4.82913">
        <ele>208.84</ele>
        <time>2021-04-20T16:35:28Z</time>
      </trkpt>
      <trkpt lat="49.77624" lon="4.82909">
        <ele>208.96</ele>
        <time>2021-04-20T16:35:30Z</time>
      </trkpt>
      <trkpt lat="49.77622" lon="4.82905">
        <ele>208.85</ele>
        <time>2021-04-20T16:35:32Z</time>
      </trkpt>
      <trkpt lat="49.7762" lon="4.82901">
        <ele>208.69</ele>
        <time>2021-04-20T16:35:34Z</time>
      </trkpt>
      <trkpt lat="49.77617" lon="4.82897">
        <ele>208.56</ele>
        <time>2021-04-20T16:35:36Z</time>
      </trkpt>
      <trkpt lat="49.77615" lon="4.82895">
        <ele>208.51</ele>
        <time>2021-04-20T16:35:38Z</time>
      </trkpt>
      <trkpt lat="49.77613" lon="4.82893">
        <ele>208.43</ele>
        <time>2021-04-20T16:35:40Z</time>
      </trkpt>
      <trkpt lat="49.77611" lon="4.82887">
        <ele>207.95</ele>
        <time>2021-04-20T16:35:42Z</time>
      </trkpt>
      <trkpt lat="49.77609" lon="4.82884">
        <ele>208.15</ele>
        <time>2021-04-20T16:35:45Z</time>
      </trkpt>
      <trkpt lat="49.77607" lon="4.8288">
        <ele>208.23</ele>
        <time>2021-04-20T16:35:48Z</time>
      </trkpt>
      <trkpt lat="49.77604" lon="4.82877">
        <ele>208.41</ele>
        <time>2021-04-20T16:35:51Z</time>
      </trkpt>
      <trkpt lat="49.77601" lon="4.82872">
        <ele>208.33</ele>
        <time>2021-04-20T16:35:54Z</time>
      </trkpt>
      <trkpt lat="49.77598" lon="4.82871">
        <ele>208.5</ele>
        <time>2021-04-20T16:35:57Z</time>
      </trkpt>
      <trkpt lat="49.77595" lon="4.82868">
        <ele>208.4</ele>
        <time>2021-04-20T16:36:00Z</time>
      </trkpt>
      <trkpt lat="49.77592" lon="4.82866">
        <ele>208.35</ele>
        <time>2021-04-20T16:36:02Z</time>
      </trkpt>
      <trkpt lat="49.77591" lon="4.82863">
        <ele>207.99</ele>
        <time>2021-04-20T16:36:05Z</time>
      </trkpt>
      <trkpt lat="49.77589" lon="4.82858">
        <ele>207.62</ele>
        <time>2021-04-20T16:36:08Z</time>
      </trkpt>
      <trkpt lat="49.77586" lon="4.82854">
        <ele>207.44</ele>
        <time>2021-04-20T16:36:11Z</time>
      </trkpt>
      <trkpt lat="49.77584" lon="4.8285">
        <ele>207.2</ele>
        <time>2021-04-20T16:36:14Z</time>
      </trkpt>
      <trkpt lat="49.77581" lon="4.82846">
        <ele>207.45</ele>
        <time>2021-04-20T16:36:17Z</time>
      </trkpt>
      <trkpt lat="49.77578" lon="4.82842">
        <ele>207.76</ele>
        <time>2021-04-20T16:36:20Z</time>
      </trkpt>
      <trkpt lat="49.77576" lon="4.82838">
        <ele>207.79</ele>
        <time>2021-04-20T16:36:22Z</time>
      </trkpt>
      <trkpt lat="49.77574" lon="4.82833">
        <ele>207.66</ele>
        <time>2021-04-20T16:36:25Z</time>
      </trkpt>
      <trkpt lat="49.77573" lon="4.82829">
        <ele>207.57</ele>
        <time>2021-04-20T16:36:27Z</time>
      </trkpt>
      <trkpt lat="49.77571" lon="4.82824">
        <ele>207.47</ele>
        <time>2021-04-20T16:36:29Z</time>
      </trkpt>
      <trkpt lat="49.77569" lon="4.8282">
        <ele>207.34</ele>
        <time>2021-04-20T16:36:31Z</time>
      </trkpt>
      <trkpt lat="49.77567" lon="4.82817">
        <ele>207.21</ele>
        <time>2021-04-20T16:36:33Z</time>
      </trkpt>
      <trkpt lat="49.77566" lon="4.82812">
        <ele>206.72</ele>
        <time>2021-04-20T16:36:36Z</time>
      </trkpt>
      <trkpt lat="49.77564" lon="4.82808">
        <ele>206.31</ele>
        <time>2021-04-20T16:36:39Z</time>
      </trkpt>
      <trkpt lat="49.77561" lon="4.82803">
        <ele>205.85</ele>
        <time>2021-04-20T16:36:42Z</time>
      </trkpt>
      <trkpt lat="49.7756" lon="4.82799">
        <ele>205.6</ele>
        <time>2021-04-20T16:36:44Z</time>
      </trkpt>
      <trkpt lat="49.7756" lon="4.82794">
        <ele>205.3</ele>
        <time>2021-04-20T16:36:46Z</time>
      </trkpt>
      <trkpt lat="49.77559" lon="4.82789">
        <ele>204.96</ele>
        <time>2021-04-20T16:36:48Z</time>
      </trkpt>
      <trkpt lat="49.77558" lon="4.82785">
        <ele>204.65</ele>
        <time>2021-04-20T16:36:50Z</time>
      </trkpt>
      <trkpt lat="49.77557" lon="4.82781">
        <ele>204.32</ele>
        <time>2021-04-20T16:36:52Z</time>
      </trkpt>
      <trkpt lat="49.77555" lon="4.82776">
        <ele>204.08</ele>
        <time>2021-04-20T16:36:55Z</time>
      </trkpt>
      <trkpt lat="49.77553" lon="4.82771">
        <ele>204.32</ele>
        <time>2021-04-20T16:36:58Z</time>
      </trkpt>
      <trkpt lat="49.7755" lon="4.82768">
        <ele>204.66</ele>
        <time>2021-04-20T16:37:01Z</time>
      </trkpt>
      <trkpt lat="49.77548" lon="4.82764">
        <ele>204.82</ele>
        <time>2021-04-20T16:37:04Z</time>
      </trkpt>
      <trkpt lat="49.77547" lon="4.82759">
        <ele>204.82</ele>
        <time>2021-04-20T16:37:09Z</time>
      </trkpt>
      <trkpt lat="49.77546" lon="4.82755">
        <ele>204.81</ele>
        <time>2021-04-20T16:37:11Z</time>
      </trkpt>
      <trkpt lat="49.77545" lon="4.8275">
        <ele>204.76</ele>
        <time>2021-04-20T16:37:15Z</time>
      </trkpt>
      <trkpt lat="49.77542" lon="4.82747">
        <ele>204.98</ele>
        <time>2021-04-20T16:37:19Z</time>
      </trkpt>
      <trkpt lat="49.77539" lon="4.82745">
        <ele>205.16</ele>
        <time>2021-04-20T16:37:21Z</time>
      </trkpt>
      <trkpt lat="49.77536" lon="4.82743">
        <ele>205.31</ele>
        <time>2021-04-20T16:37:23Z</time>
      </trkpt>
      <trkpt lat="49.77533" lon="4.82741">
        <ele>205.42</ele>
        <time>2021-04-20T16:37:25Z</time>
      </trkpt>
      <trkpt lat="49.7753" lon="4.82737">
        <ele>205.45</ele>
        <time>2021-04-20T16:37:27Z</time>
      </trkpt>
      <trkpt lat="49.77528" lon="4.82733">
        <ele>205.38</ele>
        <time>2021-04-20T16:37:29Z</time>
      </trkpt>
      <trkpt lat="49.77526" lon="4.8273">
        <ele>205.39</ele>
        <time>2021-04-20T16:37:31Z</time>
      </trkpt>
      <trkpt lat="49.77524" lon="4.82727">
        <ele>205.31</ele>
        <time>2021-04-20T16:37:33Z</time>
      </trkpt>
      <trkpt lat="49.77522" lon="4.82722">
        <ele>205</ele>
        <time>2021-04-20T16:37:36Z</time>
      </trkpt>
      <trkpt lat="49.7752" lon="4.82717">
        <ele>205.03</ele>
        <time>2021-04-20T16:37:39Z</time>
      </trkpt>
      <trkpt lat="49.77517" lon="4.82714">
        <ele>204.95</ele>
        <time>2021-04-20T16:37:42Z</time>
      </trkpt>
      <trkpt lat="49.77515" lon="4.82711">
        <ele>204.85</ele>
        <time>2021-04-20T16:37:47Z</time>
      </trkpt>
      <trkpt lat="49.77514" lon="4.82706">
        <ele>204.72</ele>
        <time>2021-04-20T16:37:50Z</time>
      </trkpt>
      <trkpt lat="49.77512" lon="4.82701">
        <ele>204.46</ele>
        <time>2021-04-20T16:37:54Z</time>
      </trkpt>
      <trkpt lat="49.77512" lon="4.82697">
        <ele>204.36</ele>
        <time>2021-04-20T16:37:56Z</time>
      </trkpt>
      <trkpt lat="49.77511" lon="4.82692">
        <ele>204.22</ele>
        <time>2021-04-20T16:37:58Z</time>
      </trkpt>
      <trkpt lat="49.7751" lon="4.82688">
        <ele>204.16</ele>
        <time>2021-04-20T16:38:01Z</time>
      </trkpt>
      <trkpt lat="49.77509" lon="4.82684">
        <ele>204.09</ele>
        <time>2021-04-20T16:38:04Z</time>
      </trkpt>
      <trkpt lat="49.77508" lon="4.82678">
        <ele>204.03</ele>
        <time>2021-04-20T16:38:07Z</time>
      </trkpt>
      <trkpt lat="49.77505" lon="4.82674">
        <ele>203.67</ele>
        <time>2021-04-20T16:38:10Z</time>
      </trkpt>
      <trkpt lat="49.77504" lon="4.8267">
        <ele>203.56</ele>
        <time>2021-04-20T16:38:12Z</time>
      </trkpt>
      <trkpt lat="49.77502" lon="4.82666">
        <ele>203.33</ele>
        <time>2021-04-20T16:38:14Z</time>
      </trkpt>
      <trkpt lat="49.77501" lon="4.8266">
        <ele>203.62</ele>
        <time>2021-04-20T16:38:17Z</time>
      </trkpt>
      <trkpt lat="49.775" lon="4.82656">
        <ele>203.77</ele>
        <time>2021-04-20T16:38:19Z</time>
      </trkpt>
      <trkpt lat="49.77498" lon="4.8265">
        <ele>204.08</ele>
        <time>2021-04-20T16:38:22Z</time>
      </trkpt>
      <trkpt lat="49.77495" lon="4.82646">
        <ele>204.17</ele>
        <time>2021-04-20T16:38:25Z</time>
      </trkpt>
      <trkpt lat="49.77493" lon="4.82643">
        <ele>204.24</ele>
        <time>2021-04-20T16:38:27Z</time>
      </trkpt>
      <trkpt lat="49.7749" lon="4.82639">
        <ele>204.27</ele>
        <time>2021-04-20T16:38:29Z</time>
      </trkpt>
      <trkpt lat="49.77487" lon="4.82636">
        <ele>204.06</ele>
        <time>2021-04-20T16:38:31Z</time>
      </trkpt>
      <trkpt lat="49.77485" lon="4.82632">
        <ele>203.92</ele>
        <time>2021-04-20T16:38:33Z</time>
      </trkpt>
      <trkpt lat="49.77483" lon="4.82627">
        <ele>203.78</ele>
        <time>2021-04-20T16:38:36Z</time>
      </trkpt>
      <trkpt lat="49.7748" lon="4.82623">
        <ele>203.56</ele>
        <time>2021-04-20T16:38:39Z</time>
      </trkpt>
      <trkpt lat="49.77477" lon="4.8262">
        <ele>203.34</ele>
        <time>2021-04-20T16:38:41Z</time>
      </trkpt>
      <trkpt lat="49.77475" lon="4.82617">
        <ele>203.2</ele>
        <time>2021-04-20T16:38:43Z</time>
      </trkpt>
      <trkpt lat="49.77472" lon="4.82614">
        <ele>203.07</ele>
        <time>2021-04-20T16:38:45Z</time>
      </trkpt>
      <trkpt lat="49.77469" lon="4.82611">
        <ele>204.05</ele>
        <time>2021-04-20T16:38:47Z</time>
      </trkpt>
      <trkpt lat="49.77467" lon="4.82606">
        <ele>204.96</ele>
        <time>2021-04-20T16:38:49Z</time>
      </trkpt>
      <trkpt lat="49.77465" lon="4.82603">
        <ele>205.7</ele>
        <time>2021-04-20T16:38:51Z</time>
      </trkpt>
      <trkpt lat="49.77462" lon="4.82601">
        <ele>206.64</ele>
        <time>2021-04-20T16:38:53Z</time>
      </trkpt>
      <trkpt lat="49.77459" lon="4.82598">
        <ele>207.55</ele>
        <time>2021-04-20T16:38:56Z</time>
      </trkpt>
      <trkpt lat="49.77455" lon="4.82596">
        <ele>208.66</ele>
        <time>2021-04-20T16:38:59Z</time>
      </trkpt>
      <trkpt lat="49.77452" lon="4.82594">
        <ele>209.44</ele>
        <time>2021-04-20T16:39:01Z</time>
      </trkpt>
      <trkpt lat="49.7745" lon="4.82592">
        <ele>209.92</ele>
        <time>2021-04-20T16:39:03Z</time>
      </trkpt>
      <trkpt lat="49.77447" lon="4.82591">
        <ele>210.65</ele>
        <time>2021-04-20T16:39:05Z</time>
      </trkpt>
      <trkpt lat="49.77443" lon="4.82589">
        <ele>211.44</ele>
        <time>2021-04-20T16:39:08Z</time>
      </trkpt>
      <trkpt lat="49.77439" lon="4.82586">
        <ele>211.94</ele>
        <time>2021-04-20T16:39:11Z</time>
      </trkpt>
      <trkpt lat="49.77437" lon="4.82584">
        <ele>212.12</ele>
        <time>2021-04-20T16:39:13Z</time>
      </trkpt>
      <trkpt lat="49.77434" lon="4.82582">
        <ele>212.47</ele>
        <time>2021-04-20T16:39:16Z</time>
      </trkpt>
      <trkpt lat="49.7743" lon="4.82581">
        <ele>212.99</ele>
        <time>2021-04-20T16:39:19Z</time>
      </trkpt>
      <trkpt lat="49.77427" lon="4.8258">
        <ele>213.36</ele>
        <time>2021-04-20T16:39:22Z</time>
      </trkpt>
      <trkpt lat="49.77424" lon="4.82579">
        <ele>213.71</ele>
        <time>2021-04-20T16:39:24Z</time>
      </trkpt>
      <trkpt lat="49.7742" lon="4.82578">
        <ele>214.18</ele>
        <time>2021-04-20T16:39:27Z</time>
      </trkpt>
      <trkpt lat="49.77416" lon="4.82577">
        <ele>214.54</ele>
        <time>2021-04-20T16:39:29Z</time>
      </trkpt>
      <trkpt lat="49.77413" lon="4.82577">
        <ele>214.54</ele>
        <time>2021-04-20T16:39:31Z</time>
      </trkpt>
      <trkpt lat="49.77409" lon="4.82577">
        <ele>214.54</ele>
        <time>2021-04-20T16:39:34Z</time>
      </trkpt>
      <trkpt lat="49.77406" lon="4.82577">
        <ele>214.54</ele>
        <time>2021-04-20T16:39:37Z</time>
      </trkpt>
      <trkpt lat="49.77403" lon="4.82577">
        <ele>214.54</ele>
        <time>2021-04-20T16:39:40Z</time>
      </trkpt>
      <trkpt lat="49.774" lon="4.82576">
        <ele>214.47</ele>
        <time>2021-04-20T16:39:43Z</time>
      </trkpt>
      <trkpt lat="49.77397" lon="4.82576">
        <ele>214.47</ele>
        <time>2021-04-20T16:39:46Z</time>
      </trkpt>
      <trkpt lat="49.77394" lon="4.82576">
        <ele>214.47</ele>
        <time>2021-04-20T16:39:49Z</time>
      </trkpt>
      <trkpt lat="49.77391" lon="4.82575">
        <ele>214.4</ele>
        <time>2021-04-20T16:39:52Z</time>
      </trkpt>
      <trkpt lat="49.77388" lon="4.82574">
        <ele>214.43</ele>
        <time>2021-04-20T16:39:55Z</time>
      </trkpt>
      <trkpt lat="49.77385" lon="4.82573">
        <ele>214.73</ele>
        <time>2021-04-20T16:39:58Z</time>
      </trkpt>
      <trkpt lat="49.77382" lon="4.82572">
        <ele>215.03</ele>
        <time>2021-04-20T16:40:01Z</time>
      </trkpt>
      <trkpt lat="49.77378" lon="4.82571">
        <ele>215.46</ele>
        <time>2021-04-20T16:40:05Z</time>
      </trkpt>
      <trkpt lat="49.77375" lon="4.8257">
        <ele>215.78</ele>
        <time>2021-04-20T16:40:07Z</time>
      </trkpt>
      <trkpt lat="49.77371" lon="4.82571">
        <ele>216.33</ele>
        <time>2021-04-20T16:40:10Z</time>
      </trkpt>
      <trkpt lat="49.77369" lon="4.82571">
        <ele>216.58</ele>
        <time>2021-04-20T16:40:12Z</time>
      </trkpt>
      <trkpt lat="49.77366" lon="4.82571">
        <ele>216.95</ele>
        <time>2021-04-20T16:40:14Z</time>
      </trkpt>
      <trkpt lat="49.77363" lon="4.8257">
        <ele>217.28</ele>
        <time>2021-04-20T16:40:16Z</time>
      </trkpt>
      <trkpt lat="49.7736" lon="4.82568">
        <ele>217.47</ele>
        <time>2021-04-20T16:40:20Z</time>
      </trkpt>
      <trkpt lat="49.77355" lon="4.82569">
        <ele>217.59</ele>
        <time>2021-04-20T16:40:23Z</time>
      </trkpt>
      <trkpt lat="49.77352" lon="4.82571">
        <ele>217.74</ele>
        <time>2021-04-20T16:40:26Z</time>
      </trkpt>
      <trkpt lat="49.77349" lon="4.82573">
        <ele>217.9</ele>
        <time>2021-04-20T16:40:29Z</time>
      </trkpt>
      <trkpt lat="49.77345" lon="4.82576">
        <ele>218.16</ele>
        <time>2021-04-20T16:40:32Z</time>
      </trkpt>
      <trkpt lat="49.77342" lon="4.8258">
        <ele>218.49</ele>
        <time>2021-04-20T16:40:35Z</time>
      </trkpt>
      <trkpt lat="49.77339" lon="4.82583">
        <ele>218.77</ele>
        <time>2021-04-20T16:40:38Z</time>
      </trkpt>
      <trkpt lat="49.77337" lon="4.82585">
        <ele>219.05</ele>
        <time>2021-04-20T16:40:41Z</time>
      </trkpt>
      <trkpt lat="49.77334" lon="4.82586">
        <ele>219.26</ele>
        <time>2021-04-20T16:40:44Z</time>
      </trkpt>
      <trkpt lat="49.7733" lon="4.8259">
        <ele>219.66</ele>
        <time>2021-04-20T16:40:47Z</time>
      </trkpt>
      <trkpt lat="49.77328" lon="4.82593">
        <ele>219.99</ele>
        <time>2021-04-20T16:40:49Z</time>
      </trkpt>
      <trkpt lat="49.77325" lon="4.82597">
        <ele>220.47</ele>
        <time>2021-04-20T16:40:51Z</time>
      </trkpt>
      <trkpt lat="49.77322" lon="4.82601">
        <ele>221.02</ele>
        <time>2021-04-20T16:40:54Z</time>
      </trkpt>
      <trkpt lat="49.77322" lon="4.82606">
        <ele>221.71</ele>
        <time>2021-04-20T16:40:57Z</time>
      </trkpt>
      <trkpt lat="49.77325" lon="4.8261">
        <ele>222.16</ele>
        <time>2021-04-20T16:41:01Z</time>
      </trkpt>
      <trkpt lat="49.77327" lon="4.82613">
        <ele>222.42</ele>
        <time>2021-04-20T16:41:03Z</time>
      </trkpt>
      <trkpt lat="49.7733" lon="4.82617">
        <ele>222.73</ele>
        <time>2021-04-20T16:41:06Z</time>
      </trkpt>
      <trkpt lat="49.77333" lon="4.82619">
        <ele>222.86</ele>
        <time>2021-04-20T16:41:09Z</time>
      </trkpt>
      <trkpt lat="49.77336" lon="4.82619">
        <ele>222.78</ele>
        <time>2021-04-20T16:41:13Z</time>
      </trkpt>
      <trkpt lat="49.77339" lon="4.82617">
        <ele>222.48</ele>
        <time>2021-04-20T16:41:17Z</time>
      </trkpt>
      <trkpt lat="49.77341" lon="4.82617">
        <ele>222.42</ele>
        <time>2021-04-20T16:41:25Z</time>
      </trkpt>
      <trkpt lat="49.77344" lon="4.82618">
        <ele>222.46</ele>
        <time>2021-04-20T16:41:29Z</time>
      </trkpt>
      <trkpt lat="49.77348" lon="4.82619">
        <ele>222.47</ele>
        <time>2021-04-20T16:41:32Z</time>
      </trkpt>
      <trkpt lat="49.77351" lon="4.8262">
        <ele>222.53</ele>
        <time>2021-04-20T16:41:35Z</time>
      </trkpt>
      <trkpt lat="49.77354" lon="4.82622">
        <ele>222.72</ele>
        <time>2021-04-20T16:41:38Z</time>
      </trkpt>
      <trkpt lat="49.77356" lon="4.82625">
        <ele>223.09</ele>
        <time>2021-04-20T16:41:41Z</time>
      </trkpt>
      <trkpt lat="49.7736" lon="4.82627">
        <ele>223.31</ele>
        <time>2021-04-20T16:41:44Z</time>
      </trkpt>
      <trkpt lat="49.77363" lon="4.82628">
        <ele>223.49</ele>
        <time>2021-04-20T16:41:47Z</time>
      </trkpt>
      <trkpt lat="49.77365" lon="4.82632">
        <ele>224.18</ele>
        <time>2021-04-20T16:41:53Z</time>
      </trkpt>
      <trkpt lat="49.77366" lon="4.82637">
        <ele>225.04</ele>
        <time>2021-04-20T16:41:57Z</time>
      </trkpt>
      <trkpt lat="49.77369" lon="4.82639">
        <ele>225.59</ele>
        <time>2021-04-20T16:42:08Z</time>
      </trkpt>
      <trkpt lat="49.77371" lon="4.82645">
        <ele>227.11</ele>
        <time>2021-04-20T16:42:11Z</time>
      </trkpt>
      <trkpt lat="49.77371" lon="4.8265">
        <ele>228.25</ele>
        <time>2021-04-20T16:42:14Z</time>
      </trkpt>
      <trkpt lat="49.77371" lon="4.82654">
        <ele>229.17</ele>
        <time>2021-04-20T16:42:18Z</time>
      </trkpt>
      <trkpt lat="49.77372" lon="4.82659">
        <ele>230.41</ele>
        <time>2021-04-20T16:42:20Z</time>
      </trkpt>
      <trkpt lat="49.77372" lon="4.82664">
        <ele>231.56</ele>
        <time>2021-04-20T16:42:23Z</time>
      </trkpt>
      <trkpt lat="49.77373" lon="4.8267">
        <ele>232.34</ele>
        <time>2021-04-20T16:42:26Z</time>
      </trkpt>
      <trkpt lat="49.77373" lon="4.82674">
        <ele>232.4</ele>
        <time>2021-04-20T16:42:28Z</time>
      </trkpt>
      <trkpt lat="49.77373" lon="4.82679">
        <ele>232.47</ele>
        <time>2021-04-20T16:42:31Z</time>
      </trkpt>
      <trkpt lat="49.77374" lon="4.82684">
        <ele>232.68</ele>
        <time>2021-04-20T16:42:34Z</time>
      </trkpt>
      <trkpt lat="49.77375" lon="4.82689">
        <ele>232.9</ele>
        <time>2021-04-20T16:42:37Z</time>
      </trkpt>
      <trkpt lat="49.77376" lon="4.82693">
        <ele>233.12</ele>
        <time>2021-04-20T16:42:40Z</time>
      </trkpt>
      <trkpt lat="49.77377" lon="4.82698">
        <ele>233.21</ele>
        <time>2021-04-20T16:42:44Z</time>
      </trkpt>
      <trkpt lat="49.77378" lon="4.82703">
        <ele>233.24</ele>
        <time>2021-04-20T16:42:47Z</time>
      </trkpt>
      <trkpt lat="49.77381" lon="4.82707">
        <ele>233.54</ele>
        <time>2021-04-20T16:42:49Z</time>
      </trkpt>
      <trkpt lat="49.77383" lon="4.8271">
        <ele>233.71</ele>
        <time>2021-04-20T16:42:51Z</time>
      </trkpt>
      <trkpt lat="49.77386" lon="4.82714">
        <ele>233.95</ele>
        <time>2021-04-20T16:42:53Z</time>
      </trkpt>
      <trkpt lat="49.77388" lon="4.82717">
        <ele>234.09</ele>
        <time>2021-04-20T16:42:55Z</time>
      </trkpt>
      <trkpt lat="49.7739" lon="4.8272">
        <ele>234.2</ele>
        <time>2021-04-20T16:42:57Z</time>
      </trkpt>
      <trkpt lat="49.77393" lon="4.82722">
        <ele>234.45</ele>
        <time>2021-04-20T16:42:59Z</time>
      </trkpt>
      <trkpt lat="49.77395" lon="4.82724">
        <ele>234.6</ele>
        <time>2021-04-20T16:43:01Z</time>
      </trkpt>
      <trkpt lat="49.77398" lon="4.82726">
        <ele>234.85</ele>
        <time>2021-04-20T16:43:03Z</time>
      </trkpt>
      <trkpt lat="49.774" lon="4.82729">
        <ele>234.96</ele>
        <time>2021-04-20T16:43:06Z</time>
      </trkpt>
      <trkpt lat="49.77403" lon="4.82731">
        <ele>235.21</ele>
        <time>2021-04-20T16:43:09Z</time>
      </trkpt>
      <trkpt lat="49.77406" lon="4.82735">
        <ele>235.39</ele>
        <time>2021-04-20T16:43:12Z</time>
      </trkpt>
      <trkpt lat="49.77407" lon="4.82739">
        <ele>235.35</ele>
        <time>2021-04-20T16:43:15Z</time>
      </trkpt>
      <trkpt lat="49.7741" lon="4.82742">
        <ele>235.57</ele>
        <time>2021-04-20T16:43:18Z</time>
      </trkpt>
      <trkpt lat="49.77411" lon="4.82748">
        <ele>235.46</ele>
        <time>2021-04-20T16:43:21Z</time>
      </trkpt>
      <trkpt lat="49.77413" lon="4.82751">
        <ele>235.54</ele>
        <time>2021-04-20T16:43:24Z</time>
      </trkpt>
      <trkpt lat="49.77415" lon="4.82754">
        <ele>235.54</ele>
        <time>2021-04-20T16:43:27Z</time>
      </trkpt>
      <trkpt lat="49.77418" lon="4.82756">
        <ele>235.72</ele>
        <time>2021-04-20T16:43:30Z</time>
      </trkpt>
      <trkpt lat="49.77421" lon="4.82761">
        <ele>235.74</ele>
        <time>2021-04-20T16:43:33Z</time>
      </trkpt>
      <trkpt lat="49.77425" lon="4.82764">
        <ele>236.04</ele>
        <time>2021-04-20T16:43:35Z</time>
      </trkpt>
      <trkpt lat="49.77427" lon="4.82767">
        <ele>236.12</ele>
        <time>2021-04-20T16:43:37Z</time>
      </trkpt>
      <trkpt lat="49.7743" lon="4.82771">
        <ele>236.29</ele>
        <time>2021-04-20T16:43:39Z</time>
      </trkpt>
      <trkpt lat="49.77432" lon="4.82775">
        <ele>236.35</ele>
        <time>2021-04-20T16:43:41Z</time>
      </trkpt>
      <trkpt lat="49.77434" lon="4.82778">
        <ele>236.5</ele>
        <time>2021-04-20T16:43:43Z</time>
      </trkpt>
      <trkpt lat="49.77436" lon="4.82781">
        <ele>236.78</ele>
        <time>2021-04-20T16:43:45Z</time>
      </trkpt>
      <trkpt lat="49.77439" lon="4.82785">
        <ele>237.22</ele>
        <time>2021-04-20T16:43:48Z</time>
      </trkpt>
      <trkpt lat="49.77442" lon="4.8279">
        <ele>237.65</ele>
        <time>2021-04-20T16:43:51Z</time>
      </trkpt>
      <trkpt lat="49.77443" lon="4.82795">
        <ele>237.79</ele>
        <time>2021-04-20T16:43:54Z</time>
      </trkpt>
      <trkpt lat="49.77445" lon="4.82799">
        <ele>238.01</ele>
        <time>2021-04-20T16:43:57Z</time>
      </trkpt>
      <trkpt lat="49.77448" lon="4.82802">
        <ele>238.1</ele>
        <time>2021-04-20T16:43:59Z</time>
      </trkpt>
      <trkpt lat="49.7745" lon="4.82805">
        <ele>238.19</ele>
        <time>2021-04-20T16:44:01Z</time>
      </trkpt>
      <trkpt lat="49.77452" lon="4.82809">
        <ele>238.4</ele>
        <time>2021-04-20T16:44:04Z</time>
      </trkpt>
      <trkpt lat="49.77453" lon="4.82815">
        <ele>238.65</ele>
        <time>2021-04-20T16:44:07Z</time>
      </trkpt>
      <trkpt lat="49.77454" lon="4.82819">
        <ele>238.83</ele>
        <time>2021-04-20T16:44:10Z</time>
      </trkpt>
      <trkpt lat="49.77456" lon="4.82822">
        <ele>239.01</ele>
        <time>2021-04-20T16:44:13Z</time>
      </trkpt>
      <trkpt lat="49.77458" lon="4.82827">
        <ele>239.26</ele>
        <time>2021-04-20T16:44:16Z</time>
      </trkpt>
      <trkpt lat="49.77459" lon="4.82832">
        <ele>239.48</ele>
        <time>2021-04-20T16:44:19Z</time>
      </trkpt>
      <trkpt lat="49.77461" lon="4.82837">
        <ele>239.67</ele>
        <time>2021-04-20T16:44:22Z</time>
      </trkpt>
      <trkpt lat="49.77462" lon="4.82841">
        <ele>239.81</ele>
        <time>2021-04-20T16:44:25Z</time>
      </trkpt>
      <trkpt lat="49.77463" lon="4.82849">
        <ele>240.04</ele>
        <time>2021-04-20T16:44:28Z</time>
      </trkpt>
      <trkpt lat="49.77463" lon="4.82854">
        <ele>240.16</ele>
        <time>2021-04-20T16:44:30Z</time>
      </trkpt>
      <trkpt lat="49.77464" lon="4.8286">
        <ele>240.38</ele>
        <time>2021-04-20T16:44:32Z</time>
      </trkpt>
      <trkpt lat="49.77466" lon="4.82864">
        <ele>240.79</ele>
        <time>2021-04-20T16:44:34Z</time>
      </trkpt>
      <trkpt lat="49.77468" lon="4.82869">
        <ele>241.42</ele>
        <time>2021-04-20T16:44:36Z</time>
      </trkpt>
      <trkpt lat="49.7747" lon="4.82873">
        <ele>242.02</ele>
        <time>2021-04-20T16:44:38Z</time>
      </trkpt>
      <trkpt lat="49.77472" lon="4.82877">
        <ele>242.69</ele>
        <time>2021-04-20T16:44:40Z</time>
      </trkpt>
      <trkpt lat="49.77474" lon="4.82881">
        <ele>243.11</ele>
        <time>2021-04-20T16:44:43Z</time>
      </trkpt>
      <trkpt lat="49.77477" lon="4.82885">
        <ele>243.53</ele>
        <time>2021-04-20T16:44:46Z</time>
      </trkpt>
      <trkpt lat="49.77479" lon="4.82887">
        <ele>243.76</ele>
        <time>2021-04-20T16:44:48Z</time>
      </trkpt>
      <trkpt lat="49.77481" lon="4.8289">
        <ele>244.15</ele>
        <time>2021-04-20T16:44:51Z</time>
      </trkpt>
      <trkpt lat="49.77483" lon="4.82894">
        <ele>244.69</ele>
        <time>2021-04-20T16:44:54Z</time>
      </trkpt>
      <trkpt lat="49.77486" lon="4.82896">
        <ele>245.02</ele>
        <time>2021-04-20T16:44:57Z</time>
      </trkpt>
      <trkpt lat="49.77486" lon="4.82901">
        <ele>245.74</ele>
        <time>2021-04-20T16:45:01Z</time>
      </trkpt>
      <trkpt lat="49.77486" lon="4.82906">
        <ele>246.46</ele>
        <time>2021-04-20T16:45:04Z</time>
      </trkpt>
      <trkpt lat="49.77484" lon="4.82909">
        <ele>246.79</ele>
        <time>2021-04-20T16:45:07Z</time>
      </trkpt>
      <trkpt lat="49.77481" lon="4.82912">
        <ele>247.02</ele>
        <time>2021-04-20T16:45:11Z</time>
      </trkpt>
      <trkpt lat="49.77478" lon="4.82912">
        <ele>246.84</ele>
        <time>2021-04-20T16:45:14Z</time>
      </trkpt>
      <trkpt lat="49.77475" lon="4.82914">
        <ele>246.89</ele>
        <time>2021-04-20T16:45:17Z</time>
      </trkpt>
      <trkpt lat="49.77471" lon="4.82915">
        <ele>246.52</ele>
        <time>2021-04-20T16:45:20Z</time>
      </trkpt>
      <trkpt lat="49.77468" lon="4.82915">
        <ele>245.77</ele>
        <time>2021-04-20T16:45:23Z</time>
      </trkpt>
      <trkpt lat="49.77464" lon="4.82915">
        <ele>244.78</ele>
        <time>2021-04-20T16:45:26Z</time>
      </trkpt>
      <trkpt lat="49.77461" lon="4.82914">
        <ele>243.96</ele>
        <time>2021-04-20T16:45:29Z</time>
      </trkpt>
      <trkpt lat="49.77457" lon="4.82913">
        <ele>242.91</ele>
        <time>2021-04-20T16:45:32Z</time>
      </trkpt>
      <trkpt lat="49.77454" lon="4.82911">
        <ele>242.06</ele>
        <time>2021-04-20T16:45:35Z</time>
      </trkpt>
      <trkpt lat="49.77451" lon="4.8291">
        <ele>241.3</ele>
        <time>2021-04-20T16:45:38Z</time>
      </trkpt>
      <trkpt lat="49.77448" lon="4.82911">
        <ele>240.64</ele>
        <time>2021-04-20T16:45:40Z</time>
      </trkpt>
      <trkpt lat="49.77445" lon="4.82911">
        <ele>239.93</ele>
        <time>2021-04-20T16:45:42Z</time>
      </trkpt>
      <trkpt lat="49.77441" lon="4.82911">
        <ele>239.82</ele>
        <time>2021-04-20T16:45:45Z</time>
      </trkpt>
      <trkpt lat="49.77438" lon="4.82909">
        <ele>239.79</ele>
        <time>2021-04-20T16:45:48Z</time>
      </trkpt>
      <trkpt lat="49.77435" lon="4.82907">
        <ele>239.77</ele>
        <time>2021-04-20T16:45:50Z</time>
      </trkpt>
      <trkpt lat="49.77432" lon="4.82906">
        <ele>239.79</ele>
        <time>2021-04-20T16:45:52Z</time>
      </trkpt>
      <trkpt lat="49.77429" lon="4.82905">
        <ele>239.81</ele>
        <time>2021-04-20T16:45:54Z</time>
      </trkpt>
      <trkpt lat="49.77426" lon="4.82903">
        <ele>239.83</ele>
        <time>2021-04-20T16:45:57Z</time>
      </trkpt>
      <trkpt lat="49.77423" lon="4.82903">
        <ele>239.89</ele>
        <time>2021-04-20T16:45:59Z</time>
      </trkpt>
      <trkpt lat="49.7742" lon="4.82903">
        <ele>239.94</ele>
        <time>2021-04-20T16:46:01Z</time>
      </trkpt>
      <trkpt lat="49.77417" lon="4.82903">
        <ele>239.99</ele>
        <time>2021-04-20T16:46:03Z</time>
      </trkpt>
      <trkpt lat="49.77414" lon="4.82903">
        <ele>240.1</ele>
        <time>2021-04-20T16:46:05Z</time>
      </trkpt>
      <trkpt lat="49.77411" lon="4.82903">
        <ele>240.21</ele>
        <time>2021-04-20T16:46:08Z</time>
      </trkpt>
      <trkpt lat="49.77408" lon="4.82901">
        <ele>240.27</ele>
        <time>2021-04-20T16:46:11Z</time>
      </trkpt>
      <trkpt lat="49.77404" lon="4.829">
        <ele>240.36</ele>
        <time>2021-04-20T16:46:14Z</time>
      </trkpt>
      <trkpt lat="49.77401" lon="4.829">
        <ele>240.45</ele>
        <time>2021-04-20T16:46:16Z</time>
      </trkpt>
      <trkpt lat="49.77397" lon="4.82899">
        <ele>240.52</ele>
        <time>2021-04-20T16:46:20Z</time>
      </trkpt>
      <trkpt lat="49.77394" lon="4.82898">
        <ele>240.54</ele>
        <time>2021-04-20T16:46:23Z</time>
      </trkpt>
      <trkpt lat="49.7739" lon="4.82896">
        <ele>240.49</ele>
        <time>2021-04-20T16:46:26Z</time>
      </trkpt>
      <trkpt lat="49.77387" lon="4.82896">
        <ele>240.78</ele>
        <time>2021-04-20T16:46:29Z</time>
      </trkpt>
      <trkpt lat="49.77384" lon="4.82895">
        <ele>241.14</ele>
        <time>2021-04-20T16:46:32Z</time>
      </trkpt>
      <trkpt lat="49.77381" lon="4.82893">
        <ele>241.43</ele>
        <time>2021-04-20T16:46:35Z</time>
      </trkpt>
      <trkpt lat="49.77378" lon="4.8289">
        <ele>241.65</ele>
        <time>2021-04-20T16:46:38Z</time>
      </trkpt>
      <trkpt lat="49.77376" lon="4.82889">
        <ele>241.86</ele>
        <time>2021-04-20T16:46:40Z</time>
      </trkpt>
      <trkpt lat="49.77371" lon="4.82887">
        <ele>242.42</ele>
        <time>2021-04-20T16:46:43Z</time>
      </trkpt>
      <trkpt lat="49.77368" lon="4.82886">
        <ele>242.77</ele>
        <time>2021-04-20T16:46:45Z</time>
      </trkpt>
      <trkpt lat="49.77365" lon="4.82884">
        <ele>243.06</ele>
        <time>2021-04-20T16:46:48Z</time>
      </trkpt>
      <trkpt lat="49.77362" lon="4.82883">
        <ele>243.44</ele>
        <time>2021-04-20T16:46:51Z</time>
      </trkpt>
      <trkpt lat="49.77359" lon="4.82885">
        <ele>243.81</ele>
        <time>2021-04-20T16:46:54Z</time>
      </trkpt>
      <trkpt lat="49.77357" lon="4.82889">
        <ele>244.16</ele>
        <time>2021-04-20T16:46:57Z</time>
      </trkpt>
      <trkpt lat="49.77355" lon="4.82893">
        <ele>244.55</ele>
        <time>2021-04-20T16:47:00Z</time>
      </trkpt>
      <trkpt lat="49.77352" lon="4.82894">
        <ele>244.76</ele>
        <time>2021-04-20T16:47:05Z</time>
      </trkpt>
      <trkpt lat="49.77349" lon="4.82894">
        <ele>244.88</ele>
        <time>2021-04-20T16:47:08Z</time>
      </trkpt>
      <trkpt lat="49.77346" lon="4.82893">
        <ele>244.92</ele>
        <time>2021-04-20T16:47:11Z</time>
      </trkpt>
      <trkpt lat="49.77344" lon="4.82892">
        <ele>244.91</ele>
        <time>2021-04-20T16:47:13Z</time>
      </trkpt>
      <trkpt lat="49.7734" lon="4.82891">
        <ele>244.97</ele>
        <time>2021-04-20T16:47:15Z</time>
      </trkpt>
      <trkpt lat="49.77336" lon="4.8289">
        <ele>245.02</ele>
        <time>2021-04-20T16:47:17Z</time>
      </trkpt>
      <trkpt lat="49.77333" lon="4.82889">
        <ele>245.05</ele>
        <time>2021-04-20T16:47:19Z</time>
      </trkpt>
      <trkpt lat="49.77331" lon="4.82888">
        <ele>245.22</ele>
        <time>2021-04-20T16:47:22Z</time>
      </trkpt>
      <trkpt lat="49.77328" lon="4.82885">
        <ele>245.44</ele>
        <time>2021-04-20T16:47:26Z</time>
      </trkpt>
      <trkpt lat="49.77326" lon="4.82882">
        <ele>245.54</ele>
        <time>2021-04-20T16:47:28Z</time>
      </trkpt>
      <trkpt lat="49.77323" lon="4.82879">
        <ele>245.76</ele>
        <time>2021-04-20T16:47:31Z</time>
      </trkpt>
      <trkpt lat="49.7732" lon="4.82877">
        <ele>246.01</ele>
        <time>2021-04-20T16:47:35Z</time>
      </trkpt>
      <trkpt lat="49.77317" lon="4.82875">
        <ele>246.26</ele>
        <time>2021-04-20T16:47:38Z</time>
      </trkpt>
      <trkpt lat="49.77314" lon="4.82872">
        <ele>246.48</ele>
        <time>2021-04-20T16:47:41Z</time>
      </trkpt>
      <trkpt lat="49.77312" lon="4.82868">
        <ele>246.55</ele>
        <time>2021-04-20T16:47:45Z</time>
      </trkpt>
      <trkpt lat="49.7731" lon="4.82864">
        <ele>246.62</ele>
        <time>2021-04-20T16:47:49Z</time>
      </trkpt>
      <trkpt lat="49.77307" lon="4.82861">
        <ele>246.83</ele>
        <time>2021-04-20T16:47:52Z</time>
      </trkpt>
      <trkpt lat="49.77304" lon="4.82857">
        <ele>246.52</ele>
        <time>2021-04-20T16:47:55Z</time>
      </trkpt>
      <trkpt lat="49.77301" lon="4.82854">
        <ele>246.15</ele>
        <time>2021-04-20T16:47:58Z</time>
      </trkpt>
      <trkpt lat="49.77299" lon="4.82851">
        <ele>245.84</ele>
        <time>2021-04-20T16:48:01Z</time>
      </trkpt>
      <trkpt lat="49.77296" lon="4.82848">
        <ele>245.56</ele>
        <time>2021-04-20T16:48:04Z</time>
      </trkpt>
      <trkpt lat="49.77292" lon="4.82845">
        <ele>245.34</ele>
        <time>2021-04-20T16:48:07Z</time>
      </trkpt>
      <trkpt lat="49.77289" lon="4.82844">
        <ele>245.29</ele>
        <time>2021-04-20T16:48:10Z</time>
      </trkpt>
      <trkpt lat="49.77285" lon="4.82842">
        <ele>245.21</ele>
        <time>2021-04-20T16:48:13Z</time>
      </trkpt>
      <trkpt lat="49.77282" lon="4.82838">
        <ele>245.07</ele>
        <time>2021-04-20T16:48:16Z</time>
      </trkpt>
      <trkpt lat="49.7728" lon="4.82836">
        <ele>245.03</ele>
        <time>2021-04-20T16:48:18Z</time>
      </trkpt>
      <trkpt lat="49.77278" lon="4.82832">
        <ele>244.99</ele>
        <time>2021-04-20T16:48:21Z</time>
      </trkpt>
      <trkpt lat="49.77275" lon="4.82829">
        <ele>245.18</ele>
        <time>2021-04-20T16:48:24Z</time>
      </trkpt>
      <trkpt lat="49.77272" lon="4.82825">
        <ele>245.35</ele>
        <time>2021-04-20T16:48:27Z</time>
      </trkpt>
      <trkpt lat="49.77269" lon="4.82823">
        <ele>245.51</ele>
        <time>2021-04-20T16:48:30Z</time>
      </trkpt>
      <trkpt lat="49.77266" lon="4.82821">
        <ele>245.66</ele>
        <time>2021-04-20T16:48:33Z</time>
      </trkpt>
      <trkpt lat="49.77264" lon="4.82818">
        <ele>245.72</ele>
        <time>2021-04-20T16:48:36Z</time>
      </trkpt>
      <trkpt lat="49.77261" lon="4.82813">
        <ele>245.77</ele>
        <time>2021-04-20T16:48:39Z</time>
      </trkpt>
      <trkpt lat="49.77259" lon="4.82811">
        <ele>245.81</ele>
        <time>2021-04-20T16:48:41Z</time>
      </trkpt>
      <trkpt lat="49.77256" lon="4.82808">
        <ele>245.85</ele>
        <time>2021-04-20T16:48:44Z</time>
      </trkpt>
      <trkpt lat="49.77253" lon="4.82804">
        <ele>245.79</ele>
        <time>2021-04-20T16:48:47Z</time>
      </trkpt>
      <trkpt lat="49.77251" lon="4.82801">
        <ele>245.64</ele>
        <time>2021-04-20T16:48:49Z</time>
      </trkpt>
      <trkpt lat="49.77249" lon="4.82797">
        <ele>245.43</ele>
        <time>2021-04-20T16:48:51Z</time>
      </trkpt>
      <trkpt lat="49.77247" lon="4.82793">
        <ele>245.25</ele>
        <time>2021-04-20T16:48:53Z</time>
      </trkpt>
      <trkpt lat="49.77244" lon="4.8279">
        <ele>245.22</ele>
        <time>2021-04-20T16:48:56Z</time>
      </trkpt>
      <trkpt lat="49.77241" lon="4.82786">
        <ele>245.14</ele>
        <time>2021-04-20T16:48:59Z</time>
      </trkpt>
      <trkpt lat="49.77239" lon="4.82783">
        <ele>245.09</ele>
        <time>2021-04-20T16:49:01Z</time>
      </trkpt>
      <trkpt lat="49.77236" lon="4.8278">
        <ele>245.13</ele>
        <time>2021-04-20T16:49:04Z</time>
      </trkpt>
      <trkpt lat="49.77233" lon="4.82778">
        <ele>245.24</ele>
        <time>2021-04-20T16:49:06Z</time>
      </trkpt>
      <trkpt lat="49.7723" lon="4.82776">
        <ele>245.33</ele>
        <time>2021-04-20T16:49:08Z</time>
      </trkpt>
      <trkpt lat="49.77227" lon="4.82775">
        <ele>245.47</ele>
        <time>2021-04-20T16:49:10Z</time>
      </trkpt>
      <trkpt lat="49.77224" lon="4.82775">
        <ele>245.68</ele>
        <time>2021-04-20T16:49:12Z</time>
      </trkpt>
      <trkpt lat="49.77221" lon="4.82775">
        <ele>245.77</ele>
        <time>2021-04-20T16:49:14Z</time>
      </trkpt>
      <trkpt lat="49.77218" lon="4.82774">
        <ele>245.64</ele>
        <time>2021-04-20T16:49:16Z</time>
      </trkpt>
      <trkpt lat="49.77215" lon="4.82772">
        <ele>245.49</ele>
        <time>2021-04-20T16:49:19Z</time>
      </trkpt>
      <trkpt lat="49.77212" lon="4.8277">
        <ele>245.38</ele>
        <time>2021-04-20T16:49:21Z</time>
      </trkpt>
      <trkpt lat="49.77209" lon="4.82767">
        <ele>245.3</ele>
        <time>2021-04-20T16:49:25Z</time>
      </trkpt>
      <trkpt lat="49.77207" lon="4.82764">
        <ele>245.28</ele>
        <time>2021-04-20T16:49:28Z</time>
      </trkpt>
      <trkpt lat="49.77205" lon="4.8276">
        <ele>245.29</ele>
        <time>2021-04-20T16:49:31Z</time>
      </trkpt>
      <trkpt lat="49.77202" lon="4.82757">
        <ele>245.41</ele>
        <time>2021-04-20T16:49:34Z</time>
      </trkpt>
      <trkpt lat="49.77199" lon="4.82754">
        <ele>245.6</ele>
        <time>2021-04-20T16:49:36Z</time>
      </trkpt>
      <trkpt lat="49.77196" lon="4.82751">
        <ele>245.86</ele>
        <time>2021-04-20T16:49:38Z</time>
      </trkpt>
      <trkpt lat="49.77194" lon="4.82749">
        <ele>245.85</ele>
        <time>2021-04-20T16:49:40Z</time>
      </trkpt>
      <trkpt lat="49.77191" lon="4.82747">
        <ele>245.36</ele>
        <time>2021-04-20T16:49:44Z</time>
      </trkpt>
      <trkpt lat="49.77188" lon="4.82745">
        <ele>244.93</ele>
        <time>2021-04-20T16:49:48Z</time>
      </trkpt>
      <trkpt lat="49.77185" lon="4.82741">
        <ele>244.45</ele>
        <time>2021-04-20T16:49:51Z</time>
      </trkpt>
      <trkpt lat="49.77182" lon="4.82737">
        <ele>244.09</ele>
        <time>2021-04-20T16:49:54Z</time>
      </trkpt>
      <trkpt lat="49.7718" lon="4.82736">
        <ele>243.98</ele>
        <time>2021-04-20T16:49:56Z</time>
      </trkpt>
      <trkpt lat="49.77176" lon="4.82734">
        <ele>243.81</ele>
        <time>2021-04-20T16:49:59Z</time>
      </trkpt>
      <trkpt lat="49.77174" lon="4.8273">
        <ele>243.75</ele>
        <time>2021-04-20T16:50:02Z</time>
      </trkpt>
      <trkpt lat="49.77171" lon="4.82726">
        <ele>243.79</ele>
        <time>2021-04-20T16:50:05Z</time>
      </trkpt>
      <trkpt lat="49.77168" lon="4.82723">
        <ele>243.93</ele>
        <time>2021-04-20T16:50:08Z</time>
      </trkpt>
      <trkpt lat="49.77166" lon="4.8272">
        <ele>243.93</ele>
        <time>2021-04-20T16:50:11Z</time>
      </trkpt>
      <trkpt lat="49.77162" lon="4.82716">
        <ele>243.61</ele>
        <time>2021-04-20T16:50:14Z</time>
      </trkpt>
      <trkpt lat="49.7716" lon="4.82714">
        <ele>243.49</ele>
        <time>2021-04-20T16:50:16Z</time>
      </trkpt>
      <trkpt lat="49.77157" lon="4.82713">
        <ele>243.3</ele>
        <time>2021-04-20T16:50:18Z</time>
      </trkpt>
      <trkpt lat="49.77154" lon="4.8271">
        <ele>243.23</ele>
        <time>2021-04-20T16:50:21Z</time>
      </trkpt>
      <trkpt lat="49.77151" lon="4.82707">
        <ele>243.24</ele>
        <time>2021-04-20T16:50:24Z</time>
      </trkpt>
      <trkpt lat="49.77149" lon="4.82704">
        <ele>243.34</ele>
        <time>2021-04-20T16:50:27Z</time>
      </trkpt>
      <trkpt lat="49.77146" lon="4.82702">
        <ele>243.39</ele>
        <time>2021-04-20T16:50:30Z</time>
      </trkpt>
      <trkpt lat="49.77143" lon="4.827">
        <ele>243.49</ele>
        <time>2021-04-20T16:50:33Z</time>
      </trkpt>
      <trkpt lat="49.77141" lon="4.82697">
        <ele>243.74</ele>
        <time>2021-04-20T16:50:36Z</time>
      </trkpt>
      <trkpt lat="49.77138" lon="4.82694">
        <ele>244.03</ele>
        <time>2021-04-20T16:50:39Z</time>
      </trkpt>
      <trkpt lat="49.77135" lon="4.8269">
        <ele>244.12</ele>
        <time>2021-04-20T16:50:42Z</time>
      </trkpt>
      <trkpt lat="49.77132" lon="4.82688">
        <ele>244.19</ele>
        <time>2021-04-20T16:50:44Z</time>
      </trkpt>
      <trkpt lat="49.77129" lon="4.82686">
        <ele>244.25</ele>
        <time>2021-04-20T16:50:47Z</time>
      </trkpt>
      <trkpt lat="49.77127" lon="4.82684">
        <ele>244.27</ele>
        <time>2021-04-20T16:50:50Z</time>
      </trkpt>
      <trkpt lat="49.77123" lon="4.82682">
        <ele>244.32</ele>
        <time>2021-04-20T16:50:53Z</time>
      </trkpt>
      <trkpt lat="49.7712" lon="4.8268">
        <ele>244.33</ele>
        <time>2021-04-20T16:50:56Z</time>
      </trkpt>
      <trkpt lat="49.77117" lon="4.82678">
        <ele>244.32</ele>
        <time>2021-04-20T16:50:59Z</time>
      </trkpt>
      <trkpt lat="49.77115" lon="4.82677">
        <ele>244.32</ele>
        <time>2021-04-20T16:51:01Z</time>
      </trkpt>
      <trkpt lat="49.77111" lon="4.82676">
        <ele>244.34</ele>
        <time>2021-04-20T16:51:04Z</time>
      </trkpt>
      <trkpt lat="49.77108" lon="4.82672">
        <ele>244.28</ele>
        <time>2021-04-20T16:51:07Z</time>
      </trkpt>
      <trkpt lat="49.77106" lon="4.8267">
        <ele>244.28</ele>
        <time>2021-04-20T16:51:09Z</time>
      </trkpt>
      <trkpt lat="49.77104" lon="4.82667">
        <ele>244.26</ele>
        <time>2021-04-20T16:51:11Z</time>
      </trkpt>
      <trkpt lat="49.77101" lon="4.82664">
        <ele>244.16</ele>
        <time>2021-04-20T16:51:14Z</time>
      </trkpt>
      <trkpt lat="49.77098" lon="4.82662">
        <ele>244.07</ele>
        <time>2021-04-20T16:51:17Z</time>
      </trkpt>
      <trkpt lat="49.77094" lon="4.8266">
        <ele>243.93</ele>
        <time>2021-04-20T16:51:20Z</time>
      </trkpt>
      <trkpt lat="49.77091" lon="4.82658">
        <ele>243.73</ele>
        <time>2021-04-20T16:51:23Z</time>
      </trkpt>
      <trkpt lat="49.77088" lon="4.82657">
        <ele>243.62</ele>
        <time>2021-04-20T16:51:25Z</time>
      </trkpt>
      <trkpt lat="49.77085" lon="4.82655">
        <ele>243.34</ele>
        <time>2021-04-20T16:51:27Z</time>
      </trkpt>
      <trkpt lat="49.77081" lon="4.82652">
        <ele>242.73</ele>
        <time>2021-04-20T16:51:30Z</time>
      </trkpt>
      <trkpt lat="49.77079" lon="4.8265">
        <ele>242.35</ele>
        <time>2021-04-20T16:51:32Z</time>
      </trkpt>
      <trkpt lat="49.77076" lon="4.82647">
        <ele>241.86</ele>
        <time>2021-04-20T16:51:35Z</time>
      </trkpt>
      <trkpt lat="49.77073" lon="4.82643">
        <ele>241.37</ele>
        <time>2021-04-20T16:51:38Z</time>
      </trkpt>
      <trkpt lat="49.77071" lon="4.82642">
        <ele>241.25</ele>
        <time>2021-04-20T16:51:40Z</time>
      </trkpt>
      <trkpt lat="49.77067" lon="4.82639">
        <ele>241.01</ele>
        <time>2021-04-20T16:51:43Z</time>
      </trkpt>
      <trkpt lat="49.77065" lon="4.82637">
        <ele>240.91</ele>
        <time>2021-04-20T16:51:46Z</time>
      </trkpt>
      <trkpt lat="49.77061" lon="4.82636">
        <ele>240.88</ele>
        <time>2021-04-20T16:51:49Z</time>
      </trkpt>
      <trkpt lat="49.77058" lon="4.82636">
        <ele>240.89</ele>
        <time>2021-04-20T16:51:51Z</time>
      </trkpt>
      <trkpt lat="49.77054" lon="4.82636">
        <ele>240.84</ele>
        <time>2021-04-20T16:51:54Z</time>
      </trkpt>
      <trkpt lat="49.77051" lon="4.82634">
        <ele>240.66</ele>
        <time>2021-04-20T16:51:57Z</time>
      </trkpt>
      <trkpt lat="49.77048" lon="4.82632">
        <ele>240.48</ele>
        <time>2021-04-20T16:52:00Z</time>
      </trkpt>
      <trkpt lat="49.77044" lon="4.82629">
        <ele>240.23</ele>
        <time>2021-04-20T16:52:03Z</time>
      </trkpt>
      <trkpt lat="49.77042" lon="4.82627">
        <ele>240.08</ele>
        <time>2021-04-20T16:52:05Z</time>
      </trkpt>
      <trkpt lat="49.77038" lon="4.82624">
        <ele>239.83</ele>
        <time>2021-04-20T16:52:08Z</time>
      </trkpt>
      <trkpt lat="49.77036" lon="4.82622">
        <ele>239.69</ele>
        <time>2021-04-20T16:52:10Z</time>
      </trkpt>
      <trkpt lat="49.77033" lon="4.8262">
        <ele>239.51</ele>
        <time>2021-04-20T16:52:12Z</time>
      </trkpt>
      <trkpt lat="49.7703" lon="4.82619">
        <ele>239.36</ele>
        <time>2021-04-20T16:52:15Z</time>
      </trkpt>
      <trkpt lat="49.77027" lon="4.82618">
        <ele>239.16</ele>
        <time>2021-04-20T16:52:18Z</time>
      </trkpt>
      <trkpt lat="49.77024" lon="4.82616">
        <ele>238.77</ele>
        <time>2021-04-20T16:52:21Z</time>
      </trkpt>
      <trkpt lat="49.77021" lon="4.82614">
        <ele>238.37</ele>
        <time>2021-04-20T16:52:24Z</time>
      </trkpt>
      <trkpt lat="49.77018" lon="4.82613">
        <ele>238.01</ele>
        <time>2021-04-20T16:52:27Z</time>
      </trkpt>
      <trkpt lat="49.77014" lon="4.82611">
        <ele>237.5</ele>
        <time>2021-04-20T16:52:30Z</time>
      </trkpt>
      <trkpt lat="49.77011" lon="4.82608">
        <ele>236.9</ele>
        <time>2021-04-20T16:52:33Z</time>
      </trkpt>
      <trkpt lat="49.77008" lon="4.82606">
        <ele>236.36</ele>
        <time>2021-04-20T16:52:36Z</time>
      </trkpt>
      <trkpt lat="49.77005" lon="4.82603">
        <ele>235.72</ele>
        <time>2021-04-20T16:52:38Z</time>
      </trkpt>
      <trkpt lat="49.77002" lon="4.82601">
        <ele>235.15</ele>
        <time>2021-04-20T16:52:39Z</time>
      </trkpt>
      <trkpt lat="49.76998" lon="4.82596">
        <ele>234.24</ele>
        <time>2021-04-20T16:52:40Z</time>
      </trkpt>
      <trkpt lat="49.76993" lon="4.82592">
        <ele>233.32</ele>
        <time>2021-04-20T16:52:41Z</time>
      </trkpt>
      <trkpt lat="49.76989" lon="4.82589">
        <ele>232.43</ele>
        <time>2021-04-20T16:52:42Z</time>
      </trkpt>
      <trkpt lat="49.76986" lon="4.82584">
        <ele>231.12</ele>
        <time>2021-04-20T16:52:43Z</time>
      </trkpt>
      <trkpt lat="49.76984" lon="4.82581">
        <ele>230.53</ele>
        <time>2021-04-20T16:52:44Z</time>
      </trkpt>
      <trkpt lat="49.76981" lon="4.82579">
        <ele>229.95</ele>
        <time>2021-04-20T16:52:49Z</time>
      </trkpt>
      <trkpt lat="49.76978" lon="4.82577">
        <ele>229.38</ele>
        <time>2021-04-20T16:52:53Z</time>
      </trkpt>
      <trkpt lat="49.76975" lon="4.82574">
        <ele>228.73</ele>
        <time>2021-04-20T16:52:56Z</time>
      </trkpt>
      <trkpt lat="49.76973" lon="4.8257">
        <ele>228.15</ele>
        <time>2021-04-20T16:52:58Z</time>
      </trkpt>
      <trkpt lat="49.7697" lon="4.82567">
        <ele>227.92</ele>
        <time>2021-04-20T16:53:01Z</time>
      </trkpt>
      <trkpt lat="49.76968" lon="4.82564">
        <ele>227.75</ele>
        <time>2021-04-20T16:53:04Z</time>
      </trkpt>
      <trkpt lat="49.76965" lon="4.8256">
        <ele>227.44</ele>
        <time>2021-04-20T16:53:07Z</time>
      </trkpt>
      <trkpt lat="49.76962" lon="4.82557">
        <ele>227.16</ele>
        <time>2021-04-20T16:53:10Z</time>
      </trkpt>
      <trkpt lat="49.76959" lon="4.82554">
        <ele>226.91</ele>
        <time>2021-04-20T16:53:13Z</time>
      </trkpt>
      <trkpt lat="49.76957" lon="4.82551">
        <ele>226.76</ele>
        <time>2021-04-20T16:53:16Z</time>
      </trkpt>
      <trkpt lat="49.76954" lon="4.82547">
        <ele>226.59</ele>
        <time>2021-04-20T16:53:19Z</time>
      </trkpt>
      <trkpt lat="49.76951" lon="4.82544">
        <ele>226.49</ele>
        <time>2021-04-20T16:53:22Z</time>
      </trkpt>
      <trkpt lat="49.76948" lon="4.8254">
        <ele>226.37</ele>
        <time>2021-04-20T16:53:25Z</time>
      </trkpt>
      <trkpt lat="49.76945" lon="4.82536">
        <ele>226.28</ele>
        <time>2021-04-20T16:53:28Z</time>
      </trkpt>
      <trkpt lat="49.76943" lon="4.82533">
        <ele>226.45</ele>
        <time>2021-04-20T16:53:31Z</time>
      </trkpt>
      <trkpt lat="49.7694" lon="4.8253">
        <ele>226.88</ele>
        <time>2021-04-20T16:53:34Z</time>
      </trkpt>
      <trkpt lat="49.76937" lon="4.82526">
        <ele>227.32</ele>
        <time>2021-04-20T16:53:37Z</time>
      </trkpt>
      <trkpt lat="49.76935" lon="4.82522">
        <ele>227.55</ele>
        <time>2021-04-20T16:53:40Z</time>
      </trkpt>
      <trkpt lat="49.76933" lon="4.82519">
        <ele>227.73</ele>
        <time>2021-04-20T16:53:42Z</time>
      </trkpt>
      <trkpt lat="49.7693" lon="4.82516">
        <ele>227.92</ele>
        <time>2021-04-20T16:53:44Z</time>
      </trkpt>
      <trkpt lat="49.76927" lon="4.82513">
        <ele>228</ele>
        <time>2021-04-20T16:53:47Z</time>
      </trkpt>
      <trkpt lat="49.76925" lon="4.8251">
        <ele>227.9</ele>
        <time>2021-04-20T16:53:50Z</time>
      </trkpt>
      <trkpt lat="49.76922" lon="4.82506">
        <ele>227.66</ele>
        <time>2021-04-20T16:53:53Z</time>
      </trkpt>
      <trkpt lat="49.7692" lon="4.82502">
        <ele>227.24</ele>
        <time>2021-04-20T16:53:56Z</time>
      </trkpt>
      <trkpt lat="49.76917" lon="4.82499">
        <ele>227.07</ele>
        <time>2021-04-20T16:53:59Z</time>
      </trkpt>
      <trkpt lat="49.76915" lon="4.82496">
        <ele>227.27</ele>
        <time>2021-04-20T16:54:01Z</time>
      </trkpt>
      <trkpt lat="49.76913" lon="4.82493">
        <ele>227.44</ele>
        <time>2021-04-20T16:54:03Z</time>
      </trkpt>
      <trkpt lat="49.76911" lon="4.8249">
        <ele>227.57</ele>
        <time>2021-04-20T16:54:05Z</time>
      </trkpt>
      <trkpt lat="49.76908" lon="4.82486">
        <ele>227.69</ele>
        <time>2021-04-20T16:54:08Z</time>
      </trkpt>
      <trkpt lat="49.76905" lon="4.82483">
        <ele>227.71</ele>
        <time>2021-04-20T16:54:11Z</time>
      </trkpt>
      <trkpt lat="49.76902" lon="4.82479">
        <ele>227.71</ele>
        <time>2021-04-20T16:54:15Z</time>
      </trkpt>
      <trkpt lat="49.769" lon="4.82477">
        <ele>227.66</ele>
        <time>2021-04-20T16:54:18Z</time>
      </trkpt>
      <trkpt lat="49.76897" lon="4.82475">
        <ele>227.53</ele>
        <time>2021-04-20T16:54:22Z</time>
      </trkpt>
      <trkpt lat="49.76895" lon="4.8247">
        <ele>227.44</ele>
        <time>2021-04-20T16:54:25Z</time>
      </trkpt>
      <trkpt lat="49.76893" lon="4.82467">
        <ele>227.3</ele>
        <time>2021-04-20T16:54:28Z</time>
      </trkpt>
      <trkpt lat="49.76891" lon="4.82463">
        <ele>227.15</ele>
        <time>2021-04-20T16:54:31Z</time>
      </trkpt>
      <trkpt lat="49.76888" lon="4.8246">
        <ele>226.95</ele>
        <time>2021-04-20T16:54:34Z</time>
      </trkpt>
      <trkpt lat="49.76885" lon="4.82458">
        <ele>226.79</ele>
        <time>2021-04-20T16:54:36Z</time>
      </trkpt>
      <trkpt lat="49.76882" lon="4.82454">
        <ele>226.59</ele>
        <time>2021-04-20T16:54:39Z</time>
      </trkpt>
      <trkpt lat="49.7688" lon="4.82451">
        <ele>226.44</ele>
        <time>2021-04-20T16:54:41Z</time>
      </trkpt>
      <trkpt lat="49.76878" lon="4.82449">
        <ele>226.28</ele>
        <time>2021-04-20T16:54:43Z</time>
      </trkpt>
      <trkpt lat="49.76875" lon="4.82446">
        <ele>226.03</ele>
        <time>2021-04-20T16:54:46Z</time>
      </trkpt>
      <trkpt lat="49.76872" lon="4.82442">
        <ele>225.7</ele>
        <time>2021-04-20T16:54:49Z</time>
      </trkpt>
      <trkpt lat="49.7687" lon="4.82439">
        <ele>225.44</ele>
        <time>2021-04-20T16:54:52Z</time>
      </trkpt>
      <trkpt lat="49.76867" lon="4.82436">
        <ele>225.12</ele>
        <time>2021-04-20T16:54:55Z</time>
      </trkpt>
      <trkpt lat="49.76865" lon="4.82432">
        <ele>224.83</ele>
        <time>2021-04-20T16:54:59Z</time>
      </trkpt>
      <trkpt lat="49.76863" lon="4.82428">
        <ele>224.54</ele>
        <time>2021-04-20T16:55:02Z</time>
      </trkpt>
      <trkpt lat="49.76861" lon="4.82425">
        <ele>224.3</ele>
        <time>2021-04-20T16:55:05Z</time>
      </trkpt>
      <trkpt lat="49.76858" lon="4.82422">
        <ele>224.08</ele>
        <time>2021-04-20T16:55:08Z</time>
      </trkpt>
      <trkpt lat="49.76855" lon="4.82418">
        <ele>223.83</ele>
        <time>2021-04-20T16:55:11Z</time>
      </trkpt>
      <trkpt lat="49.76852" lon="4.82414">
        <ele>223.7</ele>
        <time>2021-04-20T16:55:14Z</time>
      </trkpt>
      <trkpt lat="49.7685" lon="4.82411">
        <ele>223.68</ele>
        <time>2021-04-20T16:55:17Z</time>
      </trkpt>
      <trkpt lat="49.76848" lon="4.82408">
        <ele>223.68</ele>
        <time>2021-04-20T16:55:20Z</time>
      </trkpt>
      <trkpt lat="49.76846" lon="4.82403">
        <ele>223.72</ele>
        <time>2021-04-20T16:55:23Z</time>
      </trkpt>
      <trkpt lat="49.76845" lon="4.82398">
        <ele>223.81</ele>
        <time>2021-04-20T16:55:25Z</time>
      </trkpt>
      <trkpt lat="49.76843" lon="4.82394">
        <ele>223.88</ele>
        <time>2021-04-20T16:55:28Z</time>
      </trkpt>
      <trkpt lat="49.76842" lon="4.8239">
        <ele>223.97</ele>
        <time>2021-04-20T16:55:31Z</time>
      </trkpt>
      <trkpt lat="49.7684" lon="4.82386">
        <ele>224.08</ele>
        <time>2021-04-20T16:55:34Z</time>
      </trkpt>
      <trkpt lat="49.76839" lon="4.82382">
        <ele>224.2</ele>
        <time>2021-04-20T16:55:37Z</time>
      </trkpt>
      <trkpt lat="49.76837" lon="4.82378">
        <ele>224.34</ele>
        <time>2021-04-20T16:55:40Z</time>
      </trkpt>
      <trkpt lat="49.76835" lon="4.82375">
        <ele>224.47</ele>
        <time>2021-04-20T16:55:42Z</time>
      </trkpt>
      <trkpt lat="49.76834" lon="4.82369">
        <ele>224.7</ele>
        <time>2021-04-20T16:55:45Z</time>
      </trkpt>
      <trkpt lat="49.76833" lon="4.82365">
        <ele>224.84</ele>
        <time>2021-04-20T16:55:48Z</time>
      </trkpt>
      <trkpt lat="49.76832" lon="4.8236">
        <ele>224.86</ele>
        <time>2021-04-20T16:55:51Z</time>
      </trkpt>
      <trkpt lat="49.76831" lon="4.82356">
        <ele>224.65</ele>
        <time>2021-04-20T16:55:53Z</time>
      </trkpt>
      <trkpt lat="49.7683" lon="4.82351">
        <ele>224.4</ele>
        <time>2021-04-20T16:55:56Z</time>
      </trkpt>
      <trkpt lat="49.76829" lon="4.82345">
        <ele>224.11</ele>
        <time>2021-04-20T16:55:59Z</time>
      </trkpt>
      <trkpt lat="49.76829" lon="4.8234">
        <ele>223.93</ele>
        <time>2021-04-20T16:56:02Z</time>
      </trkpt>
      <trkpt lat="49.76829" lon="4.82334">
        <ele>223.71</ele>
        <time>2021-04-20T16:56:05Z</time>
      </trkpt>
      <trkpt lat="49.76829" lon="4.82329">
        <ele>223.53</ele>
        <time>2021-04-20T16:56:08Z</time>
      </trkpt>
      <trkpt lat="49.76829" lon="4.82324">
        <ele>223.35</ele>
        <time>2021-04-20T16:56:11Z</time>
      </trkpt>
      <trkpt lat="49.76829" lon="4.82318">
        <ele>223.14</ele>
        <time>2021-04-20T16:56:14Z</time>
      </trkpt>
      <trkpt lat="49.76828" lon="4.82313">
        <ele>222.88</ele>
        <time>2021-04-20T16:56:17Z</time>
      </trkpt>
      <trkpt lat="49.76827" lon="4.82309">
        <ele>222.67</ele>
        <time>2021-04-20T16:56:20Z</time>
      </trkpt>
      <trkpt lat="49.76826" lon="4.82305">
        <ele>222.46</ele>
        <time>2021-04-20T16:56:23Z</time>
      </trkpt>
      <trkpt lat="49.76826" lon="4.823">
        <ele>222.38</ele>
        <time>2021-04-20T16:56:25Z</time>
      </trkpt>
      <trkpt lat="49.76825" lon="4.82295">
        <ele>222.25</ele>
        <time>2021-04-20T16:56:28Z</time>
      </trkpt>
      <trkpt lat="49.76825" lon="4.82291">
        <ele>222.19</ele>
        <time>2021-04-20T16:56:31Z</time>
      </trkpt>
      <trkpt lat="49.76826" lon="4.82285">
        <ele>222.12</ele>
        <time>2021-04-20T16:56:36Z</time>
      </trkpt>
      <trkpt lat="49.76826" lon="4.82281">
        <ele>222.05</ele>
        <time>2021-04-20T16:56:38Z</time>
      </trkpt>
      <trkpt lat="49.76826" lon="4.82276">
        <ele>222.02</ele>
        <time>2021-04-20T16:56:40Z</time>
      </trkpt>
      <trkpt lat="49.76826" lon="4.82272">
        <ele>222.05</ele>
        <time>2021-04-20T16:56:42Z</time>
      </trkpt>
      <trkpt lat="49.76826" lon="4.82267">
        <ele>222.1</ele>
        <time>2021-04-20T16:56:45Z</time>
      </trkpt>
      <trkpt lat="49.76825" lon="4.82261">
        <ele>222.18</ele>
        <time>2021-04-20T16:56:48Z</time>
      </trkpt>
      <trkpt lat="49.76824" lon="4.82257">
        <ele>222.25</ele>
        <time>2021-04-20T16:56:50Z</time>
      </trkpt>
      <trkpt lat="49.76823" lon="4.82252">
        <ele>222.35</ele>
        <time>2021-04-20T16:56:53Z</time>
      </trkpt>
      <trkpt lat="49.76821" lon="4.82247">
        <ele>222.44</ele>
        <time>2021-04-20T16:56:56Z</time>
      </trkpt>
      <trkpt lat="49.7682" lon="4.82243">
        <ele>222.48</ele>
        <time>2021-04-20T16:56:59Z</time>
      </trkpt>
      <trkpt lat="49.76818" lon="4.82238">
        <ele>222.55</ele>
        <time>2021-04-20T16:57:02Z</time>
      </trkpt>
      <trkpt lat="49.76817" lon="4.82234">
        <ele>222.59</ele>
        <time>2021-04-20T16:57:04Z</time>
      </trkpt>
      <trkpt lat="49.76817" lon="4.82228">
        <ele>222.59</ele>
        <time>2021-04-20T16:57:07Z</time>
      </trkpt>
      <trkpt lat="49.76816" lon="4.82224">
        <ele>222.62</ele>
        <time>2021-04-20T16:57:11Z</time>
      </trkpt>
      <trkpt lat="49.76815" lon="4.82219">
        <ele>222.62</ele>
        <time>2021-04-20T16:57:14Z</time>
      </trkpt>
      <trkpt lat="49.76814" lon="4.82213">
        <ele>222.57</ele>
        <time>2021-04-20T16:57:17Z</time>
      </trkpt>
      <trkpt lat="49.76813" lon="4.82208">
        <ele>222.49</ele>
        <time>2021-04-20T16:57:20Z</time>
      </trkpt>
      <trkpt lat="49.76812" lon="4.82202">
        <ele>222.38</ele>
        <time>2021-04-20T16:57:23Z</time>
      </trkpt>
      <trkpt lat="49.76811" lon="4.82196">
        <ele>222.23</ele>
        <time>2021-04-20T16:57:26Z</time>
      </trkpt>
      <trkpt lat="49.76811" lon="4.82191">
        <ele>222.12</ele>
        <time>2021-04-20T16:57:28Z</time>
      </trkpt>
      <trkpt lat="49.76811" lon="4.82186">
        <ele>222.01</ele>
        <time>2021-04-20T16:57:31Z</time>
      </trkpt>
      <trkpt lat="49.7681" lon="4.82182">
        <ele>221.86</ele>
        <time>2021-04-20T16:57:34Z</time>
      </trkpt>
      <trkpt lat="49.76809" lon="4.82177">
        <ele>221.65</ele>
        <time>2021-04-20T16:57:37Z</time>
      </trkpt>
      <trkpt lat="49.76808" lon="4.82173">
        <ele>221.45</ele>
        <time>2021-04-20T16:57:40Z</time>
      </trkpt>
      <trkpt lat="49.76806" lon="4.82169">
        <ele>221.13</ele>
        <time>2021-04-20T16:57:43Z</time>
      </trkpt>
      <trkpt lat="49.76806" lon="4.82164">
        <ele>221.24</ele>
        <time>2021-04-20T16:57:56Z</time>
      </trkpt>
      <trkpt lat="49.76805" lon="4.8216">
        <ele>221.49</ele>
        <time>2021-04-20T16:58:01Z</time>
      </trkpt>
      <trkpt lat="49.76805" lon="4.82143">
        <ele>222.67</ele>
        <time>2021-04-20T16:58:37Z</time>
      </trkpt>
      <trkpt lat="49.76806" lon="4.82138">
        <ele>223.16</ele>
        <time>2021-04-20T16:58:41Z</time>
      </trkpt>
      <trkpt lat="49.76807" lon="4.82132">
        <ele>223.94</ele>
        <time>2021-04-20T16:58:44Z</time>
      </trkpt>
      <trkpt lat="49.76806" lon="4.82126">
        <ele>224.45</ele>
        <time>2021-04-20T16:58:47Z</time>
      </trkpt>
      <trkpt lat="49.76805" lon="4.82122">
        <ele>224.75</ele>
        <time>2021-04-20T16:58:50Z</time>
      </trkpt>
      <trkpt lat="49.76804" lon="4.82118">
        <ele>225.02</ele>
        <time>2021-04-20T16:58:53Z</time>
      </trkpt>
      <trkpt lat="49.76803" lon="4.82113">
        <ele>225.35</ele>
        <time>2021-04-20T16:58:56Z</time>
      </trkpt>
      <trkpt lat="49.76802" lon="4.82108">
        <ele>225.78</ele>
        <time>2021-04-20T16:58:59Z</time>
      </trkpt>
      <trkpt lat="49.76801" lon="4.82102">
        <ele>226.38</ele>
        <time>2021-04-20T16:59:03Z</time>
      </trkpt>
      <trkpt lat="49.768" lon="4.82096">
        <ele>226.96</ele>
        <time>2021-04-20T16:59:06Z</time>
      </trkpt>
      <trkpt lat="49.76799" lon="4.82092">
        <ele>227.25</ele>
        <time>2021-04-20T16:59:08Z</time>
      </trkpt>
      <trkpt lat="49.76798" lon="4.82086">
        <ele>227.76</ele>
        <time>2021-04-20T16:59:11Z</time>
      </trkpt>
      <trkpt lat="49.76797" lon="4.8208">
        <ele>228.2</ele>
        <time>2021-04-20T16:59:14Z</time>
      </trkpt>
      <trkpt lat="49.76796" lon="4.82076">
        <ele>228.38</ele>
        <time>2021-04-20T16:59:17Z</time>
      </trkpt>
      <trkpt lat="49.76795" lon="4.8207">
        <ele>228.78</ele>
        <time>2021-04-20T16:59:21Z</time>
      </trkpt>
      <trkpt lat="49.76794" lon="4.82064">
        <ele>229.18</ele>
        <time>2021-04-20T16:59:24Z</time>
      </trkpt>
      <trkpt lat="49.76794" lon="4.82058">
        <ele>229.82</ele>
        <time>2021-04-20T16:59:27Z</time>
      </trkpt>
      <trkpt lat="49.76794" lon="4.82052">
        <ele>230.22</ele>
        <time>2021-04-20T16:59:30Z</time>
      </trkpt>
      <trkpt lat="49.76793" lon="4.82048">
        <ele>230.11</ele>
        <time>2021-04-20T16:59:32Z</time>
      </trkpt>
      <trkpt lat="49.76792" lon="4.82043">
        <ele>230.04</ele>
        <time>2021-04-20T16:59:35Z</time>
      </trkpt>
      <trkpt lat="49.76791" lon="4.82039">
        <ele>229.93</ele>
        <time>2021-04-20T16:59:38Z</time>
      </trkpt>
      <trkpt lat="49.7679" lon="4.82033">
        <ele>229.89</ele>
        <time>2021-04-20T16:59:41Z</time>
      </trkpt>
      <trkpt lat="49.76788" lon="4.82028">
        <ele>229.57</ele>
        <time>2021-04-20T16:59:44Z</time>
      </trkpt>
      <trkpt lat="49.76786" lon="4.82023">
        <ele>228.97</ele>
        <time>2021-04-20T16:59:47Z</time>
      </trkpt>
      <trkpt lat="49.76784" lon="4.82019">
        <ele>228.43</ele>
        <time>2021-04-20T16:59:49Z</time>
      </trkpt>
      <trkpt lat="49.76783" lon="4.82014">
        <ele>228.13</ele>
        <time>2021-04-20T16:59:51Z</time>
      </trkpt>
      <trkpt lat="49.76782" lon="4.82009">
        <ele>227.86</ele>
        <time>2021-04-20T16:59:53Z</time>
      </trkpt>
      <trkpt lat="49.76781" lon="4.82003">
        <ele>227.61</ele>
        <time>2021-04-20T16:59:56Z</time>
      </trkpt>
      <trkpt lat="49.7678" lon="4.81998">
        <ele>227.4</ele>
        <time>2021-04-20T16:59:59Z</time>
      </trkpt>
      <trkpt lat="49.76779" lon="4.81993">
        <ele>227.22</ele>
        <time>2021-04-20T17:00:03Z</time>
      </trkpt>
      <trkpt lat="49.76779" lon="4.81988">
        <ele>227.22</ele>
        <time>2021-04-20T17:00:06Z</time>
      </trkpt>
      <trkpt lat="49.7678" lon="4.81982">
        <ele>227.4</ele>
        <time>2021-04-20T17:00:09Z</time>
      </trkpt>
      <trkpt lat="49.76779" lon="4.81976">
        <ele>227.22</ele>
        <time>2021-04-20T17:00:12Z</time>
      </trkpt>
      <trkpt lat="49.76779" lon="4.81971">
        <ele>227.26</ele>
        <time>2021-04-20T17:00:15Z</time>
      </trkpt>
      <trkpt lat="49.76779" lon="4.81966">
        <ele>227.44</ele>
        <time>2021-04-20T17:00:17Z</time>
      </trkpt>
      <trkpt lat="49.76779" lon="4.8196">
        <ele>227.66</ele>
        <time>2021-04-20T17:00:20Z</time>
      </trkpt>
      <trkpt lat="49.76779" lon="4.81955">
        <ele>227.84</ele>
        <time>2021-04-20T17:00:22Z</time>
      </trkpt>
      <trkpt lat="49.76778" lon="4.81951">
        <ele>227.8</ele>
        <time>2021-04-20T17:00:24Z</time>
      </trkpt>
      <trkpt lat="49.76778" lon="4.81945">
        <ele>228.02</ele>
        <time>2021-04-20T17:00:27Z</time>
      </trkpt>
      <trkpt lat="49.76778" lon="4.81939">
        <ele>228.04</ele>
        <time>2021-04-20T17:00:30Z</time>
      </trkpt>
      <trkpt lat="49.76778" lon="4.81934">
        <ele>228.04</ele>
        <time>2021-04-20T17:00:32Z</time>
      </trkpt>
      <trkpt lat="49.76779" lon="4.81929">
        <ele>228.22</ele>
        <time>2021-04-20T17:00:35Z</time>
      </trkpt>
      <trkpt lat="49.7678" lon="4.81924">
        <ele>228.4</ele>
        <time>2021-04-20T17:00:37Z</time>
      </trkpt>
      <trkpt lat="49.76781" lon="4.81917">
        <ele>228.58</ele>
        <time>2021-04-20T17:00:39Z</time>
      </trkpt>
      <trkpt lat="49.76783" lon="4.81912">
        <ele>228.8</ele>
        <time>2021-04-20T17:00:41Z</time>
      </trkpt>
      <trkpt lat="49.76784" lon="4.81907">
        <ele>228.85</ele>
        <time>2021-04-20T17:00:42Z</time>
      </trkpt>
      <trkpt lat="49.76786" lon="4.819">
        <ele>229.06</ele>
        <time>2021-04-20T17:00:43Z</time>
      </trkpt>
      <trkpt lat="49.76787" lon="4.81891">
        <ele>229.04</ele>
        <time>2021-04-20T17:00:44Z</time>
      </trkpt>
      <trkpt lat="49.76787" lon="4.81884">
        <ele>229.05</ele>
        <time>2021-04-20T17:00:45Z</time>
      </trkpt>
      <trkpt lat="49.76788" lon="4.81877">
        <ele>229.32</ele>
        <time>2021-04-20T17:00:46Z</time>
      </trkpt>
      <trkpt lat="49.76789" lon="4.81871">
        <ele>229.55</ele>
        <time>2021-04-20T17:00:47Z</time>
      </trkpt>
      <trkpt lat="49.7679" lon="4.81866">
        <ele>229.74</ele>
        <time>2021-04-20T17:00:48Z</time>
      </trkpt>
      <trkpt lat="49.76791" lon="4.8186">
        <ele>229.93</ele>
        <time>2021-04-20T17:00:49Z</time>
      </trkpt>
      <trkpt lat="49.76791" lon="4.81855">
        <ele>230.03</ele>
        <time>2021-04-20T17:00:50Z</time>
      </trkpt>
      <trkpt lat="49.76792" lon="4.81849">
        <ele>230.25</ele>
        <time>2021-04-20T17:00:51Z</time>
      </trkpt>
      <trkpt lat="49.76793" lon="4.81845">
        <ele>230.4</ele>
        <time>2021-04-20T17:00:52Z</time>
      </trkpt>
      <trkpt lat="49.76793" lon="4.8184">
        <ele>230.46</ele>
        <time>2021-04-20T17:00:53Z</time>
      </trkpt>
      <trkpt lat="49.76793" lon="4.81835">
        <ele>230.53</ele>
        <time>2021-04-20T17:00:54Z</time>
      </trkpt>
      <trkpt lat="49.76792" lon="4.81827">
        <ele>230.4</ele>
        <time>2021-04-20T17:00:56Z</time>
      </trkpt>
      <trkpt lat="49.76792" lon="4.81823">
        <ele>230.33</ele>
        <time>2021-04-20T17:00:57Z</time>
      </trkpt>
      <trkpt lat="49.76791" lon="4.81818">
        <ele>230.19</ele>
        <time>2021-04-20T17:00:58Z</time>
      </trkpt>
      <trkpt lat="49.7679" lon="4.81814">
        <ele>230.05</ele>
        <time>2021-04-20T17:00:59Z</time>
      </trkpt>
      <trkpt lat="49.7679" lon="4.81808">
        <ele>229.93</ele>
        <time>2021-04-20T17:01:01Z</time>
      </trkpt>
      <trkpt lat="49.7679" lon="4.81804">
        <ele>229.87</ele>
        <time>2021-04-20T17:01:03Z</time>
      </trkpt>
      <trkpt lat="49.7679" lon="4.81798">
        <ele>229.85</ele>
        <time>2021-04-20T17:01:05Z</time>
      </trkpt>
      <trkpt lat="49.76789" lon="4.81793">
        <ele>229.72</ele>
        <time>2021-04-20T17:01:08Z</time>
      </trkpt>
      <trkpt lat="49.76787" lon="4.81789">
        <ele>229.46</ele>
        <time>2021-04-20T17:01:10Z</time>
      </trkpt>
      <trkpt lat="49.76786" lon="4.81784">
        <ele>229.28</ele>
        <time>2021-04-20T17:01:13Z</time>
      </trkpt>
      <trkpt lat="49.76785" lon="4.81778">
        <ele>229.04</ele>
        <time>2021-04-20T17:01:16Z</time>
      </trkpt>
      <trkpt lat="49.76784" lon="4.81773">
        <ele>228.8</ele>
        <time>2021-04-20T17:01:19Z</time>
      </trkpt>
      <trkpt lat="49.76783" lon="4.81768">
        <ele>228.53</ele>
        <time>2021-04-20T17:01:22Z</time>
      </trkpt>
      <trkpt lat="49.76782" lon="4.81763">
        <ele>228.24</ele>
        <time>2021-04-20T17:01:26Z</time>
      </trkpt>
      <trkpt lat="49.76782" lon="4.81758">
        <ele>228.11</ele>
        <time>2021-04-20T17:01:29Z</time>
      </trkpt>
      <trkpt lat="49.76782" lon="4.81752">
        <ele>227.96</ele>
        <time>2021-04-20T17:01:32Z</time>
      </trkpt>
      <trkpt lat="49.76783" lon="4.81747">
        <ele>228.39</ele>
        <time>2021-04-20T17:01:35Z</time>
      </trkpt>
      <trkpt lat="49.76784" lon="4.81742">
        <ele>229.01</ele>
        <time>2021-04-20T17:01:38Z</time>
      </trkpt>
      <trkpt lat="49.76786" lon="4.81738">
        <ele>229.69</ele>
        <time>2021-04-20T17:01:41Z</time>
      </trkpt>
      <trkpt lat="49.76787" lon="4.81733">
        <ele>230.22</ele>
        <time>2021-04-20T17:01:48Z</time>
      </trkpt>
      <trkpt lat="49.76788" lon="4.81729">
        <ele>230.64</ele>
        <time>2021-04-20T17:01:52Z</time>
      </trkpt>
      <trkpt lat="49.7679" lon="4.81725">
        <ele>231.15</ele>
        <time>2021-04-20T17:01:55Z</time>
      </trkpt>
      <trkpt lat="49.76792" lon="4.8172">
        <ele>231.57</ele>
        <time>2021-04-20T17:01:58Z</time>
      </trkpt>
      <trkpt lat="49.76794" lon="4.81717">
        <ele>231.8</ele>
        <time>2021-04-20T17:02:00Z</time>
      </trkpt>
      <trkpt lat="49.76796" lon="4.81713">
        <ele>231.98</ele>
        <time>2021-04-20T17:02:03Z</time>
      </trkpt>
      <trkpt lat="49.76799" lon="4.81711">
        <ele>232.17</ele>
        <time>2021-04-20T17:02:06Z</time>
      </trkpt>
      <trkpt lat="49.76802" lon="4.81707">
        <ele>232.28</ele>
        <time>2021-04-20T17:02:10Z</time>
      </trkpt>
      <trkpt lat="49.76803" lon="4.81704">
        <ele>232.25</ele>
        <time>2021-04-20T17:02:12Z</time>
      </trkpt>
      <trkpt lat="49.76805" lon="4.81699">
        <ele>232.15</ele>
        <time>2021-04-20T17:02:14Z</time>
      </trkpt>
      <trkpt lat="49.76806" lon="4.81694">
        <ele>232.03</ele>
        <time>2021-04-20T17:02:16Z</time>
      </trkpt>
      <trkpt lat="49.76807" lon="4.8169">
        <ele>232.21</ele>
        <time>2021-04-20T17:02:18Z</time>
      </trkpt>
      <trkpt lat="49.76808" lon="4.81685">
        <ele>232.43</ele>
        <time>2021-04-20T17:02:20Z</time>
      </trkpt>
      <trkpt lat="49.76811" lon="4.81679">
        <ele>232.75</ele>
        <time>2021-04-20T17:02:22Z</time>
      </trkpt>
      <trkpt lat="49.76813" lon="4.81674">
        <ele>233</ele>
        <time>2021-04-20T17:02:24Z</time>
      </trkpt>
      <trkpt lat="49.76816" lon="4.81668">
        <ele>233.33</ele>
        <time>2021-04-20T17:02:26Z</time>
      </trkpt>
      <trkpt lat="49.7682" lon="4.81663">
        <ele>233.65</ele>
        <time>2021-04-20T17:02:28Z</time>
      </trkpt>
      <trkpt lat="49.76821" lon="4.81655">
        <ele>233.93</ele>
        <time>2021-04-20T17:02:30Z</time>
      </trkpt>
      <trkpt lat="49.76821" lon="4.81649">
        <ele>234.12</ele>
        <time>2021-04-20T17:02:31Z</time>
      </trkpt>
      <trkpt lat="49.76818" lon="4.81644">
        <ele>234.35</ele>
        <time>2021-04-20T17:02:33Z</time>
      </trkpt>
      <trkpt lat="49.76816" lon="4.81641">
        <ele>234.53</ele>
        <time>2021-04-20T17:02:35Z</time>
      </trkpt>
      <trkpt lat="49.76814" lon="4.81637">
        <ele>234.65</ele>
        <time>2021-04-20T17:02:37Z</time>
      </trkpt>
      <trkpt lat="49.76811" lon="4.81635">
        <ele>234.69</ele>
        <time>2021-04-20T17:02:39Z</time>
      </trkpt>
      <trkpt lat="49.76809" lon="4.81633">
        <ele>234.69</ele>
        <time>2021-04-20T17:02:42Z</time>
      </trkpt>
      <trkpt lat="49.76806" lon="4.81631">
        <ele>234.7</ele>
        <time>2021-04-20T17:02:46Z</time>
      </trkpt>
      <trkpt lat="49.76805" lon="4.81627">
        <ele>234.56</ele>
        <time>2021-04-20T17:02:50Z</time>
      </trkpt>
      <trkpt lat="49.76802" lon="4.81625">
        <ele>234.44</ele>
        <time>2021-04-20T17:02:54Z</time>
      </trkpt>
      <trkpt lat="49.76798" lon="4.81624">
        <ele>234.34</ele>
        <time>2021-04-20T17:02:57Z</time>
      </trkpt>
      <trkpt lat="49.76796" lon="4.81622">
        <ele>234.26</ele>
        <time>2021-04-20T17:03:01Z</time>
      </trkpt>
    </trkseg>
  </trk>
</gpx>